<?xml version="1.0" encoding="utf-8"?>
<gpx xmlns:xsi="http://www.w3.org/2001/XMLSchema-instance" xmlns:xsd="http://www.w3.org/2001/XMLSchema" version="1.1" creator="Shapelink.com" xmlns="http://www.topografix.com/GPX/1/1" xmlns:gpxtpx="http://www.garmin.com/xmlschemas/TrackPointExtension/v1">
  <metadata>
    <name>Bicicleta de montaña 10.56 km, 2019-10-13</name>
    <desc></desc>
    <author><name>Peter Littke</name></author> 
    <time>2019-10-13T14:28:41Z</time>
  </metadata>
  <trk>
    <name>Bicicleta de montaña 10.56 km, 2019-10-13</name>
    <trkseg>
      <trkpt lat="59.173588" lon="18.143557">
        <ele>69</ele>
        <time>2019-10-13T14:28:41Z</time>
      </trkpt>
      <trkpt lat="59.173692" lon="18.143603">
        <ele>65</ele>
        <time>2019-10-13T14:28:50Z</time>
      </trkpt>
      <trkpt lat="59.173716" lon="18.143623">
        <ele>64</ele>
        <time>2019-10-13T14:28:52Z</time>
      </trkpt>
      <trkpt lat="59.173736" lon="18.143625">
        <ele>62</ele>
        <time>2019-10-13T14:28:55Z</time>
      </trkpt>
      <trkpt lat="59.173759" lon="18.143641">
        <ele>60</ele>
        <time>2019-10-13T14:28:57Z</time>
      </trkpt>
      <trkpt lat="59.173789" lon="18.143662">
        <ele>58</ele>
        <time>2019-10-13T14:28:59Z</time>
      </trkpt>
      <trkpt lat="59.173807" lon="18.143674">
        <ele>0</ele>
        <time>2019-10-13T14:28:59Z</time>
      </trkpt>
      <trkpt lat="59.173828" lon="18.143683">
        <ele>56</ele>
        <time>2019-10-13T14:29:02Z</time>
      </trkpt>
      <trkpt lat="59.173842" lon="18.143704">
        <ele>57</ele>
        <time>2019-10-13T14:29:06Z</time>
      </trkpt>
      <trkpt lat="59.173847" lon="18.143707">
        <ele>0</ele>
        <time>2019-10-13T14:29:07Z</time>
      </trkpt>
      <trkpt lat="59.173892" lon="18.143647">
        <ele>59</ele>
        <time>2019-10-13T14:29:24Z</time>
      </trkpt>
      <trkpt lat="59.173906" lon="18.14362">
        <ele>59</ele>
        <time>2019-10-13T14:29:27Z</time>
      </trkpt>
      <trkpt lat="59.173893" lon="18.143585">
        <ele>60</ele>
        <time>2019-10-13T14:29:31Z</time>
      </trkpt>
      <trkpt lat="59.173873" lon="18.143579">
        <ele>60</ele>
        <time>2019-10-13T14:29:33Z</time>
      </trkpt>
      <trkpt lat="59.173848" lon="18.143573">
        <ele>61</ele>
        <time>2019-10-13T14:29:36Z</time>
      </trkpt>
      <trkpt lat="59.173828" lon="18.143576">
        <ele>60</ele>
        <time>2019-10-13T14:29:38Z</time>
      </trkpt>
      <trkpt lat="59.173808" lon="18.143578">
        <ele>60</ele>
        <time>2019-10-13T14:29:40Z</time>
      </trkpt>
      <trkpt lat="59.173834" lon="18.143585">
        <ele>60</ele>
        <time>2019-10-13T14:29:48Z</time>
      </trkpt>
      <trkpt lat="59.173856" lon="18.143567">
        <ele>60</ele>
        <time>2019-10-13T14:29:49Z</time>
      </trkpt>
      <trkpt lat="59.17388" lon="18.143543">
        <ele>0</ele>
        <time>2019-10-13T14:29:49Z</time>
      </trkpt>
      <trkpt lat="59.173901" lon="18.143508">
        <ele>60</ele>
        <time>2019-10-13T14:29:50Z</time>
      </trkpt>
      <trkpt lat="59.173914" lon="18.14346">
        <ele>60</ele>
        <time>2019-10-13T14:29:52Z</time>
      </trkpt>
      <trkpt lat="59.173921" lon="18.143405">
        <ele>59</ele>
        <time>2019-10-13T14:29:53Z</time>
      </trkpt>
      <trkpt lat="59.173925" lon="18.143354">
        <ele>59</ele>
        <time>2019-10-13T14:29:54Z</time>
      </trkpt>
      <trkpt lat="59.173927" lon="18.143304">
        <ele>59</ele>
        <time>2019-10-13T14:29:55Z</time>
      </trkpt>
      <trkpt lat="59.173934" lon="18.143258">
        <ele>59</ele>
        <time>2019-10-13T14:29:56Z</time>
      </trkpt>
      <trkpt lat="59.173938" lon="18.143215">
        <ele>59</ele>
        <time>2019-10-13T14:29:57Z</time>
      </trkpt>
      <trkpt lat="59.173938" lon="18.143178">
        <ele>59</ele>
        <time>2019-10-13T14:29:58Z</time>
      </trkpt>
      <trkpt lat="59.17394" lon="18.143117">
        <ele>58</ele>
        <time>2019-10-13T14:30:00Z</time>
      </trkpt>
      <trkpt lat="59.173953" lon="18.143062">
        <ele>0</ele>
        <time>2019-10-13T14:30:01Z</time>
      </trkpt>
      <trkpt lat="59.17397" lon="18.143042">
        <ele>58</ele>
        <time>2019-10-13T14:30:02Z</time>
      </trkpt>
      <trkpt lat="59.17399" lon="18.143033">
        <ele>58</ele>
        <time>2019-10-13T14:30:04Z</time>
      </trkpt>
      <trkpt lat="59.174012" lon="18.143032">
        <ele>58</ele>
        <time>2019-10-13T14:30:05Z</time>
      </trkpt>
      <trkpt lat="59.174036" lon="18.143037">
        <ele>57</ele>
        <time>2019-10-13T14:30:06Z</time>
      </trkpt>
      <trkpt lat="59.174064" lon="18.143045">
        <ele>57</ele>
        <time>2019-10-13T14:30:07Z</time>
      </trkpt>
      <trkpt lat="59.174095" lon="18.143055">
        <ele>56</ele>
        <time>2019-10-13T14:30:08Z</time>
      </trkpt>
      <trkpt lat="59.174129" lon="18.143068">
        <ele>56</ele>
        <time>2019-10-13T14:30:09Z</time>
      </trkpt>
      <trkpt lat="59.174166" lon="18.143085">
        <ele>0</ele>
        <time>2019-10-13T14:30:09Z</time>
      </trkpt>
      <trkpt lat="59.174207" lon="18.143101">
        <ele>56</ele>
        <time>2019-10-13T14:30:10Z</time>
      </trkpt>
      <trkpt lat="59.174247" lon="18.143116">
        <ele>55</ele>
        <time>2019-10-13T14:30:12Z</time>
      </trkpt>
      <trkpt lat="59.174287" lon="18.14313">
        <ele>55</ele>
        <time>2019-10-13T14:30:13Z</time>
      </trkpt>
      <trkpt lat="59.174325" lon="18.143145">
        <ele>55</ele>
        <time>2019-10-13T14:30:14Z</time>
      </trkpt>
      <trkpt lat="59.17436" lon="18.143159">
        <ele>54</ele>
        <time>2019-10-13T14:30:15Z</time>
      </trkpt>
      <trkpt lat="59.174394" lon="18.143174">
        <ele>54</ele>
        <time>2019-10-13T14:30:16Z</time>
      </trkpt>
      <trkpt lat="59.174429" lon="18.143189">
        <ele>54</ele>
        <time>2019-10-13T14:30:17Z</time>
      </trkpt>
      <trkpt lat="59.174465" lon="18.143205">
        <ele>53</ele>
        <time>2019-10-13T14:30:18Z</time>
      </trkpt>
      <trkpt lat="59.174503" lon="18.143221">
        <ele>53</ele>
        <time>2019-10-13T14:30:19Z</time>
      </trkpt>
      <trkpt lat="59.174542" lon="18.143236">
        <ele>53</ele>
        <time>2019-10-13T14:30:20Z</time>
      </trkpt>
      <trkpt lat="59.174584" lon="18.143249">
        <ele>0</ele>
        <time>2019-10-13T14:30:20Z</time>
      </trkpt>
      <trkpt lat="59.174625" lon="18.143264">
        <ele>53</ele>
        <time>2019-10-13T14:30:21Z</time>
      </trkpt>
      <trkpt lat="59.174664" lon="18.143283">
        <ele>0</ele>
        <time>2019-10-13T14:30:22Z</time>
      </trkpt>
      <trkpt lat="59.174701" lon="18.143303">
        <ele>52</ele>
        <time>2019-10-13T14:30:23Z</time>
      </trkpt>
      <trkpt lat="59.174733" lon="18.143325">
        <ele>52</ele>
        <time>2019-10-13T14:30:25Z</time>
      </trkpt>
      <trkpt lat="59.17476" lon="18.143347">
        <ele>52</ele>
        <time>2019-10-13T14:30:26Z</time>
      </trkpt>
      <trkpt lat="59.174785" lon="18.143364">
        <ele>52</ele>
        <time>2019-10-13T14:30:27Z</time>
      </trkpt>
      <trkpt lat="59.174811" lon="18.143382">
        <ele>51</ele>
        <time>2019-10-13T14:30:28Z</time>
      </trkpt>
      <trkpt lat="59.174835" lon="18.143407">
        <ele>51</ele>
        <time>2019-10-13T14:30:29Z</time>
      </trkpt>
      <trkpt lat="59.174855" lon="18.143435">
        <ele>51</ele>
        <time>2019-10-13T14:30:30Z</time>
      </trkpt>
      <trkpt lat="59.17487" lon="18.143454">
        <ele>51</ele>
        <time>2019-10-13T14:30:31Z</time>
      </trkpt>
      <trkpt lat="59.1749" lon="18.143461">
        <ele>51</ele>
        <time>2019-10-13T14:30:33Z</time>
      </trkpt>
      <trkpt lat="59.174923" lon="18.143418">
        <ele>51</ele>
        <time>2019-10-13T14:30:35Z</time>
      </trkpt>
      <trkpt lat="59.17493" lon="18.143385">
        <ele>51</ele>
        <time>2019-10-13T14:30:36Z</time>
      </trkpt>
      <trkpt lat="59.174942" lon="18.143349">
        <ele>51</ele>
        <time>2019-10-13T14:30:37Z</time>
      </trkpt>
      <trkpt lat="59.174957" lon="18.143316">
        <ele>51</ele>
        <time>2019-10-13T14:30:38Z</time>
      </trkpt>
      <trkpt lat="59.174973" lon="18.143285">
        <ele>51</ele>
        <time>2019-10-13T14:30:39Z</time>
      </trkpt>
      <trkpt lat="59.174991" lon="18.143258">
        <ele>0</ele>
        <time>2019-10-13T14:30:39Z</time>
      </trkpt>
      <trkpt lat="59.175012" lon="18.143235">
        <ele>50</ele>
        <time>2019-10-13T14:30:40Z</time>
      </trkpt>
      <trkpt lat="59.175035" lon="18.143211">
        <ele>50</ele>
        <time>2019-10-13T14:30:42Z</time>
      </trkpt>
      <trkpt lat="59.175058" lon="18.143182">
        <ele>50</ele>
        <time>2019-10-13T14:30:43Z</time>
      </trkpt>
      <trkpt lat="59.175082" lon="18.143147">
        <ele>0</ele>
        <time>2019-10-13T14:30:43Z</time>
      </trkpt>
      <trkpt lat="59.175106" lon="18.143105">
        <ele>50</ele>
        <time>2019-10-13T14:30:44Z</time>
      </trkpt>
      <trkpt lat="59.17513" lon="18.143059">
        <ele>50</ele>
        <time>2019-10-13T14:30:46Z</time>
      </trkpt>
      <trkpt lat="59.175152" lon="18.143011">
        <ele>50</ele>
        <time>2019-10-13T14:30:47Z</time>
      </trkpt>
      <trkpt lat="59.175175" lon="18.142963">
        <ele>50</ele>
        <time>2019-10-13T14:30:48Z</time>
      </trkpt>
      <trkpt lat="59.175196" lon="18.142914">
        <ele>50</ele>
        <time>2019-10-13T14:30:49Z</time>
      </trkpt>
      <trkpt lat="59.175217" lon="18.142866">
        <ele>50</ele>
        <time>2019-10-13T14:30:50Z</time>
      </trkpt>
      <trkpt lat="59.175237" lon="18.14282">
        <ele>50</ele>
        <time>2019-10-13T14:30:51Z</time>
      </trkpt>
      <trkpt lat="59.175256" lon="18.142782">
        <ele>50</ele>
        <time>2019-10-13T14:30:52Z</time>
      </trkpt>
      <trkpt lat="59.175275" lon="18.14275">
        <ele>50</ele>
        <time>2019-10-13T14:30:53Z</time>
      </trkpt>
      <trkpt lat="59.175295" lon="18.14272">
        <ele>50</ele>
        <time>2019-10-13T14:30:54Z</time>
      </trkpt>
      <trkpt lat="59.175317" lon="18.142689">
        <ele>49</ele>
        <time>2019-10-13T14:30:55Z</time>
      </trkpt>
      <trkpt lat="59.175338" lon="18.142654">
        <ele>49</ele>
        <time>2019-10-13T14:30:56Z</time>
      </trkpt>
      <trkpt lat="59.175357" lon="18.142614">
        <ele>49</ele>
        <time>2019-10-13T14:30:57Z</time>
      </trkpt>
      <trkpt lat="59.175374" lon="18.142569">
        <ele>49</ele>
        <time>2019-10-13T14:30:58Z</time>
      </trkpt>
      <trkpt lat="59.175391" lon="18.142526">
        <ele>0</ele>
        <time>2019-10-13T14:30:58Z</time>
      </trkpt>
      <trkpt lat="59.175409" lon="18.142484">
        <ele>49</ele>
        <time>2019-10-13T14:30:59Z</time>
      </trkpt>
      <trkpt lat="59.175427" lon="18.142443">
        <ele>0</ele>
        <time>2019-10-13T14:31:00Z</time>
      </trkpt>
      <trkpt lat="59.175445" lon="18.142402">
        <ele>48</ele>
        <time>2019-10-13T14:31:01Z</time>
      </trkpt>
      <trkpt lat="59.175462" lon="18.142361">
        <ele>48</ele>
        <time>2019-10-13T14:31:03Z</time>
      </trkpt>
      <trkpt lat="59.17548" lon="18.142317">
        <ele>48</ele>
        <time>2019-10-13T14:31:04Z</time>
      </trkpt>
      <trkpt lat="59.175498" lon="18.14227">
        <ele>47</ele>
        <time>2019-10-13T14:31:05Z</time>
      </trkpt>
      <trkpt lat="59.17551" lon="18.142216">
        <ele>47</ele>
        <time>2019-10-13T14:31:06Z</time>
      </trkpt>
      <trkpt lat="59.175519" lon="18.14216">
        <ele>47</ele>
        <time>2019-10-13T14:31:07Z</time>
      </trkpt>
      <trkpt lat="59.175526" lon="18.142104">
        <ele>46</ele>
        <time>2019-10-13T14:31:08Z</time>
      </trkpt>
      <trkpt lat="59.175531" lon="18.14205">
        <ele>46</ele>
        <time>2019-10-13T14:31:09Z</time>
      </trkpt>
      <trkpt lat="59.175533" lon="18.141999">
        <ele>46</ele>
        <time>2019-10-13T14:31:10Z</time>
      </trkpt>
      <trkpt lat="59.175534" lon="18.14195">
        <ele>46</ele>
        <time>2019-10-13T14:31:11Z</time>
      </trkpt>
      <trkpt lat="59.175533" lon="18.141903">
        <ele>45</ele>
        <time>2019-10-13T14:31:12Z</time>
      </trkpt>
      <trkpt lat="59.17553" lon="18.141859">
        <ele>45</ele>
        <time>2019-10-13T14:31:13Z</time>
      </trkpt>
      <trkpt lat="59.175524" lon="18.141817">
        <ele>45</ele>
        <time>2019-10-13T14:31:14Z</time>
      </trkpt>
      <trkpt lat="59.175518" lon="18.141779">
        <ele>45</ele>
        <time>2019-10-13T14:31:15Z</time>
      </trkpt>
      <trkpt lat="59.175511" lon="18.141745">
        <ele>45</ele>
        <time>2019-10-13T14:31:16Z</time>
      </trkpt>
      <trkpt lat="59.175504" lon="18.141711">
        <ele>45</ele>
        <time>2019-10-13T14:31:17Z</time>
      </trkpt>
      <trkpt lat="59.175494" lon="18.141648">
        <ele>45</ele>
        <time>2019-10-13T14:31:18Z</time>
      </trkpt>
      <trkpt lat="59.175492" lon="18.141577">
        <ele>44</ele>
        <time>2019-10-13T14:31:21Z</time>
      </trkpt>
      <trkpt lat="59.175499" lon="18.141539">
        <ele>44</ele>
        <time>2019-10-13T14:31:22Z</time>
      </trkpt>
      <trkpt lat="59.175512" lon="18.141504">
        <ele>44</ele>
        <time>2019-10-13T14:31:23Z</time>
      </trkpt>
      <trkpt lat="59.175525" lon="18.141469">
        <ele>44</ele>
        <time>2019-10-13T14:31:24Z</time>
      </trkpt>
      <trkpt lat="59.175539" lon="18.141431">
        <ele>44</ele>
        <time>2019-10-13T14:31:25Z</time>
      </trkpt>
      <trkpt lat="59.175553" lon="18.141393">
        <ele>44</ele>
        <time>2019-10-13T14:31:26Z</time>
      </trkpt>
      <trkpt lat="59.175566" lon="18.141351">
        <ele>43</ele>
        <time>2019-10-13T14:31:27Z</time>
      </trkpt>
      <trkpt lat="59.175577" lon="18.141306">
        <ele>43</ele>
        <time>2019-10-13T14:31:28Z</time>
      </trkpt>
      <trkpt lat="59.175579" lon="18.141259">
        <ele>43</ele>
        <time>2019-10-13T14:31:29Z</time>
      </trkpt>
      <trkpt lat="59.175569" lon="18.141222">
        <ele>43</ele>
        <time>2019-10-13T14:31:30Z</time>
      </trkpt>
      <trkpt lat="59.175553" lon="18.141197">
        <ele>43</ele>
        <time>2019-10-13T14:31:31Z</time>
      </trkpt>
      <trkpt lat="59.175532" lon="18.141174">
        <ele>43</ele>
        <time>2019-10-13T14:31:32Z</time>
      </trkpt>
      <trkpt lat="59.175509" lon="18.141151">
        <ele>43</ele>
        <time>2019-10-13T14:31:33Z</time>
      </trkpt>
      <trkpt lat="59.175484" lon="18.141127">
        <ele>43</ele>
        <time>2019-10-13T14:31:34Z</time>
      </trkpt>
      <trkpt lat="59.17546" lon="18.141102">
        <ele>43</ele>
        <time>2019-10-13T14:31:35Z</time>
      </trkpt>
      <trkpt lat="59.175436" lon="18.141072">
        <ele>43</ele>
        <time>2019-10-13T14:31:36Z</time>
      </trkpt>
      <trkpt lat="59.175412" lon="18.141039">
        <ele>0</ele>
        <time>2019-10-13T14:31:36Z</time>
      </trkpt>
      <trkpt lat="59.175391" lon="18.141004">
        <ele>43</ele>
        <time>2019-10-13T14:31:37Z</time>
      </trkpt>
      <trkpt lat="59.175368" lon="18.140976">
        <ele>43</ele>
        <time>2019-10-13T14:31:39Z</time>
      </trkpt>
      <trkpt lat="59.175344" lon="18.140954">
        <ele>43</ele>
        <time>2019-10-13T14:31:40Z</time>
      </trkpt>
      <trkpt lat="59.175322" lon="18.140931">
        <ele>43</ele>
        <time>2019-10-13T14:31:41Z</time>
      </trkpt>
      <trkpt lat="59.175301" lon="18.140906">
        <ele>0</ele>
        <time>2019-10-13T14:31:41Z</time>
      </trkpt>
      <trkpt lat="59.17528" lon="18.14088">
        <ele>43</ele>
        <time>2019-10-13T14:31:42Z</time>
      </trkpt>
      <trkpt lat="59.175259" lon="18.140853">
        <ele>43</ele>
        <time>2019-10-13T14:31:44Z</time>
      </trkpt>
      <trkpt lat="59.175239" lon="18.140826">
        <ele>43</ele>
        <time>2019-10-13T14:31:45Z</time>
      </trkpt>
      <trkpt lat="59.175219" lon="18.140801">
        <ele>43</ele>
        <time>2019-10-13T14:31:46Z</time>
      </trkpt>
      <trkpt lat="59.1752" lon="18.140777">
        <ele>43</ele>
        <time>2019-10-13T14:31:47Z</time>
      </trkpt>
      <trkpt lat="59.175181" lon="18.140753">
        <ele>43</ele>
        <time>2019-10-13T14:31:48Z</time>
      </trkpt>
      <trkpt lat="59.175162" lon="18.14073">
        <ele>43</ele>
        <time>2019-10-13T14:31:49Z</time>
      </trkpt>
      <trkpt lat="59.175142" lon="18.140706">
        <ele>43</ele>
        <time>2019-10-13T14:31:50Z</time>
      </trkpt>
      <trkpt lat="59.175122" lon="18.140684">
        <ele>43</ele>
        <time>2019-10-13T14:31:51Z</time>
      </trkpt>
      <trkpt lat="59.175104" lon="18.140661">
        <ele>43</ele>
        <time>2019-10-13T14:31:52Z</time>
      </trkpt>
      <trkpt lat="59.175085" lon="18.140638">
        <ele>43</ele>
        <time>2019-10-13T14:31:53Z</time>
      </trkpt>
      <trkpt lat="59.175066" lon="18.140616">
        <ele>43</ele>
        <time>2019-10-13T14:31:54Z</time>
      </trkpt>
      <trkpt lat="59.175047" lon="18.140595">
        <ele>43</ele>
        <time>2019-10-13T14:31:55Z</time>
      </trkpt>
      <trkpt lat="59.175029" lon="18.140576">
        <ele>0</ele>
        <time>2019-10-13T14:31:55Z</time>
      </trkpt>
      <trkpt lat="59.175011" lon="18.140556">
        <ele>44</ele>
        <time>2019-10-13T14:31:56Z</time>
      </trkpt>
      <trkpt lat="59.174992" lon="18.140538">
        <ele>43</ele>
        <time>2019-10-13T14:31:58Z</time>
      </trkpt>
      <trkpt lat="59.174973" lon="18.140518">
        <ele>43</ele>
        <time>2019-10-13T14:31:59Z</time>
      </trkpt>
      <trkpt lat="59.174955" lon="18.140497">
        <ele>44</ele>
        <time>2019-10-13T14:32:00Z</time>
      </trkpt>
      <trkpt lat="59.174937" lon="18.140479">
        <ele>44</ele>
        <time>2019-10-13T14:32:01Z</time>
      </trkpt>
      <trkpt lat="59.17492" lon="18.140464">
        <ele>44</ele>
        <time>2019-10-13T14:32:02Z</time>
      </trkpt>
      <trkpt lat="59.174887" lon="18.140435">
        <ele>43</ele>
        <time>2019-10-13T14:32:04Z</time>
      </trkpt>
      <trkpt lat="59.17487" lon="18.14042">
        <ele>0</ele>
        <time>2019-10-13T14:32:04Z</time>
      </trkpt>
      <trkpt lat="59.174854" lon="18.140405">
        <ele>43</ele>
        <time>2019-10-13T14:32:05Z</time>
      </trkpt>
      <trkpt lat="59.174837" lon="18.140389">
        <ele>43</ele>
        <time>2019-10-13T14:32:07Z</time>
      </trkpt>
      <trkpt lat="59.174819" lon="18.140374">
        <ele>43</ele>
        <time>2019-10-13T14:32:08Z</time>
      </trkpt>
      <trkpt lat="59.174802" lon="18.140357">
        <ele>44</ele>
        <time>2019-10-13T14:32:09Z</time>
      </trkpt>
      <trkpt lat="59.174785" lon="18.14034">
        <ele>44</ele>
        <time>2019-10-13T14:32:10Z</time>
      </trkpt>
      <trkpt lat="59.174767" lon="18.140325">
        <ele>44</ele>
        <time>2019-10-13T14:32:11Z</time>
      </trkpt>
      <trkpt lat="59.17475" lon="18.140309">
        <ele>44</ele>
        <time>2019-10-13T14:32:12Z</time>
      </trkpt>
      <trkpt lat="59.174732" lon="18.140293">
        <ele>44</ele>
        <time>2019-10-13T14:32:13Z</time>
      </trkpt>
      <trkpt lat="59.174713" lon="18.140277">
        <ele>44</ele>
        <time>2019-10-13T14:32:14Z</time>
      </trkpt>
      <trkpt lat="59.174696" lon="18.140255">
        <ele>0</ele>
        <time>2019-10-13T14:32:14Z</time>
      </trkpt>
      <trkpt lat="59.174683" lon="18.140225">
        <ele>44</ele>
        <time>2019-10-13T14:32:15Z</time>
      </trkpt>
      <trkpt lat="59.174676" lon="18.140191">
        <ele>44</ele>
        <time>2019-10-13T14:32:17Z</time>
      </trkpt>
      <trkpt lat="59.174671" lon="18.140128">
        <ele>44</ele>
        <time>2019-10-13T14:32:19Z</time>
      </trkpt>
      <trkpt lat="59.174671" lon="18.14006">
        <ele>44</ele>
        <time>2019-10-13T14:32:21Z</time>
      </trkpt>
      <trkpt lat="59.174673" lon="18.140022">
        <ele>44</ele>
        <time>2019-10-13T14:32:22Z</time>
      </trkpt>
      <trkpt lat="59.174675" lon="18.13998">
        <ele>44</ele>
        <time>2019-10-13T14:32:23Z</time>
      </trkpt>
      <trkpt lat="59.174676" lon="18.139935">
        <ele>44</ele>
        <time>2019-10-13T14:32:24Z</time>
      </trkpt>
      <trkpt lat="59.174679" lon="18.139888">
        <ele>44</ele>
        <time>2019-10-13T14:32:25Z</time>
      </trkpt>
      <trkpt lat="59.174683" lon="18.139841">
        <ele>44</ele>
        <time>2019-10-13T14:32:26Z</time>
      </trkpt>
      <trkpt lat="59.174688" lon="18.139794">
        <ele>44</ele>
        <time>2019-10-13T14:32:27Z</time>
      </trkpt>
      <trkpt lat="59.174695" lon="18.139747">
        <ele>44</ele>
        <time>2019-10-13T14:32:28Z</time>
      </trkpt>
      <trkpt lat="59.174701" lon="18.139697">
        <ele>0</ele>
        <time>2019-10-13T14:32:28Z</time>
      </trkpt>
      <trkpt lat="59.174708" lon="18.139648">
        <ele>45</ele>
        <time>2019-10-13T14:32:29Z</time>
      </trkpt>
      <trkpt lat="59.174714" lon="18.139601">
        <ele>45</ele>
        <time>2019-10-13T14:32:31Z</time>
      </trkpt>
      <trkpt lat="59.174721" lon="18.139557">
        <ele>45</ele>
        <time>2019-10-13T14:32:32Z</time>
      </trkpt>
      <trkpt lat="59.174729" lon="18.139511">
        <ele>45</ele>
        <time>2019-10-13T14:32:33Z</time>
      </trkpt>
      <trkpt lat="59.174736" lon="18.139464">
        <ele>0</ele>
        <time>2019-10-13T14:32:33Z</time>
      </trkpt>
      <trkpt lat="59.174741" lon="18.139414">
        <ele>45</ele>
        <time>2019-10-13T14:32:34Z</time>
      </trkpt>
      <trkpt lat="59.174746" lon="18.139361">
        <ele>46</ele>
        <time>2019-10-13T14:32:36Z</time>
      </trkpt>
      <trkpt lat="59.17475" lon="18.139303">
        <ele>45</ele>
        <time>2019-10-13T14:32:37Z</time>
      </trkpt>
      <trkpt lat="59.174755" lon="18.139244">
        <ele>45</ele>
        <time>2019-10-13T14:32:38Z</time>
      </trkpt>
      <trkpt lat="59.174753" lon="18.139189">
        <ele>46</ele>
        <time>2019-10-13T14:32:39Z</time>
      </trkpt>
      <trkpt lat="59.174742" lon="18.139144">
        <ele>46</ele>
        <time>2019-10-13T14:32:40Z</time>
      </trkpt>
      <trkpt lat="59.174724" lon="18.139114">
        <ele>46</ele>
        <time>2019-10-13T14:32:41Z</time>
      </trkpt>
      <trkpt lat="59.174703" lon="18.139099">
        <ele>46</ele>
        <time>2019-10-13T14:32:42Z</time>
      </trkpt>
      <trkpt lat="59.174679" lon="18.139092">
        <ele>46</ele>
        <time>2019-10-13T14:32:43Z</time>
      </trkpt>
      <trkpt lat="59.174661" lon="18.139093">
        <ele>46</ele>
        <time>2019-10-13T14:32:44Z</time>
      </trkpt>
      <trkpt lat="59.174627" lon="18.139106">
        <ele>46</ele>
        <time>2019-10-13T14:32:46Z</time>
      </trkpt>
      <trkpt lat="59.174608" lon="18.139115">
        <ele>47</ele>
        <time>2019-10-13T14:32:47Z</time>
      </trkpt>
      <trkpt lat="59.174585" lon="18.139115">
        <ele>47</ele>
        <time>2019-10-13T14:32:48Z</time>
      </trkpt>
      <trkpt lat="59.174564" lon="18.139109">
        <ele>47</ele>
        <time>2019-10-13T14:32:49Z</time>
      </trkpt>
      <trkpt lat="59.174539" lon="18.139106">
        <ele>0</ele>
        <time>2019-10-13T14:32:49Z</time>
      </trkpt>
      <trkpt lat="59.174512" lon="18.1391">
        <ele>47</ele>
        <time>2019-10-13T14:32:50Z</time>
      </trkpt>
      <trkpt lat="59.174488" lon="18.139084">
        <ele>47</ele>
        <time>2019-10-13T14:32:52Z</time>
      </trkpt>
      <trkpt lat="59.174464" lon="18.139065">
        <ele>0</ele>
        <time>2019-10-13T14:32:52Z</time>
      </trkpt>
      <trkpt lat="59.174441" lon="18.139043">
        <ele>46</ele>
        <time>2019-10-13T14:32:53Z</time>
      </trkpt>
      <trkpt lat="59.174415" lon="18.139021">
        <ele>47</ele>
        <time>2019-10-13T14:32:55Z</time>
      </trkpt>
      <trkpt lat="59.174391" lon="18.139002">
        <ele>47</ele>
        <time>2019-10-13T14:32:56Z</time>
      </trkpt>
      <trkpt lat="59.174365" lon="18.13898">
        <ele>47</ele>
        <time>2019-10-13T14:32:57Z</time>
      </trkpt>
      <trkpt lat="59.174341" lon="18.138956">
        <ele>48</ele>
        <time>2019-10-13T14:32:58Z</time>
      </trkpt>
      <trkpt lat="59.17432" lon="18.138943">
        <ele>48</ele>
        <time>2019-10-13T14:32:59Z</time>
      </trkpt>
      <trkpt lat="59.174288" lon="18.138929">
        <ele>48</ele>
        <time>2019-10-13T14:33:00Z</time>
      </trkpt>
      <trkpt lat="59.174261" lon="18.138915">
        <ele>48</ele>
        <time>2019-10-13T14:33:01Z</time>
      </trkpt>
      <trkpt lat="59.174236" lon="18.138905">
        <ele>48</ele>
        <time>2019-10-13T14:33:02Z</time>
      </trkpt>
      <trkpt lat="59.174212" lon="18.138903">
        <ele>49</ele>
        <time>2019-10-13T14:33:03Z</time>
      </trkpt>
      <trkpt lat="59.174189" lon="18.138904">
        <ele>49</ele>
        <time>2019-10-13T14:33:04Z</time>
      </trkpt>
      <trkpt lat="59.174165" lon="18.138903">
        <ele>49</ele>
        <time>2019-10-13T14:33:05Z</time>
      </trkpt>
      <trkpt lat="59.174141" lon="18.138903">
        <ele>49</ele>
        <time>2019-10-13T14:33:06Z</time>
      </trkpt>
      <trkpt lat="59.174122" lon="18.138906">
        <ele>49</ele>
        <time>2019-10-13T14:33:07Z</time>
      </trkpt>
      <trkpt lat="59.1741" lon="18.138912">
        <ele>49</ele>
        <time>2019-10-13T14:33:08Z</time>
      </trkpt>
      <trkpt lat="59.174064" lon="18.138914">
        <ele>49</ele>
        <time>2019-10-13T14:33:10Z</time>
      </trkpt>
      <trkpt lat="59.174045" lon="18.138916">
        <ele>0</ele>
        <time>2019-10-13T14:33:10Z</time>
      </trkpt>
      <trkpt lat="59.174024" lon="18.138908">
        <ele>49</ele>
        <time>2019-10-13T14:33:11Z</time>
      </trkpt>
      <trkpt lat="59.174001" lon="18.138902">
        <ele>49</ele>
        <time>2019-10-13T14:33:12Z</time>
      </trkpt>
      <trkpt lat="59.17398" lon="18.138889">
        <ele>50</ele>
        <time>2019-10-13T14:33:14Z</time>
      </trkpt>
      <trkpt lat="59.173959" lon="18.138868">
        <ele>50</ele>
        <time>2019-10-13T14:33:15Z</time>
      </trkpt>
      <trkpt lat="59.173936" lon="18.138844">
        <ele>50</ele>
        <time>2019-10-13T14:33:16Z</time>
      </trkpt>
      <trkpt lat="59.173916" lon="18.138822">
        <ele>50</ele>
        <time>2019-10-13T14:33:17Z</time>
      </trkpt>
      <trkpt lat="59.173897" lon="18.1388">
        <ele>50</ele>
        <time>2019-10-13T14:33:18Z</time>
      </trkpt>
      <trkpt lat="59.173875" lon="18.138779">
        <ele>50</ele>
        <time>2019-10-13T14:33:19Z</time>
      </trkpt>
      <trkpt lat="59.173854" lon="18.138758">
        <ele>50</ele>
        <time>2019-10-13T14:33:20Z</time>
      </trkpt>
      <trkpt lat="59.173832" lon="18.138736">
        <ele>50</ele>
        <time>2019-10-13T14:33:21Z</time>
      </trkpt>
      <trkpt lat="59.173809" lon="18.138712">
        <ele>50</ele>
        <time>2019-10-13T14:33:22Z</time>
      </trkpt>
      <trkpt lat="59.173787" lon="18.138698">
        <ele>50</ele>
        <time>2019-10-13T14:33:23Z</time>
      </trkpt>
      <trkpt lat="59.173765" lon="18.138684">
        <ele>50</ele>
        <time>2019-10-13T14:33:24Z</time>
      </trkpt>
      <trkpt lat="59.173743" lon="18.138668">
        <ele>50</ele>
        <time>2019-10-13T14:33:25Z</time>
      </trkpt>
      <trkpt lat="59.173721" lon="18.138656">
        <ele>50</ele>
        <time>2019-10-13T14:33:26Z</time>
      </trkpt>
      <trkpt lat="59.173701" lon="18.138644">
        <ele>50</ele>
        <time>2019-10-13T14:33:27Z</time>
      </trkpt>
      <trkpt lat="59.173681" lon="18.13863">
        <ele>50</ele>
        <time>2019-10-13T14:33:28Z</time>
      </trkpt>
      <trkpt lat="59.17366" lon="18.138618">
        <ele>50</ele>
        <time>2019-10-13T14:33:29Z</time>
      </trkpt>
      <trkpt lat="59.173637" lon="18.138605">
        <ele>50</ele>
        <time>2019-10-13T14:33:30Z</time>
      </trkpt>
      <trkpt lat="59.173612" lon="18.138588">
        <ele>0</ele>
        <time>2019-10-13T14:33:30Z</time>
      </trkpt>
      <trkpt lat="59.173586" lon="18.13857">
        <ele>50</ele>
        <time>2019-10-13T14:33:31Z</time>
      </trkpt>
      <trkpt lat="59.173562" lon="18.138547">
        <ele>50</ele>
        <time>2019-10-13T14:33:32Z</time>
      </trkpt>
      <trkpt lat="59.173538" lon="18.13853">
        <ele>50</ele>
        <time>2019-10-13T14:33:34Z</time>
      </trkpt>
      <trkpt lat="59.173513" lon="18.138508">
        <ele>50</ele>
        <time>2019-10-13T14:33:35Z</time>
      </trkpt>
      <trkpt lat="59.173488" lon="18.138484">
        <ele>50</ele>
        <time>2019-10-13T14:33:36Z</time>
      </trkpt>
      <trkpt lat="59.173463" lon="18.138457">
        <ele>50</ele>
        <time>2019-10-13T14:33:37Z</time>
      </trkpt>
      <trkpt lat="59.173437" lon="18.138428">
        <ele>50</ele>
        <time>2019-10-13T14:33:38Z</time>
      </trkpt>
      <trkpt lat="59.173412" lon="18.1384">
        <ele>50</ele>
        <time>2019-10-13T14:33:39Z</time>
      </trkpt>
      <trkpt lat="59.173386" lon="18.138374">
        <ele>50</ele>
        <time>2019-10-13T14:33:40Z</time>
      </trkpt>
      <trkpt lat="59.173358" lon="18.138348">
        <ele>50</ele>
        <time>2019-10-13T14:33:41Z</time>
      </trkpt>
      <trkpt lat="59.173329" lon="18.138319">
        <ele>50</ele>
        <time>2019-10-13T14:33:42Z</time>
      </trkpt>
      <trkpt lat="59.173298" lon="18.13829">
        <ele>50</ele>
        <time>2019-10-13T14:33:43Z</time>
      </trkpt>
      <trkpt lat="59.173266" lon="18.138262">
        <ele>50</ele>
        <time>2019-10-13T14:33:44Z</time>
      </trkpt>
      <trkpt lat="59.173234" lon="18.138238">
        <ele>50</ele>
        <time>2019-10-13T14:33:45Z</time>
      </trkpt>
      <trkpt lat="59.173201" lon="18.138215">
        <ele>50</ele>
        <time>2019-10-13T14:33:46Z</time>
      </trkpt>
      <trkpt lat="59.173168" lon="18.13819">
        <ele>0</ele>
        <time>2019-10-13T14:33:46Z</time>
      </trkpt>
      <trkpt lat="59.173132" lon="18.13817">
        <ele>50</ele>
        <time>2019-10-13T14:33:47Z</time>
      </trkpt>
      <trkpt lat="59.173093" lon="18.138148">
        <ele>50</ele>
        <time>2019-10-13T14:33:49Z</time>
      </trkpt>
      <trkpt lat="59.173052" lon="18.138125">
        <ele>0</ele>
        <time>2019-10-13T14:33:49Z</time>
      </trkpt>
      <trkpt lat="59.173009" lon="18.1381">
        <ele>50</ele>
        <time>2019-10-13T14:33:50Z</time>
      </trkpt>
      <trkpt lat="59.172963" lon="18.138074">
        <ele>49</ele>
        <time>2019-10-13T14:33:52Z</time>
      </trkpt>
      <trkpt lat="59.172916" lon="18.138044">
        <ele>49</ele>
        <time>2019-10-13T14:33:53Z</time>
      </trkpt>
      <trkpt lat="59.172864" lon="18.13801">
        <ele>49</ele>
        <time>2019-10-13T14:33:54Z</time>
      </trkpt>
      <trkpt lat="59.172811" lon="18.137982">
        <ele>48</ele>
        <time>2019-10-13T14:33:55Z</time>
      </trkpt>
      <trkpt lat="59.172755" lon="18.137956">
        <ele>48</ele>
        <time>2019-10-13T14:33:56Z</time>
      </trkpt>
      <trkpt lat="59.172698" lon="18.137928">
        <ele>0</ele>
        <time>2019-10-13T14:33:56Z</time>
      </trkpt>
      <trkpt lat="59.172638" lon="18.137898">
        <ele>48</ele>
        <time>2019-10-13T14:33:57Z</time>
      </trkpt>
      <trkpt lat="59.172577" lon="18.137867">
        <ele>48</ele>
        <time>2019-10-13T14:33:59Z</time>
      </trkpt>
      <trkpt lat="59.172518" lon="18.137835">
        <ele>48</ele>
        <time>2019-10-13T14:34:00Z</time>
      </trkpt>
      <trkpt lat="59.172455" lon="18.137806">
        <ele>47</ele>
        <time>2019-10-13T14:34:01Z</time>
      </trkpt>
      <trkpt lat="59.172393" lon="18.137774">
        <ele>47</ele>
        <time>2019-10-13T14:34:02Z</time>
      </trkpt>
      <trkpt lat="59.17233" lon="18.13774">
        <ele>47</ele>
        <time>2019-10-13T14:34:03Z</time>
      </trkpt>
      <trkpt lat="59.172265" lon="18.137707">
        <ele>46</ele>
        <time>2019-10-13T14:34:04Z</time>
      </trkpt>
      <trkpt lat="59.172199" lon="18.137677">
        <ele>0</ele>
        <time>2019-10-13T14:34:04Z</time>
      </trkpt>
      <trkpt lat="59.172141" lon="18.137648">
        <ele>46</ele>
        <time>2019-10-13T14:34:05Z</time>
      </trkpt>
      <trkpt lat="59.172084" lon="18.137623">
        <ele>45</ele>
        <time>2019-10-13T14:34:07Z</time>
      </trkpt>
      <trkpt lat="59.17203" lon="18.137599">
        <ele>45</ele>
        <time>2019-10-13T14:34:08Z</time>
      </trkpt>
      <trkpt lat="59.171979" lon="18.137574">
        <ele>0</ele>
        <time>2019-10-13T14:34:08Z</time>
      </trkpt>
      <trkpt lat="59.171932" lon="18.137549">
        <ele>45</ele>
        <time>2019-10-13T14:34:09Z</time>
      </trkpt>
      <trkpt lat="59.171887" lon="18.137527">
        <ele>44</ele>
        <time>2019-10-13T14:34:11Z</time>
      </trkpt>
      <trkpt lat="59.171845" lon="18.137507">
        <ele>44</ele>
        <time>2019-10-13T14:34:12Z</time>
      </trkpt>
      <trkpt lat="59.171805" lon="18.137487">
        <ele>44</ele>
        <time>2019-10-13T14:34:13Z</time>
      </trkpt>
      <trkpt lat="59.171768" lon="18.137467">
        <ele>44</ele>
        <time>2019-10-13T14:34:14Z</time>
      </trkpt>
      <trkpt lat="59.171731" lon="18.137445">
        <ele>44</ele>
        <time>2019-10-13T14:34:15Z</time>
      </trkpt>
      <trkpt lat="59.171695" lon="18.137422">
        <ele>0</ele>
        <time>2019-10-13T14:34:15Z</time>
      </trkpt>
      <trkpt lat="59.171658" lon="18.137399">
        <ele>43</ele>
        <time>2019-10-13T14:34:16Z</time>
      </trkpt>
      <trkpt lat="59.17162" lon="18.137377">
        <ele>43</ele>
        <time>2019-10-13T14:34:18Z</time>
      </trkpt>
      <trkpt lat="59.171582" lon="18.137355">
        <ele>43</ele>
        <time>2019-10-13T14:34:19Z</time>
      </trkpt>
      <trkpt lat="59.171545" lon="18.137331">
        <ele>43</ele>
        <time>2019-10-13T14:34:20Z</time>
      </trkpt>
      <trkpt lat="59.171506" lon="18.137307">
        <ele>43</ele>
        <time>2019-10-13T14:34:21Z</time>
      </trkpt>
      <trkpt lat="59.171466" lon="18.137284">
        <ele>43</ele>
        <time>2019-10-13T14:34:22Z</time>
      </trkpt>
      <trkpt lat="59.171425" lon="18.13726">
        <ele>43</ele>
        <time>2019-10-13T14:34:23Z</time>
      </trkpt>
      <trkpt lat="59.171385" lon="18.137235">
        <ele>42</ele>
        <time>2019-10-13T14:34:24Z</time>
      </trkpt>
      <trkpt lat="59.171345" lon="18.137211">
        <ele>42</ele>
        <time>2019-10-13T14:34:25Z</time>
      </trkpt>
      <trkpt lat="59.171304" lon="18.137187">
        <ele>42</ele>
        <time>2019-10-13T14:34:26Z</time>
      </trkpt>
      <trkpt lat="59.171263" lon="18.137165">
        <ele>0</ele>
        <time>2019-10-13T14:34:26Z</time>
      </trkpt>
      <trkpt lat="59.171223" lon="18.137142">
        <ele>42</ele>
        <time>2019-10-13T14:34:27Z</time>
      </trkpt>
      <trkpt lat="59.171184" lon="18.137118">
        <ele>42</ele>
        <time>2019-10-13T14:34:28Z</time>
      </trkpt>
      <trkpt lat="59.171145" lon="18.137096">
        <ele>42</ele>
        <time>2019-10-13T14:34:30Z</time>
      </trkpt>
      <trkpt lat="59.171107" lon="18.137072">
        <ele>42</ele>
        <time>2019-10-13T14:34:31Z</time>
      </trkpt>
      <trkpt lat="59.171068" lon="18.13705">
        <ele>42</ele>
        <time>2019-10-13T14:34:32Z</time>
      </trkpt>
      <trkpt lat="59.171029" lon="18.137027">
        <ele>42</ele>
        <time>2019-10-13T14:34:33Z</time>
      </trkpt>
      <trkpt lat="59.17099" lon="18.137004">
        <ele>42</ele>
        <time>2019-10-13T14:34:34Z</time>
      </trkpt>
      <trkpt lat="59.170952" lon="18.136983">
        <ele>42</ele>
        <time>2019-10-13T14:34:35Z</time>
      </trkpt>
      <trkpt lat="59.170916" lon="18.136962">
        <ele>42</ele>
        <time>2019-10-13T14:34:36Z</time>
      </trkpt>
      <trkpt lat="59.170882" lon="18.136943">
        <ele>42</ele>
        <time>2019-10-13T14:34:37Z</time>
      </trkpt>
      <trkpt lat="59.170849" lon="18.136924">
        <ele>42</ele>
        <time>2019-10-13T14:34:38Z</time>
      </trkpt>
      <trkpt lat="59.170817" lon="18.136907">
        <ele>42</ele>
        <time>2019-10-13T14:34:39Z</time>
      </trkpt>
      <trkpt lat="59.170787" lon="18.13689">
        <ele>42</ele>
        <time>2019-10-13T14:34:40Z</time>
      </trkpt>
      <trkpt lat="59.170756" lon="18.136872">
        <ele>0</ele>
        <time>2019-10-13T14:34:40Z</time>
      </trkpt>
      <trkpt lat="59.170724" lon="18.136855">
        <ele>42</ele>
        <time>2019-10-13T14:34:41Z</time>
      </trkpt>
      <trkpt lat="59.170691" lon="18.136839">
        <ele>42</ele>
        <time>2019-10-13T14:34:43Z</time>
      </trkpt>
      <trkpt lat="59.170659" lon="18.136825">
        <ele>42</ele>
        <time>2019-10-13T14:34:44Z</time>
      </trkpt>
      <trkpt lat="59.170625" lon="18.136814">
        <ele>41</ele>
        <time>2019-10-13T14:34:45Z</time>
      </trkpt>
      <trkpt lat="59.17059" lon="18.136802">
        <ele>41</ele>
        <time>2019-10-13T14:34:46Z</time>
      </trkpt>
      <trkpt lat="59.170557" lon="18.136789">
        <ele>0</ele>
        <time>2019-10-13T14:34:46Z</time>
      </trkpt>
      <trkpt lat="59.170525" lon="18.136774">
        <ele>41</ele>
        <time>2019-10-13T14:34:47Z</time>
      </trkpt>
      <trkpt lat="59.170495" lon="18.136758">
        <ele>41</ele>
        <time>2019-10-13T14:34:49Z</time>
      </trkpt>
      <trkpt lat="59.170465" lon="18.136742">
        <ele>41</ele>
        <time>2019-10-13T14:34:50Z</time>
      </trkpt>
      <trkpt lat="59.170436" lon="18.136727">
        <ele>41</ele>
        <time>2019-10-13T14:34:51Z</time>
      </trkpt>
      <trkpt lat="59.170406" lon="18.136714">
        <ele>41</ele>
        <time>2019-10-13T14:34:52Z</time>
      </trkpt>
      <trkpt lat="59.170379" lon="18.136702">
        <ele>41</ele>
        <time>2019-10-13T14:34:53Z</time>
      </trkpt>
      <trkpt lat="59.170353" lon="18.136689">
        <ele>41</ele>
        <time>2019-10-13T14:34:54Z</time>
      </trkpt>
      <trkpt lat="59.170331" lon="18.136678">
        <ele>41</ele>
        <time>2019-10-13T14:34:55Z</time>
      </trkpt>
      <trkpt lat="59.170312" lon="18.136671">
        <ele>41</ele>
        <time>2019-10-13T14:34:56Z</time>
      </trkpt>
      <trkpt lat="59.170294" lon="18.136668">
        <ele>41</ele>
        <time>2019-10-13T14:34:57Z</time>
      </trkpt>
      <trkpt lat="59.170263" lon="18.136668">
        <ele>41</ele>
        <time>2019-10-13T14:34:59Z</time>
      </trkpt>
      <trkpt lat="59.170231" lon="18.136654">
        <ele>0</ele>
        <time>2019-10-13T14:35:00Z</time>
      </trkpt>
      <trkpt lat="59.170203" lon="18.136633">
        <ele>41</ele>
        <time>2019-10-13T14:35:03Z</time>
      </trkpt>
      <trkpt lat="59.170172" lon="18.136617">
        <ele>42</ele>
        <time>2019-10-13T14:35:05Z</time>
      </trkpt>
      <trkpt lat="59.170139" lon="18.1366">
        <ele>42</ele>
        <time>2019-10-13T14:35:06Z</time>
      </trkpt>
      <trkpt lat="59.170107" lon="18.136583">
        <ele>42</ele>
        <time>2019-10-13T14:35:09Z</time>
      </trkpt>
      <trkpt lat="59.17009" lon="18.136575">
        <ele>42</ele>
        <time>2019-10-13T14:35:10Z</time>
      </trkpt>
      <trkpt lat="59.170072" lon="18.136567">
        <ele>42</ele>
        <time>2019-10-13T14:35:11Z</time>
      </trkpt>
      <trkpt lat="59.170053" lon="18.136557">
        <ele>42</ele>
        <time>2019-10-13T14:35:12Z</time>
      </trkpt>
      <trkpt lat="59.170034" lon="18.136547">
        <ele>42</ele>
        <time>2019-10-13T14:35:13Z</time>
      </trkpt>
      <trkpt lat="59.170014" lon="18.136538">
        <ele>42</ele>
        <time>2019-10-13T14:35:14Z</time>
      </trkpt>
      <trkpt lat="59.169992" lon="18.136532">
        <ele>42</ele>
        <time>2019-10-13T14:35:15Z</time>
      </trkpt>
      <trkpt lat="59.169972" lon="18.136522">
        <ele>42</ele>
        <time>2019-10-13T14:35:16Z</time>
      </trkpt>
      <trkpt lat="59.169951" lon="18.136512">
        <ele>42</ele>
        <time>2019-10-13T14:35:17Z</time>
      </trkpt>
      <trkpt lat="59.16993" lon="18.136499">
        <ele>42</ele>
        <time>2019-10-13T14:35:18Z</time>
      </trkpt>
      <trkpt lat="59.169907" lon="18.136485">
        <ele>42</ele>
        <time>2019-10-13T14:35:19Z</time>
      </trkpt>
      <trkpt lat="59.169882" lon="18.136471">
        <ele>42</ele>
        <time>2019-10-13T14:35:20Z</time>
      </trkpt>
      <trkpt lat="59.169856" lon="18.136455">
        <ele>42</ele>
        <time>2019-10-13T14:35:21Z</time>
      </trkpt>
      <trkpt lat="59.169831" lon="18.136442">
        <ele>42</ele>
        <time>2019-10-13T14:35:22Z</time>
      </trkpt>
      <trkpt lat="59.169807" lon="18.136431">
        <ele>42</ele>
        <time>2019-10-13T14:35:23Z</time>
      </trkpt>
      <trkpt lat="59.169782" lon="18.136418">
        <ele>42</ele>
        <time>2019-10-13T14:35:24Z</time>
      </trkpt>
      <trkpt lat="59.169757" lon="18.136404">
        <ele>0</ele>
        <time>2019-10-13T14:35:24Z</time>
      </trkpt>
      <trkpt lat="59.16973" lon="18.136386">
        <ele>43</ele>
        <time>2019-10-13T14:35:25Z</time>
      </trkpt>
      <trkpt lat="59.169704" lon="18.136373">
        <ele>43</ele>
        <time>2019-10-13T14:35:27Z</time>
      </trkpt>
      <trkpt lat="59.16968" lon="18.13636">
        <ele>43</ele>
        <time>2019-10-13T14:35:28Z</time>
      </trkpt>
      <trkpt lat="59.169656" lon="18.136347">
        <ele>43</ele>
        <time>2019-10-13T14:35:29Z</time>
      </trkpt>
      <trkpt lat="59.169631" lon="18.136333">
        <ele>43</ele>
        <time>2019-10-13T14:35:30Z</time>
      </trkpt>
      <trkpt lat="59.16961" lon="18.136322">
        <ele>43</ele>
        <time>2019-10-13T14:35:31Z</time>
      </trkpt>
      <trkpt lat="59.169588" lon="18.136317">
        <ele>43</ele>
        <time>2019-10-13T14:35:32Z</time>
      </trkpt>
      <trkpt lat="59.169564" lon="18.136307">
        <ele>43</ele>
        <time>2019-10-13T14:35:33Z</time>
      </trkpt>
      <trkpt lat="59.169539" lon="18.136292">
        <ele>43</ele>
        <time>2019-10-13T14:35:34Z</time>
      </trkpt>
      <trkpt lat="59.169516" lon="18.136277">
        <ele>43</ele>
        <time>2019-10-13T14:35:35Z</time>
      </trkpt>
      <trkpt lat="59.169491" lon="18.136265">
        <ele>43</ele>
        <time>2019-10-13T14:35:36Z</time>
      </trkpt>
      <trkpt lat="59.169468" lon="18.136255">
        <ele>43</ele>
        <time>2019-10-13T14:35:37Z</time>
      </trkpt>
      <trkpt lat="59.169445" lon="18.136244">
        <ele>43</ele>
        <time>2019-10-13T14:35:38Z</time>
      </trkpt>
      <trkpt lat="59.169423" lon="18.136232">
        <ele>43</ele>
        <time>2019-10-13T14:35:39Z</time>
      </trkpt>
      <trkpt lat="59.169401" lon="18.136218">
        <ele>43</ele>
        <time>2019-10-13T14:35:40Z</time>
      </trkpt>
      <trkpt lat="59.169376" lon="18.136203">
        <ele>43</ele>
        <time>2019-10-13T14:35:41Z</time>
      </trkpt>
      <trkpt lat="59.169349" lon="18.136189">
        <ele>43</ele>
        <time>2019-10-13T14:35:42Z</time>
      </trkpt>
      <trkpt lat="59.169324" lon="18.136179">
        <ele>43</ele>
        <time>2019-10-13T14:35:43Z</time>
      </trkpt>
      <trkpt lat="59.169299" lon="18.13617">
        <ele>0</ele>
        <time>2019-10-13T14:35:43Z</time>
      </trkpt>
      <trkpt lat="59.169274" lon="18.13616">
        <ele>43</ele>
        <time>2019-10-13T14:35:44Z</time>
      </trkpt>
      <trkpt lat="59.169249" lon="18.136149">
        <ele>43</ele>
        <time>2019-10-13T14:35:45Z</time>
      </trkpt>
      <trkpt lat="59.169223" lon="18.136137">
        <ele>43</ele>
        <time>2019-10-13T14:35:47Z</time>
      </trkpt>
      <trkpt lat="59.169199" lon="18.136127">
        <ele>43</ele>
        <time>2019-10-13T14:35:48Z</time>
      </trkpt>
      <trkpt lat="59.169174" lon="18.136116">
        <ele>43</ele>
        <time>2019-10-13T14:35:49Z</time>
      </trkpt>
      <trkpt lat="59.169148" lon="18.136104">
        <ele>43</ele>
        <time>2019-10-13T14:35:50Z</time>
      </trkpt>
      <trkpt lat="59.169122" lon="18.136091">
        <ele>43</ele>
        <time>2019-10-13T14:35:51Z</time>
      </trkpt>
      <trkpt lat="59.169096" lon="18.136077">
        <ele>43</ele>
        <time>2019-10-13T14:35:52Z</time>
      </trkpt>
      <trkpt lat="59.169068" lon="18.136062">
        <ele>43</ele>
        <time>2019-10-13T14:35:53Z</time>
      </trkpt>
      <trkpt lat="59.16904" lon="18.136046">
        <ele>43</ele>
        <time>2019-10-13T14:35:54Z</time>
      </trkpt>
      <trkpt lat="59.169012" lon="18.136029">
        <ele>42</ele>
        <time>2019-10-13T14:35:55Z</time>
      </trkpt>
      <trkpt lat="59.168983" lon="18.136014">
        <ele>42</ele>
        <time>2019-10-13T14:35:56Z</time>
      </trkpt>
      <trkpt lat="59.168955" lon="18.136">
        <ele>42</ele>
        <time>2019-10-13T14:35:57Z</time>
      </trkpt>
      <trkpt lat="59.168927" lon="18.135986">
        <ele>42</ele>
        <time>2019-10-13T14:35:58Z</time>
      </trkpt>
      <trkpt lat="59.1689" lon="18.13597">
        <ele>42</ele>
        <time>2019-10-13T14:35:59Z</time>
      </trkpt>
      <trkpt lat="59.168872" lon="18.135957">
        <ele>42</ele>
        <time>2019-10-13T14:36:00Z</time>
      </trkpt>
      <trkpt lat="59.168843" lon="18.135943">
        <ele>42</ele>
        <time>2019-10-13T14:36:01Z</time>
      </trkpt>
      <trkpt lat="59.168815" lon="18.135929">
        <ele>0</ele>
        <time>2019-10-13T14:36:01Z</time>
      </trkpt>
      <trkpt lat="59.168783" lon="18.135913">
        <ele>42</ele>
        <time>2019-10-13T14:36:02Z</time>
      </trkpt>
      <trkpt lat="59.168751" lon="18.135896">
        <ele>42</ele>
        <time>2019-10-13T14:36:03Z</time>
      </trkpt>
      <trkpt lat="59.16872" lon="18.135878">
        <ele>42</ele>
        <time>2019-10-13T14:36:05Z</time>
      </trkpt>
      <trkpt lat="59.168689" lon="18.135859">
        <ele>42</ele>
        <time>2019-10-13T14:36:06Z</time>
      </trkpt>
      <trkpt lat="59.168659" lon="18.135842">
        <ele>42</ele>
        <time>2019-10-13T14:36:07Z</time>
      </trkpt>
      <trkpt lat="59.168631" lon="18.135824">
        <ele>42</ele>
        <time>2019-10-13T14:36:08Z</time>
      </trkpt>
      <trkpt lat="59.168603" lon="18.135807">
        <ele>42</ele>
        <time>2019-10-13T14:36:09Z</time>
      </trkpt>
      <trkpt lat="59.168576" lon="18.13579">
        <ele>42</ele>
        <time>2019-10-13T14:36:10Z</time>
      </trkpt>
      <trkpt lat="59.168548" lon="18.135773">
        <ele>42</ele>
        <time>2019-10-13T14:36:11Z</time>
      </trkpt>
      <trkpt lat="59.168522" lon="18.13576">
        <ele>42</ele>
        <time>2019-10-13T14:36:12Z</time>
      </trkpt>
      <trkpt lat="59.168495" lon="18.135746">
        <ele>42</ele>
        <time>2019-10-13T14:36:13Z</time>
      </trkpt>
      <trkpt lat="59.168469" lon="18.13573">
        <ele>42</ele>
        <time>2019-10-13T14:36:14Z</time>
      </trkpt>
      <trkpt lat="59.168443" lon="18.135713">
        <ele>42</ele>
        <time>2019-10-13T14:36:15Z</time>
      </trkpt>
      <trkpt lat="59.168417" lon="18.135695">
        <ele>42</ele>
        <time>2019-10-13T14:36:16Z</time>
      </trkpt>
      <trkpt lat="59.168391" lon="18.135675">
        <ele>42</ele>
        <time>2019-10-13T14:36:17Z</time>
      </trkpt>
      <trkpt lat="59.168364" lon="18.135658">
        <ele>42</ele>
        <time>2019-10-13T14:36:18Z</time>
      </trkpt>
      <trkpt lat="59.168339" lon="18.135642">
        <ele>42</ele>
        <time>2019-10-13T14:36:19Z</time>
      </trkpt>
      <trkpt lat="59.168314" lon="18.135628">
        <ele>0</ele>
        <time>2019-10-13T14:36:19Z</time>
      </trkpt>
      <trkpt lat="59.16829" lon="18.135616">
        <ele>42</ele>
        <time>2019-10-13T14:36:20Z</time>
      </trkpt>
      <trkpt lat="59.168267" lon="18.135605">
        <ele>0</ele>
        <time>2019-10-13T14:36:21Z</time>
      </trkpt>
      <trkpt lat="59.168245" lon="18.135592">
        <ele>42</ele>
        <time>2019-10-13T14:36:22Z</time>
      </trkpt>
      <trkpt lat="59.168223" lon="18.135576">
        <ele>42</ele>
        <time>2019-10-13T14:36:24Z</time>
      </trkpt>
      <trkpt lat="59.168201" lon="18.13556">
        <ele>42</ele>
        <time>2019-10-13T14:36:25Z</time>
      </trkpt>
      <trkpt lat="59.168179" lon="18.135547">
        <ele>43</ele>
        <time>2019-10-13T14:36:26Z</time>
      </trkpt>
      <trkpt lat="59.168158" lon="18.135537">
        <ele>43</ele>
        <time>2019-10-13T14:36:27Z</time>
      </trkpt>
      <trkpt lat="59.168136" lon="18.135528">
        <ele>43</ele>
        <time>2019-10-13T14:36:28Z</time>
      </trkpt>
      <trkpt lat="59.168114" lon="18.135518">
        <ele>43</ele>
        <time>2019-10-13T14:36:29Z</time>
      </trkpt>
      <trkpt lat="59.168093" lon="18.135506">
        <ele>43</ele>
        <time>2019-10-13T14:36:30Z</time>
      </trkpt>
      <trkpt lat="59.168071" lon="18.135491">
        <ele>43</ele>
        <time>2019-10-13T14:36:31Z</time>
      </trkpt>
      <trkpt lat="59.168048" lon="18.135473">
        <ele>43</ele>
        <time>2019-10-13T14:36:32Z</time>
      </trkpt>
      <trkpt lat="59.168025" lon="18.135453">
        <ele>43</ele>
        <time>2019-10-13T14:36:33Z</time>
      </trkpt>
      <trkpt lat="59.168001" lon="18.135437">
        <ele>43</ele>
        <time>2019-10-13T14:36:34Z</time>
      </trkpt>
      <trkpt lat="59.167978" lon="18.135424">
        <ele>43</ele>
        <time>2019-10-13T14:36:35Z</time>
      </trkpt>
      <trkpt lat="59.167956" lon="18.13541">
        <ele>43</ele>
        <time>2019-10-13T14:36:36Z</time>
      </trkpt>
      <trkpt lat="59.167934" lon="18.135397">
        <ele>43</ele>
        <time>2019-10-13T14:36:37Z</time>
      </trkpt>
      <trkpt lat="59.167916" lon="18.135386">
        <ele>43</ele>
        <time>2019-10-13T14:36:38Z</time>
      </trkpt>
      <trkpt lat="59.167899" lon="18.135372">
        <ele>43</ele>
        <time>2019-10-13T14:36:39Z</time>
      </trkpt>
      <trkpt lat="59.16788" lon="18.135355">
        <ele>43</ele>
        <time>2019-10-13T14:36:40Z</time>
      </trkpt>
      <trkpt lat="59.167857" lon="18.135342">
        <ele>0</ele>
        <time>2019-10-13T14:36:40Z</time>
      </trkpt>
      <trkpt lat="59.167836" lon="18.135332">
        <ele>43</ele>
        <time>2019-10-13T14:36:41Z</time>
      </trkpt>
      <trkpt lat="59.167818" lon="18.13532">
        <ele>43</ele>
        <time>2019-10-13T14:36:42Z</time>
      </trkpt>
      <trkpt lat="59.1678" lon="18.135306">
        <ele>43</ele>
        <time>2019-10-13T14:36:44Z</time>
      </trkpt>
      <trkpt lat="59.167783" lon="18.135294">
        <ele>43</ele>
        <time>2019-10-13T14:36:45Z</time>
      </trkpt>
      <trkpt lat="59.167766" lon="18.135283">
        <ele>44</ele>
        <time>2019-10-13T14:36:46Z</time>
      </trkpt>
      <trkpt lat="59.167748" lon="18.135274">
        <ele>44</ele>
        <time>2019-10-13T14:36:47Z</time>
      </trkpt>
      <trkpt lat="59.167714" lon="18.135256">
        <ele>44</ele>
        <time>2019-10-13T14:36:49Z</time>
      </trkpt>
      <trkpt lat="59.16768" lon="18.135244">
        <ele>44</ele>
        <time>2019-10-13T14:36:51Z</time>
      </trkpt>
      <trkpt lat="59.167662" lon="18.135232">
        <ele>44</ele>
        <time>2019-10-13T14:36:52Z</time>
      </trkpt>
      <trkpt lat="59.167643" lon="18.135217">
        <ele>44</ele>
        <time>2019-10-13T14:36:53Z</time>
      </trkpt>
      <trkpt lat="59.167622" lon="18.135202">
        <ele>44</ele>
        <time>2019-10-13T14:36:54Z</time>
      </trkpt>
      <trkpt lat="59.167602" lon="18.135188">
        <ele>44</ele>
        <time>2019-10-13T14:36:55Z</time>
      </trkpt>
      <trkpt lat="59.167581" lon="18.135173">
        <ele>44</ele>
        <time>2019-10-13T14:36:56Z</time>
      </trkpt>
      <trkpt lat="59.167559" lon="18.135162">
        <ele>44</ele>
        <time>2019-10-13T14:36:57Z</time>
      </trkpt>
      <trkpt lat="59.167536" lon="18.13515">
        <ele>44</ele>
        <time>2019-10-13T14:36:58Z</time>
      </trkpt>
      <trkpt lat="59.167517" lon="18.135139">
        <ele>44</ele>
        <time>2019-10-13T14:36:59Z</time>
      </trkpt>
      <trkpt lat="59.167498" lon="18.135129">
        <ele>0</ele>
        <time>2019-10-13T14:36:59Z</time>
      </trkpt>
      <trkpt lat="59.167478" lon="18.135118">
        <ele>44</ele>
        <time>2019-10-13T14:37:00Z</time>
      </trkpt>
      <trkpt lat="59.167457" lon="18.135106">
        <ele>44</ele>
        <time>2019-10-13T14:37:02Z</time>
      </trkpt>
      <trkpt lat="59.167435" lon="18.135092">
        <ele>44</ele>
        <time>2019-10-13T14:37:03Z</time>
      </trkpt>
      <trkpt lat="59.167414" lon="18.135078">
        <ele>44</ele>
        <time>2019-10-13T14:37:04Z</time>
      </trkpt>
      <trkpt lat="59.167394" lon="18.135064">
        <ele>44</ele>
        <time>2019-10-13T14:37:05Z</time>
      </trkpt>
      <trkpt lat="59.167372" lon="18.13505">
        <ele>0</ele>
        <time>2019-10-13T14:37:05Z</time>
      </trkpt>
      <trkpt lat="59.16735" lon="18.135036">
        <ele>44</ele>
        <time>2019-10-13T14:37:06Z</time>
      </trkpt>
      <trkpt lat="59.167328" lon="18.13502">
        <ele>44</ele>
        <time>2019-10-13T14:37:08Z</time>
      </trkpt>
      <trkpt lat="59.167305" lon="18.135008">
        <ele>44</ele>
        <time>2019-10-13T14:37:09Z</time>
      </trkpt>
      <trkpt lat="59.167283" lon="18.134999">
        <ele>44</ele>
        <time>2019-10-13T14:37:10Z</time>
      </trkpt>
      <trkpt lat="59.167261" lon="18.134986">
        <ele>44</ele>
        <time>2019-10-13T14:37:11Z</time>
      </trkpt>
      <trkpt lat="59.167238" lon="18.134971">
        <ele>44</ele>
        <time>2019-10-13T14:37:12Z</time>
      </trkpt>
      <trkpt lat="59.167214" lon="18.134954">
        <ele>44</ele>
        <time>2019-10-13T14:37:13Z</time>
      </trkpt>
      <trkpt lat="59.16719" lon="18.134938">
        <ele>44</ele>
        <time>2019-10-13T14:37:14Z</time>
      </trkpt>
      <trkpt lat="59.167167" lon="18.134925">
        <ele>44</ele>
        <time>2019-10-13T14:37:15Z</time>
      </trkpt>
      <trkpt lat="59.167145" lon="18.13491">
        <ele>44</ele>
        <time>2019-10-13T14:37:16Z</time>
      </trkpt>
      <trkpt lat="59.167122" lon="18.134895">
        <ele>44</ele>
        <time>2019-10-13T14:37:17Z</time>
      </trkpt>
      <trkpt lat="59.1671" lon="18.134881">
        <ele>44</ele>
        <time>2019-10-13T14:37:18Z</time>
      </trkpt>
      <trkpt lat="59.167077" lon="18.134867">
        <ele>0</ele>
        <time>2019-10-13T14:37:18Z</time>
      </trkpt>
      <trkpt lat="59.167055" lon="18.134851">
        <ele>44</ele>
        <time>2019-10-13T14:37:19Z</time>
      </trkpt>
      <trkpt lat="59.167033" lon="18.134836">
        <ele>44</ele>
        <time>2019-10-13T14:37:21Z</time>
      </trkpt>
      <trkpt lat="59.16701" lon="18.134822">
        <ele>44</ele>
        <time>2019-10-13T14:37:22Z</time>
      </trkpt>
      <trkpt lat="59.166988" lon="18.134808">
        <ele>44</ele>
        <time>2019-10-13T14:37:23Z</time>
      </trkpt>
      <trkpt lat="59.166964" lon="18.134792">
        <ele>44</ele>
        <time>2019-10-13T14:37:24Z</time>
      </trkpt>
      <trkpt lat="59.16694" lon="18.134778">
        <ele>44</ele>
        <time>2019-10-13T14:37:25Z</time>
      </trkpt>
      <trkpt lat="59.166916" lon="18.134765">
        <ele>44</ele>
        <time>2019-10-13T14:37:26Z</time>
      </trkpt>
      <trkpt lat="59.166893" lon="18.134751">
        <ele>0</ele>
        <time>2019-10-13T14:37:26Z</time>
      </trkpt>
      <trkpt lat="59.166868" lon="18.134736">
        <ele>44</ele>
        <time>2019-10-13T14:37:27Z</time>
      </trkpt>
      <trkpt lat="59.166845" lon="18.13472">
        <ele>43</ele>
        <time>2019-10-13T14:37:29Z</time>
      </trkpt>
      <trkpt lat="59.166822" lon="18.134708">
        <ele>43</ele>
        <time>2019-10-13T14:37:30Z</time>
      </trkpt>
      <trkpt lat="59.166799" lon="18.134698">
        <ele>43</ele>
        <time>2019-10-13T14:37:31Z</time>
      </trkpt>
      <trkpt lat="59.166776" lon="18.134686">
        <ele>43</ele>
        <time>2019-10-13T14:37:32Z</time>
      </trkpt>
      <trkpt lat="59.166754" lon="18.134672">
        <ele>43</ele>
        <time>2019-10-13T14:37:33Z</time>
      </trkpt>
      <trkpt lat="59.166732" lon="18.134658">
        <ele>43</ele>
        <time>2019-10-13T14:37:34Z</time>
      </trkpt>
      <trkpt lat="59.166708" lon="18.134647">
        <ele>43</ele>
        <time>2019-10-13T14:37:35Z</time>
      </trkpt>
      <trkpt lat="59.166686" lon="18.134636">
        <ele>43</ele>
        <time>2019-10-13T14:37:36Z</time>
      </trkpt>
      <trkpt lat="59.166664" lon="18.134624">
        <ele>43</ele>
        <time>2019-10-13T14:37:37Z</time>
      </trkpt>
      <trkpt lat="59.166641" lon="18.134611">
        <ele>0</ele>
        <time>2019-10-13T14:37:37Z</time>
      </trkpt>
      <trkpt lat="59.16662" lon="18.134598">
        <ele>43</ele>
        <time>2019-10-13T14:37:38Z</time>
      </trkpt>
      <trkpt lat="59.166598" lon="18.134584">
        <ele>43</ele>
        <time>2019-10-13T14:37:40Z</time>
      </trkpt>
      <trkpt lat="59.166577" lon="18.13457">
        <ele>43</ele>
        <time>2019-10-13T14:37:41Z</time>
      </trkpt>
      <trkpt lat="59.166557" lon="18.134556">
        <ele>43</ele>
        <time>2019-10-13T14:37:42Z</time>
      </trkpt>
      <trkpt lat="59.166535" lon="18.134542">
        <ele>43</ele>
        <time>2019-10-13T14:37:43Z</time>
      </trkpt>
      <trkpt lat="59.166511" lon="18.13453">
        <ele>43</ele>
        <time>2019-10-13T14:37:44Z</time>
      </trkpt>
      <trkpt lat="59.166486" lon="18.134519">
        <ele>43</ele>
        <time>2019-10-13T14:37:45Z</time>
      </trkpt>
      <trkpt lat="59.166463" lon="18.134507">
        <ele>43</ele>
        <time>2019-10-13T14:37:46Z</time>
      </trkpt>
      <trkpt lat="59.166441" lon="18.134497">
        <ele>42</ele>
        <time>2019-10-13T14:37:47Z</time>
      </trkpt>
      <trkpt lat="59.16642" lon="18.134487">
        <ele>42</ele>
        <time>2019-10-13T14:37:48Z</time>
      </trkpt>
      <trkpt lat="59.166399" lon="18.134475">
        <ele>0</ele>
        <time>2019-10-13T14:37:48Z</time>
      </trkpt>
      <trkpt lat="59.166378" lon="18.134463">
        <ele>42</ele>
        <time>2019-10-13T14:37:49Z</time>
      </trkpt>
      <trkpt lat="59.166357" lon="18.13445">
        <ele>42</ele>
        <time>2019-10-13T14:37:51Z</time>
      </trkpt>
      <trkpt lat="59.166336" lon="18.134434">
        <ele>42</ele>
        <time>2019-10-13T14:37:52Z</time>
      </trkpt>
      <trkpt lat="59.166318" lon="18.134418">
        <ele>43</ele>
        <time>2019-10-13T14:37:53Z</time>
      </trkpt>
      <trkpt lat="59.1663" lon="18.134404">
        <ele>43</ele>
        <time>2019-10-13T14:37:54Z</time>
      </trkpt>
      <trkpt lat="59.166279" lon="18.134389">
        <ele>43</ele>
        <time>2019-10-13T14:37:55Z</time>
      </trkpt>
      <trkpt lat="59.166254" lon="18.134379">
        <ele>43</ele>
        <time>2019-10-13T14:37:56Z</time>
      </trkpt>
      <trkpt lat="59.166229" lon="18.134371">
        <ele>0</ele>
        <time>2019-10-13T14:37:56Z</time>
      </trkpt>
      <trkpt lat="59.166203" lon="18.13436">
        <ele>43</ele>
        <time>2019-10-13T14:37:57Z</time>
      </trkpt>
      <trkpt lat="59.166177" lon="18.134346">
        <ele>43</ele>
        <time>2019-10-13T14:37:59Z</time>
      </trkpt>
      <trkpt lat="59.166154" lon="18.134334">
        <ele>43</ele>
        <time>2019-10-13T14:38:00Z</time>
      </trkpt>
      <trkpt lat="59.16613" lon="18.134321">
        <ele>43</ele>
        <time>2019-10-13T14:38:01Z</time>
      </trkpt>
      <trkpt lat="59.166106" lon="18.134307">
        <ele>43</ele>
        <time>2019-10-13T14:38:02Z</time>
      </trkpt>
      <trkpt lat="59.166085" lon="18.134299">
        <ele>43</ele>
        <time>2019-10-13T14:38:03Z</time>
      </trkpt>
      <trkpt lat="59.166063" lon="18.134289">
        <ele>43</ele>
        <time>2019-10-13T14:38:04Z</time>
      </trkpt>
      <trkpt lat="59.166042" lon="18.134271">
        <ele>43</ele>
        <time>2019-10-13T14:38:05Z</time>
      </trkpt>
      <trkpt lat="59.166022" lon="18.134253">
        <ele>43</ele>
        <time>2019-10-13T14:38:06Z</time>
      </trkpt>
      <trkpt lat="59.166002" lon="18.134239">
        <ele>43</ele>
        <time>2019-10-13T14:38:07Z</time>
      </trkpt>
      <trkpt lat="59.165982" lon="18.134226">
        <ele>43</ele>
        <time>2019-10-13T14:38:08Z</time>
      </trkpt>
      <trkpt lat="59.165964" lon="18.134215">
        <ele>43</ele>
        <time>2019-10-13T14:38:09Z</time>
      </trkpt>
      <trkpt lat="59.165944" lon="18.134201">
        <ele>43</ele>
        <time>2019-10-13T14:38:10Z</time>
      </trkpt>
      <trkpt lat="59.165926" lon="18.134189">
        <ele>0</ele>
        <time>2019-10-13T14:38:10Z</time>
      </trkpt>
      <trkpt lat="59.165908" lon="18.134178">
        <ele>43</ele>
        <time>2019-10-13T14:38:11Z</time>
      </trkpt>
      <trkpt lat="59.165889" lon="18.134168">
        <ele>43</ele>
        <time>2019-10-13T14:38:13Z</time>
      </trkpt>
      <trkpt lat="59.165871" lon="18.134155">
        <ele>43</ele>
        <time>2019-10-13T14:38:14Z</time>
      </trkpt>
      <trkpt lat="59.165853" lon="18.134143">
        <ele>43</ele>
        <time>2019-10-13T14:38:15Z</time>
      </trkpt>
      <trkpt lat="59.165835" lon="18.134131">
        <ele>0</ele>
        <time>2019-10-13T14:38:15Z</time>
      </trkpt>
      <trkpt lat="59.165817" lon="18.13412">
        <ele>43</ele>
        <time>2019-10-13T14:38:16Z</time>
      </trkpt>
      <trkpt lat="59.165799" lon="18.134109">
        <ele>43</ele>
        <time>2019-10-13T14:38:18Z</time>
      </trkpt>
      <trkpt lat="59.165782" lon="18.134098">
        <ele>43</ele>
        <time>2019-10-13T14:38:19Z</time>
      </trkpt>
      <trkpt lat="59.165749" lon="18.134072">
        <ele>43</ele>
        <time>2019-10-13T14:38:21Z</time>
      </trkpt>
      <trkpt lat="59.165716" lon="18.134051">
        <ele>43</ele>
        <time>2019-10-13T14:38:23Z</time>
      </trkpt>
      <trkpt lat="59.165698" lon="18.134041">
        <ele>42</ele>
        <time>2019-10-13T14:38:24Z</time>
      </trkpt>
      <trkpt lat="59.165665" lon="18.13402">
        <ele>42</ele>
        <time>2019-10-13T14:38:26Z</time>
      </trkpt>
      <trkpt lat="59.165632" lon="18.134006">
        <ele>42</ele>
        <time>2019-10-13T14:38:28Z</time>
      </trkpt>
      <trkpt lat="59.165615" lon="18.133993">
        <ele>42</ele>
        <time>2019-10-13T14:38:29Z</time>
      </trkpt>
      <trkpt lat="59.165598" lon="18.133973">
        <ele>42</ele>
        <time>2019-10-13T14:38:30Z</time>
      </trkpt>
      <trkpt lat="59.16558" lon="18.133954">
        <ele>42</ele>
        <time>2019-10-13T14:38:31Z</time>
      </trkpt>
      <trkpt lat="59.165561" lon="18.133937">
        <ele>42</ele>
        <time>2019-10-13T14:38:32Z</time>
      </trkpt>
      <trkpt lat="59.165542" lon="18.133922">
        <ele>42</ele>
        <time>2019-10-13T14:38:33Z</time>
      </trkpt>
      <trkpt lat="59.16552" lon="18.133908">
        <ele>43</ele>
        <time>2019-10-13T14:38:34Z</time>
      </trkpt>
      <trkpt lat="59.165498" lon="18.133892">
        <ele>0</ele>
        <time>2019-10-13T14:38:34Z</time>
      </trkpt>
      <trkpt lat="59.165476" lon="18.133878">
        <ele>43</ele>
        <time>2019-10-13T14:38:35Z</time>
      </trkpt>
      <trkpt lat="59.165455" lon="18.133864">
        <ele>0</ele>
        <time>2019-10-13T14:38:36Z</time>
      </trkpt>
      <trkpt lat="59.165432" lon="18.133852">
        <ele>43</ele>
        <time>2019-10-13T14:38:37Z</time>
      </trkpt>
      <trkpt lat="59.16541" lon="18.133837">
        <ele>43</ele>
        <time>2019-10-13T14:38:39Z</time>
      </trkpt>
      <trkpt lat="59.165388" lon="18.133822">
        <ele>43</ele>
        <time>2019-10-13T14:38:40Z</time>
      </trkpt>
      <trkpt lat="59.165368" lon="18.133808">
        <ele>43</ele>
        <time>2019-10-13T14:38:41Z</time>
      </trkpt>
      <trkpt lat="59.165347" lon="18.133798">
        <ele>43</ele>
        <time>2019-10-13T14:38:42Z</time>
      </trkpt>
      <trkpt lat="59.165326" lon="18.133786">
        <ele>43</ele>
        <time>2019-10-13T14:38:43Z</time>
      </trkpt>
      <trkpt lat="59.165305" lon="18.133775">
        <ele>43</ele>
        <time>2019-10-13T14:38:44Z</time>
      </trkpt>
      <trkpt lat="59.165284" lon="18.133763">
        <ele>43</ele>
        <time>2019-10-13T14:38:45Z</time>
      </trkpt>
      <trkpt lat="59.165264" lon="18.133752">
        <ele>43</ele>
        <time>2019-10-13T14:38:46Z</time>
      </trkpt>
      <trkpt lat="59.165244" lon="18.13374">
        <ele>43</ele>
        <time>2019-10-13T14:38:47Z</time>
      </trkpt>
      <trkpt lat="59.165224" lon="18.133729">
        <ele>43</ele>
        <time>2019-10-13T14:38:48Z</time>
      </trkpt>
      <trkpt lat="59.165205" lon="18.133718">
        <ele>43</ele>
        <time>2019-10-13T14:38:49Z</time>
      </trkpt>
      <trkpt lat="59.165185" lon="18.133707">
        <ele>43</ele>
        <time>2019-10-13T14:38:50Z</time>
      </trkpt>
      <trkpt lat="59.165167" lon="18.133697">
        <ele>43</ele>
        <time>2019-10-13T14:38:51Z</time>
      </trkpt>
      <trkpt lat="59.165148" lon="18.133687">
        <ele>43</ele>
        <time>2019-10-13T14:38:52Z</time>
      </trkpt>
      <trkpt lat="59.16513" lon="18.13368">
        <ele>43</ele>
        <time>2019-10-13T14:38:53Z</time>
      </trkpt>
      <trkpt lat="59.165095" lon="18.133669">
        <ele>43</ele>
        <time>2019-10-13T14:38:54Z</time>
      </trkpt>
      <trkpt lat="59.165077" lon="18.133659">
        <ele>43</ele>
        <time>2019-10-13T14:38:56Z</time>
      </trkpt>
      <trkpt lat="59.165059" lon="18.133649">
        <ele>43</ele>
        <time>2019-10-13T14:38:57Z</time>
      </trkpt>
      <trkpt lat="59.165025" lon="18.133636">
        <ele>43</ele>
        <time>2019-10-13T14:38:59Z</time>
      </trkpt>
      <trkpt lat="59.164992" lon="18.133633">
        <ele>42</ele>
        <time>2019-10-13T14:39:01Z</time>
      </trkpt>
      <trkpt lat="59.164958" lon="18.133632">
        <ele>42</ele>
        <time>2019-10-13T14:39:02Z</time>
      </trkpt>
      <trkpt lat="59.164924" lon="18.133626">
        <ele>43</ele>
        <time>2019-10-13T14:39:05Z</time>
      </trkpt>
      <trkpt lat="59.164889" lon="18.133612">
        <ele>43</ele>
        <time>2019-10-13T14:39:07Z</time>
      </trkpt>
      <trkpt lat="59.164857" lon="18.133597">
        <ele>43</ele>
        <time>2019-10-13T14:39:09Z</time>
      </trkpt>
      <trkpt lat="59.164826" lon="18.133589">
        <ele>43</ele>
        <time>2019-10-13T14:39:11Z</time>
      </trkpt>
      <trkpt lat="59.164796" lon="18.133617">
        <ele>0</ele>
        <time>2019-10-13T14:39:12Z</time>
      </trkpt>
      <trkpt lat="59.164776" lon="18.133633">
        <ele>0</ele>
        <time>2019-10-13T14:39:17Z</time>
      </trkpt>
      <trkpt lat="59.164774" lon="18.133633">
        <ele>0</ele>
        <time>2019-10-13T14:39:18Z</time>
      </trkpt>
      <trkpt lat="59.164773" lon="18.133708">
        <ele>42</ele>
        <time>2019-10-13T14:39:35Z</time>
      </trkpt>
      <trkpt lat="59.164772" lon="18.133726">
        <ele>42</ele>
        <time>2019-10-13T14:39:37Z</time>
      </trkpt>
      <trkpt lat="59.164774" lon="18.13378">
        <ele>42</ele>
        <time>2019-10-13T14:39:40Z</time>
      </trkpt>
      <trkpt lat="59.16477" lon="18.133843">
        <ele>42</ele>
        <time>2019-10-13T14:39:42Z</time>
      </trkpt>
      <trkpt lat="59.164786" lon="18.133989">
        <ele>43</ele>
        <time>2019-10-13T14:39:49Z</time>
      </trkpt>
      <trkpt lat="59.164788" lon="18.134032">
        <ele>43</ele>
        <time>2019-10-13T14:39:52Z</time>
      </trkpt>
      <trkpt lat="59.164786" lon="18.134071">
        <ele>45</ele>
        <time>2019-10-13T14:39:56Z</time>
      </trkpt>
      <trkpt lat="59.164787" lon="18.134082">
        <ele>0</ele>
        <time>2019-10-13T14:40:00Z</time>
      </trkpt>
      <trkpt lat="59.164761" lon="18.133999">
        <ele>47</ele>
        <time>2019-10-13T14:40:17Z</time>
      </trkpt>
      <trkpt lat="59.16476" lon="18.133933">
        <ele>46</ele>
        <time>2019-10-13T14:40:20Z</time>
      </trkpt>
      <trkpt lat="59.164771" lon="18.13371">
        <ele>44</ele>
        <time>2019-10-13T14:40:25Z</time>
      </trkpt>
      <trkpt lat="59.164764" lon="18.133525">
        <ele>44</ele>
        <time>2019-10-13T14:40:28Z</time>
      </trkpt>
      <trkpt lat="59.164771" lon="18.133457">
        <ele>43</ele>
        <time>2019-10-13T14:40:29Z</time>
      </trkpt>
      <trkpt lat="59.164786" lon="18.133275">
        <ele>43</ele>
        <time>2019-10-13T14:40:31Z</time>
      </trkpt>
      <trkpt lat="59.164798" lon="18.133096">
        <ele>42</ele>
        <time>2019-10-13T14:40:33Z</time>
      </trkpt>
      <trkpt lat="59.164814" lon="18.132953">
        <ele>41</ele>
        <time>2019-10-13T14:40:35Z</time>
      </trkpt>
      <trkpt lat="59.164832" lon="18.132905">
        <ele>0</ele>
        <time>2019-10-13T14:40:35Z</time>
      </trkpt>
      <trkpt lat="59.164842" lon="18.132867">
        <ele>40</ele>
        <time>2019-10-13T14:40:36Z</time>
      </trkpt>
      <trkpt lat="59.164851" lon="18.132825">
        <ele>40</ele>
        <time>2019-10-13T14:40:38Z</time>
      </trkpt>
      <trkpt lat="59.164857" lon="18.13279">
        <ele>38</ele>
        <time>2019-10-13T14:40:40Z</time>
      </trkpt>
      <trkpt lat="59.164882" lon="18.132882">
        <ele>40</ele>
        <time>2019-10-13T14:40:43Z</time>
      </trkpt>
      <trkpt lat="59.164892" lon="18.13293">
        <ele>40</ele>
        <time>2019-10-13T14:40:45Z</time>
      </trkpt>
      <trkpt lat="59.164932" lon="18.132944">
        <ele>40</ele>
        <time>2019-10-13T14:40:47Z</time>
      </trkpt>
      <trkpt lat="59.164961" lon="18.132957">
        <ele>41</ele>
        <time>2019-10-13T14:40:48Z</time>
      </trkpt>
      <trkpt lat="59.164993" lon="18.132974">
        <ele>41</ele>
        <time>2019-10-13T14:40:49Z</time>
      </trkpt>
      <trkpt lat="59.165025" lon="18.132986">
        <ele>41</ele>
        <time>2019-10-13T14:40:50Z</time>
      </trkpt>
      <trkpt lat="59.165055" lon="18.132988">
        <ele>41</ele>
        <time>2019-10-13T14:40:51Z</time>
      </trkpt>
      <trkpt lat="59.165085" lon="18.132974">
        <ele>41</ele>
        <time>2019-10-13T14:40:52Z</time>
      </trkpt>
      <trkpt lat="59.16511" lon="18.132938">
        <ele>41</ele>
        <time>2019-10-13T14:40:53Z</time>
      </trkpt>
      <trkpt lat="59.165123" lon="18.13289">
        <ele>41</ele>
        <time>2019-10-13T14:40:54Z</time>
      </trkpt>
      <trkpt lat="59.165127" lon="18.132846">
        <ele>0</ele>
        <time>2019-10-13T14:40:54Z</time>
      </trkpt>
      <trkpt lat="59.165123" lon="18.132802">
        <ele>41</ele>
        <time>2019-10-13T14:40:55Z</time>
      </trkpt>
      <trkpt lat="59.165108" lon="18.132763">
        <ele>41</ele>
        <time>2019-10-13T14:40:57Z</time>
      </trkpt>
      <trkpt lat="59.165087" lon="18.132743">
        <ele>41</ele>
        <time>2019-10-13T14:40:58Z</time>
      </trkpt>
      <trkpt lat="59.165067" lon="18.132744">
        <ele>41</ele>
        <time>2019-10-13T14:40:59Z</time>
      </trkpt>
      <trkpt lat="59.165053" lon="18.132783">
        <ele>41</ele>
        <time>2019-10-13T14:41:01Z</time>
      </trkpt>
      <trkpt lat="59.165066" lon="18.132848">
        <ele>41</ele>
        <time>2019-10-13T14:41:02Z</time>
      </trkpt>
      <trkpt lat="59.16508" lon="18.132878">
        <ele>40</ele>
        <time>2019-10-13T14:41:04Z</time>
      </trkpt>
      <trkpt lat="59.165102" lon="18.132892">
        <ele>40</ele>
        <time>2019-10-13T14:41:05Z</time>
      </trkpt>
      <trkpt lat="59.165125" lon="18.132886">
        <ele>40</ele>
        <time>2019-10-13T14:41:06Z</time>
      </trkpt>
      <trkpt lat="59.165138" lon="18.132835">
        <ele>40</ele>
        <time>2019-10-13T14:41:08Z</time>
      </trkpt>
      <trkpt lat="59.165128" lon="18.132765">
        <ele>40</ele>
        <time>2019-10-13T14:41:10Z</time>
      </trkpt>
      <trkpt lat="59.165108" lon="18.13274">
        <ele>40</ele>
        <time>2019-10-13T14:41:11Z</time>
      </trkpt>
      <trkpt lat="59.165084" lon="18.13274">
        <ele>40</ele>
        <time>2019-10-13T14:41:12Z</time>
      </trkpt>
      <trkpt lat="59.165047" lon="18.132757">
        <ele>0</ele>
        <time>2019-10-13T14:41:13Z</time>
      </trkpt>
      <trkpt lat="59.165016" lon="18.132763">
        <ele>40</ele>
        <time>2019-10-13T14:41:14Z</time>
      </trkpt>
      <trkpt lat="59.164978" lon="18.132755">
        <ele>40</ele>
        <time>2019-10-13T14:41:16Z</time>
      </trkpt>
      <trkpt lat="59.164932" lon="18.13273">
        <ele>40</ele>
        <time>2019-10-13T14:41:17Z</time>
      </trkpt>
      <trkpt lat="59.164892" lon="18.132699">
        <ele>40</ele>
        <time>2019-10-13T14:41:18Z</time>
      </trkpt>
      <trkpt lat="59.164852" lon="18.13268">
        <ele>40</ele>
        <time>2019-10-13T14:41:19Z</time>
      </trkpt>
      <trkpt lat="59.164815" lon="18.13266">
        <ele>0</ele>
        <time>2019-10-13T14:41:19Z</time>
      </trkpt>
      <trkpt lat="59.164779" lon="18.132636">
        <ele>40</ele>
        <time>2019-10-13T14:41:20Z</time>
      </trkpt>
      <trkpt lat="59.164744" lon="18.132617">
        <ele>40</ele>
        <time>2019-10-13T14:41:22Z</time>
      </trkpt>
      <trkpt lat="59.164711" lon="18.132601">
        <ele>40</ele>
        <time>2019-10-13T14:41:23Z</time>
      </trkpt>
      <trkpt lat="59.16468" lon="18.132589">
        <ele>40</ele>
        <time>2019-10-13T14:41:24Z</time>
      </trkpt>
      <trkpt lat="59.164646" lon="18.132578">
        <ele>40</ele>
        <time>2019-10-13T14:41:25Z</time>
      </trkpt>
      <trkpt lat="59.164613" lon="18.132568">
        <ele>40</ele>
        <time>2019-10-13T14:41:26Z</time>
      </trkpt>
      <trkpt lat="59.164582" lon="18.132557">
        <ele>40</ele>
        <time>2019-10-13T14:41:27Z</time>
      </trkpt>
      <trkpt lat="59.16455" lon="18.132548">
        <ele>40</ele>
        <time>2019-10-13T14:41:28Z</time>
      </trkpt>
      <trkpt lat="59.164516" lon="18.132539">
        <ele>40</ele>
        <time>2019-10-13T14:41:29Z</time>
      </trkpt>
      <trkpt lat="59.164486" lon="18.13253">
        <ele>40</ele>
        <time>2019-10-13T14:41:30Z</time>
      </trkpt>
      <trkpt lat="59.164455" lon="18.132521">
        <ele>41</ele>
        <time>2019-10-13T14:41:31Z</time>
      </trkpt>
      <trkpt lat="59.164427" lon="18.132511">
        <ele>41</ele>
        <time>2019-10-13T14:41:32Z</time>
      </trkpt>
      <trkpt lat="59.164403" lon="18.132499">
        <ele>0</ele>
        <time>2019-10-13T14:41:32Z</time>
      </trkpt>
      <trkpt lat="59.164378" lon="18.132483">
        <ele>40</ele>
        <time>2019-10-13T14:41:33Z</time>
      </trkpt>
      <trkpt lat="59.164354" lon="18.132463">
        <ele>40</ele>
        <time>2019-10-13T14:41:35Z</time>
      </trkpt>
      <trkpt lat="59.164328" lon="18.132447">
        <ele>0</ele>
        <time>2019-10-13T14:41:35Z</time>
      </trkpt>
      <trkpt lat="59.164304" lon="18.132427">
        <ele>40</ele>
        <time>2019-10-13T14:41:36Z</time>
      </trkpt>
      <trkpt lat="59.164278" lon="18.132404">
        <ele>40</ele>
        <time>2019-10-13T14:41:38Z</time>
      </trkpt>
      <trkpt lat="59.164254" lon="18.132372">
        <ele>40</ele>
        <time>2019-10-13T14:41:39Z</time>
      </trkpt>
      <trkpt lat="59.164238" lon="18.132329">
        <ele>40</ele>
        <time>2019-10-13T14:41:40Z</time>
      </trkpt>
      <trkpt lat="59.164231" lon="18.132273">
        <ele>40</ele>
        <time>2019-10-13T14:41:41Z</time>
      </trkpt>
      <trkpt lat="59.164231" lon="18.132208">
        <ele>40</ele>
        <time>2019-10-13T14:41:42Z</time>
      </trkpt>
      <trkpt lat="59.16423" lon="18.132137">
        <ele>40</ele>
        <time>2019-10-13T14:41:43Z</time>
      </trkpt>
      <trkpt lat="59.16423" lon="18.132068">
        <ele>40</ele>
        <time>2019-10-13T14:41:44Z</time>
      </trkpt>
      <trkpt lat="59.16423" lon="18.132009">
        <ele>40</ele>
        <time>2019-10-13T14:41:45Z</time>
      </trkpt>
      <trkpt lat="59.164227" lon="18.13196">
        <ele>40</ele>
        <time>2019-10-13T14:41:46Z</time>
      </trkpt>
      <trkpt lat="59.164222" lon="18.131916">
        <ele>40</ele>
        <time>2019-10-13T14:41:47Z</time>
      </trkpt>
      <trkpt lat="59.164214" lon="18.131871">
        <ele>40</ele>
        <time>2019-10-13T14:41:48Z</time>
      </trkpt>
      <trkpt lat="59.164204" lon="18.131828">
        <ele>40</ele>
        <time>2019-10-13T14:41:49Z</time>
      </trkpt>
      <trkpt lat="59.164192" lon="18.131787">
        <ele>40</ele>
        <time>2019-10-13T14:41:50Z</time>
      </trkpt>
      <trkpt lat="59.164179" lon="18.131747">
        <ele>40</ele>
        <time>2019-10-13T14:41:51Z</time>
      </trkpt>
      <trkpt lat="59.164166" lon="18.13171">
        <ele>0</ele>
        <time>2019-10-13T14:41:51Z</time>
      </trkpt>
      <trkpt lat="59.164148" lon="18.131674">
        <ele>40</ele>
        <time>2019-10-13T14:41:52Z</time>
      </trkpt>
      <trkpt lat="59.164128" lon="18.13164">
        <ele>0</ele>
        <time>2019-10-13T14:41:53Z</time>
      </trkpt>
      <trkpt lat="59.164107" lon="18.13161">
        <ele>40</ele>
        <time>2019-10-13T14:41:54Z</time>
      </trkpt>
      <trkpt lat="59.164088" lon="18.131582">
        <ele>39</ele>
        <time>2019-10-13T14:41:56Z</time>
      </trkpt>
      <trkpt lat="59.164066" lon="18.131551">
        <ele>0</ele>
        <time>2019-10-13T14:41:56Z</time>
      </trkpt>
      <trkpt lat="59.164039" lon="18.131514">
        <ele>39</ele>
        <time>2019-10-13T14:41:57Z</time>
      </trkpt>
      <trkpt lat="59.164013" lon="18.131474">
        <ele>39</ele>
        <time>2019-10-13T14:41:59Z</time>
      </trkpt>
      <trkpt lat="59.16399" lon="18.131437">
        <ele>39</ele>
        <time>2019-10-13T14:42:00Z</time>
      </trkpt>
      <trkpt lat="59.163967" lon="18.131408">
        <ele>39</ele>
        <time>2019-10-13T14:42:01Z</time>
      </trkpt>
      <trkpt lat="59.163943" lon="18.131383">
        <ele>39</ele>
        <time>2019-10-13T14:42:02Z</time>
      </trkpt>
      <trkpt lat="59.163922" lon="18.13136">
        <ele>39</ele>
        <time>2019-10-13T14:42:03Z</time>
      </trkpt>
      <trkpt lat="59.163902" lon="18.131331">
        <ele>39</ele>
        <time>2019-10-13T14:42:04Z</time>
      </trkpt>
      <trkpt lat="59.163884" lon="18.131301">
        <ele>39</ele>
        <time>2019-10-13T14:42:05Z</time>
      </trkpt>
      <trkpt lat="59.163865" lon="18.131265">
        <ele>39</ele>
        <time>2019-10-13T14:42:06Z</time>
      </trkpt>
      <trkpt lat="59.163846" lon="18.131221">
        <ele>39</ele>
        <time>2019-10-13T14:42:07Z</time>
      </trkpt>
      <trkpt lat="59.163825" lon="18.131183">
        <ele>39</ele>
        <time>2019-10-13T14:42:08Z</time>
      </trkpt>
      <trkpt lat="59.163806" lon="18.131156">
        <ele>39</ele>
        <time>2019-10-13T14:42:09Z</time>
      </trkpt>
      <trkpt lat="59.163785" lon="18.131135">
        <ele>39</ele>
        <time>2019-10-13T14:42:10Z</time>
      </trkpt>
      <trkpt lat="59.16376" lon="18.131111">
        <ele>0</ele>
        <time>2019-10-13T14:42:10Z</time>
      </trkpt>
      <trkpt lat="59.163734" lon="18.131083">
        <ele>39</ele>
        <time>2019-10-13T14:42:11Z</time>
      </trkpt>
      <trkpt lat="59.163708" lon="18.131059">
        <ele>0</ele>
        <time>2019-10-13T14:42:12Z</time>
      </trkpt>
      <trkpt lat="59.163684" lon="18.131038">
        <ele>39</ele>
        <time>2019-10-13T14:42:13Z</time>
      </trkpt>
      <trkpt lat="59.163661" lon="18.131022">
        <ele>39</ele>
        <time>2019-10-13T14:42:15Z</time>
      </trkpt>
      <trkpt lat="59.163641" lon="18.131007">
        <ele>39</ele>
        <time>2019-10-13T14:42:16Z</time>
      </trkpt>
      <trkpt lat="59.163622" lon="18.130993">
        <ele>38</ele>
        <time>2019-10-13T14:42:17Z</time>
      </trkpt>
      <trkpt lat="59.163602" lon="18.130976">
        <ele>38</ele>
        <time>2019-10-13T14:42:18Z</time>
      </trkpt>
      <trkpt lat="59.163578" lon="18.130951">
        <ele>38</ele>
        <time>2019-10-13T14:42:19Z</time>
      </trkpt>
      <trkpt lat="59.163551" lon="18.130925">
        <ele>38</ele>
        <time>2019-10-13T14:42:20Z</time>
      </trkpt>
      <trkpt lat="59.163525" lon="18.130903">
        <ele>38</ele>
        <time>2019-10-13T14:42:21Z</time>
      </trkpt>
      <trkpt lat="59.163501" lon="18.13088">
        <ele>38</ele>
        <time>2019-10-13T14:42:22Z</time>
      </trkpt>
      <trkpt lat="59.163481" lon="18.130856">
        <ele>38</ele>
        <time>2019-10-13T14:42:23Z</time>
      </trkpt>
      <trkpt lat="59.163461" lon="18.130839">
        <ele>38</ele>
        <time>2019-10-13T14:42:24Z</time>
      </trkpt>
      <trkpt lat="59.163442" lon="18.130827">
        <ele>38</ele>
        <time>2019-10-13T14:42:25Z</time>
      </trkpt>
      <trkpt lat="59.163421" lon="18.130812">
        <ele>38</ele>
        <time>2019-10-13T14:42:26Z</time>
      </trkpt>
      <trkpt lat="59.163403" lon="18.130795">
        <ele>38</ele>
        <time>2019-10-13T14:42:27Z</time>
      </trkpt>
      <trkpt lat="59.163383" lon="18.130777">
        <ele>38</ele>
        <time>2019-10-13T14:42:28Z</time>
      </trkpt>
      <trkpt lat="59.163364" lon="18.130757">
        <ele>37</ele>
        <time>2019-10-13T14:42:29Z</time>
      </trkpt>
      <trkpt lat="59.163344" lon="18.130739">
        <ele>0</ele>
        <time>2019-10-13T14:42:29Z</time>
      </trkpt>
      <trkpt lat="59.163323" lon="18.130724">
        <ele>37</ele>
        <time>2019-10-13T14:42:30Z</time>
      </trkpt>
      <trkpt lat="59.163302" lon="18.130714">
        <ele>37</ele>
        <time>2019-10-13T14:42:32Z</time>
      </trkpt>
      <trkpt lat="59.163282" lon="18.130706">
        <ele>37</ele>
        <time>2019-10-13T14:42:33Z</time>
      </trkpt>
      <trkpt lat="59.163263" lon="18.130701">
        <ele>37</ele>
        <time>2019-10-13T14:42:34Z</time>
      </trkpt>
      <trkpt lat="59.163229" lon="18.130712">
        <ele>37</ele>
        <time>2019-10-13T14:42:35Z</time>
      </trkpt>
      <trkpt lat="59.163212" lon="18.130723">
        <ele>37</ele>
        <time>2019-10-13T14:42:37Z</time>
      </trkpt>
      <trkpt lat="59.163194" lon="18.130732">
        <ele>37</ele>
        <time>2019-10-13T14:42:38Z</time>
      </trkpt>
      <trkpt lat="59.163159" lon="18.13073">
        <ele>37</ele>
        <time>2019-10-13T14:42:40Z</time>
      </trkpt>
      <trkpt lat="59.163124" lon="18.13072">
        <ele>37</ele>
        <time>2019-10-13T14:42:42Z</time>
      </trkpt>
      <trkpt lat="59.163105" lon="18.130714">
        <ele>37</ele>
        <time>2019-10-13T14:42:43Z</time>
      </trkpt>
      <trkpt lat="59.163085" lon="18.130708">
        <ele>37</ele>
        <time>2019-10-13T14:42:44Z</time>
      </trkpt>
      <trkpt lat="59.163066" lon="18.130701">
        <ele>37</ele>
        <time>2019-10-13T14:42:45Z</time>
      </trkpt>
      <trkpt lat="59.163047" lon="18.130695">
        <ele>37</ele>
        <time>2019-10-13T14:42:46Z</time>
      </trkpt>
      <trkpt lat="59.163028" lon="18.130696">
        <ele>37</ele>
        <time>2019-10-13T14:42:47Z</time>
      </trkpt>
      <trkpt lat="59.163009" lon="18.130702">
        <ele>36</ele>
        <time>2019-10-13T14:42:48Z</time>
      </trkpt>
      <trkpt lat="59.162975" lon="18.130715">
        <ele>36</ele>
        <time>2019-10-13T14:42:49Z</time>
      </trkpt>
      <trkpt lat="59.162941" lon="18.130735">
        <ele>37</ele>
        <time>2019-10-13T14:42:52Z</time>
      </trkpt>
      <trkpt lat="59.162921" lon="18.130751">
        <ele>37</ele>
        <time>2019-10-13T14:42:53Z</time>
      </trkpt>
      <trkpt lat="59.162897" lon="18.13077">
        <ele>37</ele>
        <time>2019-10-13T14:42:54Z</time>
      </trkpt>
      <trkpt lat="59.16287" lon="18.130786">
        <ele>37</ele>
        <time>2019-10-13T14:42:55Z</time>
      </trkpt>
      <trkpt lat="59.162844" lon="18.130791">
        <ele>37</ele>
        <time>2019-10-13T14:42:56Z</time>
      </trkpt>
      <trkpt lat="59.16282" lon="18.130785">
        <ele>36</ele>
        <time>2019-10-13T14:42:57Z</time>
      </trkpt>
      <trkpt lat="59.162801" lon="18.130772">
        <ele>36</ele>
        <time>2019-10-13T14:42:58Z</time>
      </trkpt>
      <trkpt lat="59.162783" lon="18.130762">
        <ele>36</ele>
        <time>2019-10-13T14:42:59Z</time>
      </trkpt>
      <trkpt lat="59.162753" lon="18.130742">
        <ele>0</ele>
        <time>2019-10-13T14:43:00Z</time>
      </trkpt>
      <trkpt lat="59.162721" lon="18.130727">
        <ele>36</ele>
        <time>2019-10-13T14:43:03Z</time>
      </trkpt>
      <trkpt lat="59.162702" lon="18.130737">
        <ele>36</ele>
        <time>2019-10-13T14:43:04Z</time>
      </trkpt>
      <trkpt lat="59.162681" lon="18.130752">
        <ele>36</ele>
        <time>2019-10-13T14:43:05Z</time>
      </trkpt>
      <trkpt lat="59.162659" lon="18.130772">
        <ele>36</ele>
        <time>2019-10-13T14:43:06Z</time>
      </trkpt>
      <trkpt lat="59.162634" lon="18.130795">
        <ele>36</ele>
        <time>2019-10-13T14:43:07Z</time>
      </trkpt>
      <trkpt lat="59.162608" lon="18.130808">
        <ele>0</ele>
        <time>2019-10-13T14:43:07Z</time>
      </trkpt>
      <trkpt lat="59.162585" lon="18.130796">
        <ele>36</ele>
        <time>2019-10-13T14:43:08Z</time>
      </trkpt>
      <trkpt lat="59.16257" lon="18.13077">
        <ele>36</ele>
        <time>2019-10-13T14:43:10Z</time>
      </trkpt>
      <trkpt lat="59.162558" lon="18.130743">
        <ele>36</ele>
        <time>2019-10-13T14:43:11Z</time>
      </trkpt>
      <trkpt lat="59.162535" lon="18.130696">
        <ele>36</ele>
        <time>2019-10-13T14:43:13Z</time>
      </trkpt>
      <trkpt lat="59.162508" lon="18.130669">
        <ele>36</ele>
        <time>2019-10-13T14:43:15Z</time>
      </trkpt>
      <trkpt lat="59.162483" lon="18.130665">
        <ele>36</ele>
        <time>2019-10-13T14:43:17Z</time>
      </trkpt>
      <trkpt lat="59.162473" lon="18.1307">
        <ele>36</ele>
        <time>2019-10-13T14:43:19Z</time>
      </trkpt>
      <trkpt lat="59.162474" lon="18.130768">
        <ele>36</ele>
        <time>2019-10-13T14:43:21Z</time>
      </trkpt>
      <trkpt lat="59.16248" lon="18.130803">
        <ele>36</ele>
        <time>2019-10-13T14:43:22Z</time>
      </trkpt>
      <trkpt lat="59.162507" lon="18.130828">
        <ele>36</ele>
        <time>2019-10-13T14:43:24Z</time>
      </trkpt>
      <trkpt lat="59.162519" lon="18.130781">
        <ele>36</ele>
        <time>2019-10-13T14:43:26Z</time>
      </trkpt>
      <trkpt lat="59.162513" lon="18.130725">
        <ele>36</ele>
        <time>2019-10-13T14:43:27Z</time>
      </trkpt>
      <trkpt lat="59.162505" lon="18.130685">
        <ele>36</ele>
        <time>2019-10-13T14:43:30Z</time>
      </trkpt>
      <trkpt lat="59.162495" lon="18.130639">
        <ele>36</ele>
        <time>2019-10-13T14:43:33Z</time>
      </trkpt>
      <trkpt lat="59.162493" lon="18.130602">
        <ele>36</ele>
        <time>2019-10-13T14:43:36Z</time>
      </trkpt>
      <trkpt lat="59.162495" lon="18.130555">
        <ele>36</ele>
        <time>2019-10-13T14:43:39Z</time>
      </trkpt>
      <trkpt lat="59.162481" lon="18.130523">
        <ele>36</ele>
        <time>2019-10-13T14:43:41Z</time>
      </trkpt>
      <trkpt lat="59.162462" lon="18.130533">
        <ele>36</ele>
        <time>2019-10-13T14:43:43Z</time>
      </trkpt>
      <trkpt lat="59.162457" lon="18.130574">
        <ele>36</ele>
        <time>2019-10-13T14:43:45Z</time>
      </trkpt>
      <trkpt lat="59.162452" lon="18.130616">
        <ele>37</ele>
        <time>2019-10-13T14:43:46Z</time>
      </trkpt>
      <trkpt lat="59.162444" lon="18.13067">
        <ele>37</ele>
        <time>2019-10-13T14:43:49Z</time>
      </trkpt>
      <trkpt lat="59.162468" lon="18.130678">
        <ele>37</ele>
        <time>2019-10-13T14:43:52Z</time>
      </trkpt>
      <trkpt lat="59.162482" lon="18.130634">
        <ele>36</ele>
        <time>2019-10-13T14:43:54Z</time>
      </trkpt>
      <trkpt lat="59.162493" lon="18.130579">
        <ele>36</ele>
        <time>2019-10-13T14:43:56Z</time>
      </trkpt>
      <trkpt lat="59.162501" lon="18.130519">
        <ele>36</ele>
        <time>2019-10-13T14:43:58Z</time>
      </trkpt>
      <trkpt lat="59.162508" lon="18.13046">
        <ele>36</ele>
        <time>2019-10-13T14:44:00Z</time>
      </trkpt>
      <trkpt lat="59.162515" lon="18.130422">
        <ele>36</ele>
        <time>2019-10-13T14:44:02Z</time>
      </trkpt>
      <trkpt lat="59.162508" lon="18.130389">
        <ele>36</ele>
        <time>2019-10-13T14:44:04Z</time>
      </trkpt>
      <trkpt lat="59.162498" lon="18.130375">
        <ele>0</ele>
        <time>2019-10-13T14:44:08Z</time>
      </trkpt>
      <trkpt lat="59.162464" lon="18.130408">
        <ele>35</ele>
        <time>2019-10-13T14:45:09Z</time>
      </trkpt>
      <trkpt lat="59.162465" lon="18.130431">
        <ele>35</ele>
        <time>2019-10-13T14:45:11Z</time>
      </trkpt>
      <trkpt lat="59.162459" lon="18.13049">
        <ele>35</ele>
        <time>2019-10-13T14:45:13Z</time>
      </trkpt>
      <trkpt lat="59.16245" lon="18.130555">
        <ele>35</ele>
        <time>2019-10-13T14:45:15Z</time>
      </trkpt>
      <trkpt lat="59.162447" lon="18.130592">
        <ele>36</ele>
        <time>2019-10-13T14:45:16Z</time>
      </trkpt>
      <trkpt lat="59.162442" lon="18.130636">
        <ele>36</ele>
        <time>2019-10-13T14:45:17Z</time>
      </trkpt>
      <trkpt lat="59.162436" lon="18.130676">
        <ele>36</ele>
        <time>2019-10-13T14:45:18Z</time>
      </trkpt>
      <trkpt lat="59.162431" lon="18.130711">
        <ele>0</ele>
        <time>2019-10-13T14:45:18Z</time>
      </trkpt>
      <trkpt lat="59.162425" lon="18.130744">
        <ele>36</ele>
        <time>2019-10-13T14:45:19Z</time>
      </trkpt>
      <trkpt lat="59.162419" lon="18.13078">
        <ele>36</ele>
        <time>2019-10-13T14:45:21Z</time>
      </trkpt>
      <trkpt lat="59.162416" lon="18.130822">
        <ele>36</ele>
        <time>2019-10-13T14:45:22Z</time>
      </trkpt>
      <trkpt lat="59.162412" lon="18.130868">
        <ele>36</ele>
        <time>2019-10-13T14:45:23Z</time>
      </trkpt>
      <trkpt lat="59.162405" lon="18.130905">
        <ele>36</ele>
        <time>2019-10-13T14:45:24Z</time>
      </trkpt>
      <trkpt lat="59.162395" lon="18.130937">
        <ele>36</ele>
        <time>2019-10-13T14:45:25Z</time>
      </trkpt>
      <trkpt lat="59.162385" lon="18.130977">
        <ele>36</ele>
        <time>2019-10-13T14:45:26Z</time>
      </trkpt>
      <trkpt lat="59.162374" lon="18.13102">
        <ele>36</ele>
        <time>2019-10-13T14:45:27Z</time>
      </trkpt>
      <trkpt lat="59.162362" lon="18.131054">
        <ele>0</ele>
        <time>2019-10-13T14:45:27Z</time>
      </trkpt>
      <trkpt lat="59.16237" lon="18.131104">
        <ele>36</ele>
        <time>2019-10-13T14:45:30Z</time>
      </trkpt>
      <trkpt lat="59.162389" lon="18.131106">
        <ele>36</ele>
        <time>2019-10-13T14:45:31Z</time>
      </trkpt>
      <trkpt lat="59.162409" lon="18.131103">
        <ele>36</ele>
        <time>2019-10-13T14:45:32Z</time>
      </trkpt>
      <trkpt lat="59.162431" lon="18.131104">
        <ele>36</ele>
        <time>2019-10-13T14:45:33Z</time>
      </trkpt>
      <trkpt lat="59.162452" lon="18.131115">
        <ele>36</ele>
        <time>2019-10-13T14:45:34Z</time>
      </trkpt>
      <trkpt lat="59.162472" lon="18.131117">
        <ele>36</ele>
        <time>2019-10-13T14:45:35Z</time>
      </trkpt>
      <trkpt lat="59.162488" lon="18.131097">
        <ele>36</ele>
        <time>2019-10-13T14:45:36Z</time>
      </trkpt>
      <trkpt lat="59.162498" lon="18.131063">
        <ele>36</ele>
        <time>2019-10-13T14:45:37Z</time>
      </trkpt>
      <trkpt lat="59.162501" lon="18.131024">
        <ele>36</ele>
        <time>2019-10-13T14:45:38Z</time>
      </trkpt>
      <trkpt lat="59.162499" lon="18.130986">
        <ele>36</ele>
        <time>2019-10-13T14:45:39Z</time>
      </trkpt>
      <trkpt lat="59.162493" lon="18.130952">
        <ele>36</ele>
        <time>2019-10-13T14:45:40Z</time>
      </trkpt>
      <trkpt lat="59.162484" lon="18.130919">
        <ele>36</ele>
        <time>2019-10-13T14:45:41Z</time>
      </trkpt>
      <trkpt lat="59.162479" lon="18.130882">
        <ele>36</ele>
        <time>2019-10-13T14:45:42Z</time>
      </trkpt>
      <trkpt lat="59.162479" lon="18.130844">
        <ele>36</ele>
        <time>2019-10-13T14:45:43Z</time>
      </trkpt>
      <trkpt lat="59.162485" lon="18.130806">
        <ele>0</ele>
        <time>2019-10-13T14:45:43Z</time>
      </trkpt>
      <trkpt lat="59.162493" lon="18.130767">
        <ele>36</ele>
        <time>2019-10-13T14:45:44Z</time>
      </trkpt>
      <trkpt lat="59.162501" lon="18.130733">
        <ele>36</ele>
        <time>2019-10-13T14:45:46Z</time>
      </trkpt>
      <trkpt lat="59.162495" lon="18.130677">
        <ele>36</ele>
        <time>2019-10-13T14:45:47Z</time>
      </trkpt>
      <trkpt lat="59.162469" lon="18.130677">
        <ele>36</ele>
        <time>2019-10-13T14:45:50Z</time>
      </trkpt>
      <trkpt lat="59.162446" lon="18.130715">
        <ele>36</ele>
        <time>2019-10-13T14:45:52Z</time>
      </trkpt>
      <trkpt lat="59.162423" lon="18.130769">
        <ele>37</ele>
        <time>2019-10-13T14:45:54Z</time>
      </trkpt>
      <trkpt lat="59.162409" lon="18.130797">
        <ele>37</ele>
        <time>2019-10-13T14:45:55Z</time>
      </trkpt>
      <trkpt lat="59.162396" lon="18.130824">
        <ele>37</ele>
        <time>2019-10-13T14:45:56Z</time>
      </trkpt>
      <trkpt lat="59.162384" lon="18.130856">
        <ele>37</ele>
        <time>2019-10-13T14:45:57Z</time>
      </trkpt>
      <trkpt lat="59.162375" lon="18.13089">
        <ele>37</ele>
        <time>2019-10-13T14:45:58Z</time>
      </trkpt>
      <trkpt lat="59.162368" lon="18.13096">
        <ele>37</ele>
        <time>2019-10-13T14:46:00Z</time>
      </trkpt>
      <trkpt lat="59.162365" lon="18.131001">
        <ele>37</ele>
        <time>2019-10-13T14:46:01Z</time>
      </trkpt>
      <trkpt lat="59.162361" lon="18.131046">
        <ele>37</ele>
        <time>2019-10-13T14:46:02Z</time>
      </trkpt>
      <trkpt lat="59.162362" lon="18.13109">
        <ele>37</ele>
        <time>2019-10-13T14:46:03Z</time>
      </trkpt>
      <trkpt lat="59.162371" lon="18.131123">
        <ele>37</ele>
        <time>2019-10-13T14:46:04Z</time>
      </trkpt>
      <trkpt lat="59.162404" lon="18.131118">
        <ele>0</ele>
        <time>2019-10-13T14:46:05Z</time>
      </trkpt>
      <trkpt lat="59.162413" lon="18.131086">
        <ele>37</ele>
        <time>2019-10-13T14:46:06Z</time>
      </trkpt>
      <trkpt lat="59.162419" lon="18.131048">
        <ele>37</ele>
        <time>2019-10-13T14:46:08Z</time>
      </trkpt>
      <trkpt lat="59.162424" lon="18.131009">
        <ele>37</ele>
        <time>2019-10-13T14:46:09Z</time>
      </trkpt>
      <trkpt lat="59.162431" lon="18.13097">
        <ele>37</ele>
        <time>2019-10-13T14:46:10Z</time>
      </trkpt>
      <trkpt lat="59.162438" lon="18.130931">
        <ele>0</ele>
        <time>2019-10-13T14:46:10Z</time>
      </trkpt>
      <trkpt lat="59.162445" lon="18.130889">
        <ele>37</ele>
        <time>2019-10-13T14:46:11Z</time>
      </trkpt>
      <trkpt lat="59.162451" lon="18.130847">
        <ele>37</ele>
        <time>2019-10-13T14:46:13Z</time>
      </trkpt>
      <trkpt lat="59.162456" lon="18.130803">
        <ele>37</ele>
        <time>2019-10-13T14:46:14Z</time>
      </trkpt>
      <trkpt lat="59.162464" lon="18.130758">
        <ele>36</ele>
        <time>2019-10-13T14:46:15Z</time>
      </trkpt>
      <trkpt lat="59.162473" lon="18.130716">
        <ele>36</ele>
        <time>2019-10-13T14:46:16Z</time>
      </trkpt>
      <trkpt lat="59.162483" lon="18.130674">
        <ele>36</ele>
        <time>2019-10-13T14:46:17Z</time>
      </trkpt>
      <trkpt lat="59.162492" lon="18.130633">
        <ele>36</ele>
        <time>2019-10-13T14:46:18Z</time>
      </trkpt>
      <trkpt lat="59.162496" lon="18.130592">
        <ele>36</ele>
        <time>2019-10-13T14:46:19Z</time>
      </trkpt>
      <trkpt lat="59.162493" lon="18.130554">
        <ele>36</ele>
        <time>2019-10-13T14:46:20Z</time>
      </trkpt>
      <trkpt lat="59.162466" lon="18.130521">
        <ele>36</ele>
        <time>2019-10-13T14:46:22Z</time>
      </trkpt>
      <trkpt lat="59.162448" lon="18.13056">
        <ele>36</ele>
        <time>2019-10-13T14:46:24Z</time>
      </trkpt>
      <trkpt lat="59.162444" lon="18.130597">
        <ele>0</ele>
        <time>2019-10-13T14:46:24Z</time>
      </trkpt>
      <trkpt lat="59.16244" lon="18.130638">
        <ele>36</ele>
        <time>2019-10-13T14:46:25Z</time>
      </trkpt>
      <trkpt lat="59.162435" lon="18.130679">
        <ele>36</ele>
        <time>2019-10-13T14:46:27Z</time>
      </trkpt>
      <trkpt lat="59.162427" lon="18.130719">
        <ele>36</ele>
        <time>2019-10-13T14:46:28Z</time>
      </trkpt>
      <trkpt lat="59.162417" lon="18.130756">
        <ele>36</ele>
        <time>2019-10-13T14:46:29Z</time>
      </trkpt>
      <trkpt lat="59.162405" lon="18.130792">
        <ele>36</ele>
        <time>2019-10-13T14:46:30Z</time>
      </trkpt>
      <trkpt lat="59.162391" lon="18.130835">
        <ele>37</ele>
        <time>2019-10-13T14:46:31Z</time>
      </trkpt>
      <trkpt lat="59.162384" lon="18.13088">
        <ele>37</ele>
        <time>2019-10-13T14:46:32Z</time>
      </trkpt>
      <trkpt lat="59.162407" lon="18.13092">
        <ele>37</ele>
        <time>2019-10-13T14:46:34Z</time>
      </trkpt>
      <trkpt lat="59.162433" lon="18.130865">
        <ele>37</ele>
        <time>2019-10-13T14:46:35Z</time>
      </trkpt>
      <trkpt lat="59.162442" lon="18.130824">
        <ele>37</ele>
        <time>2019-10-13T14:46:37Z</time>
      </trkpt>
      <trkpt lat="59.16245" lon="18.13078">
        <ele>37</ele>
        <time>2019-10-13T14:46:38Z</time>
      </trkpt>
      <trkpt lat="59.162456" lon="18.130741">
        <ele>37</ele>
        <time>2019-10-13T14:46:39Z</time>
      </trkpt>
      <trkpt lat="59.162463" lon="18.130703">
        <ele>37</ele>
        <time>2019-10-13T14:46:41Z</time>
      </trkpt>
      <trkpt lat="59.162471" lon="18.130663">
        <ele>37</ele>
        <time>2019-10-13T14:46:43Z</time>
      </trkpt>
      <trkpt lat="59.162482" lon="18.130618">
        <ele>37</ele>
        <time>2019-10-13T14:46:44Z</time>
      </trkpt>
      <trkpt lat="59.16249" lon="18.130588">
        <ele>0</ele>
        <time>2019-10-13T14:46:50Z</time>
      </trkpt>
      <trkpt lat="59.1625" lon="18.130668">
        <ele>38</ele>
        <time>2019-10-13T15:08:21Z</time>
      </trkpt>
      <trkpt lat="59.162497" lon="18.13064">
        <ele>38</ele>
        <time>2019-10-13T15:08:24Z</time>
      </trkpt>
      <trkpt lat="59.162489" lon="18.130634">
        <ele>0</ele>
        <time>2019-10-13T15:08:28Z</time>
      </trkpt>
      <trkpt lat="59.1624" lon="18.130596">
        <ele>36</ele>
        <time>2019-10-13T15:09:47Z</time>
      </trkpt>
      <trkpt lat="59.162388" lon="18.130576">
        <ele>36</ele>
        <time>2019-10-13T15:09:49Z</time>
      </trkpt>
      <trkpt lat="59.162365" lon="18.130532">
        <ele>36</ele>
        <time>2019-10-13T15:09:51Z</time>
      </trkpt>
      <trkpt lat="59.162344" lon="18.13048">
        <ele>36</ele>
        <time>2019-10-13T15:09:53Z</time>
      </trkpt>
      <trkpt lat="59.162333" lon="18.130448">
        <ele>36</ele>
        <time>2019-10-13T15:09:54Z</time>
      </trkpt>
      <trkpt lat="59.162317" lon="18.130419">
        <ele>36</ele>
        <time>2019-10-13T15:09:55Z</time>
      </trkpt>
      <trkpt lat="59.162297" lon="18.1304">
        <ele>36</ele>
        <time>2019-10-13T15:09:56Z</time>
      </trkpt>
      <trkpt lat="59.162274" lon="18.13039">
        <ele>36</ele>
        <time>2019-10-13T15:09:57Z</time>
      </trkpt>
      <trkpt lat="59.16225" lon="18.13038">
        <ele>36</ele>
        <time>2019-10-13T15:09:58Z</time>
      </trkpt>
      <trkpt lat="59.162223" lon="18.13037">
        <ele>36</ele>
        <time>2019-10-13T15:09:59Z</time>
      </trkpt>
      <trkpt lat="59.162194" lon="18.130358">
        <ele>36</ele>
        <time>2019-10-13T15:10:00Z</time>
      </trkpt>
      <trkpt lat="59.16217" lon="18.130349">
        <ele>37</ele>
        <time>2019-10-13T15:10:01Z</time>
      </trkpt>
      <trkpt lat="59.162145" lon="18.130344">
        <ele>37</ele>
        <time>2019-10-13T15:10:02Z</time>
      </trkpt>
      <trkpt lat="59.162119" lon="18.130338">
        <ele>37</ele>
        <time>2019-10-13T15:10:03Z</time>
      </trkpt>
      <trkpt lat="59.162096" lon="18.13033">
        <ele>0</ele>
        <time>2019-10-13T15:10:03Z</time>
      </trkpt>
      <trkpt lat="59.162065" lon="18.130345">
        <ele>0</ele>
        <time>2019-10-13T15:10:05Z</time>
      </trkpt>
      <trkpt lat="59.16204" lon="18.130352">
        <ele>37</ele>
        <time>2019-10-13T15:10:08Z</time>
      </trkpt>
      <trkpt lat="59.162019" lon="18.130348">
        <ele>37</ele>
        <time>2019-10-13T15:10:10Z</time>
      </trkpt>
      <trkpt lat="59.161992" lon="18.130335">
        <ele>37</ele>
        <time>2019-10-13T15:10:12Z</time>
      </trkpt>
      <trkpt lat="59.161958" lon="18.130309">
        <ele>37</ele>
        <time>2019-10-13T15:10:14Z</time>
      </trkpt>
      <trkpt lat="59.161938" lon="18.130285">
        <ele>37</ele>
        <time>2019-10-13T15:10:15Z</time>
      </trkpt>
      <trkpt lat="59.161912" lon="18.130258">
        <ele>37</ele>
        <time>2019-10-13T15:10:16Z</time>
      </trkpt>
      <trkpt lat="59.161882" lon="18.130232">
        <ele>37</ele>
        <time>2019-10-13T15:10:17Z</time>
      </trkpt>
      <trkpt lat="59.161848" lon="18.130207">
        <ele>37</ele>
        <time>2019-10-13T15:10:18Z</time>
      </trkpt>
      <trkpt lat="59.16181" lon="18.130189">
        <ele>37</ele>
        <time>2019-10-13T15:10:19Z</time>
      </trkpt>
      <trkpt lat="59.161769" lon="18.130179">
        <ele>37</ele>
        <time>2019-10-13T15:10:20Z</time>
      </trkpt>
      <trkpt lat="59.16173" lon="18.130175">
        <ele>38</ele>
        <time>2019-10-13T15:10:21Z</time>
      </trkpt>
      <trkpt lat="59.161693" lon="18.130179">
        <ele>38</ele>
        <time>2019-10-13T15:10:22Z</time>
      </trkpt>
      <trkpt lat="59.161659" lon="18.130184">
        <ele>38</ele>
        <time>2019-10-13T15:10:23Z</time>
      </trkpt>
      <trkpt lat="59.161629" lon="18.130193">
        <ele>0</ele>
        <time>2019-10-13T15:10:23Z</time>
      </trkpt>
      <trkpt lat="59.161602" lon="18.130203">
        <ele>38</ele>
        <time>2019-10-13T15:10:24Z</time>
      </trkpt>
      <trkpt lat="59.161577" lon="18.130213">
        <ele>38</ele>
        <time>2019-10-13T15:10:25Z</time>
      </trkpt>
      <trkpt lat="59.161549" lon="18.130225">
        <ele>39</ele>
        <time>2019-10-13T15:10:27Z</time>
      </trkpt>
      <trkpt lat="59.161525" lon="18.130235">
        <ele>39</ele>
        <time>2019-10-13T15:10:28Z</time>
      </trkpt>
      <trkpt lat="59.1615" lon="18.130245">
        <ele>39</ele>
        <time>2019-10-13T15:10:29Z</time>
      </trkpt>
      <trkpt lat="59.161475" lon="18.130255">
        <ele>39</ele>
        <time>2019-10-13T15:10:30Z</time>
      </trkpt>
      <trkpt lat="59.161448" lon="18.130262">
        <ele>39</ele>
        <time>2019-10-13T15:10:31Z</time>
      </trkpt>
      <trkpt lat="59.161418" lon="18.130263">
        <ele>39</ele>
        <time>2019-10-13T15:10:32Z</time>
      </trkpt>
      <trkpt lat="59.161389" lon="18.130261">
        <ele>39</ele>
        <time>2019-10-13T15:10:33Z</time>
      </trkpt>
      <trkpt lat="59.161363" lon="18.130255">
        <ele>39</ele>
        <time>2019-10-13T15:10:34Z</time>
      </trkpt>
      <trkpt lat="59.161337" lon="18.130246">
        <ele>39</ele>
        <time>2019-10-13T15:10:35Z</time>
      </trkpt>
      <trkpt lat="59.16131" lon="18.130235">
        <ele>40</ele>
        <time>2019-10-13T15:10:36Z</time>
      </trkpt>
      <trkpt lat="59.161283" lon="18.130224">
        <ele>40</ele>
        <time>2019-10-13T15:10:37Z</time>
      </trkpt>
      <trkpt lat="59.161257" lon="18.130214">
        <ele>40</ele>
        <time>2019-10-13T15:10:38Z</time>
      </trkpt>
      <trkpt lat="59.161231" lon="18.130203">
        <ele>40</ele>
        <time>2019-10-13T15:10:39Z</time>
      </trkpt>
      <trkpt lat="59.161208" lon="18.130191">
        <ele>40</ele>
        <time>2019-10-13T15:10:40Z</time>
      </trkpt>
      <trkpt lat="59.161186" lon="18.130178">
        <ele>41</ele>
        <time>2019-10-13T15:10:41Z</time>
      </trkpt>
      <trkpt lat="59.161163" lon="18.130166">
        <ele>41</ele>
        <time>2019-10-13T15:10:42Z</time>
      </trkpt>
      <trkpt lat="59.161144" lon="18.130153">
        <ele>41</ele>
        <time>2019-10-13T15:10:43Z</time>
      </trkpt>
      <trkpt lat="59.161122" lon="18.130136">
        <ele>0</ele>
        <time>2019-10-13T15:10:43Z</time>
      </trkpt>
      <trkpt lat="59.161105" lon="18.130117">
        <ele>42</ele>
        <time>2019-10-13T15:10:44Z</time>
      </trkpt>
      <trkpt lat="59.161084" lon="18.130093">
        <ele>42</ele>
        <time>2019-10-13T15:10:46Z</time>
      </trkpt>
      <trkpt lat="59.161063" lon="18.130066">
        <ele>42</ele>
        <time>2019-10-13T15:10:47Z</time>
      </trkpt>
      <trkpt lat="59.161042" lon="18.130039">
        <ele>42</ele>
        <time>2019-10-13T15:10:48Z</time>
      </trkpt>
      <trkpt lat="59.161023" lon="18.130009">
        <ele>42</ele>
        <time>2019-10-13T15:10:49Z</time>
      </trkpt>
      <trkpt lat="59.161003" lon="18.129976">
        <ele>43</ele>
        <time>2019-10-13T15:10:50Z</time>
      </trkpt>
      <trkpt lat="59.160985" lon="18.129945">
        <ele>43</ele>
        <time>2019-10-13T15:10:51Z</time>
      </trkpt>
      <trkpt lat="59.160965" lon="18.129917">
        <ele>43</ele>
        <time>2019-10-13T15:10:52Z</time>
      </trkpt>
      <trkpt lat="59.160944" lon="18.129889">
        <ele>43</ele>
        <time>2019-10-13T15:10:53Z</time>
      </trkpt>
      <trkpt lat="59.160926" lon="18.129862">
        <ele>43</ele>
        <time>2019-10-13T15:10:54Z</time>
      </trkpt>
      <trkpt lat="59.160908" lon="18.129835">
        <ele>44</ele>
        <time>2019-10-13T15:10:55Z</time>
      </trkpt>
      <trkpt lat="59.160889" lon="18.129809">
        <ele>44</ele>
        <time>2019-10-13T15:10:56Z</time>
      </trkpt>
      <trkpt lat="59.16087" lon="18.129782">
        <ele>44</ele>
        <time>2019-10-13T15:10:57Z</time>
      </trkpt>
      <trkpt lat="59.160852" lon="18.129757">
        <ele>44</ele>
        <time>2019-10-13T15:10:58Z</time>
      </trkpt>
      <trkpt lat="59.160833" lon="18.129734">
        <ele>44</ele>
        <time>2019-10-13T15:10:59Z</time>
      </trkpt>
      <trkpt lat="59.160811" lon="18.129714">
        <ele>45</ele>
        <time>2019-10-13T15:11:00Z</time>
      </trkpt>
      <trkpt lat="59.16079" lon="18.129695">
        <ele>45</ele>
        <time>2019-10-13T15:11:01Z</time>
      </trkpt>
      <trkpt lat="59.160768" lon="18.129675">
        <ele>45</ele>
        <time>2019-10-13T15:11:02Z</time>
      </trkpt>
      <trkpt lat="59.160747" lon="18.12966">
        <ele>44</ele>
        <time>2019-10-13T15:11:02Z</time>
      </trkpt>
      <trkpt lat="59.160727" lon="18.129648">
        <ele>45</ele>
        <time>2019-10-13T15:11:03Z</time>
      </trkpt>
      <trkpt lat="59.160695" lon="18.129624">
        <ele>46</ele>
        <time>2019-10-13T15:11:05Z</time>
      </trkpt>
      <trkpt lat="59.160679" lon="18.129605">
        <ele>46</ele>
        <time>2019-10-13T15:11:07Z</time>
      </trkpt>
      <trkpt lat="59.160661" lon="18.129581">
        <ele>46</ele>
        <time>2019-10-13T15:11:08Z</time>
      </trkpt>
      <trkpt lat="59.16064" lon="18.129558">
        <ele>46</ele>
        <time>2019-10-13T15:11:09Z</time>
      </trkpt>
      <trkpt lat="59.160619" lon="18.129537">
        <ele>46</ele>
        <time>2019-10-13T15:11:10Z</time>
      </trkpt>
      <trkpt lat="59.1606" lon="18.129521">
        <ele>46</ele>
        <time>2019-10-13T15:11:11Z</time>
      </trkpt>
      <trkpt lat="59.16058" lon="18.129503">
        <ele>47</ele>
        <time>2019-10-13T15:11:13Z</time>
      </trkpt>
      <trkpt lat="59.160556" lon="18.129484">
        <ele>48</ele>
        <time>2019-10-13T15:11:16Z</time>
      </trkpt>
      <trkpt lat="59.160539" lon="18.12947">
        <ele>48</ele>
        <time>2019-10-13T15:11:18Z</time>
      </trkpt>
      <trkpt lat="59.160515" lon="18.129452">
        <ele>48</ele>
        <time>2019-10-13T15:11:20Z</time>
      </trkpt>
      <trkpt lat="59.160488" lon="18.129434">
        <ele>0</ele>
        <time>2019-10-13T15:11:21Z</time>
      </trkpt>
      <trkpt lat="59.160465" lon="18.129413">
        <ele>49</ele>
        <time>2019-10-13T15:11:24Z</time>
      </trkpt>
      <trkpt lat="59.160441" lon="18.129384">
        <ele>49</ele>
        <time>2019-10-13T15:11:26Z</time>
      </trkpt>
      <trkpt lat="59.160422" lon="18.129363">
        <ele>49</ele>
        <time>2019-10-13T15:11:28Z</time>
      </trkpt>
      <trkpt lat="59.160404" lon="18.129344">
        <ele>49</ele>
        <time>2019-10-13T15:11:30Z</time>
      </trkpt>
      <trkpt lat="59.16038" lon="18.129323">
        <ele>49</ele>
        <time>2019-10-13T15:11:32Z</time>
      </trkpt>
      <trkpt lat="59.160361" lon="18.129311">
        <ele>49</ele>
        <time>2019-10-13T15:11:34Z</time>
      </trkpt>
      <trkpt lat="59.160335" lon="18.129304">
        <ele>50</ele>
        <time>2019-10-13T15:11:37Z</time>
      </trkpt>
      <trkpt lat="59.16031" lon="18.129298">
        <ele>50</ele>
        <time>2019-10-13T15:11:39Z</time>
      </trkpt>
      <trkpt lat="59.160286" lon="18.129288">
        <ele>0</ele>
        <time>2019-10-13T15:11:40Z</time>
      </trkpt>
      <trkpt lat="59.160268" lon="18.129276">
        <ele>51</ele>
        <time>2019-10-13T15:11:43Z</time>
      </trkpt>
      <trkpt lat="59.160247" lon="18.129278">
        <ele>52</ele>
        <time>2019-10-13T15:11:46Z</time>
      </trkpt>
      <trkpt lat="59.160223" lon="18.129276">
        <ele>52</ele>
        <time>2019-10-13T15:11:49Z</time>
      </trkpt>
      <trkpt lat="59.160202" lon="18.129266">
        <ele>53</ele>
        <time>2019-10-13T15:11:53Z</time>
      </trkpt>
      <trkpt lat="59.160182" lon="18.129245">
        <ele>53</ele>
        <time>2019-10-13T15:11:56Z</time>
      </trkpt>
      <trkpt lat="59.160164" lon="18.12922">
        <ele>53</ele>
        <time>2019-10-13T15:11:57Z</time>
      </trkpt>
      <trkpt lat="59.16015" lon="18.12919">
        <ele>0</ele>
        <time>2019-10-13T15:11:59Z</time>
      </trkpt>
      <trkpt lat="59.160132" lon="18.129166">
        <ele>54</ele>
        <time>2019-10-13T15:12:03Z</time>
      </trkpt>
      <trkpt lat="59.160114" lon="18.12915">
        <ele>54</ele>
        <time>2019-10-13T15:12:06Z</time>
      </trkpt>
      <trkpt lat="59.160096" lon="18.129118">
        <ele>54</ele>
        <time>2019-10-13T15:12:10Z</time>
      </trkpt>
      <trkpt lat="59.160072" lon="18.129102">
        <ele>54</ele>
        <time>2019-10-13T15:12:12Z</time>
      </trkpt>
      <trkpt lat="59.160034" lon="18.129096">
        <ele>54</ele>
        <time>2019-10-13T15:12:14Z</time>
      </trkpt>
      <trkpt lat="59.160016" lon="18.129094">
        <ele>54</ele>
        <time>2019-10-13T15:12:15Z</time>
      </trkpt>
      <trkpt lat="59.159992" lon="18.12909">
        <ele>55</ele>
        <time>2019-10-13T15:12:16Z</time>
      </trkpt>
      <trkpt lat="59.159972" lon="18.12909">
        <ele>55</ele>
        <time>2019-10-13T15:12:17Z</time>
      </trkpt>
      <trkpt lat="59.159949" lon="18.129098">
        <ele>55</ele>
        <time>2019-10-13T15:12:18Z</time>
      </trkpt>
      <trkpt lat="59.159927" lon="18.129104">
        <ele>0</ele>
        <time>2019-10-13T15:12:18Z</time>
      </trkpt>
      <trkpt lat="59.159904" lon="18.129102">
        <ele>55</ele>
        <time>2019-10-13T15:12:19Z</time>
      </trkpt>
      <trkpt lat="59.159881" lon="18.129094">
        <ele>55</ele>
        <time>2019-10-13T15:12:21Z</time>
      </trkpt>
      <trkpt lat="59.159857" lon="18.129081">
        <ele>55</ele>
        <time>2019-10-13T15:12:22Z</time>
      </trkpt>
      <trkpt lat="59.159838" lon="18.12907">
        <ele>55</ele>
        <time>2019-10-13T15:12:23Z</time>
      </trkpt>
      <trkpt lat="59.159803" lon="18.129062">
        <ele>55</ele>
        <time>2019-10-13T15:12:25Z</time>
      </trkpt>
      <trkpt lat="59.159786" lon="18.129056">
        <ele>0</ele>
        <time>2019-10-13T15:12:25Z</time>
      </trkpt>
      <trkpt lat="59.159762" lon="18.129046">
        <ele>55</ele>
        <time>2019-10-13T15:12:26Z</time>
      </trkpt>
      <trkpt lat="59.159741" lon="18.129038">
        <ele>55</ele>
        <time>2019-10-13T15:12:28Z</time>
      </trkpt>
      <trkpt lat="59.159722" lon="18.129036">
        <ele>55</ele>
        <time>2019-10-13T15:12:29Z</time>
      </trkpt>
      <trkpt lat="59.159687" lon="18.129026">
        <ele>55</ele>
        <time>2019-10-13T15:12:31Z</time>
      </trkpt>
      <trkpt lat="59.159666" lon="18.129018">
        <ele>55</ele>
        <time>2019-10-13T15:12:32Z</time>
      </trkpt>
      <trkpt lat="59.159648" lon="18.12901">
        <ele>55</ele>
        <time>2019-10-13T15:12:33Z</time>
      </trkpt>
      <trkpt lat="59.15963" lon="18.128998">
        <ele>55</ele>
        <time>2019-10-13T15:12:34Z</time>
      </trkpt>
      <trkpt lat="59.159612" lon="18.128984">
        <ele>55</ele>
        <time>2019-10-13T15:12:35Z</time>
      </trkpt>
      <trkpt lat="59.159588" lon="18.128953">
        <ele>55</ele>
        <time>2019-10-13T15:12:37Z</time>
      </trkpt>
      <trkpt lat="59.159572" lon="18.128928">
        <ele>56</ele>
        <time>2019-10-13T15:12:38Z</time>
      </trkpt>
      <trkpt lat="59.159567" lon="18.128922">
        <ele>0</ele>
        <time>2019-10-13T15:12:42Z</time>
      </trkpt>
      <trkpt lat="59.159512" lon="18.128925">
        <ele>56</ele>
        <time>2019-10-13T15:13:05Z</time>
      </trkpt>
      <trkpt lat="59.159494" lon="18.128917">
        <ele>57</ele>
        <time>2019-10-13T15:13:11Z</time>
      </trkpt>
      <trkpt lat="59.15948" lon="18.128909">
        <ele>0</ele>
        <time>2019-10-13T15:13:16Z</time>
      </trkpt>
      <trkpt lat="59.15945" lon="18.128999">
        <ele>57</ele>
        <time>2019-10-13T15:13:29Z</time>
      </trkpt>
      <trkpt lat="59.159427" lon="18.129045">
        <ele>57</ele>
        <time>2019-10-13T15:13:32Z</time>
      </trkpt>
      <trkpt lat="59.15941" lon="18.129069">
        <ele>57</ele>
        <time>2019-10-13T15:13:33Z</time>
      </trkpt>
      <trkpt lat="59.159392" lon="18.129089">
        <ele>56</ele>
        <time>2019-10-13T15:13:34Z</time>
      </trkpt>
      <trkpt lat="59.159373" lon="18.129109">
        <ele>56</ele>
        <time>2019-10-13T15:13:35Z</time>
      </trkpt>
      <trkpt lat="59.159348" lon="18.129126">
        <ele>56</ele>
        <time>2019-10-13T15:13:36Z</time>
      </trkpt>
      <trkpt lat="59.159318" lon="18.129144">
        <ele>56</ele>
        <time>2019-10-13T15:13:37Z</time>
      </trkpt>
      <trkpt lat="59.15928" lon="18.129157">
        <ele>56</ele>
        <time>2019-10-13T15:13:38Z</time>
      </trkpt>
      <trkpt lat="59.159245" lon="18.129165">
        <ele>0</ele>
        <time>2019-10-13T15:13:38Z</time>
      </trkpt>
      <trkpt lat="59.159208" lon="18.129175">
        <ele>56</ele>
        <time>2019-10-13T15:13:39Z</time>
      </trkpt>
      <trkpt lat="59.159174" lon="18.129185">
        <ele>56</ele>
        <time>2019-10-13T15:13:41Z</time>
      </trkpt>
      <trkpt lat="59.15914" lon="18.129195">
        <ele>56</ele>
        <time>2019-10-13T15:13:42Z</time>
      </trkpt>
      <trkpt lat="59.159104" lon="18.129201">
        <ele>56</ele>
        <time>2019-10-13T15:13:43Z</time>
      </trkpt>
      <trkpt lat="59.159061" lon="18.129207">
        <ele>56</ele>
        <time>2019-10-13T15:13:44Z</time>
      </trkpt>
      <trkpt lat="59.159012" lon="18.129215">
        <ele>56</ele>
        <time>2019-10-13T15:13:45Z</time>
      </trkpt>
      <trkpt lat="59.158962" lon="18.129212">
        <ele>56</ele>
        <time>2019-10-13T15:13:46Z</time>
      </trkpt>
      <trkpt lat="59.158916" lon="18.129197">
        <ele>56</ele>
        <time>2019-10-13T15:13:47Z</time>
      </trkpt>
      <trkpt lat="59.158876" lon="18.129169">
        <ele>0</ele>
        <time>2019-10-13T15:13:47Z</time>
      </trkpt>
      <trkpt lat="59.158842" lon="18.129127">
        <ele>56</ele>
        <time>2019-10-13T15:13:48Z</time>
      </trkpt>
      <trkpt lat="59.158811" lon="18.129065">
        <ele>56</ele>
        <time>2019-10-13T15:13:50Z</time>
      </trkpt>
      <trkpt lat="59.158783" lon="18.128999">
        <ele>0</ele>
        <time>2019-10-13T15:13:50Z</time>
      </trkpt>
      <trkpt lat="59.158755" lon="18.128927">
        <ele>56</ele>
        <time>2019-10-13T15:13:51Z</time>
      </trkpt>
      <trkpt lat="59.158735" lon="18.128843">
        <ele>55</ele>
        <time>2019-10-13T15:13:53Z</time>
      </trkpt>
      <trkpt lat="59.158727" lon="18.128759">
        <ele>55</ele>
        <time>2019-10-13T15:13:54Z</time>
      </trkpt>
      <trkpt lat="59.158735" lon="18.128688">
        <ele>55</ele>
        <time>2019-10-13T15:13:55Z</time>
      </trkpt>
      <trkpt lat="59.158751" lon="18.128643">
        <ele>55</ele>
        <time>2019-10-13T15:13:56Z</time>
      </trkpt>
      <trkpt lat="59.158766" lon="18.128616">
        <ele>55</ele>
        <time>2019-10-13T15:13:57Z</time>
      </trkpt>
      <trkpt lat="59.158781" lon="18.128576">
        <ele>55</ele>
        <time>2019-10-13T15:13:59Z</time>
      </trkpt>
      <trkpt lat="59.15879" lon="18.128543">
        <ele>54</ele>
        <time>2019-10-13T15:14:01Z</time>
      </trkpt>
      <trkpt lat="59.158793" lon="18.128508">
        <ele>54</ele>
        <time>2019-10-13T15:14:05Z</time>
      </trkpt>
      <trkpt lat="59.158792" lon="18.128504">
        <ele>0</ele>
        <time>2019-10-13T15:14:06Z</time>
      </trkpt>
      <trkpt lat="59.158779" lon="18.128538">
        <ele>54</ele>
        <time>2019-10-13T15:14:49Z</time>
      </trkpt>
      <trkpt lat="59.158785" lon="18.128581">
        <ele>54</ele>
        <time>2019-10-13T15:14:52Z</time>
      </trkpt>
      <trkpt lat="59.158763" lon="18.128579">
        <ele>54</ele>
        <time>2019-10-13T15:14:59Z</time>
      </trkpt>
      <trkpt lat="59.158759" lon="18.128578">
        <ele>0</ele>
        <time>2019-10-13T15:15:00Z</time>
      </trkpt>
      <trkpt lat="59.158748" lon="18.128551">
        <ele>53</ele>
        <time>2019-10-13T15:15:15Z</time>
      </trkpt>
      <trkpt lat="59.15876" lon="18.128526">
        <ele>53</ele>
        <time>2019-10-13T15:15:18Z</time>
      </trkpt>
      <trkpt lat="59.158759" lon="18.128525">
        <ele>0</ele>
        <time>2019-10-13T15:15:20Z</time>
      </trkpt>
      <trkpt lat="59.158808" lon="18.128485">
        <ele>55</ele>
        <time>2019-10-13T15:15:41Z</time>
      </trkpt>
      <trkpt lat="59.158826" lon="18.128474">
        <ele>55</ele>
        <time>2019-10-13T15:15:44Z</time>
      </trkpt>
      <trkpt lat="59.158845" lon="18.128462">
        <ele>55</ele>
        <time>2019-10-13T15:15:46Z</time>
      </trkpt>
      <trkpt lat="59.158864" lon="18.128467">
        <ele>55</ele>
        <time>2019-10-13T15:15:48Z</time>
      </trkpt>
      <trkpt lat="59.158884" lon="18.128488">
        <ele>54</ele>
        <time>2019-10-13T15:15:51Z</time>
      </trkpt>
      <trkpt lat="59.158895" lon="18.128506">
        <ele>0</ele>
        <time>2019-10-13T15:15:56Z</time>
      </trkpt>
      <trkpt lat="59.158854" lon="18.128602">
        <ele>56</ele>
        <time>2019-10-13T15:16:31Z</time>
      </trkpt>
      <trkpt lat="59.158864" lon="18.12863">
        <ele>56</ele>
        <time>2019-10-13T15:16:35Z</time>
      </trkpt>
      <trkpt lat="59.15887" lon="18.128669">
        <ele>57</ele>
        <time>2019-10-13T15:16:38Z</time>
      </trkpt>
      <trkpt lat="59.158851" lon="18.128683">
        <ele>57</ele>
        <time>2019-10-13T15:16:41Z</time>
      </trkpt>
      <trkpt lat="59.158835" lon="18.128641">
        <ele>56</ele>
        <time>2019-10-13T15:16:44Z</time>
      </trkpt>
      <trkpt lat="59.15882" lon="18.128616">
        <ele>56</ele>
        <time>2019-10-13T15:16:46Z</time>
      </trkpt>
      <trkpt lat="59.158802" lon="18.128605">
        <ele>56</ele>
        <time>2019-10-13T15:16:55Z</time>
      </trkpt>
      <trkpt lat="59.1588" lon="18.128588">
        <ele>0</ele>
        <time>2019-10-13T15:16:56Z</time>
      </trkpt>
      <trkpt lat="59.158775" lon="18.128552">
        <ele>56</ele>
        <time>2019-10-13T15:17:01Z</time>
      </trkpt>
      <trkpt lat="59.15877" lon="18.128546">
        <ele>56</ele>
        <time>2019-10-13T15:17:03Z</time>
      </trkpt>
      <trkpt lat="59.158772" lon="18.128545">
        <ele>0</ele>
        <time>2019-10-13T15:17:06Z</time>
      </trkpt>
      <trkpt lat="59.15878" lon="18.128458">
        <ele>54</ele>
        <time>2019-10-13T15:18:57Z</time>
      </trkpt>
      <trkpt lat="59.15877" lon="18.128441">
        <ele>54</ele>
        <time>2019-10-13T15:19:02Z</time>
      </trkpt>
      <trkpt lat="59.15875" lon="18.128426">
        <ele>55</ele>
        <time>2019-10-13T15:20:13Z</time>
      </trkpt>
      <trkpt lat="59.158732" lon="18.128387">
        <ele>54</ele>
        <time>2019-10-13T15:20:16Z</time>
      </trkpt>
      <trkpt lat="59.158719" lon="18.128362">
        <ele>54</ele>
        <time>2019-10-13T15:20:17Z</time>
      </trkpt>
      <trkpt lat="59.1587" lon="18.128332">
        <ele>54</ele>
        <time>2019-10-13T15:20:18Z</time>
      </trkpt>
      <trkpt lat="59.158682" lon="18.128296">
        <ele>54</ele>
        <time>2019-10-13T15:20:19Z</time>
      </trkpt>
      <trkpt lat="59.158663" lon="18.128251">
        <ele>54</ele>
        <time>2019-10-13T15:20:20Z</time>
      </trkpt>
      <trkpt lat="59.158643" lon="18.128199">
        <ele>53</ele>
        <time>2019-10-13T15:20:21Z</time>
      </trkpt>
      <trkpt lat="59.158624" lon="18.128145">
        <ele>53</ele>
        <time>2019-10-13T15:20:22Z</time>
      </trkpt>
      <trkpt lat="59.158598" lon="18.128085">
        <ele>53</ele>
        <time>2019-10-13T15:20:23Z</time>
      </trkpt>
      <trkpt lat="59.158566" lon="18.128019">
        <ele>53</ele>
        <time>2019-10-13T15:20:24Z</time>
      </trkpt>
      <trkpt lat="59.158534" lon="18.127958">
        <ele>53</ele>
        <time>2019-10-13T15:20:25Z</time>
      </trkpt>
      <trkpt lat="59.158499" lon="18.12789">
        <ele>0</ele>
        <time>2019-10-13T15:20:25Z</time>
      </trkpt>
      <trkpt lat="59.158458" lon="18.127825">
        <ele>53</ele>
        <time>2019-10-13T15:20:26Z</time>
      </trkpt>
      <trkpt lat="59.15841" lon="18.127782">
        <ele>53</ele>
        <time>2019-10-13T15:20:28Z</time>
      </trkpt>
      <trkpt lat="59.158364" lon="18.127763">
        <ele>53</ele>
        <time>2019-10-13T15:20:29Z</time>
      </trkpt>
      <trkpt lat="59.158323" lon="18.127772">
        <ele>53</ele>
        <time>2019-10-13T15:20:30Z</time>
      </trkpt>
      <trkpt lat="59.158282" lon="18.127795">
        <ele>53</ele>
        <time>2019-10-13T15:20:31Z</time>
      </trkpt>
      <trkpt lat="59.158245" lon="18.127817">
        <ele>0</ele>
        <time>2019-10-13T15:20:31Z</time>
      </trkpt>
      <trkpt lat="59.158208" lon="18.12783">
        <ele>53</ele>
        <time>2019-10-13T15:20:32Z</time>
      </trkpt>
      <trkpt lat="59.158171" lon="18.127833">
        <ele>53</ele>
        <time>2019-10-13T15:20:34Z</time>
      </trkpt>
      <trkpt lat="59.158135" lon="18.12783">
        <ele>53</ele>
        <time>2019-10-13T15:20:35Z</time>
      </trkpt>
      <trkpt lat="59.158102" lon="18.127828">
        <ele>52</ele>
        <time>2019-10-13T15:20:36Z</time>
      </trkpt>
      <trkpt lat="59.158065" lon="18.127823">
        <ele>52</ele>
        <time>2019-10-13T15:20:37Z</time>
      </trkpt>
      <trkpt lat="59.15803" lon="18.12782">
        <ele>52</ele>
        <time>2019-10-13T15:20:38Z</time>
      </trkpt>
      <trkpt lat="59.157994" lon="18.127815">
        <ele>52</ele>
        <time>2019-10-13T15:20:39Z</time>
      </trkpt>
      <trkpt lat="59.157962" lon="18.127808">
        <ele>0</ele>
        <time>2019-10-13T15:20:39Z</time>
      </trkpt>
      <trkpt lat="59.157926" lon="18.1278">
        <ele>52</ele>
        <time>2019-10-13T15:20:40Z</time>
      </trkpt>
      <trkpt lat="59.15789" lon="18.127791">
        <ele>52</ele>
        <time>2019-10-13T15:20:42Z</time>
      </trkpt>
      <trkpt lat="59.157853" lon="18.127777">
        <ele>52</ele>
        <time>2019-10-13T15:20:43Z</time>
      </trkpt>
      <trkpt lat="59.157818" lon="18.127763">
        <ele>52</ele>
        <time>2019-10-13T15:20:44Z</time>
      </trkpt>
      <trkpt lat="59.15778" lon="18.127749">
        <ele>52</ele>
        <time>2019-10-13T15:20:45Z</time>
      </trkpt>
      <trkpt lat="59.157748" lon="18.127731">
        <ele>52</ele>
        <time>2019-10-13T15:20:46Z</time>
      </trkpt>
      <trkpt lat="59.15771" lon="18.127712">
        <ele>52</ele>
        <time>2019-10-13T15:20:47Z</time>
      </trkpt>
      <trkpt lat="59.157678" lon="18.127681">
        <ele>51</ele>
        <time>2019-10-13T15:20:48Z</time>
      </trkpt>
      <trkpt lat="59.157648" lon="18.127643">
        <ele>51</ele>
        <time>2019-10-13T15:20:49Z</time>
      </trkpt>
      <trkpt lat="59.157621" lon="18.127596">
        <ele>51</ele>
        <time>2019-10-13T15:20:50Z</time>
      </trkpt>
      <trkpt lat="59.157596" lon="18.127543">
        <ele>0</ele>
        <time>2019-10-13T15:20:50Z</time>
      </trkpt>
      <trkpt lat="59.157572" lon="18.127483">
        <ele>51</ele>
        <time>2019-10-13T15:20:51Z</time>
      </trkpt>
      <trkpt lat="59.157561" lon="18.127422">
        <ele>51</ele>
        <time>2019-10-13T15:20:53Z</time>
      </trkpt>
      <trkpt lat="59.157557" lon="18.127362">
        <ele>0</ele>
        <time>2019-10-13T15:20:53Z</time>
      </trkpt>
      <trkpt lat="59.157543" lon="18.12732">
        <ele>51</ele>
        <time>2019-10-13T15:20:54Z</time>
      </trkpt>
      <trkpt lat="59.157521" lon="18.1273">
        <ele>51</ele>
        <time>2019-10-13T15:20:56Z</time>
      </trkpt>
      <trkpt lat="59.157498" lon="18.127282">
        <ele>51</ele>
        <time>2019-10-13T15:20:57Z</time>
      </trkpt>
      <trkpt lat="59.157474" lon="18.127267">
        <ele>50</ele>
        <time>2019-10-13T15:20:58Z</time>
      </trkpt>
      <trkpt lat="59.157456" lon="18.12725">
        <ele>50</ele>
        <time>2019-10-13T15:20:59Z</time>
      </trkpt>
      <trkpt lat="59.157425" lon="18.12723">
        <ele>51</ele>
        <time>2019-10-13T15:21:01Z</time>
      </trkpt>
      <trkpt lat="59.157428" lon="18.127227">
        <ele>50</ele>
        <time>2019-10-13T15:21:04Z</time>
      </trkpt>
      <trkpt lat="59.157395" lon="18.12721">
        <ele>50</ele>
        <time>2019-10-13T15:21:11Z</time>
      </trkpt>
      <trkpt lat="59.157384" lon="18.127212">
        <ele>51</ele>
        <time>2019-10-13T15:21:13Z</time>
      </trkpt>
      <trkpt lat="59.157365" lon="18.127247">
        <ele>51</ele>
        <time>2019-10-13T15:21:15Z</time>
      </trkpt>
      <trkpt lat="59.157338" lon="18.127299">
        <ele>51</ele>
        <time>2019-10-13T15:21:17Z</time>
      </trkpt>
      <trkpt lat="59.157313" lon="18.127307">
        <ele>50</ele>
        <time>2019-10-13T15:21:18Z</time>
      </trkpt>
      <trkpt lat="59.157289" lon="18.127307">
        <ele>50</ele>
        <time>2019-10-13T15:21:19Z</time>
      </trkpt>
      <trkpt lat="59.157267" lon="18.127294">
        <ele>50</ele>
        <time>2019-10-13T15:21:20Z</time>
      </trkpt>
      <trkpt lat="59.157241" lon="18.127277">
        <ele>50</ele>
        <time>2019-10-13T15:21:21Z</time>
      </trkpt>
      <trkpt lat="59.157213" lon="18.127257">
        <ele>50</ele>
        <time>2019-10-13T15:21:22Z</time>
      </trkpt>
      <trkpt lat="59.157191" lon="18.127232">
        <ele>50</ele>
        <time>2019-10-13T15:21:23Z</time>
      </trkpt>
      <trkpt lat="59.157177" lon="18.127206">
        <ele>50</ele>
        <time>2019-10-13T15:21:24Z</time>
      </trkpt>
      <trkpt lat="59.15716" lon="18.127159">
        <ele>50</ele>
        <time>2019-10-13T15:21:26Z</time>
      </trkpt>
      <trkpt lat="59.157157" lon="18.127151">
        <ele>0</ele>
        <time>2019-10-13T15:21:30Z</time>
      </trkpt>
      <trkpt lat="59.157172" lon="18.127196">
        <ele>50</ele>
        <time>2019-10-13T15:21:45Z</time>
      </trkpt>
      <trkpt lat="59.157197" lon="18.127227">
        <ele>51</ele>
        <time>2019-10-13T15:21:49Z</time>
      </trkpt>
      <trkpt lat="59.157202" lon="18.127222">
        <ele>0</ele>
        <time>2019-10-13T15:21:52Z</time>
      </trkpt>
      <trkpt lat="59.157119" lon="18.127225">
        <ele>53</ele>
        <time>2019-10-13T15:27:45Z</time>
      </trkpt>
      <trkpt lat="59.157105" lon="18.127221">
        <ele>52</ele>
        <time>2019-10-13T15:27:47Z</time>
      </trkpt>
      <trkpt lat="59.157087" lon="18.127231">
        <ele>53</ele>
        <time>2019-10-13T15:27:48Z</time>
      </trkpt>
      <trkpt lat="59.157064" lon="18.12723">
        <ele>0</ele>
        <time>2019-10-13T15:27:48Z</time>
      </trkpt>
      <trkpt lat="59.157036" lon="18.127212">
        <ele>52</ele>
        <time>2019-10-13T15:27:49Z</time>
      </trkpt>
      <trkpt lat="59.157011" lon="18.127189">
        <ele>52</ele>
        <time>2019-10-13T15:27:51Z</time>
      </trkpt>
      <trkpt lat="59.156985" lon="18.127168">
        <ele>52</ele>
        <time>2019-10-13T15:27:52Z</time>
      </trkpt>
      <trkpt lat="59.156965" lon="18.127155">
        <ele>52</ele>
        <time>2019-10-13T15:27:53Z</time>
      </trkpt>
      <trkpt lat="59.156939" lon="18.127123">
        <ele>53</ele>
        <time>2019-10-13T15:27:55Z</time>
      </trkpt>
      <trkpt lat="59.156917" lon="18.127091">
        <ele>53</ele>
        <time>2019-10-13T15:27:57Z</time>
      </trkpt>
      <trkpt lat="59.156902" lon="18.127053">
        <ele>53</ele>
        <time>2019-10-13T15:27:59Z</time>
      </trkpt>
      <trkpt lat="59.156883" lon="18.127038">
        <ele>53</ele>
        <time>2019-10-13T15:28:01Z</time>
      </trkpt>
      <trkpt lat="59.156862" lon="18.127032">
        <ele>53</ele>
        <time>2019-10-13T15:28:03Z</time>
      </trkpt>
      <trkpt lat="59.156842" lon="18.127012">
        <ele>53</ele>
        <time>2019-10-13T15:28:04Z</time>
      </trkpt>
      <trkpt lat="59.156825" lon="18.126992">
        <ele>53</ele>
        <time>2019-10-13T15:28:07Z</time>
      </trkpt>
      <trkpt lat="59.156805" lon="18.126981">
        <ele>53</ele>
        <time>2019-10-13T15:28:09Z</time>
      </trkpt>
      <trkpt lat="59.156786" lon="18.126971">
        <ele>52</ele>
        <time>2019-10-13T15:28:11Z</time>
      </trkpt>
      <trkpt lat="59.156786" lon="18.126965">
        <ele>0</ele>
        <time>2019-10-13T15:28:14Z</time>
      </trkpt>
      <trkpt lat="59.156744" lon="18.126876">
        <ele>52</ele>
        <time>2019-10-13T15:30:09Z</time>
      </trkpt>
      <trkpt lat="59.15673" lon="18.126848">
        <ele>52</ele>
        <time>2019-10-13T15:30:11Z</time>
      </trkpt>
      <trkpt lat="59.15671" lon="18.126808">
        <ele>52</ele>
        <time>2019-10-13T15:30:12Z</time>
      </trkpt>
      <trkpt lat="59.156685" lon="18.126756">
        <ele>52</ele>
        <time>2019-10-13T15:30:13Z</time>
      </trkpt>
      <trkpt lat="59.156658" lon="18.1267">
        <ele>52</ele>
        <time>2019-10-13T15:30:14Z</time>
      </trkpt>
      <trkpt lat="59.156626" lon="18.126636">
        <ele>0</ele>
        <time>2019-10-13T15:30:14Z</time>
      </trkpt>
      <trkpt lat="59.156588" lon="18.126562">
        <ele>52</ele>
        <time>2019-10-13T15:30:15Z</time>
      </trkpt>
      <trkpt lat="59.156555" lon="18.126482">
        <ele>52</ele>
        <time>2019-10-13T15:30:17Z</time>
      </trkpt>
      <trkpt lat="59.156526" lon="18.12639">
        <ele>52</ele>
        <time>2019-10-13T15:30:18Z</time>
      </trkpt>
      <trkpt lat="59.156505" lon="18.126282">
        <ele>52</ele>
        <time>2019-10-13T15:30:19Z</time>
      </trkpt>
      <trkpt lat="59.156488" lon="18.12617">
        <ele>52</ele>
        <time>2019-10-13T15:30:20Z</time>
      </trkpt>
      <trkpt lat="59.156474" lon="18.126036">
        <ele>52</ele>
        <time>2019-10-13T15:30:21Z</time>
      </trkpt>
      <trkpt lat="59.156473" lon="18.125876">
        <ele>52</ele>
        <time>2019-10-13T15:30:22Z</time>
      </trkpt>
      <trkpt lat="59.156485" lon="18.125728">
        <ele>0</ele>
        <time>2019-10-13T15:30:22Z</time>
      </trkpt>
      <trkpt lat="59.156502" lon="18.125604">
        <ele>51</ele>
        <time>2019-10-13T15:30:23Z</time>
      </trkpt>
      <trkpt lat="59.156519" lon="18.12549">
        <ele>51</ele>
        <time>2019-10-13T15:30:25Z</time>
      </trkpt>
      <trkpt lat="59.156537" lon="18.125375">
        <ele>51</ele>
        <time>2019-10-13T15:30:26Z</time>
      </trkpt>
      <trkpt lat="59.15655" lon="18.125254">
        <ele>51</ele>
        <time>2019-10-13T15:30:27Z</time>
      </trkpt>
      <trkpt lat="59.156566" lon="18.125141">
        <ele>0</ele>
        <time>2019-10-13T15:30:27Z</time>
      </trkpt>
      <trkpt lat="59.156582" lon="18.125037">
        <ele>51</ele>
        <time>2019-10-13T15:30:28Z</time>
      </trkpt>
      <trkpt lat="59.1566" lon="18.124942">
        <ele>51</ele>
        <time>2019-10-13T15:30:30Z</time>
      </trkpt>
      <trkpt lat="59.156617" lon="18.124847">
        <ele>51</ele>
        <time>2019-10-13T15:30:31Z</time>
      </trkpt>
      <trkpt lat="59.156635" lon="18.124752">
        <ele>0</ele>
        <time>2019-10-13T15:30:31Z</time>
      </trkpt>
      <trkpt lat="59.156653" lon="18.124656">
        <ele>51</ele>
        <time>2019-10-13T15:30:32Z</time>
      </trkpt>
      <trkpt lat="59.156667" lon="18.124554">
        <ele>51</ele>
        <time>2019-10-13T15:30:34Z</time>
      </trkpt>
      <trkpt lat="59.156676" lon="18.12445">
        <ele>50</ele>
        <time>2019-10-13T15:30:35Z</time>
      </trkpt>
      <trkpt lat="59.156685" lon="18.124348">
        <ele>50</ele>
        <time>2019-10-13T15:30:36Z</time>
      </trkpt>
      <trkpt lat="59.156696" lon="18.124249">
        <ele>50</ele>
        <time>2019-10-13T15:30:37Z</time>
      </trkpt>
      <trkpt lat="59.156707" lon="18.124155">
        <ele>50</ele>
        <time>2019-10-13T15:30:38Z</time>
      </trkpt>
      <trkpt lat="59.156722" lon="18.124054">
        <ele>50</ele>
        <time>2019-10-13T15:30:39Z</time>
      </trkpt>
      <trkpt lat="59.156736" lon="18.123962">
        <ele>50</ele>
        <time>2019-10-13T15:30:40Z</time>
      </trkpt>
      <trkpt lat="59.156744" lon="18.123868">
        <ele>0</ele>
        <time>2019-10-13T15:30:40Z</time>
      </trkpt>
      <trkpt lat="59.156754" lon="18.123776">
        <ele>50</ele>
        <time>2019-10-13T15:30:41Z</time>
      </trkpt>
      <trkpt lat="59.156764" lon="18.123698">
        <ele>51</ele>
        <time>2019-10-13T15:30:43Z</time>
      </trkpt>
      <trkpt lat="59.156771" lon="18.123626">
        <ele>51</ele>
        <time>2019-10-13T15:30:44Z</time>
      </trkpt>
      <trkpt lat="59.156764" lon="18.123551">
        <ele>51</ele>
        <time>2019-10-13T15:30:45Z</time>
      </trkpt>
      <trkpt lat="59.156746" lon="18.123468">
        <ele>51</ele>
        <time>2019-10-13T15:30:46Z</time>
      </trkpt>
      <trkpt lat="59.156728" lon="18.123392">
        <ele>0</ele>
        <time>2019-10-13T15:30:46Z</time>
      </trkpt>
      <trkpt lat="59.156712" lon="18.123316">
        <ele>51</ele>
        <time>2019-10-13T15:30:47Z</time>
      </trkpt>
      <trkpt lat="59.156687" lon="18.12325">
        <ele>51</ele>
        <time>2019-10-13T15:30:49Z</time>
      </trkpt>
      <trkpt lat="59.156662" lon="18.123185">
        <ele>51</ele>
        <time>2019-10-13T15:30:50Z</time>
      </trkpt>
      <trkpt lat="59.156642" lon="18.12312">
        <ele>51</ele>
        <time>2019-10-13T15:30:51Z</time>
      </trkpt>
      <trkpt lat="59.156617" lon="18.123064">
        <ele>51</ele>
        <time>2019-10-13T15:30:52Z</time>
      </trkpt>
      <trkpt lat="59.156595" lon="18.123011">
        <ele>51</ele>
        <time>2019-10-13T15:30:53Z</time>
      </trkpt>
      <trkpt lat="59.156575" lon="18.122952">
        <ele>0</ele>
        <time>2019-10-13T15:30:53Z</time>
      </trkpt>
      <trkpt lat="59.156557" lon="18.122898">
        <ele>51</ele>
        <time>2019-10-13T15:30:54Z</time>
      </trkpt>
      <trkpt lat="59.156532" lon="18.122844">
        <ele>50</ele>
        <time>2019-10-13T15:30:56Z</time>
      </trkpt>
      <trkpt lat="59.15651" lon="18.122792">
        <ele>50</ele>
        <time>2019-10-13T15:30:57Z</time>
      </trkpt>
      <trkpt lat="59.156491" lon="18.122736">
        <ele>50</ele>
        <time>2019-10-13T15:30:58Z</time>
      </trkpt>
      <trkpt lat="59.156476" lon="18.122679">
        <ele>50</ele>
        <time>2019-10-13T15:30:59Z</time>
      </trkpt>
      <trkpt lat="59.156462" lon="18.122632">
        <ele>50</ele>
        <time>2019-10-13T15:31:00Z</time>
      </trkpt>
      <trkpt lat="59.156456" lon="18.12259">
        <ele>51</ele>
        <time>2019-10-13T15:31:01Z</time>
      </trkpt>
      <trkpt lat="59.156448" lon="18.122539">
        <ele>51</ele>
        <time>2019-10-13T15:31:03Z</time>
      </trkpt>
      <trkpt lat="59.15644" lon="18.122492">
        <ele>0</ele>
        <time>2019-10-13T15:31:05Z</time>
      </trkpt>
      <trkpt lat="59.156428" lon="18.122458">
        <ele>50</ele>
        <time>2019-10-13T15:31:08Z</time>
      </trkpt>
      <trkpt lat="59.156435" lon="18.122418">
        <ele>50</ele>
        <time>2019-10-13T15:31:11Z</time>
      </trkpt>
      <trkpt lat="59.156428" lon="18.122372">
        <ele>51</ele>
        <time>2019-10-13T15:31:14Z</time>
      </trkpt>
      <trkpt lat="59.156427" lon="18.122332">
        <ele>49</ele>
        <time>2019-10-13T15:31:19Z</time>
      </trkpt>
      <trkpt lat="59.156417" lon="18.12229">
        <ele>49</ele>
        <time>2019-10-13T15:31:23Z</time>
      </trkpt>
      <trkpt lat="59.156408" lon="18.122252">
        <ele>49</ele>
        <time>2019-10-13T15:31:27Z</time>
      </trkpt>
      <trkpt lat="59.156402" lon="18.122251">
        <ele>0</ele>
        <time>2019-10-13T15:31:30Z</time>
      </trkpt>
      <trkpt lat="59.156393" lon="18.12218">
        <ele>49</ele>
        <time>2019-10-13T15:32:59Z</time>
      </trkpt>
      <trkpt lat="59.156389" lon="18.122163">
        <ele>49</ele>
        <time>2019-10-13T15:33:01Z</time>
      </trkpt>
      <trkpt lat="59.156385" lon="18.12212">
        <ele>49</ele>
        <time>2019-10-13T15:33:03Z</time>
      </trkpt>
      <trkpt lat="59.156382" lon="18.122081">
        <ele>49</ele>
        <time>2019-10-13T15:33:05Z</time>
      </trkpt>
      <trkpt lat="59.156382" lon="18.122041">
        <ele>49</ele>
        <time>2019-10-13T15:33:07Z</time>
      </trkpt>
      <trkpt lat="59.15638" lon="18.121996">
        <ele>48</ele>
        <time>2019-10-13T15:33:09Z</time>
      </trkpt>
      <trkpt lat="59.156371" lon="18.12196">
        <ele>48</ele>
        <time>2019-10-13T15:33:11Z</time>
      </trkpt>
      <trkpt lat="59.156371" lon="18.121925">
        <ele>48</ele>
        <time>2019-10-13T15:33:14Z</time>
      </trkpt>
      <trkpt lat="59.15638" lon="18.121894">
        <ele>49</ele>
        <time>2019-10-13T15:33:17Z</time>
      </trkpt>
      <trkpt lat="59.156391" lon="18.121855">
        <ele>48</ele>
        <time>2019-10-13T15:33:20Z</time>
      </trkpt>
      <trkpt lat="59.156399" lon="18.12181">
        <ele>48</ele>
        <time>2019-10-13T15:33:22Z</time>
      </trkpt>
      <trkpt lat="59.156409" lon="18.121765">
        <ele>48</ele>
        <time>2019-10-13T15:33:25Z</time>
      </trkpt>
      <trkpt lat="59.156424" lon="18.121712">
        <ele>48</ele>
        <time>2019-10-13T15:33:27Z</time>
      </trkpt>
      <trkpt lat="59.156436" lon="18.121675">
        <ele>48</ele>
        <time>2019-10-13T15:33:28Z</time>
      </trkpt>
      <trkpt lat="59.156452" lon="18.121632">
        <ele>48</ele>
        <time>2019-10-13T15:33:29Z</time>
      </trkpt>
      <trkpt lat="59.156467" lon="18.121593">
        <ele>48</ele>
        <time>2019-10-13T15:33:30Z</time>
      </trkpt>
      <trkpt lat="59.156469" lon="18.121557">
        <ele>48</ele>
        <time>2019-10-13T15:33:31Z</time>
      </trkpt>
      <trkpt lat="59.15648" lon="18.12152">
        <ele>48</ele>
        <time>2019-10-13T15:33:32Z</time>
      </trkpt>
      <trkpt lat="59.156491" lon="18.121462">
        <ele>48</ele>
        <time>2019-10-13T15:33:34Z</time>
      </trkpt>
      <trkpt lat="59.156505" lon="18.121433">
        <ele>48</ele>
        <time>2019-10-13T15:33:35Z</time>
      </trkpt>
      <trkpt lat="59.156519" lon="18.121398">
        <ele>0</ele>
        <time>2019-10-13T15:33:36Z</time>
      </trkpt>
      <trkpt lat="59.156533" lon="18.121364">
        <ele>49</ele>
        <time>2019-10-13T15:33:39Z</time>
      </trkpt>
      <trkpt lat="59.156533" lon="18.121328">
        <ele>49</ele>
        <time>2019-10-13T15:33:43Z</time>
      </trkpt>
      <trkpt lat="59.156534" lon="18.121282">
        <ele>49</ele>
        <time>2019-10-13T15:33:45Z</time>
      </trkpt>
      <trkpt lat="59.156542" lon="18.121247">
        <ele>49</ele>
        <time>2019-10-13T15:33:47Z</time>
      </trkpt>
      <trkpt lat="59.156556" lon="18.121211">
        <ele>49</ele>
        <time>2019-10-13T15:33:49Z</time>
      </trkpt>
      <trkpt lat="59.15657" lon="18.121188">
        <ele>49</ele>
        <time>2019-10-13T15:33:50Z</time>
      </trkpt>
      <trkpt lat="59.156594" lon="18.121153">
        <ele>49</ele>
        <time>2019-10-13T15:33:52Z</time>
      </trkpt>
      <trkpt lat="59.156614" lon="18.121109">
        <ele>0</ele>
        <time>2019-10-13T15:33:53Z</time>
      </trkpt>
      <trkpt lat="59.156636" lon="18.121054">
        <ele>0</ele>
        <time>2019-10-13T15:33:55Z</time>
      </trkpt>
      <trkpt lat="59.156652" lon="18.121028">
        <ele>49</ele>
        <time>2019-10-13T15:33:56Z</time>
      </trkpt>
      <trkpt lat="59.15667" lon="18.120998">
        <ele>50</ele>
        <time>2019-10-13T15:33:58Z</time>
      </trkpt>
      <trkpt lat="59.156683" lon="18.120969">
        <ele>50</ele>
        <time>2019-10-13T15:33:59Z</time>
      </trkpt>
      <trkpt lat="59.156707" lon="18.120931">
        <ele>50</ele>
        <time>2019-10-13T15:34:01Z</time>
      </trkpt>
      <trkpt lat="59.156721" lon="18.120897">
        <ele>50</ele>
        <time>2019-10-13T15:34:04Z</time>
      </trkpt>
      <trkpt lat="59.156734" lon="18.120865">
        <ele>51</ele>
        <time>2019-10-13T15:34:09Z</time>
      </trkpt>
      <trkpt lat="59.156736" lon="18.120861">
        <ele>0</ele>
        <time>2019-10-13T15:34:12Z</time>
      </trkpt>
      <trkpt lat="59.156783" lon="18.120705">
        <ele>53</ele>
        <time>2019-10-13T15:35:57Z</time>
      </trkpt>
      <trkpt lat="59.156791" lon="18.120684">
        <ele>53</ele>
        <time>2019-10-13T15:35:59Z</time>
      </trkpt>
      <trkpt lat="59.156808" lon="18.120627">
        <ele>53</ele>
        <time>2019-10-13T15:36:01Z</time>
      </trkpt>
      <trkpt lat="59.156828" lon="18.120575">
        <ele>53</ele>
        <time>2019-10-13T15:36:03Z</time>
      </trkpt>
      <trkpt lat="59.156849" lon="18.120533">
        <ele>53</ele>
        <time>2019-10-13T15:36:05Z</time>
      </trkpt>
      <trkpt lat="59.156871" lon="18.120487">
        <ele>52</ele>
        <time>2019-10-13T15:36:07Z</time>
      </trkpt>
      <trkpt lat="59.156894" lon="18.120417">
        <ele>52</ele>
        <time>2019-10-13T15:36:09Z</time>
      </trkpt>
      <trkpt lat="59.156914" lon="18.120359">
        <ele>52</ele>
        <time>2019-10-13T15:36:10Z</time>
      </trkpt>
      <trkpt lat="59.156938" lon="18.12029">
        <ele>52</ele>
        <time>2019-10-13T15:36:11Z</time>
      </trkpt>
      <trkpt lat="59.156961" lon="18.120226">
        <ele>0</ele>
        <time>2019-10-13T15:36:11Z</time>
      </trkpt>
      <trkpt lat="59.156988" lon="18.120164">
        <ele>52</ele>
        <time>2019-10-13T15:36:12Z</time>
      </trkpt>
      <trkpt lat="59.157022" lon="18.120081">
        <ele>52</ele>
        <time>2019-10-13T15:36:14Z</time>
      </trkpt>
      <trkpt lat="59.157052" lon="18.120003">
        <ele>52</ele>
        <time>2019-10-13T15:36:15Z</time>
      </trkpt>
      <trkpt lat="59.157087" lon="18.119925">
        <ele>0</ele>
        <time>2019-10-13T15:36:15Z</time>
      </trkpt>
      <trkpt lat="59.157123" lon="18.119851">
        <ele>51</ele>
        <time>2019-10-13T15:36:16Z</time>
      </trkpt>
      <trkpt lat="59.157154" lon="18.119771">
        <ele>51</ele>
        <time>2019-10-13T15:36:18Z</time>
      </trkpt>
      <trkpt lat="59.157189" lon="18.11969">
        <ele>51</ele>
        <time>2019-10-13T15:36:19Z</time>
      </trkpt>
      <trkpt lat="59.157228" lon="18.119605">
        <ele>51</ele>
        <time>2019-10-13T15:36:20Z</time>
      </trkpt>
      <trkpt lat="59.157267" lon="18.119527">
        <ele>51</ele>
        <time>2019-10-13T15:36:21Z</time>
      </trkpt>
      <trkpt lat="59.157305" lon="18.119459">
        <ele>51</ele>
        <time>2019-10-13T15:36:22Z</time>
      </trkpt>
      <trkpt lat="59.157387" lon="18.119296">
        <ele>51</ele>
        <time>2019-10-13T15:36:25Z</time>
      </trkpt>
      <trkpt lat="59.157458" lon="18.119142">
        <ele>52</ele>
        <time>2019-10-13T15:36:28Z</time>
      </trkpt>
      <trkpt lat="59.15748" lon="18.119086">
        <ele>52</ele>
        <time>2019-10-13T15:36:29Z</time>
      </trkpt>
      <trkpt lat="59.157499" lon="18.119027">
        <ele>52</ele>
        <time>2019-10-13T15:36:30Z</time>
      </trkpt>
      <trkpt lat="59.157519" lon="18.118965">
        <ele>52</ele>
        <time>2019-10-13T15:36:31Z</time>
      </trkpt>
      <trkpt lat="59.157538" lon="18.118907">
        <ele>52</ele>
        <time>2019-10-13T15:36:32Z</time>
      </trkpt>
      <trkpt lat="59.157557" lon="18.118856">
        <ele>52</ele>
        <time>2019-10-13T15:36:33Z</time>
      </trkpt>
      <trkpt lat="59.157574" lon="18.118807">
        <ele>0</ele>
        <time>2019-10-13T15:36:33Z</time>
      </trkpt>
      <trkpt lat="59.157587" lon="18.118759">
        <ele>52</ele>
        <time>2019-10-13T15:36:34Z</time>
      </trkpt>
      <trkpt lat="59.157604" lon="18.118696">
        <ele>52</ele>
        <time>2019-10-13T15:36:35Z</time>
      </trkpt>
      <trkpt lat="59.157618" lon="18.11864">
        <ele>52</ele>
        <time>2019-10-13T15:36:36Z</time>
      </trkpt>
      <trkpt lat="59.157644" lon="18.118583">
        <ele>53</ele>
        <time>2019-10-13T15:36:38Z</time>
      </trkpt>
      <trkpt lat="59.157667" lon="18.118517">
        <ele>53</ele>
        <time>2019-10-13T15:36:39Z</time>
      </trkpt>
      <trkpt lat="59.157691" lon="18.118457">
        <ele>53</ele>
        <time>2019-10-13T15:36:40Z</time>
      </trkpt>
      <trkpt lat="59.157715" lon="18.118394">
        <ele>53</ele>
        <time>2019-10-13T15:36:41Z</time>
      </trkpt>
      <trkpt lat="59.157742" lon="18.118339">
        <ele>53</ele>
        <time>2019-10-13T15:36:42Z</time>
      </trkpt>
      <trkpt lat="59.157767" lon="18.118286">
        <ele>53</ele>
        <time>2019-10-13T15:36:43Z</time>
      </trkpt>
      <trkpt lat="59.157798" lon="18.11824">
        <ele>53</ele>
        <time>2019-10-13T15:36:44Z</time>
      </trkpt>
      <trkpt lat="59.157828" lon="18.118196">
        <ele>53</ele>
        <time>2019-10-13T15:36:45Z</time>
      </trkpt>
      <trkpt lat="59.157855" lon="18.118156">
        <ele>53</ele>
        <time>2019-10-13T15:36:46Z</time>
      </trkpt>
      <trkpt lat="59.157881" lon="18.118119">
        <ele>53</ele>
        <time>2019-10-13T15:36:47Z</time>
      </trkpt>
      <trkpt lat="59.157903" lon="18.118089">
        <ele>53</ele>
        <time>2019-10-13T15:36:48Z</time>
      </trkpt>
      <trkpt lat="59.157922" lon="18.118065">
        <ele>53</ele>
        <time>2019-10-13T15:36:49Z</time>
      </trkpt>
      <trkpt lat="59.15794" lon="18.118047">
        <ele>53</ele>
        <time>2019-10-13T15:36:50Z</time>
      </trkpt>
      <trkpt lat="59.157958" lon="18.118034">
        <ele>0</ele>
        <time>2019-10-13T15:36:50Z</time>
      </trkpt>
      <trkpt lat="59.157988" lon="18.118028">
        <ele>54</ele>
        <time>2019-10-13T15:36:51Z</time>
      </trkpt>
      <trkpt lat="59.158016" lon="18.118036">
        <ele>54</ele>
        <time>2019-10-13T15:36:53Z</time>
      </trkpt>
      <trkpt lat="59.158046" lon="18.118047">
        <ele>0</ele>
        <time>2019-10-13T15:36:53Z</time>
      </trkpt>
      <trkpt lat="59.158072" lon="18.11806">
        <ele>54</ele>
        <time>2019-10-13T15:36:54Z</time>
      </trkpt>
      <trkpt lat="59.158095" lon="18.118064">
        <ele>54</ele>
        <time>2019-10-13T15:36:56Z</time>
      </trkpt>
      <trkpt lat="59.158114" lon="18.11809">
        <ele>54</ele>
        <time>2019-10-13T15:36:59Z</time>
      </trkpt>
      <trkpt lat="59.158139" lon="18.118127">
        <ele>54</ele>
        <time>2019-10-13T15:37:00Z</time>
      </trkpt>
      <trkpt lat="59.158163" lon="18.11816">
        <ele>54</ele>
        <time>2019-10-13T15:37:01Z</time>
      </trkpt>
      <trkpt lat="59.158186" lon="18.118188">
        <ele>54</ele>
        <time>2019-10-13T15:37:02Z</time>
      </trkpt>
      <trkpt lat="59.158209" lon="18.118209">
        <ele>54</ele>
        <time>2019-10-13T15:37:03Z</time>
      </trkpt>
      <trkpt lat="59.158232" lon="18.118218">
        <ele>54</ele>
        <time>2019-10-13T15:37:04Z</time>
      </trkpt>
      <trkpt lat="59.158252" lon="18.11822">
        <ele>54</ele>
        <time>2019-10-13T15:37:05Z</time>
      </trkpt>
      <trkpt lat="59.158285" lon="18.11819">
        <ele>55</ele>
        <time>2019-10-13T15:37:07Z</time>
      </trkpt>
      <trkpt lat="59.15831" lon="18.118154">
        <ele>55</ele>
        <time>2019-10-13T15:37:09Z</time>
      </trkpt>
      <trkpt lat="59.158334" lon="18.118103">
        <ele>55</ele>
        <time>2019-10-13T15:37:11Z</time>
      </trkpt>
      <trkpt lat="59.158346" lon="18.118073">
        <ele>55</ele>
        <time>2019-10-13T15:37:12Z</time>
      </trkpt>
      <trkpt lat="59.158359" lon="18.118045">
        <ele>0</ele>
        <time>2019-10-13T15:37:12Z</time>
      </trkpt>
      <trkpt lat="59.158373" lon="18.118018">
        <ele>55</ele>
        <time>2019-10-13T15:37:13Z</time>
      </trkpt>
      <trkpt lat="59.158388" lon="18.117988">
        <ele>0</ele>
        <time>2019-10-13T15:37:14Z</time>
      </trkpt>
      <trkpt lat="59.158406" lon="18.117957">
        <ele>55</ele>
        <time>2019-10-13T15:37:15Z</time>
      </trkpt>
      <trkpt lat="59.158422" lon="18.117927">
        <ele>55</ele>
        <time>2019-10-13T15:37:17Z</time>
      </trkpt>
      <trkpt lat="59.158442" lon="18.117896">
        <ele>56</ele>
        <time>2019-10-13T15:37:18Z</time>
      </trkpt>
      <trkpt lat="59.158462" lon="18.117867">
        <ele>56</ele>
        <time>2019-10-13T15:37:19Z</time>
      </trkpt>
      <trkpt lat="59.158482" lon="18.11784">
        <ele>56</ele>
        <time>2019-10-13T15:37:20Z</time>
      </trkpt>
      <trkpt lat="59.158504" lon="18.117814">
        <ele>56</ele>
        <time>2019-10-13T15:37:21Z</time>
      </trkpt>
      <trkpt lat="59.158529" lon="18.117787">
        <ele>56</ele>
        <time>2019-10-13T15:37:22Z</time>
      </trkpt>
      <trkpt lat="59.158554" lon="18.117761">
        <ele>56</ele>
        <time>2019-10-13T15:37:23Z</time>
      </trkpt>
      <trkpt lat="59.15858" lon="18.117736">
        <ele>56</ele>
        <time>2019-10-13T15:37:24Z</time>
      </trkpt>
      <trkpt lat="59.158605" lon="18.117712">
        <ele>56</ele>
        <time>2019-10-13T15:37:25Z</time>
      </trkpt>
      <trkpt lat="59.158632" lon="18.117695">
        <ele>56</ele>
        <time>2019-10-13T15:37:26Z</time>
      </trkpt>
      <trkpt lat="59.15866" lon="18.117684">
        <ele>56</ele>
        <time>2019-10-13T15:37:27Z</time>
      </trkpt>
      <trkpt lat="59.158688" lon="18.117685">
        <ele>56</ele>
        <time>2019-10-13T15:37:28Z</time>
      </trkpt>
      <trkpt lat="59.15871" lon="18.117687">
        <ele>56</ele>
        <time>2019-10-13T15:37:29Z</time>
      </trkpt>
      <trkpt lat="59.15873" lon="18.117687">
        <ele>56</ele>
        <time>2019-10-13T15:37:30Z</time>
      </trkpt>
      <trkpt lat="59.158754" lon="18.117688">
        <ele>57</ele>
        <time>2019-10-13T15:37:31Z</time>
      </trkpt>
      <trkpt lat="59.158772" lon="18.117687">
        <ele>0</ele>
        <time>2019-10-13T15:37:31Z</time>
      </trkpt>
      <trkpt lat="59.158802" lon="18.117674">
        <ele>57</ele>
        <time>2019-10-13T15:37:34Z</time>
      </trkpt>
      <trkpt lat="59.158838" lon="18.11765">
        <ele>57</ele>
        <time>2019-10-13T15:37:36Z</time>
      </trkpt>
      <trkpt lat="59.158854" lon="18.117632">
        <ele>0</ele>
        <time>2019-10-13T15:37:36Z</time>
      </trkpt>
      <trkpt lat="59.158883" lon="18.117588">
        <ele>57</ele>
        <time>2019-10-13T15:37:39Z</time>
      </trkpt>
      <trkpt lat="59.1589" lon="18.117571">
        <ele>57</ele>
        <time>2019-10-13T15:37:40Z</time>
      </trkpt>
      <trkpt lat="59.15893" lon="18.117544">
        <ele>58</ele>
        <time>2019-10-13T15:37:42Z</time>
      </trkpt>
      <trkpt lat="59.158964" lon="18.117531">
        <ele>58</ele>
        <time>2019-10-13T15:37:44Z</time>
      </trkpt>
      <trkpt lat="59.15898" lon="18.117523">
        <ele>58</ele>
        <time>2019-10-13T15:37:45Z</time>
      </trkpt>
      <trkpt lat="59.159001" lon="18.117514">
        <ele>58</ele>
        <time>2019-10-13T15:37:46Z</time>
      </trkpt>
      <trkpt lat="59.159021" lon="18.117509">
        <ele>58</ele>
        <time>2019-10-13T15:37:47Z</time>
      </trkpt>
      <trkpt lat="59.159043" lon="18.117515">
        <ele>58</ele>
        <time>2019-10-13T15:37:48Z</time>
      </trkpt>
      <trkpt lat="59.159062" lon="18.117532">
        <ele>58</ele>
        <time>2019-10-13T15:37:49Z</time>
      </trkpt>
      <trkpt lat="59.159077" lon="18.117562">
        <ele>59</ele>
        <time>2019-10-13T15:37:50Z</time>
      </trkpt>
      <trkpt lat="59.159087" lon="18.117593">
        <ele>0</ele>
        <time>2019-10-13T15:37:50Z</time>
      </trkpt>
      <trkpt lat="59.159092" lon="18.117656">
        <ele>58</ele>
        <time>2019-10-13T15:37:53Z</time>
      </trkpt>
      <trkpt lat="59.159085" lon="18.117703">
        <ele>58</ele>
        <time>2019-10-13T15:37:55Z</time>
      </trkpt>
      <trkpt lat="59.159074" lon="18.117736">
        <ele>59</ele>
        <time>2019-10-13T15:37:57Z</time>
      </trkpt>
      <trkpt lat="59.159057" lon="18.117769">
        <ele>0</ele>
        <time>2019-10-13T15:38:01Z</time>
      </trkpt>
      <trkpt lat="59.159058" lon="18.117766">
        <ele>58</ele>
        <time>2019-10-13T15:38:02Z</time>
      </trkpt>
      <trkpt lat="59.159064" lon="18.117926">
        <ele>65</ele>
        <time>2019-10-13T15:40:57Z</time>
      </trkpt>
      <trkpt lat="59.159043" lon="18.117978">
        <ele>64</ele>
        <time>2019-10-13T15:41:00Z</time>
      </trkpt>
      <trkpt lat="59.15903" lon="18.118011">
        <ele>64</ele>
        <time>2019-10-13T15:41:01Z</time>
      </trkpt>
      <trkpt lat="59.15901" lon="18.118043">
        <ele>64</ele>
        <time>2019-10-13T15:41:02Z</time>
      </trkpt>
      <trkpt lat="59.158992" lon="18.118071">
        <ele>64</ele>
        <time>2019-10-13T15:41:03Z</time>
      </trkpt>
      <trkpt lat="59.158978" lon="18.118093">
        <ele>0</ele>
        <time>2019-10-13T15:41:03Z</time>
      </trkpt>
      <trkpt lat="59.158948" lon="18.118136">
        <ele>63</ele>
        <time>2019-10-13T15:41:06Z</time>
      </trkpt>
      <trkpt lat="59.158927" lon="18.11816">
        <ele>63</ele>
        <time>2019-10-13T15:41:07Z</time>
      </trkpt>
      <trkpt lat="59.158906" lon="18.118181">
        <ele>63</ele>
        <time>2019-10-13T15:41:08Z</time>
      </trkpt>
      <trkpt lat="59.158882" lon="18.118206">
        <ele>63</ele>
        <time>2019-10-13T15:41:09Z</time>
      </trkpt>
      <trkpt lat="59.158864" lon="18.11824">
        <ele>63</ele>
        <time>2019-10-13T15:41:10Z</time>
      </trkpt>
      <trkpt lat="59.158852" lon="18.118282">
        <ele>62</ele>
        <time>2019-10-13T15:41:11Z</time>
      </trkpt>
      <trkpt lat="59.15885" lon="18.118329">
        <ele>62</ele>
        <time>2019-10-13T15:41:12Z</time>
      </trkpt>
      <trkpt lat="59.158856" lon="18.118378">
        <ele>62</ele>
        <time>2019-10-13T15:41:13Z</time>
      </trkpt>
      <trkpt lat="59.158863" lon="18.118425">
        <ele>62</ele>
        <time>2019-10-13T15:41:14Z</time>
      </trkpt>
      <trkpt lat="59.158868" lon="18.118486">
        <ele>62</ele>
        <time>2019-10-13T15:41:15Z</time>
      </trkpt>
      <trkpt lat="59.158866" lon="18.118554">
        <ele>0</ele>
        <time>2019-10-13T15:41:15Z</time>
      </trkpt>
      <trkpt lat="59.158852" lon="18.118614">
        <ele>62</ele>
        <time>2019-10-13T15:41:16Z</time>
      </trkpt>
      <trkpt lat="59.158832" lon="18.118666">
        <ele>62</ele>
        <time>2019-10-13T15:41:18Z</time>
      </trkpt>
      <trkpt lat="59.158804" lon="18.118703">
        <ele>62</ele>
        <time>2019-10-13T15:41:19Z</time>
      </trkpt>
      <trkpt lat="59.15877" lon="18.11873">
        <ele>61</ele>
        <time>2019-10-13T15:41:20Z</time>
      </trkpt>
      <trkpt lat="59.158738" lon="18.118764">
        <ele>0</ele>
        <time>2019-10-13T15:41:20Z</time>
      </trkpt>
      <trkpt lat="59.15872" lon="18.118812">
        <ele>61</ele>
        <time>2019-10-13T15:41:21Z</time>
      </trkpt>
      <trkpt lat="59.158716" lon="18.118864">
        <ele>61</ele>
        <time>2019-10-13T15:41:23Z</time>
      </trkpt>
      <trkpt lat="59.158711" lon="18.118923">
        <ele>61</ele>
        <time>2019-10-13T15:41:24Z</time>
      </trkpt>
      <trkpt lat="59.158717" lon="18.118993">
        <ele>0</ele>
        <time>2019-10-13T15:41:24Z</time>
      </trkpt>
      <trkpt lat="59.15872" lon="18.119063">
        <ele>61</ele>
        <time>2019-10-13T15:41:25Z</time>
      </trkpt>
      <trkpt lat="59.158725" lon="18.119133">
        <ele>61</ele>
        <time>2019-10-13T15:41:27Z</time>
      </trkpt>
      <trkpt lat="59.158728" lon="18.119201">
        <ele>61</ele>
        <time>2019-10-13T15:41:28Z</time>
      </trkpt>
      <trkpt lat="59.158723" lon="18.119266">
        <ele>61</ele>
        <time>2019-10-13T15:41:29Z</time>
      </trkpt>
      <trkpt lat="59.15872" lon="18.119332">
        <ele>61</ele>
        <time>2019-10-13T15:41:30Z</time>
      </trkpt>
      <trkpt lat="59.158716" lon="18.119397">
        <ele>61</ele>
        <time>2019-10-13T15:41:31Z</time>
      </trkpt>
      <trkpt lat="59.158716" lon="18.11946">
        <ele>61</ele>
        <time>2019-10-13T15:41:32Z</time>
      </trkpt>
      <trkpt lat="59.158714" lon="18.119519">
        <ele>61</ele>
        <time>2019-10-13T15:41:33Z</time>
      </trkpt>
      <trkpt lat="59.158712" lon="18.119574">
        <ele>61</ele>
        <time>2019-10-13T15:41:34Z</time>
      </trkpt>
      <trkpt lat="59.158703" lon="18.119619">
        <ele>0</ele>
        <time>2019-10-13T15:41:34Z</time>
      </trkpt>
      <trkpt lat="59.158698" lon="18.119661">
        <ele>61</ele>
        <time>2019-10-13T15:41:35Z</time>
      </trkpt>
      <trkpt lat="59.158698" lon="18.119699">
        <ele>61</ele>
        <time>2019-10-13T15:41:37Z</time>
      </trkpt>
      <trkpt lat="59.158708" lon="18.11975">
        <ele>61</ele>
        <time>2019-10-13T15:41:39Z</time>
      </trkpt>
      <trkpt lat="59.158717" lon="18.119766">
        <ele>0</ele>
        <time>2019-10-13T15:41:44Z</time>
      </trkpt>
      <trkpt lat="59.15876" lon="18.119916">
        <ele>61</ele>
        <time>2019-10-13T15:44:29Z</time>
      </trkpt>
      <trkpt lat="59.158762" lon="18.119976">
        <ele>0</ele>
        <time>2019-10-13T15:44:30Z</time>
      </trkpt>
      <trkpt lat="59.158756" lon="18.120041">
        <ele>61</ele>
        <time>2019-10-13T15:44:31Z</time>
      </trkpt>
      <trkpt lat="59.158752" lon="18.120108">
        <ele>61</ele>
        <time>2019-10-13T15:44:33Z</time>
      </trkpt>
      <trkpt lat="59.158753" lon="18.120166">
        <ele>61</ele>
        <time>2019-10-13T15:44:34Z</time>
      </trkpt>
      <trkpt lat="59.158756" lon="18.120203">
        <ele>61</ele>
        <time>2019-10-13T15:44:35Z</time>
      </trkpt>
      <trkpt lat="59.158753" lon="18.120238">
        <ele>61</ele>
        <time>2019-10-13T15:44:41Z</time>
      </trkpt>
      <trkpt lat="59.158738" lon="18.120264">
        <ele>61</ele>
        <time>2019-10-13T15:44:43Z</time>
      </trkpt>
      <trkpt lat="59.158725" lon="18.120295">
        <ele>61</ele>
        <time>2019-10-13T15:44:45Z</time>
      </trkpt>
      <trkpt lat="59.158727" lon="18.120303">
        <ele>0</ele>
        <time>2019-10-13T15:44:50Z</time>
      </trkpt>
      <trkpt lat="59.158743" lon="18.12038">
        <ele>62</ele>
        <time>2019-10-13T15:45:43Z</time>
      </trkpt>
      <trkpt lat="59.158721" lon="18.12041">
        <ele>62</ele>
        <time>2019-10-13T15:45:46Z</time>
      </trkpt>
      <trkpt lat="59.158697" lon="18.120424">
        <ele>62</ele>
        <time>2019-10-13T15:45:48Z</time>
      </trkpt>
      <trkpt lat="59.158666" lon="18.120457">
        <ele>62</ele>
        <time>2019-10-13T15:45:50Z</time>
      </trkpt>
      <trkpt lat="59.158651" lon="18.12048">
        <ele>62</ele>
        <time>2019-10-13T15:45:51Z</time>
      </trkpt>
      <trkpt lat="59.158633" lon="18.120514">
        <ele>62</ele>
        <time>2019-10-13T15:45:53Z</time>
      </trkpt>
      <trkpt lat="59.158603" lon="18.120537">
        <ele>62</ele>
        <time>2019-10-13T15:45:55Z</time>
      </trkpt>
      <trkpt lat="59.158575" lon="18.120548">
        <ele>62</ele>
        <time>2019-10-13T15:45:57Z</time>
      </trkpt>
      <trkpt lat="59.15857" lon="18.120547">
        <ele>0</ele>
        <time>2019-10-13T15:46:00Z</time>
      </trkpt>
      <trkpt lat="59.1586" lon="18.120476">
        <ele>62</ele>
        <time>2019-10-13T15:46:25Z</time>
      </trkpt>
      <trkpt lat="59.158611" lon="18.120471">
        <ele>61</ele>
        <time>2019-10-13T15:46:27Z</time>
      </trkpt>
      <trkpt lat="59.158625" lon="18.120445">
        <ele>61</ele>
        <time>2019-10-13T15:46:33Z</time>
      </trkpt>
      <trkpt lat="59.158641" lon="18.120414">
        <ele>61</ele>
        <time>2019-10-13T15:46:35Z</time>
      </trkpt>
      <trkpt lat="59.15866" lon="18.120394">
        <ele>61</ele>
        <time>2019-10-13T15:46:37Z</time>
      </trkpt>
      <trkpt lat="59.158687" lon="18.120381">
        <ele>62</ele>
        <time>2019-10-13T15:46:40Z</time>
      </trkpt>
      <trkpt lat="59.158704" lon="18.120372">
        <ele>62</ele>
        <time>2019-10-13T15:46:42Z</time>
      </trkpt>
      <trkpt lat="59.158723" lon="18.120345">
        <ele>62</ele>
        <time>2019-10-13T15:46:44Z</time>
      </trkpt>
      <trkpt lat="59.158727" lon="18.120324">
        <ele>0</ele>
        <time>2019-10-13T15:46:48Z</time>
      </trkpt>
      <trkpt lat="59.158781" lon="18.120121">
        <ele>64</ele>
        <time>2019-10-13T15:47:17Z</time>
      </trkpt>
      <trkpt lat="59.1588" lon="18.120101">
        <ele>0</ele>
        <time>2019-10-13T15:47:19Z</time>
      </trkpt>
      <trkpt lat="59.158821" lon="18.120071">
        <ele>64</ele>
        <time>2019-10-13T15:47:22Z</time>
      </trkpt>
      <trkpt lat="59.158832" lon="18.12004">
        <ele>0</ele>
        <time>2019-10-13T15:47:25Z</time>
      </trkpt>
      <trkpt lat="59.158832" lon="18.12004">
        <ele>0</ele>
        <time>2019-10-13T15:47:26Z</time>
      </trkpt>
      <trkpt lat="59.158875" lon="18.120124">
        <ele>63</ele>
        <time>2019-10-13T15:48:31Z</time>
      </trkpt>
      <trkpt lat="59.158875" lon="18.120124">
        <ele>0</ele>
        <time>2019-10-13T15:48:34Z</time>
      </trkpt>
      <trkpt lat="59.158794" lon="18.119908">
        <ele>61</ele>
        <time>2019-10-13T15:49:47Z</time>
      </trkpt>
      <trkpt lat="59.158793" lon="18.119888">
        <ele>61</ele>
        <time>2019-10-13T15:49:49Z</time>
      </trkpt>
      <trkpt lat="59.158783" lon="18.11984">
        <ele>61</ele>
        <time>2019-10-13T15:49:51Z</time>
      </trkpt>
      <trkpt lat="59.158764" lon="18.119813">
        <ele>61</ele>
        <time>2019-10-13T15:49:53Z</time>
      </trkpt>
      <trkpt lat="59.158788" lon="18.119812">
        <ele>60</ele>
        <time>2019-10-13T15:49:57Z</time>
      </trkpt>
      <trkpt lat="59.158809" lon="18.119857">
        <ele>60</ele>
        <time>2019-10-13T15:49:59Z</time>
      </trkpt>
      <trkpt lat="59.158823" lon="18.119894">
        <ele>60</ele>
        <time>2019-10-13T15:50:01Z</time>
      </trkpt>
      <trkpt lat="59.158834" lon="18.119927">
        <ele>60</ele>
        <time>2019-10-13T15:50:03Z</time>
      </trkpt>
      <trkpt lat="59.158838" lon="18.119974">
        <ele>60</ele>
        <time>2019-10-13T15:50:05Z</time>
      </trkpt>
      <trkpt lat="59.158845" lon="18.120019">
        <ele>60</ele>
        <time>2019-10-13T15:50:06Z</time>
      </trkpt>
      <trkpt lat="59.158849" lon="18.120057">
        <ele>60</ele>
        <time>2019-10-13T15:50:10Z</time>
      </trkpt>
      <trkpt lat="59.158849" lon="18.120057">
        <ele>0</ele>
        <time>2019-10-13T15:50:12Z</time>
      </trkpt>
      <trkpt lat="59.15878" lon="18.119859">
        <ele>59</ele>
        <time>2019-10-13T15:50:47Z</time>
      </trkpt>
      <trkpt lat="59.158766" lon="18.119824">
        <ele>59</ele>
        <time>2019-10-13T15:50:50Z</time>
      </trkpt>
      <trkpt lat="59.158749" lon="18.119794">
        <ele>59</ele>
        <time>2019-10-13T15:50:52Z</time>
      </trkpt>
      <trkpt lat="59.158733" lon="18.119764">
        <ele>59</ele>
        <time>2019-10-13T15:50:54Z</time>
      </trkpt>
      <trkpt lat="59.158715" lon="18.119743">
        <ele>59</ele>
        <time>2019-10-13T15:50:57Z</time>
      </trkpt>
      <trkpt lat="59.15874" lon="18.119779">
        <ele>59</ele>
        <time>2019-10-13T15:51:00Z</time>
      </trkpt>
      <trkpt lat="59.158755" lon="18.119819">
        <ele>59</ele>
        <time>2019-10-13T15:51:02Z</time>
      </trkpt>
      <trkpt lat="59.158769" lon="18.119857">
        <ele>59</ele>
        <time>2019-10-13T15:51:04Z</time>
      </trkpt>
      <trkpt lat="59.15878" lon="18.119894">
        <ele>0</ele>
        <time>2019-10-13T15:51:05Z</time>
      </trkpt>
      <trkpt lat="59.158791" lon="18.119931">
        <ele>59</ele>
        <time>2019-10-13T15:51:08Z</time>
      </trkpt>
      <trkpt lat="59.158802" lon="18.119968">
        <ele>59</ele>
        <time>2019-10-13T15:51:10Z</time>
      </trkpt>
      <trkpt lat="59.158809" lon="18.120005">
        <ele>60</ele>
        <time>2019-10-13T15:51:13Z</time>
      </trkpt>
      <trkpt lat="59.158826" lon="18.119987">
        <ele>60</ele>
        <time>2019-10-13T15:51:17Z</time>
      </trkpt>
      <trkpt lat="59.158821" lon="18.119973">
        <ele>0</ele>
        <time>2019-10-13T15:51:20Z</time>
      </trkpt>
      <trkpt lat="59.158835" lon="18.120041">
        <ele>59</ele>
        <time>2019-10-13T15:51:25Z</time>
      </trkpt>
      <trkpt lat="59.158843" lon="18.120056">
        <ele>59</ele>
        <time>2019-10-13T15:51:27Z</time>
      </trkpt>
      <trkpt lat="59.158856" lon="18.120086">
        <ele>60</ele>
        <time>2019-10-13T15:51:29Z</time>
      </trkpt>
      <trkpt lat="59.158874" lon="18.120097">
        <ele>0</ele>
        <time>2019-10-13T15:51:34Z</time>
      </trkpt>
      <trkpt lat="59.158806" lon="18.120152">
        <ele>60</ele>
        <time>2019-10-13T15:52:41Z</time>
      </trkpt>
      <trkpt lat="59.158789" lon="18.12022">
        <ele>61</ele>
        <time>2019-10-13T15:52:44Z</time>
      </trkpt>
      <trkpt lat="59.158788" lon="18.120259">
        <ele>61</ele>
        <time>2019-10-13T15:52:45Z</time>
      </trkpt>
      <trkpt lat="59.158798" lon="18.12029">
        <ele>61</ele>
        <time>2019-10-13T15:52:47Z</time>
      </trkpt>
      <trkpt lat="59.15879" lon="18.120293">
        <ele>0</ele>
        <time>2019-10-13T15:52:50Z</time>
      </trkpt>
      <trkpt lat="59.158791" lon="18.120218">
        <ele>61</ele>
        <time>2019-10-13T15:52:55Z</time>
      </trkpt>
      <trkpt lat="59.158807" lon="18.12018">
        <ele>61</ele>
        <time>2019-10-13T15:52:57Z</time>
      </trkpt>
      <trkpt lat="59.158823" lon="18.120161">
        <ele>61</ele>
        <time>2019-10-13T15:52:58Z</time>
      </trkpt>
      <trkpt lat="59.158852" lon="18.120149">
        <ele>61</ele>
        <time>2019-10-13T15:53:00Z</time>
      </trkpt>
      <trkpt lat="59.15887" lon="18.120164">
        <ele>61</ele>
        <time>2019-10-13T15:53:01Z</time>
      </trkpt>
      <trkpt lat="59.158891" lon="18.120195">
        <ele>60</ele>
        <time>2019-10-13T15:53:02Z</time>
      </trkpt>
      <trkpt lat="59.158911" lon="18.120235">
        <ele>60</ele>
        <time>2019-10-13T15:53:03Z</time>
      </trkpt>
      <trkpt lat="59.158934" lon="18.12028">
        <ele>60</ele>
        <time>2019-10-13T15:53:04Z</time>
      </trkpt>
      <trkpt lat="59.158957" lon="18.120329">
        <ele>60</ele>
        <time>2019-10-13T15:53:05Z</time>
      </trkpt>
      <trkpt lat="59.158984" lon="18.120377">
        <ele>60</ele>
        <time>2019-10-13T15:53:06Z</time>
      </trkpt>
      <trkpt lat="59.159007" lon="18.120426">
        <ele>60</ele>
        <time>2019-10-13T15:53:07Z</time>
      </trkpt>
      <trkpt lat="59.159032" lon="18.120468">
        <ele>60</ele>
        <time>2019-10-13T15:53:08Z</time>
      </trkpt>
      <trkpt lat="59.15906" lon="18.1205">
        <ele>0</ele>
        <time>2019-10-13T15:53:08Z</time>
      </trkpt>
      <trkpt lat="59.159083" lon="18.120524">
        <ele>60</ele>
        <time>2019-10-13T15:53:09Z</time>
      </trkpt>
      <trkpt lat="59.159106" lon="18.120534">
        <ele>60</ele>
        <time>2019-10-13T15:53:11Z</time>
      </trkpt>
      <trkpt lat="59.159132" lon="18.120537">
        <ele>60</ele>
        <time>2019-10-13T15:53:12Z</time>
      </trkpt>
      <trkpt lat="59.159156" lon="18.120542">
        <ele>60</ele>
        <time>2019-10-13T15:53:13Z</time>
      </trkpt>
      <trkpt lat="59.159178" lon="18.120549">
        <ele>0</ele>
        <time>2019-10-13T15:53:13Z</time>
      </trkpt>
      <trkpt lat="59.159202" lon="18.120551">
        <ele>59</ele>
        <time>2019-10-13T15:53:14Z</time>
      </trkpt>
      <trkpt lat="59.159229" lon="18.120548">
        <ele>60</ele>
        <time>2019-10-13T15:53:16Z</time>
      </trkpt>
      <trkpt lat="59.159257" lon="18.120544">
        <ele>60</ele>
        <time>2019-10-13T15:53:17Z</time>
      </trkpt>
      <trkpt lat="59.159282" lon="18.120546">
        <ele>60</ele>
        <time>2019-10-13T15:53:18Z</time>
      </trkpt>
      <trkpt lat="59.159302" lon="18.120551">
        <ele>60</ele>
        <time>2019-10-13T15:53:19Z</time>
      </trkpt>
      <trkpt lat="59.159328" lon="18.120559">
        <ele>60</ele>
        <time>2019-10-13T15:53:21Z</time>
      </trkpt>
      <trkpt lat="59.159347" lon="18.120561">
        <ele>60</ele>
        <time>2019-10-13T15:53:24Z</time>
      </trkpt>
      <trkpt lat="59.159359" lon="18.120529">
        <ele>62</ele>
        <time>2019-10-13T15:53:29Z</time>
      </trkpt>
      <trkpt lat="59.159354" lon="18.120532">
        <ele>0</ele>
        <time>2019-10-13T15:53:32Z</time>
      </trkpt>
      <trkpt lat="59.159282" lon="18.120584">
        <ele>61</ele>
        <time>2019-10-13T15:54:03Z</time>
      </trkpt>
      <trkpt lat="59.159261" lon="18.12058">
        <ele>60</ele>
        <time>2019-10-13T15:54:05Z</time>
      </trkpt>
      <trkpt lat="59.15923" lon="18.120572">
        <ele>60</ele>
        <time>2019-10-13T15:54:06Z</time>
      </trkpt>
      <trkpt lat="59.159191" lon="18.120558">
        <ele>60</ele>
        <time>2019-10-13T15:54:07Z</time>
      </trkpt>
      <trkpt lat="59.159148" lon="18.120531">
        <ele>60</ele>
        <time>2019-10-13T15:54:08Z</time>
      </trkpt>
      <trkpt lat="59.159105" lon="18.120496">
        <ele>0</ele>
        <time>2019-10-13T15:54:08Z</time>
      </trkpt>
      <trkpt lat="59.159055" lon="18.120451">
        <ele>60</ele>
        <time>2019-10-13T15:54:09Z</time>
      </trkpt>
      <trkpt lat="59.159008" lon="18.120384">
        <ele>59</ele>
        <time>2019-10-13T15:54:11Z</time>
      </trkpt>
      <trkpt lat="59.158961" lon="18.120317">
        <ele>59</ele>
        <time>2019-10-13T15:54:12Z</time>
      </trkpt>
      <trkpt lat="59.158915" lon="18.120249">
        <ele>59</ele>
        <time>2019-10-13T15:54:13Z</time>
      </trkpt>
      <trkpt lat="59.158871" lon="18.120171">
        <ele>59</ele>
        <time>2019-10-13T15:54:14Z</time>
      </trkpt>
      <trkpt lat="59.158839" lon="18.120086">
        <ele>59</ele>
        <time>2019-10-13T15:54:15Z</time>
      </trkpt>
      <trkpt lat="59.158817" lon="18.120002">
        <ele>59</ele>
        <time>2019-10-13T15:54:16Z</time>
      </trkpt>
      <trkpt lat="59.158796" lon="18.119917">
        <ele>59</ele>
        <time>2019-10-13T15:54:17Z</time>
      </trkpt>
      <trkpt lat="59.158775" lon="18.119831">
        <ele>0</ele>
        <time>2019-10-13T15:54:17Z</time>
      </trkpt>
      <trkpt lat="59.158759" lon="18.119734">
        <ele>59</ele>
        <time>2019-10-13T15:54:18Z</time>
      </trkpt>
      <trkpt lat="59.158746" lon="18.119633">
        <ele>59</ele>
        <time>2019-10-13T15:54:20Z</time>
      </trkpt>
      <trkpt lat="59.158732" lon="18.119523">
        <ele>59</ele>
        <time>2019-10-13T15:54:21Z</time>
      </trkpt>
      <trkpt lat="59.158727" lon="18.11942">
        <ele>0</ele>
        <time>2019-10-13T15:54:21Z</time>
      </trkpt>
      <trkpt lat="59.158725" lon="18.119321">
        <ele>59</ele>
        <time>2019-10-13T15:54:22Z</time>
      </trkpt>
      <trkpt lat="59.15873" lon="18.119227">
        <ele>59</ele>
        <time>2019-10-13T15:54:24Z</time>
      </trkpt>
      <trkpt lat="59.158728" lon="18.119138">
        <ele>59</ele>
        <time>2019-10-13T15:54:25Z</time>
      </trkpt>
      <trkpt lat="59.158724" lon="18.119055">
        <ele>59</ele>
        <time>2019-10-13T15:54:26Z</time>
      </trkpt>
      <trkpt lat="59.158722" lon="18.118979">
        <ele>59</ele>
        <time>2019-10-13T15:54:27Z</time>
      </trkpt>
      <trkpt lat="59.158727" lon="18.118909">
        <ele>59</ele>
        <time>2019-10-13T15:54:28Z</time>
      </trkpt>
      <trkpt lat="59.158741" lon="18.118849">
        <ele>0</ele>
        <time>2019-10-13T15:54:28Z</time>
      </trkpt>
      <trkpt lat="59.158768" lon="18.118813">
        <ele>59</ele>
        <time>2019-10-13T15:54:29Z</time>
      </trkpt>
      <trkpt lat="59.158798" lon="18.118811">
        <ele>59</ele>
        <time>2019-10-13T15:54:31Z</time>
      </trkpt>
      <trkpt lat="59.15883" lon="18.118833">
        <ele>58</ele>
        <time>2019-10-13T15:54:32Z</time>
      </trkpt>
      <trkpt lat="59.158852" lon="18.118891">
        <ele>58</ele>
        <time>2019-10-13T15:54:33Z</time>
      </trkpt>
      <trkpt lat="59.158851" lon="18.11897">
        <ele>58</ele>
        <time>2019-10-13T15:54:34Z</time>
      </trkpt>
      <trkpt lat="59.158834" lon="18.119054">
        <ele>58</ele>
        <time>2019-10-13T15:54:35Z</time>
      </trkpt>
      <trkpt lat="59.158827" lon="18.119142">
        <ele>58</ele>
        <time>2019-10-13T15:54:36Z</time>
      </trkpt>
      <trkpt lat="59.15883" lon="18.119204">
        <ele>58</ele>
        <time>2019-10-13T15:54:37Z</time>
      </trkpt>
      <trkpt lat="59.158846" lon="18.119222">
        <ele>58</ele>
        <time>2019-10-13T15:54:38Z</time>
      </trkpt>
      <trkpt lat="59.158863" lon="18.119205">
        <ele>58</ele>
        <time>2019-10-13T15:54:39Z</time>
      </trkpt>
      <trkpt lat="59.158883" lon="18.119178">
        <ele>58</ele>
        <time>2019-10-13T15:54:40Z</time>
      </trkpt>
      <trkpt lat="59.158907" lon="18.119125">
        <ele>0</ele>
        <time>2019-10-13T15:54:40Z</time>
      </trkpt>
      <trkpt lat="59.158921" lon="18.119059">
        <ele>58</ele>
        <time>2019-10-13T15:54:41Z</time>
      </trkpt>
      <trkpt lat="59.158917" lon="18.118989">
        <ele>58</ele>
        <time>2019-10-13T15:54:43Z</time>
      </trkpt>
      <trkpt lat="59.158902" lon="18.118927">
        <ele>0</ele>
        <time>2019-10-13T15:54:43Z</time>
      </trkpt>
      <trkpt lat="59.158892" lon="18.118865">
        <ele>58</ele>
        <time>2019-10-13T15:54:44Z</time>
      </trkpt>
      <trkpt lat="59.158896" lon="18.118805">
        <ele>58</ele>
        <time>2019-10-13T15:54:46Z</time>
      </trkpt>
      <trkpt lat="59.158919" lon="18.118745">
        <ele>58</ele>
        <time>2019-10-13T15:54:47Z</time>
      </trkpt>
      <trkpt lat="59.158931" lon="18.118679">
        <ele>58</ele>
        <time>2019-10-13T15:54:48Z</time>
      </trkpt>
      <trkpt lat="59.158927" lon="18.118616">
        <ele>58</ele>
        <time>2019-10-13T15:54:49Z</time>
      </trkpt>
      <trkpt lat="59.15892" lon="18.118558">
        <ele>58</ele>
        <time>2019-10-13T15:54:50Z</time>
      </trkpt>
      <trkpt lat="59.158921" lon="18.118496">
        <ele>58</ele>
        <time>2019-10-13T15:54:51Z</time>
      </trkpt>
      <trkpt lat="59.158935" lon="18.118437">
        <ele>58</ele>
        <time>2019-10-13T15:54:52Z</time>
      </trkpt>
      <trkpt lat="59.158965" lon="18.118401">
        <ele>58</ele>
        <time>2019-10-13T15:54:53Z</time>
      </trkpt>
      <trkpt lat="59.159004" lon="18.118382">
        <ele>58</ele>
        <time>2019-10-13T15:54:54Z</time>
      </trkpt>
      <trkpt lat="59.159031" lon="18.118356">
        <ele>58</ele>
        <time>2019-10-13T15:54:55Z</time>
      </trkpt>
      <trkpt lat="59.159039" lon="18.118313">
        <ele>58</ele>
        <time>2019-10-13T15:54:56Z</time>
      </trkpt>
      <trkpt lat="59.159036" lon="18.118252">
        <ele>58</ele>
        <time>2019-10-13T15:54:57Z</time>
      </trkpt>
      <trkpt lat="59.159027" lon="18.118189">
        <ele>58</ele>
        <time>2019-10-13T15:54:58Z</time>
      </trkpt>
      <trkpt lat="59.159015" lon="18.118127">
        <ele>0</ele>
        <time>2019-10-13T15:54:58Z</time>
      </trkpt>
      <trkpt lat="59.159007" lon="18.118061">
        <ele>58</ele>
        <time>2019-10-13T15:54:59Z</time>
      </trkpt>
      <trkpt lat="59.159008" lon="18.117999">
        <ele>59</ele>
        <time>2019-10-13T15:55:00Z</time>
      </trkpt>
      <trkpt lat="59.159013" lon="18.117947">
        <ele>59</ele>
        <time>2019-10-13T15:55:02Z</time>
      </trkpt>
      <trkpt lat="59.159014" lon="18.117906">
        <ele>59</ele>
        <time>2019-10-13T15:55:03Z</time>
      </trkpt>
      <trkpt lat="59.159024" lon="18.117871">
        <ele>59</ele>
        <time>2019-10-13T15:55:05Z</time>
      </trkpt>
      <trkpt lat="59.159015" lon="18.117868">
        <ele>0</ele>
        <time>2019-10-13T15:55:09Z</time>
      </trkpt>
      <trkpt lat="59.159013" lon="18.117773">
        <ele>60</ele>
        <time>2019-10-13T15:56:02Z</time>
      </trkpt>
      <trkpt lat="59.159017" lon="18.117759">
        <ele>60</ele>
        <time>2019-10-13T15:56:04Z</time>
      </trkpt>
      <trkpt lat="59.159028" lon="18.117763">
        <ele>0</ele>
        <time>2019-10-13T15:56:09Z</time>
      </trkpt>
      <trkpt lat="59.159018" lon="18.117668">
        <ele>62</ele>
        <time>2019-10-13T15:56:48Z</time>
      </trkpt>
      <trkpt lat="59.159045" lon="18.117657">
        <ele>62</ele>
        <time>2019-10-13T15:56:53Z</time>
      </trkpt>
      <trkpt lat="59.159071" lon="18.1176">
        <ele>62</ele>
        <time>2019-10-13T15:56:55Z</time>
      </trkpt>
      <trkpt lat="59.159092" lon="18.117558">
        <ele>62</ele>
        <time>2019-10-13T15:56:56Z</time>
      </trkpt>
      <trkpt lat="59.159124" lon="18.117523">
        <ele>0</ele>
        <time>2019-10-13T15:56:56Z</time>
      </trkpt>
      <trkpt lat="59.159167" lon="18.117527">
        <ele>62</ele>
        <time>2019-10-13T15:56:57Z</time>
      </trkpt>
      <trkpt lat="59.159206" lon="18.117544">
        <ele>61</ele>
        <time>2019-10-13T15:56:59Z</time>
      </trkpt>
      <trkpt lat="59.159254" lon="18.11756">
        <ele>61</ele>
        <time>2019-10-13T15:57:00Z</time>
      </trkpt>
      <trkpt lat="59.159314" lon="18.117582">
        <ele>0</ele>
        <time>2019-10-13T15:57:00Z</time>
      </trkpt>
      <trkpt lat="59.159379" lon="18.117607">
        <ele>61</ele>
        <time>2019-10-13T15:57:01Z</time>
      </trkpt>
      <trkpt lat="59.15944" lon="18.117636">
        <ele>61</ele>
        <time>2019-10-13T15:57:03Z</time>
      </trkpt>
      <trkpt lat="59.159504" lon="18.11766">
        <ele>60</ele>
        <time>2019-10-13T15:57:04Z</time>
      </trkpt>
      <trkpt lat="59.159567" lon="18.11768">
        <ele>60</ele>
        <time>2019-10-13T15:57:05Z</time>
      </trkpt>
      <trkpt lat="59.159621" lon="18.11769">
        <ele>60</ele>
        <time>2019-10-13T15:57:06Z</time>
      </trkpt>
      <trkpt lat="59.159667" lon="18.117694">
        <ele>0</ele>
        <time>2019-10-13T15:57:06Z</time>
      </trkpt>
      <trkpt lat="59.159703" lon="18.11769">
        <ele>60</ele>
        <time>2019-10-13T15:57:07Z</time>
      </trkpt>
      <trkpt lat="59.159736" lon="18.117683">
        <ele>60</ele>
        <time>2019-10-13T15:57:09Z</time>
      </trkpt>
      <trkpt lat="59.159781" lon="18.11767">
        <ele>60</ele>
        <time>2019-10-13T15:57:10Z</time>
      </trkpt>
      <trkpt lat="59.15982" lon="18.117651">
        <ele>0</ele>
        <time>2019-10-13T15:57:10Z</time>
      </trkpt>
      <trkpt lat="59.159873" lon="18.117618">
        <ele>59</ele>
        <time>2019-10-13T15:57:11Z</time>
      </trkpt>
      <trkpt lat="59.159923" lon="18.117579">
        <ele>59</ele>
        <time>2019-10-13T15:57:13Z</time>
      </trkpt>
      <trkpt lat="59.159976" lon="18.117522">
        <ele>59</ele>
        <time>2019-10-13T15:57:14Z</time>
      </trkpt>
      <trkpt lat="59.160035" lon="18.117452">
        <ele>59</ele>
        <time>2019-10-13T15:57:15Z</time>
      </trkpt>
      <trkpt lat="59.160107" lon="18.117381">
        <ele>59</ele>
        <time>2019-10-13T15:57:16Z</time>
      </trkpt>
      <trkpt lat="59.160176" lon="18.117316">
        <ele>58</ele>
        <time>2019-10-13T15:57:17Z</time>
      </trkpt>
      <trkpt lat="59.160247" lon="18.117236">
        <ele>0</ele>
        <time>2019-10-13T15:57:17Z</time>
      </trkpt>
      <trkpt lat="59.160327" lon="18.117124">
        <ele>58</ele>
        <time>2019-10-13T15:57:18Z</time>
      </trkpt>
      <trkpt lat="59.160404" lon="18.117015">
        <ele>57</ele>
        <time>2019-10-13T15:57:20Z</time>
      </trkpt>
      <trkpt lat="59.16048" lon="18.116915">
        <ele>56</ele>
        <time>2019-10-13T15:57:21Z</time>
      </trkpt>
      <trkpt lat="59.16055" lon="18.116818">
        <ele>56</ele>
        <time>2019-10-13T15:57:22Z</time>
      </trkpt>
      <trkpt lat="59.160622" lon="18.116742">
        <ele>56</ele>
        <time>2019-10-13T15:57:23Z</time>
      </trkpt>
      <trkpt lat="59.160691" lon="18.11667">
        <ele>0</ele>
        <time>2019-10-13T15:57:23Z</time>
      </trkpt>
      <trkpt lat="59.160759" lon="18.116603">
        <ele>55</ele>
        <time>2019-10-13T15:57:24Z</time>
      </trkpt>
      <trkpt lat="59.16082" lon="18.11654">
        <ele>0</ele>
        <time>2019-10-13T15:57:25Z</time>
      </trkpt>
      <trkpt lat="59.160878" lon="18.116482">
        <ele>55</ele>
        <time>2019-10-13T15:57:26Z</time>
      </trkpt>
      <trkpt lat="59.160935" lon="18.116429">
        <ele>54</ele>
        <time>2019-10-13T15:57:28Z</time>
      </trkpt>
      <trkpt lat="59.16099" lon="18.116375">
        <ele>54</ele>
        <time>2019-10-13T15:57:29Z</time>
      </trkpt>
      <trkpt lat="59.161043" lon="18.116321">
        <ele>54</ele>
        <time>2019-10-13T15:57:30Z</time>
      </trkpt>
      <trkpt lat="59.161095" lon="18.116267">
        <ele>53</ele>
        <time>2019-10-13T15:57:31Z</time>
      </trkpt>
      <trkpt lat="59.161146" lon="18.116213">
        <ele>0</ele>
        <time>2019-10-13T15:57:31Z</time>
      </trkpt>
      <trkpt lat="59.161198" lon="18.116161">
        <ele>53</ele>
        <time>2019-10-13T15:57:32Z</time>
      </trkpt>
      <trkpt lat="59.161252" lon="18.116119">
        <ele>52</ele>
        <time>2019-10-13T15:57:34Z</time>
      </trkpt>
      <trkpt lat="59.161307" lon="18.116084">
        <ele>52</ele>
        <time>2019-10-13T15:57:35Z</time>
      </trkpt>
      <trkpt lat="59.161361" lon="18.11606">
        <ele>52</ele>
        <time>2019-10-13T15:57:36Z</time>
      </trkpt>
      <trkpt lat="59.161415" lon="18.116039">
        <ele>52</ele>
        <time>2019-10-13T15:57:37Z</time>
      </trkpt>
      <trkpt lat="59.161469" lon="18.116018">
        <ele>52</ele>
        <time>2019-10-13T15:57:38Z</time>
      </trkpt>
      <trkpt lat="59.161523" lon="18.116003">
        <ele>51</ele>
        <time>2019-10-13T15:57:39Z</time>
      </trkpt>
      <trkpt lat="59.161578" lon="18.116009">
        <ele>51</ele>
        <time>2019-10-13T15:57:40Z</time>
      </trkpt>
      <trkpt lat="59.16163" lon="18.116033">
        <ele>0</ele>
        <time>2019-10-13T15:57:40Z</time>
      </trkpt>
      <trkpt lat="59.161681" lon="18.11607">
        <ele>50</ele>
        <time>2019-10-13T15:57:41Z</time>
      </trkpt>
      <trkpt lat="59.16173" lon="18.116116">
        <ele>50</ele>
        <time>2019-10-13T15:57:43Z</time>
      </trkpt>
      <trkpt lat="59.161778" lon="18.116169">
        <ele>49</ele>
        <time>2019-10-13T15:57:44Z</time>
      </trkpt>
      <trkpt lat="59.161827" lon="18.116216">
        <ele>0</ele>
        <time>2019-10-13T15:57:44Z</time>
      </trkpt>
      <trkpt lat="59.161873" lon="18.116242">
        <ele>49</ele>
        <time>2019-10-13T15:57:45Z</time>
      </trkpt>
      <trkpt lat="59.16192" lon="18.116231">
        <ele>49</ele>
        <time>2019-10-13T15:57:47Z</time>
      </trkpt>
      <trkpt lat="59.161963" lon="18.116193">
        <ele>49</ele>
        <time>2019-10-13T15:57:48Z</time>
      </trkpt>
      <trkpt lat="59.162006" lon="18.116149">
        <ele>49</ele>
        <time>2019-10-13T15:57:49Z</time>
      </trkpt>
      <trkpt lat="59.162046" lon="18.116103">
        <ele>49</ele>
        <time>2019-10-13T15:57:50Z</time>
      </trkpt>
      <trkpt lat="59.162085" lon="18.116056">
        <ele>0</ele>
        <time>2019-10-13T15:57:50Z</time>
      </trkpt>
      <trkpt lat="59.162122" lon="18.116013">
        <ele>49</ele>
        <time>2019-10-13T15:57:51Z</time>
      </trkpt>
      <trkpt lat="59.162159" lon="18.115976">
        <ele>49</ele>
        <time>2019-10-13T15:57:53Z</time>
      </trkpt>
      <trkpt lat="59.162195" lon="18.115942">
        <ele>49</ele>
        <time>2019-10-13T15:57:54Z</time>
      </trkpt>
      <trkpt lat="59.162232" lon="18.11591">
        <ele>49</ele>
        <time>2019-10-13T15:57:55Z</time>
      </trkpt>
      <trkpt lat="59.162268" lon="18.115883">
        <ele>49</ele>
        <time>2019-10-13T15:57:56Z</time>
      </trkpt>
      <trkpt lat="59.162302" lon="18.115855">
        <ele>49</ele>
        <time>2019-10-13T15:57:57Z</time>
      </trkpt>
      <trkpt lat="59.162337" lon="18.115829">
        <ele>49</ele>
        <time>2019-10-13T15:57:58Z</time>
      </trkpt>
      <trkpt lat="59.162372" lon="18.115803">
        <ele>49</ele>
        <time>2019-10-13T15:57:59Z</time>
      </trkpt>
      <trkpt lat="59.162407" lon="18.115781">
        <ele>49</ele>
        <time>2019-10-13T15:58:00Z</time>
      </trkpt>
      <trkpt lat="59.162438" lon="18.115754">
        <ele>49</ele>
        <time>2019-10-13T15:58:01Z</time>
      </trkpt>
      <trkpt lat="59.162466" lon="18.115717">
        <ele>49</ele>
        <time>2019-10-13T15:58:02Z</time>
      </trkpt>
      <trkpt lat="59.162487" lon="18.115672">
        <ele>48</ele>
        <time>2019-10-13T15:58:03Z</time>
      </trkpt>
      <trkpt lat="59.162505" lon="18.115626">
        <ele>0</ele>
        <time>2019-10-13T15:58:03Z</time>
      </trkpt>
      <trkpt lat="59.162521" lon="18.115582">
        <ele>48</ele>
        <time>2019-10-13T15:58:04Z</time>
      </trkpt>
      <trkpt lat="59.162536" lon="18.11554">
        <ele>48</ele>
        <time>2019-10-13T15:58:05Z</time>
      </trkpt>
      <trkpt lat="59.162553" lon="18.115495">
        <ele>48</ele>
        <time>2019-10-13T15:58:07Z</time>
      </trkpt>
      <trkpt lat="59.162573" lon="18.115432">
        <ele>48</ele>
        <time>2019-10-13T15:58:08Z</time>
      </trkpt>
      <trkpt lat="59.162595" lon="18.115364">
        <ele>48</ele>
        <time>2019-10-13T15:58:09Z</time>
      </trkpt>
      <trkpt lat="59.162613" lon="18.1153">
        <ele>48</ele>
        <time>2019-10-13T15:58:10Z</time>
      </trkpt>
      <trkpt lat="59.162625" lon="18.115244">
        <ele>48</ele>
        <time>2019-10-13T15:58:11Z</time>
      </trkpt>
      <trkpt lat="59.162629" lon="18.115208">
        <ele>48</ele>
        <time>2019-10-13T15:58:12Z</time>
      </trkpt>
      <trkpt lat="59.162613" lon="18.115176">
        <ele>48</ele>
        <time>2019-10-13T15:58:15Z</time>
      </trkpt>
      <trkpt lat="59.162617" lon="18.11514">
        <ele>47</ele>
        <time>2019-10-13T15:58:17Z</time>
      </trkpt>
      <trkpt lat="59.162605" lon="18.115114">
        <ele>0</ele>
        <time>2019-10-13T15:58:20Z</time>
      </trkpt>
      <trkpt lat="59.162606" lon="18.11511">
        <ele>0</ele>
        <time>2019-10-13T15:58:21Z</time>
      </trkpt>
      <trkpt lat="59.162602" lon="18.115198">
        <ele>48</ele>
        <time>2019-10-13T15:59:04Z</time>
      </trkpt>
      <trkpt lat="59.162609" lon="18.115201">
        <ele>0</ele>
        <time>2019-10-13T15:59:07Z</time>
      </trkpt>
      <trkpt lat="59.162596" lon="18.11519">
        <ele>51</ele>
        <time>2019-10-13T16:03:22Z</time>
      </trkpt>
      <trkpt lat="59.162596" lon="18.115195">
        <ele>0</ele>
        <time>2019-10-13T16:03:25Z</time>
      </trkpt>
      <trkpt lat="59.16262" lon="18.115126">
        <ele>51</ele>
        <time>2019-10-13T16:06:16Z</time>
      </trkpt>
      <trkpt lat="59.162623" lon="18.115105">
        <ele>51</ele>
        <time>2019-10-13T16:06:18Z</time>
      </trkpt>
      <trkpt lat="59.162621" lon="18.115067">
        <ele>51</ele>
        <time>2019-10-13T16:06:20Z</time>
      </trkpt>
      <trkpt lat="59.162637" lon="18.115045">
        <ele>50</ele>
        <time>2019-10-13T16:06:23Z</time>
      </trkpt>
      <trkpt lat="59.162644" lon="18.11509">
        <ele>50</ele>
        <time>2019-10-13T16:06:26Z</time>
      </trkpt>
      <trkpt lat="59.162637" lon="18.115133">
        <ele>50</ele>
        <time>2019-10-13T16:06:28Z</time>
      </trkpt>
      <trkpt lat="59.162631" lon="18.115167">
        <ele>51</ele>
        <time>2019-10-13T16:06:30Z</time>
      </trkpt>
      <trkpt lat="59.162636" lon="18.115176">
        <ele>0</ele>
        <time>2019-10-13T16:06:33Z</time>
      </trkpt>
      <trkpt lat="59.162641" lon="18.115137">
        <ele>52</ele>
        <time>2019-10-13T16:08:56Z</time>
      </trkpt>
      <trkpt lat="59.162621" lon="18.115134">
        <ele>52</ele>
        <time>2019-10-13T16:08:59Z</time>
      </trkpt>
      <trkpt lat="59.162604" lon="18.115117">
        <ele>51</ele>
        <time>2019-10-13T16:09:01Z</time>
      </trkpt>
      <trkpt lat="59.162587" lon="18.115085">
        <ele>51</ele>
        <time>2019-10-13T16:09:04Z</time>
      </trkpt>
      <trkpt lat="59.162588" lon="18.115044">
        <ele>51</ele>
        <time>2019-10-13T16:09:08Z</time>
      </trkpt>
      <trkpt lat="59.162598" lon="18.115004">
        <ele>51</ele>
        <time>2019-10-13T16:09:11Z</time>
      </trkpt>
      <trkpt lat="59.162592" lon="18.114969">
        <ele>0</ele>
        <time>2019-10-13T16:09:14Z</time>
      </trkpt>
      <trkpt lat="59.162585" lon="18.114975">
        <ele>0</ele>
        <time>2019-10-13T16:09:17Z</time>
      </trkpt>
      <trkpt lat="59.162621" lon="18.115094">
        <ele>52</ele>
        <time>2019-10-13T16:12:50Z</time>
      </trkpt>
      <trkpt lat="59.162632" lon="18.115123">
        <ele>0</ele>
        <time>2019-10-13T16:12:52Z</time>
      </trkpt>
      <trkpt lat="59.162645" lon="18.115161">
        <ele>52</ele>
        <time>2019-10-13T16:12:55Z</time>
      </trkpt>
      <trkpt lat="59.16266" lon="18.115198">
        <ele>52</ele>
        <time>2019-10-13T16:12:57Z</time>
      </trkpt>
      <trkpt lat="59.162677" lon="18.115242">
        <ele>52</ele>
        <time>2019-10-13T16:12:59Z</time>
      </trkpt>
      <trkpt lat="59.16266" lon="18.115253">
        <ele>52</ele>
        <time>2019-10-13T16:13:02Z</time>
      </trkpt>
      <trkpt lat="59.162644" lon="18.115205">
        <ele>51</ele>
        <time>2019-10-13T16:13:04Z</time>
      </trkpt>
      <trkpt lat="59.16263" lon="18.115158">
        <ele>51</ele>
        <time>2019-10-13T16:13:06Z</time>
      </trkpt>
      <trkpt lat="59.162632" lon="18.115182">
        <ele>0</ele>
        <time>2019-10-13T16:13:11Z</time>
      </trkpt>
      <trkpt lat="59.162644" lon="18.11522">
        <ele>50</ele>
        <time>2019-10-13T16:13:18Z</time>
      </trkpt>
      <trkpt lat="59.162668" lon="18.115238">
        <ele>51</ele>
        <time>2019-10-13T16:13:21Z</time>
      </trkpt>
      <trkpt lat="59.162684" lon="18.115262">
        <ele>51</ele>
        <time>2019-10-13T16:13:23Z</time>
      </trkpt>
      <trkpt lat="59.1627" lon="18.115304">
        <ele>52</ele>
        <time>2019-10-13T16:13:25Z</time>
      </trkpt>
      <trkpt lat="59.162713" lon="18.115356">
        <ele>52</ele>
        <time>2019-10-13T16:13:28Z</time>
      </trkpt>
      <trkpt lat="59.162724" lon="18.115407">
        <ele>52</ele>
        <time>2019-10-13T16:13:30Z</time>
      </trkpt>
      <trkpt lat="59.162713" lon="18.115455">
        <ele>52</ele>
        <time>2019-10-13T16:13:32Z</time>
      </trkpt>
      <trkpt lat="59.162713" lon="18.115477">
        <ele>0</ele>
        <time>2019-10-13T16:13:35Z</time>
      </trkpt>
      <trkpt lat="59.162658" lon="18.115392">
        <ele>53</ele>
        <time>2019-10-13T16:15:26Z</time>
      </trkpt>
      <trkpt lat="59.16265" lon="18.115374">
        <ele>53</ele>
        <time>2019-10-13T16:15:28Z</time>
      </trkpt>
      <trkpt lat="59.16263" lon="18.115336">
        <ele>53</ele>
        <time>2019-10-13T16:15:30Z</time>
      </trkpt>
      <trkpt lat="59.162609" lon="18.115311">
        <ele>53</ele>
        <time>2019-10-13T16:15:32Z</time>
      </trkpt>
      <trkpt lat="59.162594" lon="18.115284">
        <ele>53</ele>
        <time>2019-10-13T16:15:34Z</time>
      </trkpt>
      <trkpt lat="59.162584" lon="18.11523">
        <ele>53</ele>
        <time>2019-10-13T16:15:36Z</time>
      </trkpt>
      <trkpt lat="59.162574" lon="18.115189">
        <ele>53</ele>
        <time>2019-10-13T16:15:38Z</time>
      </trkpt>
      <trkpt lat="59.162568" lon="18.115176">
        <ele>0</ele>
        <time>2019-10-13T16:15:41Z</time>
      </trkpt>
      <trkpt lat="59.162592" lon="18.115175">
        <ele>51</ele>
        <time>2019-10-13T16:16:28Z</time>
      </trkpt>
      <trkpt lat="59.162609" lon="18.115129">
        <ele>50</ele>
        <time>2019-10-13T16:16:31Z</time>
      </trkpt>
      <trkpt lat="59.16262" lon="18.115086">
        <ele>50</ele>
        <time>2019-10-13T16:16:33Z</time>
      </trkpt>
      <trkpt lat="59.16263" lon="18.115122">
        <ele>0</ele>
        <time>2019-10-13T16:16:36Z</time>
      </trkpt>
      <trkpt lat="59.162623" lon="18.115174">
        <ele>50</ele>
        <time>2019-10-13T16:16:39Z</time>
      </trkpt>
      <trkpt lat="59.162622" lon="18.115219">
        <ele>51</ele>
        <time>2019-10-13T16:16:41Z</time>
      </trkpt>
      <trkpt lat="59.162628" lon="18.115213">
        <ele>0</ele>
        <time>2019-10-13T16:16:45Z</time>
      </trkpt>
      <trkpt lat="59.162613" lon="18.115202">
        <ele>47</ele>
        <time>2019-10-13T16:17:22Z</time>
      </trkpt>
      <trkpt lat="59.16261" lon="18.1152">
        <ele>47</ele>
        <time>2019-10-13T16:17:24Z</time>
      </trkpt>
      <trkpt lat="59.1626" lon="18.115196">
        <ele>0</ele>
        <time>2019-10-13T16:17:29Z</time>
      </trkpt>
      <trkpt lat="59.162648" lon="18.115176">
        <ele>52</ele>
        <time>2019-10-13T16:18:00Z</time>
      </trkpt>
      <trkpt lat="59.162653" lon="18.115169">
        <ele>52</ele>
        <time>2019-10-13T16:18:02Z</time>
      </trkpt>
      <trkpt lat="59.162669" lon="18.115153">
        <ele>52</ele>
        <time>2019-10-13T16:18:05Z</time>
      </trkpt>
      <trkpt lat="59.162686" lon="18.115121">
        <ele>52</ele>
        <time>2019-10-13T16:18:10Z</time>
      </trkpt>
      <trkpt lat="59.162688" lon="18.115106">
        <ele>0</ele>
        <time>2019-10-13T16:18:13Z</time>
      </trkpt>
      <trkpt lat="59.162654" lon="18.115105">
        <ele>50</ele>
        <time>2019-10-13T16:18:38Z</time>
      </trkpt>
      <trkpt lat="59.162677" lon="18.115086">
        <ele>50</ele>
        <time>2019-10-13T16:18:41Z</time>
      </trkpt>
      <trkpt lat="59.162699" lon="18.115077">
        <ele>49</ele>
        <time>2019-10-13T16:18:43Z</time>
      </trkpt>
      <trkpt lat="59.162715" lon="18.115058">
        <ele>49</ele>
        <time>2019-10-13T16:18:45Z</time>
      </trkpt>
      <trkpt lat="59.162741" lon="18.115027">
        <ele>49</ele>
        <time>2019-10-13T16:18:47Z</time>
      </trkpt>
      <trkpt lat="59.162749" lon="18.114994">
        <ele>49</ele>
        <time>2019-10-13T16:18:49Z</time>
      </trkpt>
      <trkpt lat="59.162736" lon="18.114953">
        <ele>49</ele>
        <time>2019-10-13T16:18:51Z</time>
      </trkpt>
      <trkpt lat="59.162733" lon="18.114905">
        <ele>48</ele>
        <time>2019-10-13T16:18:53Z</time>
      </trkpt>
      <trkpt lat="59.162746" lon="18.114881">
        <ele>48</ele>
        <time>2019-10-13T16:18:55Z</time>
      </trkpt>
      <trkpt lat="59.162757" lon="18.114847">
        <ele>48</ele>
        <time>2019-10-13T16:18:57Z</time>
      </trkpt>
      <trkpt lat="59.162757" lon="18.114846">
        <ele>0</ele>
        <time>2019-10-13T16:19:01Z</time>
      </trkpt>
      <trkpt lat="59.162763" lon="18.114904">
        <ele>47</ele>
        <time>2019-10-13T16:19:54Z</time>
      </trkpt>
      <trkpt lat="59.162775" lon="18.114937">
        <ele>48</ele>
        <time>2019-10-13T16:19:57Z</time>
      </trkpt>
      <trkpt lat="59.162781" lon="18.114949">
        <ele>0</ele>
        <time>2019-10-13T16:19:59Z</time>
      </trkpt>
      <trkpt lat="59.16279" lon="18.114988">
        <ele>47</ele>
        <time>2019-10-13T16:20:02Z</time>
      </trkpt>
      <trkpt lat="59.162773" lon="18.115022">
        <ele>46</ele>
        <time>2019-10-13T16:20:05Z</time>
      </trkpt>
      <trkpt lat="59.162752" lon="18.115054">
        <ele>46</ele>
        <time>2019-10-13T16:20:07Z</time>
      </trkpt>
      <trkpt lat="59.162727" lon="18.115081">
        <ele>46</ele>
        <time>2019-10-13T16:20:09Z</time>
      </trkpt>
      <trkpt lat="59.162704" lon="18.115098">
        <ele>46</ele>
        <time>2019-10-13T16:20:11Z</time>
      </trkpt>
      <trkpt lat="59.162675" lon="18.115126">
        <ele>46</ele>
        <time>2019-10-13T16:20:13Z</time>
      </trkpt>
      <trkpt lat="59.162646" lon="18.115151">
        <ele>46</ele>
        <time>2019-10-13T16:20:15Z</time>
      </trkpt>
      <trkpt lat="59.162629" lon="18.115168">
        <ele>46</ele>
        <time>2019-10-13T16:20:17Z</time>
      </trkpt>
      <trkpt lat="59.162628" lon="18.115164">
        <ele>0</ele>
        <time>2019-10-13T16:20:19Z</time>
      </trkpt>
      <trkpt lat="59.162658" lon="18.115225">
        <ele>48</ele>
        <time>2019-10-13T16:23:34Z</time>
      </trkpt>
      <trkpt lat="59.162671" lon="18.115285">
        <ele>48</ele>
        <time>2019-10-13T16:23:37Z</time>
      </trkpt>
      <trkpt lat="59.162676" lon="18.115351">
        <ele>48</ele>
        <time>2019-10-13T16:23:39Z</time>
      </trkpt>
      <trkpt lat="59.162671" lon="18.115409">
        <ele>48</ele>
        <time>2019-10-13T16:23:41Z</time>
      </trkpt>
      <trkpt lat="59.162683" lon="18.11547">
        <ele>48</ele>
        <time>2019-10-13T16:23:43Z</time>
      </trkpt>
      <trkpt lat="59.162705" lon="18.115514">
        <ele>47</ele>
        <time>2019-10-13T16:23:45Z</time>
      </trkpt>
      <trkpt lat="59.162718" lon="18.115556">
        <ele>47</ele>
        <time>2019-10-13T16:23:47Z</time>
      </trkpt>
      <trkpt lat="59.162737" lon="18.115553">
        <ele>47</ele>
        <time>2019-10-13T16:23:49Z</time>
      </trkpt>
      <trkpt lat="59.162746" lon="18.115513">
        <ele>47</ele>
        <time>2019-10-13T16:23:51Z</time>
      </trkpt>
      <trkpt lat="59.162737" lon="18.115475">
        <ele>0</ele>
        <time>2019-10-13T16:23:52Z</time>
      </trkpt>
      <trkpt lat="59.162715" lon="18.115431">
        <ele>46</ele>
        <time>2019-10-13T16:23:55Z</time>
      </trkpt>
      <trkpt lat="59.162693" lon="18.115393">
        <ele>46</ele>
        <time>2019-10-13T16:23:57Z</time>
      </trkpt>
      <trkpt lat="59.162672" lon="18.115371">
        <ele>46</ele>
        <time>2019-10-13T16:23:59Z</time>
      </trkpt>
      <trkpt lat="59.162652" lon="18.115357">
        <ele>46</ele>
        <time>2019-10-13T16:24:01Z</time>
      </trkpt>
      <trkpt lat="59.162636" lon="18.115341">
        <ele>46</ele>
        <time>2019-10-13T16:24:03Z</time>
      </trkpt>
      <trkpt lat="59.162619" lon="18.115305">
        <ele>47</ele>
        <time>2019-10-13T16:24:06Z</time>
      </trkpt>
      <trkpt lat="59.162599" lon="18.115287">
        <ele>47</ele>
        <time>2019-10-13T16:24:09Z</time>
      </trkpt>
      <trkpt lat="59.162601" lon="18.115328">
        <ele>0</ele>
        <time>2019-10-13T16:24:11Z</time>
      </trkpt>
      <trkpt lat="59.162624" lon="18.115361">
        <ele>47</ele>
        <time>2019-10-13T16:24:14Z</time>
      </trkpt>
      <trkpt lat="59.16265" lon="18.115363">
        <ele>0</ele>
        <time>2019-10-13T16:24:16Z</time>
      </trkpt>
      <trkpt lat="59.16268" lon="18.115367">
        <ele>47</ele>
        <time>2019-10-13T16:24:19Z</time>
      </trkpt>
      <trkpt lat="59.162687" lon="18.115409">
        <ele>47</ele>
        <time>2019-10-13T16:24:21Z</time>
      </trkpt>
      <trkpt lat="59.162674" lon="18.115447">
        <ele>46</ele>
        <time>2019-10-13T16:24:23Z</time>
      </trkpt>
      <trkpt lat="59.162647" lon="18.115457">
        <ele>46</ele>
        <time>2019-10-13T16:24:25Z</time>
      </trkpt>
      <trkpt lat="59.162626" lon="18.115462">
        <ele>46</ele>
        <time>2019-10-13T16:24:27Z</time>
      </trkpt>
      <trkpt lat="59.162624" lon="18.115513">
        <ele>46</ele>
        <time>2019-10-13T16:24:30Z</time>
      </trkpt>
      <trkpt lat="59.162615" lon="18.115548">
        <ele>46</ele>
        <time>2019-10-13T16:24:31Z</time>
      </trkpt>
      <trkpt lat="59.162622" lon="18.115588">
        <ele>46</ele>
        <time>2019-10-13T16:24:35Z</time>
      </trkpt>
      <trkpt lat="59.162638" lon="18.115602">
        <ele>46</ele>
        <time>2019-10-13T16:24:38Z</time>
      </trkpt>
      <trkpt lat="59.162665" lon="18.115592">
        <ele>46</ele>
        <time>2019-10-13T16:24:41Z</time>
      </trkpt>
      <trkpt lat="59.162677" lon="18.115561">
        <ele>47</ele>
        <time>2019-10-13T16:24:43Z</time>
      </trkpt>
      <trkpt lat="59.162667" lon="18.115505">
        <ele>46</ele>
        <time>2019-10-13T16:24:45Z</time>
      </trkpt>
      <trkpt lat="59.162652" lon="18.115459">
        <ele>46</ele>
        <time>2019-10-13T16:24:47Z</time>
      </trkpt>
      <trkpt lat="59.162629" lon="18.115421">
        <ele>46</ele>
        <time>2019-10-13T16:24:49Z</time>
      </trkpt>
      <trkpt lat="59.162607" lon="18.115372">
        <ele>46</ele>
        <time>2019-10-13T16:24:50Z</time>
      </trkpt>
      <trkpt lat="59.162595" lon="18.115315">
        <ele>47</ele>
        <time>2019-10-13T16:24:53Z</time>
      </trkpt>
      <trkpt lat="59.162591" lon="18.115262">
        <ele>47</ele>
        <time>2019-10-13T16:24:55Z</time>
      </trkpt>
      <trkpt lat="59.162577" lon="18.115222">
        <ele>47</ele>
        <time>2019-10-13T16:24:58Z</time>
      </trkpt>
      <trkpt lat="59.162592" lon="18.115227">
        <ele>46</ele>
        <time>2019-10-13T16:25:07Z</time>
      </trkpt>
      <trkpt lat="59.162583" lon="18.115253">
        <ele>45</ele>
        <time>2019-10-13T16:25:24Z</time>
      </trkpt>
      <trkpt lat="59.162571" lon="18.115249">
        <ele>0</ele>
        <time>2019-10-13T16:25:29Z</time>
      </trkpt>
      <trkpt lat="59.162577" lon="18.115402">
        <ele>45</ele>
        <time>2019-10-13T16:27:02Z</time>
      </trkpt>
      <trkpt lat="59.16257" lon="18.115446">
        <ele>0</ele>
        <time>2019-10-13T16:27:03Z</time>
      </trkpt>
      <trkpt lat="59.162563" lon="18.115487">
        <ele>45</ele>
        <time>2019-10-13T16:27:04Z</time>
      </trkpt>
      <trkpt lat="59.162553" lon="18.115524">
        <ele>45</ele>
        <time>2019-10-13T16:27:06Z</time>
      </trkpt>
      <trkpt lat="59.162544" lon="18.11556">
        <ele>45</ele>
        <time>2019-10-13T16:27:07Z</time>
      </trkpt>
      <trkpt lat="59.162532" lon="18.11559">
        <ele>45</ele>
        <time>2019-10-13T16:27:08Z</time>
      </trkpt>
      <trkpt lat="59.162519" lon="18.115618">
        <ele>45</ele>
        <time>2019-10-13T16:27:09Z</time>
      </trkpt>
      <trkpt lat="59.1625" lon="18.11568">
        <ele>44</ele>
        <time>2019-10-13T16:27:11Z</time>
      </trkpt>
      <trkpt lat="59.162492" lon="18.115713">
        <ele>45</ele>
        <time>2019-10-13T16:27:12Z</time>
      </trkpt>
      <trkpt lat="59.162482" lon="18.115761">
        <ele>44</ele>
        <time>2019-10-13T16:27:14Z</time>
      </trkpt>
      <trkpt lat="59.16246" lon="18.115806">
        <ele>44</ele>
        <time>2019-10-13T16:27:16Z</time>
      </trkpt>
      <trkpt lat="59.16244" lon="18.115818">
        <ele>44</ele>
        <time>2019-10-13T16:27:17Z</time>
      </trkpt>
      <trkpt lat="59.162416" lon="18.115828">
        <ele>44</ele>
        <time>2019-10-13T16:27:18Z</time>
      </trkpt>
      <trkpt lat="59.162392" lon="18.115845">
        <ele>44</ele>
        <time>2019-10-13T16:27:19Z</time>
      </trkpt>
      <trkpt lat="59.162367" lon="18.115862">
        <ele>44</ele>
        <time>2019-10-13T16:27:20Z</time>
      </trkpt>
      <trkpt lat="59.162342" lon="18.115875">
        <ele>0</ele>
        <time>2019-10-13T16:27:20Z</time>
      </trkpt>
      <trkpt lat="59.162315" lon="18.115884">
        <ele>44</ele>
        <time>2019-10-13T16:27:21Z</time>
      </trkpt>
      <trkpt lat="59.16229" lon="18.115889">
        <ele>45</ele>
        <time>2019-10-13T16:27:23Z</time>
      </trkpt>
      <trkpt lat="59.162264" lon="18.115894">
        <ele>45</ele>
        <time>2019-10-13T16:27:24Z</time>
      </trkpt>
      <trkpt lat="59.162242" lon="18.11591">
        <ele>45</ele>
        <time>2019-10-13T16:27:25Z</time>
      </trkpt>
      <trkpt lat="59.16222" lon="18.115932">
        <ele>44</ele>
        <time>2019-10-13T16:27:26Z</time>
      </trkpt>
      <trkpt lat="59.162195" lon="18.11596">
        <ele>0</ele>
        <time>2019-10-13T16:27:26Z</time>
      </trkpt>
      <trkpt lat="59.162167" lon="18.11599">
        <ele>44</ele>
        <time>2019-10-13T16:27:27Z</time>
      </trkpt>
      <trkpt lat="59.162142" lon="18.116016">
        <ele>44</ele>
        <time>2019-10-13T16:27:29Z</time>
      </trkpt>
      <trkpt lat="59.162116" lon="18.116038">
        <ele>44</ele>
        <time>2019-10-13T16:27:30Z</time>
      </trkpt>
      <trkpt lat="59.162086" lon="18.116074">
        <ele>44</ele>
        <time>2019-10-13T16:27:31Z</time>
      </trkpt>
      <trkpt lat="59.162052" lon="18.116116">
        <ele>44</ele>
        <time>2019-10-13T16:27:32Z</time>
      </trkpt>
      <trkpt lat="59.162015" lon="18.11615">
        <ele>44</ele>
        <time>2019-10-13T16:27:33Z</time>
      </trkpt>
      <trkpt lat="59.161981" lon="18.116174">
        <ele>44</ele>
        <time>2019-10-13T16:27:34Z</time>
      </trkpt>
      <trkpt lat="59.16195" lon="18.116194">
        <ele>44</ele>
        <time>2019-10-13T16:27:35Z</time>
      </trkpt>
      <trkpt lat="59.161924" lon="18.116212">
        <ele>44</ele>
        <time>2019-10-13T16:27:36Z</time>
      </trkpt>
      <trkpt lat="59.1619" lon="18.11623">
        <ele>44</ele>
        <time>2019-10-13T16:27:37Z</time>
      </trkpt>
      <trkpt lat="59.161881" lon="18.116248">
        <ele>44</ele>
        <time>2019-10-13T16:27:38Z</time>
      </trkpt>
      <trkpt lat="59.16186" lon="18.116255">
        <ele>44</ele>
        <time>2019-10-13T16:27:39Z</time>
      </trkpt>
      <trkpt lat="59.161838" lon="18.116254">
        <ele>0</ele>
        <time>2019-10-13T16:27:39Z</time>
      </trkpt>
      <trkpt lat="59.161818" lon="18.116248">
        <ele>44</ele>
        <time>2019-10-13T16:27:40Z</time>
      </trkpt>
      <trkpt lat="59.161793" lon="18.116236">
        <ele>44</ele>
        <time>2019-10-13T16:27:42Z</time>
      </trkpt>
      <trkpt lat="59.161772" lon="18.116222">
        <ele>44</ele>
        <time>2019-10-13T16:27:43Z</time>
      </trkpt>
      <trkpt lat="59.161751" lon="18.116202">
        <ele>44</ele>
        <time>2019-10-13T16:27:44Z</time>
      </trkpt>
      <trkpt lat="59.161727" lon="18.116178">
        <ele>0</ele>
        <time>2019-10-13T16:27:44Z</time>
      </trkpt>
      <trkpt lat="59.1617" lon="18.11615">
        <ele>44</ele>
        <time>2019-10-13T16:27:45Z</time>
      </trkpt>
      <trkpt lat="59.16167" lon="18.116122">
        <ele>44</ele>
        <time>2019-10-13T16:27:47Z</time>
      </trkpt>
      <trkpt lat="59.161642" lon="18.116098">
        <ele>44</ele>
        <time>2019-10-13T16:27:48Z</time>
      </trkpt>
      <trkpt lat="59.161614" lon="18.116078">
        <ele>44</ele>
        <time>2019-10-13T16:27:49Z</time>
      </trkpt>
      <trkpt lat="59.161587" lon="18.116065">
        <ele>44</ele>
        <time>2019-10-13T16:27:50Z</time>
      </trkpt>
      <trkpt lat="59.161564" lon="18.116056">
        <ele>44</ele>
        <time>2019-10-13T16:27:51Z</time>
      </trkpt>
      <trkpt lat="59.161542" lon="18.116051">
        <ele>44</ele>
        <time>2019-10-13T16:27:52Z</time>
      </trkpt>
      <trkpt lat="59.161519" lon="18.116046">
        <ele>44</ele>
        <time>2019-10-13T16:27:53Z</time>
      </trkpt>
      <trkpt lat="59.161497" lon="18.116041">
        <ele>44</ele>
        <time>2019-10-13T16:27:54Z</time>
      </trkpt>
      <trkpt lat="59.161477" lon="18.11604">
        <ele>44</ele>
        <time>2019-10-13T16:27:55Z</time>
      </trkpt>
      <trkpt lat="59.161454" lon="18.116046">
        <ele>44</ele>
        <time>2019-10-13T16:27:56Z</time>
      </trkpt>
      <trkpt lat="59.161432" lon="18.116052">
        <ele>44</ele>
        <time>2019-10-13T16:27:57Z</time>
      </trkpt>
      <trkpt lat="59.161412" lon="18.11606">
        <ele>44</ele>
        <time>2019-10-13T16:27:58Z</time>
      </trkpt>
      <trkpt lat="59.161392" lon="18.116062">
        <ele>0</ele>
        <time>2019-10-13T16:27:58Z</time>
      </trkpt>
      <trkpt lat="59.161374" lon="18.116064">
        <ele>44</ele>
        <time>2019-10-13T16:27:59Z</time>
      </trkpt>
      <trkpt lat="59.161354" lon="18.11607">
        <ele>44</ele>
        <time>2019-10-13T16:28:01Z</time>
      </trkpt>
      <trkpt lat="59.161334" lon="18.116077">
        <ele>44</ele>
        <time>2019-10-13T16:28:02Z</time>
      </trkpt>
      <trkpt lat="59.161311" lon="18.116085">
        <ele>44</ele>
        <time>2019-10-13T16:28:03Z</time>
      </trkpt>
      <trkpt lat="59.161285" lon="18.116098">
        <ele>44</ele>
        <time>2019-10-13T16:28:04Z</time>
      </trkpt>
      <trkpt lat="59.161261" lon="18.116109">
        <ele>44</ele>
        <time>2019-10-13T16:28:05Z</time>
      </trkpt>
      <trkpt lat="59.16124" lon="18.116121">
        <ele>0</ele>
        <time>2019-10-13T16:28:05Z</time>
      </trkpt>
      <trkpt lat="59.161223" lon="18.11614">
        <ele>44</ele>
        <time>2019-10-13T16:28:06Z</time>
      </trkpt>
      <trkpt lat="59.161205" lon="18.116163">
        <ele>44</ele>
        <time>2019-10-13T16:28:08Z</time>
      </trkpt>
      <trkpt lat="59.161181" lon="18.116194">
        <ele>44</ele>
        <time>2019-10-13T16:28:09Z</time>
      </trkpt>
      <trkpt lat="59.161158" lon="18.11622">
        <ele>44</ele>
        <time>2019-10-13T16:28:10Z</time>
      </trkpt>
      <trkpt lat="59.16114" lon="18.116236">
        <ele>44</ele>
        <time>2019-10-13T16:28:11Z</time>
      </trkpt>
      <trkpt lat="59.161123" lon="18.116257">
        <ele>44</ele>
        <time>2019-10-13T16:28:12Z</time>
      </trkpt>
      <trkpt lat="59.161106" lon="18.116282">
        <ele>44</ele>
        <time>2019-10-13T16:28:13Z</time>
      </trkpt>
      <trkpt lat="59.161088" lon="18.116304">
        <ele>44</ele>
        <time>2019-10-13T16:28:14Z</time>
      </trkpt>
      <trkpt lat="59.161069" lon="18.116325">
        <ele>44</ele>
        <time>2019-10-13T16:28:15Z</time>
      </trkpt>
      <trkpt lat="59.161051" lon="18.116347">
        <ele>44</ele>
        <time>2019-10-13T16:28:16Z</time>
      </trkpt>
      <trkpt lat="59.161032" lon="18.116371">
        <ele>44</ele>
        <time>2019-10-13T16:28:17Z</time>
      </trkpt>
      <trkpt lat="59.161012" lon="18.116393">
        <ele>0</ele>
        <time>2019-10-13T16:28:17Z</time>
      </trkpt>
      <trkpt lat="59.160992" lon="18.116415">
        <ele>44</ele>
        <time>2019-10-13T16:28:18Z</time>
      </trkpt>
      <trkpt lat="59.160973" lon="18.116439">
        <ele>44</ele>
        <time>2019-10-13T16:28:20Z</time>
      </trkpt>
      <trkpt lat="59.160949" lon="18.116472">
        <ele>44</ele>
        <time>2019-10-13T16:28:21Z</time>
      </trkpt>
      <trkpt lat="59.160919" lon="18.116508">
        <ele>44</ele>
        <time>2019-10-13T16:28:22Z</time>
      </trkpt>
      <trkpt lat="59.160884" lon="18.116541">
        <ele>44</ele>
        <time>2019-10-13T16:28:23Z</time>
      </trkpt>
      <trkpt lat="59.160843" lon="18.116568">
        <ele>0</ele>
        <time>2019-10-13T16:28:23Z</time>
      </trkpt>
      <trkpt lat="59.160799" lon="18.116595">
        <ele>44</ele>
        <time>2019-10-13T16:28:24Z</time>
      </trkpt>
      <trkpt lat="59.160754" lon="18.116627">
        <ele>44</ele>
        <time>2019-10-13T16:28:26Z</time>
      </trkpt>
      <trkpt lat="59.160707" lon="18.116667">
        <ele>44</ele>
        <time>2019-10-13T16:28:27Z</time>
      </trkpt>
      <trkpt lat="59.160661" lon="18.116711">
        <ele>44</ele>
        <time>2019-10-13T16:28:28Z</time>
      </trkpt>
      <trkpt lat="59.160615" lon="18.116753">
        <ele>44</ele>
        <time>2019-10-13T16:28:29Z</time>
      </trkpt>
      <trkpt lat="59.160569" lon="18.116788">
        <ele>44</ele>
        <time>2019-10-13T16:28:30Z</time>
      </trkpt>
      <trkpt lat="59.160524" lon="18.116822">
        <ele>44</ele>
        <time>2019-10-13T16:28:31Z</time>
      </trkpt>
      <trkpt lat="59.160485" lon="18.116861">
        <ele>44</ele>
        <time>2019-10-13T16:28:32Z</time>
      </trkpt>
      <trkpt lat="59.160452" lon="18.116905">
        <ele>44</ele>
        <time>2019-10-13T16:28:33Z</time>
      </trkpt>
      <trkpt lat="59.160424" lon="18.116947">
        <ele>44</ele>
        <time>2019-10-13T16:28:34Z</time>
      </trkpt>
      <trkpt lat="59.160399" lon="18.116989">
        <ele>44</ele>
        <time>2019-10-13T16:28:35Z</time>
      </trkpt>
      <trkpt lat="59.160378" lon="18.117024">
        <ele>44</ele>
        <time>2019-10-13T16:28:36Z</time>
      </trkpt>
      <trkpt lat="59.160362" lon="18.117048">
        <ele>0</ele>
        <time>2019-10-13T16:28:36Z</time>
      </trkpt>
      <trkpt lat="59.160334" lon="18.117086">
        <ele>45</ele>
        <time>2019-10-13T16:28:39Z</time>
      </trkpt>
      <trkpt lat="59.160308" lon="18.117117">
        <ele>45</ele>
        <time>2019-10-13T16:28:41Z</time>
      </trkpt>
      <trkpt lat="59.160282" lon="18.117141">
        <ele>46</ele>
        <time>2019-10-13T16:28:43Z</time>
      </trkpt>
      <trkpt lat="59.160263" lon="18.117157">
        <ele>46</ele>
        <time>2019-10-13T16:28:44Z</time>
      </trkpt>
      <trkpt lat="59.160247" lon="18.117174">
        <ele>46</ele>
        <time>2019-10-13T16:28:45Z</time>
      </trkpt>
      <trkpt lat="59.160227" lon="18.117202">
        <ele>47</ele>
        <time>2019-10-13T16:28:47Z</time>
      </trkpt>
      <trkpt lat="59.160205" lon="18.117234">
        <ele>47</ele>
        <time>2019-10-13T16:28:49Z</time>
      </trkpt>
      <trkpt lat="59.160185" lon="18.117257">
        <ele>48</ele>
        <time>2019-10-13T16:28:51Z</time>
      </trkpt>
      <trkpt lat="59.160163" lon="18.117277">
        <ele>49</ele>
        <time>2019-10-13T16:28:53Z</time>
      </trkpt>
      <trkpt lat="59.160139" lon="18.117297">
        <ele>49</ele>
        <time>2019-10-13T16:28:55Z</time>
      </trkpt>
      <trkpt lat="59.160107" lon="18.117325">
        <ele>49</ele>
        <time>2019-10-13T16:28:56Z</time>
      </trkpt>
      <trkpt lat="59.160091" lon="18.117341">
        <ele>50</ele>
        <time>2019-10-13T16:28:58Z</time>
      </trkpt>
      <trkpt lat="59.160059" lon="18.117369">
        <ele>50</ele>
        <time>2019-10-13T16:29:00Z</time>
      </trkpt>
      <trkpt lat="59.160032" lon="18.117395">
        <ele>51</ele>
        <time>2019-10-13T16:29:02Z</time>
      </trkpt>
      <trkpt lat="59.160015" lon="18.117419">
        <ele>51</ele>
        <time>2019-10-13T16:29:04Z</time>
      </trkpt>
      <trkpt lat="59.159999" lon="18.117439">
        <ele>52</ele>
        <time>2019-10-13T16:29:06Z</time>
      </trkpt>
      <trkpt lat="59.159976" lon="18.117462">
        <ele>52</ele>
        <time>2019-10-13T16:29:08Z</time>
      </trkpt>
      <trkpt lat="59.159957" lon="18.117483">
        <ele>53</ele>
        <time>2019-10-13T16:29:10Z</time>
      </trkpt>
      <trkpt lat="59.15994" lon="18.117505">
        <ele>53</ele>
        <time>2019-10-13T16:29:12Z</time>
      </trkpt>
      <trkpt lat="59.159918" lon="18.117538">
        <ele>0</ele>
        <time>2019-10-13T16:29:14Z</time>
      </trkpt>
      <trkpt lat="59.159902" lon="18.117563">
        <ele>54</ele>
        <time>2019-10-13T16:29:17Z</time>
      </trkpt>
      <trkpt lat="59.159891" lon="18.117599">
        <ele>54</ele>
        <time>2019-10-13T16:29:19Z</time>
      </trkpt>
      <trkpt lat="59.159876" lon="18.117623">
        <ele>55</ele>
        <time>2019-10-13T16:29:21Z</time>
      </trkpt>
      <trkpt lat="59.159858" lon="18.117638">
        <ele>55</ele>
        <time>2019-10-13T16:29:23Z</time>
      </trkpt>
      <trkpt lat="59.15983" lon="18.117645">
        <ele>55</ele>
        <time>2019-10-13T16:29:25Z</time>
      </trkpt>
      <trkpt lat="59.159828" lon="18.117656">
        <ele>0</ele>
        <time>2019-10-13T16:29:27Z</time>
      </trkpt>
      <trkpt lat="59.159782" lon="18.117714">
        <ele>55</ele>
        <time>2019-10-13T16:30:02Z</time>
      </trkpt>
      <trkpt lat="59.15975" lon="18.117722">
        <ele>55</ele>
        <time>2019-10-13T16:30:04Z</time>
      </trkpt>
      <trkpt lat="59.159715" lon="18.117727">
        <ele>55</ele>
        <time>2019-10-13T16:30:05Z</time>
      </trkpt>
      <trkpt lat="59.159676" lon="18.117717">
        <ele>55</ele>
        <time>2019-10-13T16:30:06Z</time>
      </trkpt>
      <trkpt lat="59.159636" lon="18.117704">
        <ele>55</ele>
        <time>2019-10-13T16:30:07Z</time>
      </trkpt>
      <trkpt lat="59.159597" lon="18.117687">
        <ele>55</ele>
        <time>2019-10-13T16:30:08Z</time>
      </trkpt>
      <trkpt lat="59.159558" lon="18.117671">
        <ele>55</ele>
        <time>2019-10-13T16:30:09Z</time>
      </trkpt>
      <trkpt lat="59.159517" lon="18.117659">
        <ele>55</ele>
        <time>2019-10-13T16:30:10Z</time>
      </trkpt>
      <trkpt lat="59.159478" lon="18.117641">
        <ele>55</ele>
        <time>2019-10-13T16:30:11Z</time>
      </trkpt>
      <trkpt lat="59.159436" lon="18.117626">
        <ele>55</ele>
        <time>2019-10-13T16:30:12Z</time>
      </trkpt>
      <trkpt lat="59.159396" lon="18.117617">
        <ele>0</ele>
        <time>2019-10-13T16:30:12Z</time>
      </trkpt>
      <trkpt lat="59.159361" lon="18.117607">
        <ele>55</ele>
        <time>2019-10-13T16:30:13Z</time>
      </trkpt>
      <trkpt lat="59.159329" lon="18.117596">
        <ele>56</ele>
        <time>2019-10-13T16:30:15Z</time>
      </trkpt>
      <trkpt lat="59.159301" lon="18.117585">
        <ele>56</ele>
        <time>2019-10-13T16:30:16Z</time>
      </trkpt>
      <trkpt lat="59.159276" lon="18.117581">
        <ele>56</ele>
        <time>2019-10-13T16:30:17Z</time>
      </trkpt>
      <trkpt lat="59.159255" lon="18.117581">
        <ele>56</ele>
        <time>2019-10-13T16:30:18Z</time>
      </trkpt>
      <trkpt lat="59.159225" lon="18.117568">
        <ele>57</ele>
        <time>2019-10-13T16:30:20Z</time>
      </trkpt>
      <trkpt lat="59.15919" lon="18.117557">
        <ele>57</ele>
        <time>2019-10-13T16:30:21Z</time>
      </trkpt>
      <trkpt lat="59.15917" lon="18.117545">
        <ele>57</ele>
        <time>2019-10-13T16:30:23Z</time>
      </trkpt>
      <trkpt lat="59.159152" lon="18.117534">
        <ele>57</ele>
        <time>2019-10-13T16:30:24Z</time>
      </trkpt>
      <trkpt lat="59.159128" lon="18.117527">
        <ele>58</ele>
        <time>2019-10-13T16:30:26Z</time>
      </trkpt>
      <trkpt lat="59.159107" lon="18.117533">
        <ele>58</ele>
        <time>2019-10-13T16:30:28Z</time>
      </trkpt>
      <trkpt lat="59.159082" lon="18.117523">
        <ele>58</ele>
        <time>2019-10-13T16:30:30Z</time>
      </trkpt>
      <trkpt lat="59.159068" lon="18.11755">
        <ele>58</ele>
        <time>2019-10-13T16:30:32Z</time>
      </trkpt>
      <trkpt lat="59.15907" lon="18.117591">
        <ele>58</ele>
        <time>2019-10-13T16:30:34Z</time>
      </trkpt>
      <trkpt lat="59.159084" lon="18.117631">
        <ele>58</ele>
        <time>2019-10-13T16:30:36Z</time>
      </trkpt>
      <trkpt lat="59.15908" lon="18.117684">
        <ele>59</ele>
        <time>2019-10-13T16:30:38Z</time>
      </trkpt>
      <trkpt lat="59.159068" lon="18.117735">
        <ele>0</ele>
        <time>2019-10-13T16:30:39Z</time>
      </trkpt>
      <trkpt lat="59.159064" lon="18.117774">
        <ele>59</ele>
        <time>2019-10-13T16:30:42Z</time>
      </trkpt>
      <trkpt lat="59.159071" lon="18.117813">
        <ele>59</ele>
        <time>2019-10-13T16:30:45Z</time>
      </trkpt>
      <trkpt lat="59.159076" lon="18.117874">
        <ele>59</ele>
        <time>2019-10-13T16:30:47Z</time>
      </trkpt>
      <trkpt lat="59.159065" lon="18.11792">
        <ele>0</ele>
        <time>2019-10-13T16:30:48Z</time>
      </trkpt>
      <trkpt lat="59.159041" lon="18.117919">
        <ele>58</ele>
        <time>2019-10-13T16:30:51Z</time>
      </trkpt>
      <trkpt lat="59.159027" lon="18.117901">
        <ele>0</ele>
        <time>2019-10-13T16:30:55Z</time>
      </trkpt>
      <trkpt lat="59.158954" lon="18.117977">
        <ele>61</ele>
        <time>2019-10-13T16:34:38Z</time>
      </trkpt>
      <trkpt lat="59.158929" lon="18.118031">
        <ele>61</ele>
        <time>2019-10-13T16:34:40Z</time>
      </trkpt>
      <trkpt lat="59.158901" lon="18.118082">
        <ele>61</ele>
        <time>2019-10-13T16:34:41Z</time>
      </trkpt>
      <trkpt lat="59.158871" lon="18.118116">
        <ele>61</ele>
        <time>2019-10-13T16:34:42Z</time>
      </trkpt>
      <trkpt lat="59.158839" lon="18.118123">
        <ele>61</ele>
        <time>2019-10-13T16:34:43Z</time>
      </trkpt>
      <trkpt lat="59.15881" lon="18.118122">
        <ele>61</ele>
        <time>2019-10-13T16:34:44Z</time>
      </trkpt>
      <trkpt lat="59.158788" lon="18.118144">
        <ele>61</ele>
        <time>2019-10-13T16:34:45Z</time>
      </trkpt>
      <trkpt lat="59.158779" lon="18.118188">
        <ele>60</ele>
        <time>2019-10-13T16:34:46Z</time>
      </trkpt>
      <trkpt lat="59.15879" lon="18.118234">
        <ele>60</ele>
        <time>2019-10-13T16:34:47Z</time>
      </trkpt>
      <trkpt lat="59.158807" lon="18.118274">
        <ele>60</ele>
        <time>2019-10-13T16:34:48Z</time>
      </trkpt>
      <trkpt lat="59.158829" lon="18.118307">
        <ele>60</ele>
        <time>2019-10-13T16:34:49Z</time>
      </trkpt>
      <trkpt lat="59.158852" lon="18.118337">
        <ele>60</ele>
        <time>2019-10-13T16:34:50Z</time>
      </trkpt>
      <trkpt lat="59.158869" lon="18.118379">
        <ele>60</ele>
        <time>2019-10-13T16:34:51Z</time>
      </trkpt>
      <trkpt lat="59.158877" lon="18.118429">
        <ele>60</ele>
        <time>2019-10-13T16:34:52Z</time>
      </trkpt>
      <trkpt lat="59.158871" lon="18.118489">
        <ele>60</ele>
        <time>2019-10-13T16:34:53Z</time>
      </trkpt>
      <trkpt lat="59.158857" lon="18.118543">
        <ele>60</ele>
        <time>2019-10-13T16:34:54Z</time>
      </trkpt>
      <trkpt lat="59.158842" lon="18.118588">
        <ele>0</ele>
        <time>2019-10-13T16:34:54Z</time>
      </trkpt>
      <trkpt lat="59.158819" lon="18.118627">
        <ele>59</ele>
        <time>2019-10-13T16:34:55Z</time>
      </trkpt>
      <trkpt lat="59.158793" lon="18.118659">
        <ele>59</ele>
        <time>2019-10-13T16:34:56Z</time>
      </trkpt>
      <trkpt lat="59.158763" lon="18.118688">
        <ele>59</ele>
        <time>2019-10-13T16:34:57Z</time>
      </trkpt>
      <trkpt lat="59.158735" lon="18.118712">
        <ele>59</ele>
        <time>2019-10-13T16:34:59Z</time>
      </trkpt>
      <trkpt lat="59.158709" lon="18.118747">
        <ele>59</ele>
        <time>2019-10-13T16:35:00Z</time>
      </trkpt>
      <trkpt lat="59.158703" lon="18.11879">
        <ele>59</ele>
        <time>2019-10-13T16:35:01Z</time>
      </trkpt>
      <trkpt lat="59.158717" lon="18.118823">
        <ele>59</ele>
        <time>2019-10-13T16:35:02Z</time>
      </trkpt>
      <trkpt lat="59.158739" lon="18.118839">
        <ele>58</ele>
        <time>2019-10-13T16:35:03Z</time>
      </trkpt>
      <trkpt lat="59.158774" lon="18.118843">
        <ele>58</ele>
        <time>2019-10-13T16:35:04Z</time>
      </trkpt>
      <trkpt lat="59.158801" lon="18.118857">
        <ele>58</ele>
        <time>2019-10-13T16:35:05Z</time>
      </trkpt>
      <trkpt lat="59.158825" lon="18.118873">
        <ele>58</ele>
        <time>2019-10-13T16:35:06Z</time>
      </trkpt>
      <trkpt lat="59.158843" lon="18.118908">
        <ele>58</ele>
        <time>2019-10-13T16:35:07Z</time>
      </trkpt>
      <trkpt lat="59.158853" lon="18.118955">
        <ele>58</ele>
        <time>2019-10-13T16:35:08Z</time>
      </trkpt>
      <trkpt lat="59.15885" lon="18.119004">
        <ele>58</ele>
        <time>2019-10-13T16:35:09Z</time>
      </trkpt>
      <trkpt lat="59.158841" lon="18.119046">
        <ele>58</ele>
        <time>2019-10-13T16:35:10Z</time>
      </trkpt>
      <trkpt lat="59.158832" lon="18.119085">
        <ele>58</ele>
        <time>2019-10-13T16:35:11Z</time>
      </trkpt>
      <trkpt lat="59.158823" lon="18.119127">
        <ele>58</ele>
        <time>2019-10-13T16:35:12Z</time>
      </trkpt>
      <trkpt lat="59.158819" lon="18.119169">
        <ele>58</ele>
        <time>2019-10-13T16:35:13Z</time>
      </trkpt>
      <trkpt lat="59.158829" lon="18.119202">
        <ele>0</ele>
        <time>2019-10-13T16:35:13Z</time>
      </trkpt>
      <trkpt lat="59.158849" lon="18.119224">
        <ele>58</ele>
        <time>2019-10-13T16:35:14Z</time>
      </trkpt>
      <trkpt lat="59.158874" lon="18.119216">
        <ele>0</ele>
        <time>2019-10-13T16:35:15Z</time>
      </trkpt>
      <trkpt lat="59.158893" lon="18.119198">
        <ele>58</ele>
        <time>2019-10-13T16:35:16Z</time>
      </trkpt>
      <trkpt lat="59.158912" lon="18.119185">
        <ele>58</ele>
        <time>2019-10-13T16:35:18Z</time>
      </trkpt>
      <trkpt lat="59.158928" lon="18.11916">
        <ele>58</ele>
        <time>2019-10-13T16:35:19Z</time>
      </trkpt>
      <trkpt lat="59.158943" lon="18.119124">
        <ele>58</ele>
        <time>2019-10-13T16:35:20Z</time>
      </trkpt>
      <trkpt lat="59.158956" lon="18.119089">
        <ele>58</ele>
        <time>2019-10-13T16:35:21Z</time>
      </trkpt>
      <trkpt lat="59.15896" lon="18.119053">
        <ele>58</ele>
        <time>2019-10-13T16:35:22Z</time>
      </trkpt>
      <trkpt lat="59.158958" lon="18.119016">
        <ele>58</ele>
        <time>2019-10-13T16:35:23Z</time>
      </trkpt>
      <trkpt lat="59.158945" lon="18.118976">
        <ele>58</ele>
        <time>2019-10-13T16:35:24Z</time>
      </trkpt>
      <trkpt lat="59.158927" lon="18.118936">
        <ele>58</ele>
        <time>2019-10-13T16:35:25Z</time>
      </trkpt>
      <trkpt lat="59.158913" lon="18.118888">
        <ele>58</ele>
        <time>2019-10-13T16:35:26Z</time>
      </trkpt>
      <trkpt lat="59.158908" lon="18.11883">
        <ele>58</ele>
        <time>2019-10-13T16:35:27Z</time>
      </trkpt>
      <trkpt lat="59.158917" lon="18.118779">
        <ele>58</ele>
        <time>2019-10-13T16:35:28Z</time>
      </trkpt>
      <trkpt lat="59.158927" lon="18.118732">
        <ele>57</ele>
        <time>2019-10-13T16:35:29Z</time>
      </trkpt>
      <trkpt lat="59.158928" lon="18.118683">
        <ele>57</ele>
        <time>2019-10-13T16:35:30Z</time>
      </trkpt>
      <trkpt lat="59.158919" lon="18.118638">
        <ele>57</ele>
        <time>2019-10-13T16:35:31Z</time>
      </trkpt>
      <trkpt lat="59.158908" lon="18.118593">
        <ele>57</ele>
        <time>2019-10-13T16:35:32Z</time>
      </trkpt>
      <trkpt lat="59.158899" lon="18.118546">
        <ele>58</ele>
        <time>2019-10-13T16:35:33Z</time>
      </trkpt>
      <trkpt lat="59.158899" lon="18.118494">
        <ele>58</ele>
        <time>2019-10-13T16:35:34Z</time>
      </trkpt>
      <trkpt lat="59.15891" lon="18.11845">
        <ele>0</ele>
        <time>2019-10-13T16:35:34Z</time>
      </trkpt>
      <trkpt lat="59.158929" lon="18.118422">
        <ele>58</ele>
        <time>2019-10-13T16:35:35Z</time>
      </trkpt>
      <trkpt lat="59.158956" lon="18.118404">
        <ele>58</ele>
        <time>2019-10-13T16:35:37Z</time>
      </trkpt>
      <trkpt lat="59.158985" lon="18.118392">
        <ele>58</ele>
        <time>2019-10-13T16:35:38Z</time>
      </trkpt>
      <trkpt lat="59.159007" lon="18.11838">
        <ele>58</ele>
        <time>2019-10-13T16:35:39Z</time>
      </trkpt>
      <trkpt lat="59.159028" lon="18.118365">
        <ele>58</ele>
        <time>2019-10-13T16:35:40Z</time>
      </trkpt>
      <trkpt lat="59.15905" lon="18.11835">
        <ele>58</ele>
        <time>2019-10-13T16:35:41Z</time>
      </trkpt>
      <trkpt lat="59.159068" lon="18.118333">
        <ele>58</ele>
        <time>2019-10-13T16:35:42Z</time>
      </trkpt>
      <trkpt lat="59.159089" lon="18.118276">
        <ele>58</ele>
        <time>2019-10-13T16:35:44Z</time>
      </trkpt>
      <trkpt lat="59.159104" lon="18.118248">
        <ele>58</ele>
        <time>2019-10-13T16:35:45Z</time>
      </trkpt>
      <trkpt lat="59.159122" lon="18.118227">
        <ele>58</ele>
        <time>2019-10-13T16:35:46Z</time>
      </trkpt>
      <trkpt lat="59.159141" lon="18.118211">
        <ele>58</ele>
        <time>2019-10-13T16:35:47Z</time>
      </trkpt>
      <trkpt lat="59.159157" lon="18.118193">
        <ele>59</ele>
        <time>2019-10-13T16:35:48Z</time>
      </trkpt>
      <trkpt lat="59.159171" lon="18.118167">
        <ele>58</ele>
        <time>2019-10-13T16:35:49Z</time>
      </trkpt>
      <trkpt lat="59.159179" lon="18.118136">
        <ele>59</ele>
        <time>2019-10-13T16:35:50Z</time>
      </trkpt>
      <trkpt lat="59.159178" lon="18.1181">
        <ele>59</ele>
        <time>2019-10-13T16:35:51Z</time>
      </trkpt>
      <trkpt lat="59.159169" lon="18.118064">
        <ele>59</ele>
        <time>2019-10-13T16:35:52Z</time>
      </trkpt>
      <trkpt lat="59.159158" lon="18.11802">
        <ele>59</ele>
        <time>2019-10-13T16:35:53Z</time>
      </trkpt>
      <trkpt lat="59.159149" lon="18.11797">
        <ele>0</ele>
        <time>2019-10-13T16:35:53Z</time>
      </trkpt>
      <trkpt lat="59.159138" lon="18.117922">
        <ele>59</ele>
        <time>2019-10-13T16:35:54Z</time>
      </trkpt>
      <trkpt lat="59.159127" lon="18.117879">
        <ele>58</ele>
        <time>2019-10-13T16:35:56Z</time>
      </trkpt>
      <trkpt lat="59.159112" lon="18.117852">
        <ele>58</ele>
        <time>2019-10-13T16:35:57Z</time>
      </trkpt>
      <trkpt lat="59.159094" lon="18.117837">
        <ele>0</ele>
        <time>2019-10-13T16:35:57Z</time>
      </trkpt>
      <trkpt lat="59.159063" lon="18.117811">
        <ele>58</ele>
        <time>2019-10-13T16:36:00Z</time>
      </trkpt>
      <trkpt lat="59.159042" lon="18.117789">
        <ele>58</ele>
        <time>2019-10-13T16:36:02Z</time>
      </trkpt>
      <trkpt lat="59.159043" lon="18.117786">
        <ele>58</ele>
        <time>2019-10-13T16:36:05Z</time>
      </trkpt>
      <trkpt lat="59.159072" lon="18.117772">
        <ele>61</ele>
        <time>2019-10-13T16:38:26Z</time>
      </trkpt>
      <trkpt lat="59.159056" lon="18.117799">
        <ele>61</ele>
        <time>2019-10-13T16:38:31Z</time>
      </trkpt>
      <trkpt lat="59.159058" lon="18.11779">
        <ele>0</ele>
        <time>2019-10-13T16:38:33Z</time>
      </trkpt>
      <trkpt lat="59.159058" lon="18.117729">
        <ele>61</ele>
        <time>2019-10-13T16:38:38Z</time>
      </trkpt>
      <trkpt lat="59.15906" lon="18.117724">
        <ele>61</ele>
        <time>2019-10-13T16:38:40Z</time>
      </trkpt>
      <trkpt lat="59.159059" lon="18.117714">
        <ele>0</ele>
        <time>2019-10-13T16:38:41Z</time>
      </trkpt>
      <trkpt lat="59.159071" lon="18.11766">
        <ele>61</ele>
        <time>2019-10-13T16:38:44Z</time>
      </trkpt>
      <trkpt lat="59.159073" lon="18.117627">
        <ele>61</ele>
        <time>2019-10-13T16:38:46Z</time>
      </trkpt>
      <trkpt lat="59.159076" lon="18.117566">
        <ele>61</ele>
        <time>2019-10-13T16:38:48Z</time>
      </trkpt>
      <trkpt lat="59.159078" lon="18.117523">
        <ele>61</ele>
        <time>2019-10-13T16:38:50Z</time>
      </trkpt>
      <trkpt lat="59.159061" lon="18.117489">
        <ele>60</ele>
        <time>2019-10-13T16:38:53Z</time>
      </trkpt>
      <trkpt lat="59.159037" lon="18.117491">
        <ele>60</ele>
        <time>2019-10-13T16:38:55Z</time>
      </trkpt>
      <trkpt lat="59.159013" lon="18.117503">
        <ele>60</ele>
        <time>2019-10-13T16:38:57Z</time>
      </trkpt>
      <trkpt lat="59.158978" lon="18.117516">
        <ele>60</ele>
        <time>2019-10-13T16:38:59Z</time>
      </trkpt>
      <trkpt lat="59.158959" lon="18.11753">
        <ele>60</ele>
        <time>2019-10-13T16:39:00Z</time>
      </trkpt>
      <trkpt lat="59.15894" lon="18.117545">
        <ele>60</ele>
        <time>2019-10-13T16:39:01Z</time>
      </trkpt>
      <trkpt lat="59.158919" lon="18.117563">
        <ele>59</ele>
        <time>2019-10-13T16:39:02Z</time>
      </trkpt>
      <trkpt lat="59.158896" lon="18.117589">
        <ele>59</ele>
        <time>2019-10-13T16:39:02Z</time>
      </trkpt>
      <trkpt lat="59.15887" lon="18.117622">
        <ele>59</ele>
        <time>2019-10-13T16:39:03Z</time>
      </trkpt>
      <trkpt lat="59.158842" lon="18.117659">
        <ele>59</ele>
        <time>2019-10-13T16:39:05Z</time>
      </trkpt>
      <trkpt lat="59.15881" lon="18.117683">
        <ele>59</ele>
        <time>2019-10-13T16:39:06Z</time>
      </trkpt>
      <trkpt lat="59.158775" lon="18.117678">
        <ele>0</ele>
        <time>2019-10-13T16:39:06Z</time>
      </trkpt>
      <trkpt lat="59.158746" lon="18.117648">
        <ele>59</ele>
        <time>2019-10-13T16:39:07Z</time>
      </trkpt>
      <trkpt lat="59.158726" lon="18.117609">
        <ele>59</ele>
        <time>2019-10-13T16:39:09Z</time>
      </trkpt>
      <trkpt lat="59.158712" lon="18.117563">
        <ele>59</ele>
        <time>2019-10-13T16:39:10Z</time>
      </trkpt>
      <trkpt lat="59.158704" lon="18.117524">
        <ele>59</ele>
        <time>2019-10-13T16:39:11Z</time>
      </trkpt>
      <trkpt lat="59.158692" lon="18.117465">
        <ele>59</ele>
        <time>2019-10-13T16:39:13Z</time>
      </trkpt>
      <trkpt lat="59.158687" lon="18.117431">
        <ele>59</ele>
        <time>2019-10-13T16:39:14Z</time>
      </trkpt>
      <trkpt lat="59.158679" lon="18.117398">
        <ele>59</ele>
        <time>2019-10-13T16:39:15Z</time>
      </trkpt>
      <trkpt lat="59.158659" lon="18.117351">
        <ele>59</ele>
        <time>2019-10-13T16:39:17Z</time>
      </trkpt>
      <trkpt lat="59.158635" lon="18.117317">
        <ele>59</ele>
        <time>2019-10-13T16:39:19Z</time>
      </trkpt>
      <trkpt lat="59.158597" lon="18.11731">
        <ele>59</ele>
        <time>2019-10-13T16:39:21Z</time>
      </trkpt>
      <trkpt lat="59.158573" lon="18.117327">
        <ele>0</ele>
        <time>2019-10-13T16:39:21Z</time>
      </trkpt>
      <trkpt lat="59.158546" lon="18.117349">
        <ele>59</ele>
        <time>2019-10-13T16:39:22Z</time>
      </trkpt>
      <trkpt lat="59.158517" lon="18.117369">
        <ele>59</ele>
        <time>2019-10-13T16:39:24Z</time>
      </trkpt>
      <trkpt lat="59.158487" lon="18.117385">
        <ele>59</ele>
        <time>2019-10-13T16:39:25Z</time>
      </trkpt>
      <trkpt lat="59.158461" lon="18.117396">
        <ele>59</ele>
        <time>2019-10-13T16:39:26Z</time>
      </trkpt>
      <trkpt lat="59.158438" lon="18.117401">
        <ele>59</ele>
        <time>2019-10-13T16:39:27Z</time>
      </trkpt>
      <trkpt lat="59.15842" lon="18.117403">
        <ele>58</ele>
        <time>2019-10-13T16:39:28Z</time>
      </trkpt>
      <trkpt lat="59.158393" lon="18.117421">
        <ele>58</ele>
        <time>2019-10-13T16:39:30Z</time>
      </trkpt>
      <trkpt lat="59.158372" lon="18.117474">
        <ele>0</ele>
        <time>2019-10-13T16:39:31Z</time>
      </trkpt>
      <trkpt lat="59.158362" lon="18.117514">
        <ele>58</ele>
        <time>2019-10-13T16:39:32Z</time>
      </trkpt>
      <trkpt lat="59.158349" lon="18.117542">
        <ele>58</ele>
        <time>2019-10-13T16:39:34Z</time>
      </trkpt>
      <trkpt lat="59.158327" lon="18.117569">
        <ele>58</ele>
        <time>2019-10-13T16:39:36Z</time>
      </trkpt>
      <trkpt lat="59.158309" lon="18.117587">
        <ele>58</ele>
        <time>2019-10-13T16:39:38Z</time>
      </trkpt>
      <trkpt lat="59.158288" lon="18.117625">
        <ele>58</ele>
        <time>2019-10-13T16:39:40Z</time>
      </trkpt>
      <trkpt lat="59.158275" lon="18.117685">
        <ele>57</ele>
        <time>2019-10-13T16:39:41Z</time>
      </trkpt>
      <trkpt lat="59.158263" lon="18.117752">
        <ele>57</ele>
        <time>2019-10-13T16:39:44Z</time>
      </trkpt>
      <trkpt lat="59.158252" lon="18.117786">
        <ele>56</ele>
        <time>2019-10-13T16:39:45Z</time>
      </trkpt>
      <trkpt lat="59.158238" lon="18.117824">
        <ele>56</ele>
        <time>2019-10-13T16:39:46Z</time>
      </trkpt>
      <trkpt lat="59.158231" lon="18.117867">
        <ele>56</ele>
        <time>2019-10-13T16:39:47Z</time>
      </trkpt>
      <trkpt lat="59.158229" lon="18.117918">
        <ele>56</ele>
        <time>2019-10-13T16:39:48Z</time>
      </trkpt>
      <trkpt lat="59.158217" lon="18.117975">
        <ele>56</ele>
        <time>2019-10-13T16:39:49Z</time>
      </trkpt>
      <trkpt lat="59.158204" lon="18.118028">
        <ele>56</ele>
        <time>2019-10-13T16:39:50Z</time>
      </trkpt>
      <trkpt lat="59.158202" lon="18.118082">
        <ele>56</ele>
        <time>2019-10-13T16:39:51Z</time>
      </trkpt>
      <trkpt lat="59.158215" lon="18.118134">
        <ele>56</ele>
        <time>2019-10-13T16:39:52Z</time>
      </trkpt>
      <trkpt lat="59.158237" lon="18.11817">
        <ele>56</ele>
        <time>2019-10-13T16:39:53Z</time>
      </trkpt>
      <trkpt lat="59.158259" lon="18.118201">
        <ele>56</ele>
        <time>2019-10-13T16:39:54Z</time>
      </trkpt>
      <trkpt lat="59.158283" lon="18.118233">
        <ele>0</ele>
        <time>2019-10-13T16:39:54Z</time>
      </trkpt>
      <trkpt lat="59.158308" lon="18.118267">
        <ele>56</ele>
        <time>2019-10-13T16:39:55Z</time>
      </trkpt>
      <trkpt lat="59.158333" lon="18.118303">
        <ele>55</ele>
        <time>2019-10-13T16:39:57Z</time>
      </trkpt>
      <trkpt lat="59.15836" lon="18.118337">
        <ele>55</ele>
        <time>2019-10-13T16:39:58Z</time>
      </trkpt>
      <trkpt lat="59.158384" lon="18.118372">
        <ele>55</ele>
        <time>2019-10-13T16:39:59Z</time>
      </trkpt>
      <trkpt lat="59.158413" lon="18.118408">
        <ele>0</ele>
        <time>2019-10-13T16:39:59Z</time>
      </trkpt>
      <trkpt lat="59.158442" lon="18.118444">
        <ele>55</ele>
        <time>2019-10-13T16:40:00Z</time>
      </trkpt>
      <trkpt lat="59.15847" lon="18.118479">
        <ele>55</ele>
        <time>2019-10-13T16:40:02Z</time>
      </trkpt>
      <trkpt lat="59.158501" lon="18.118514">
        <ele>55</ele>
        <time>2019-10-13T16:40:03Z</time>
      </trkpt>
      <trkpt lat="59.158532" lon="18.11855">
        <ele>55</ele>
        <time>2019-10-13T16:40:04Z</time>
      </trkpt>
      <trkpt lat="59.158557" lon="18.118594">
        <ele>55</ele>
        <time>2019-10-13T16:40:05Z</time>
      </trkpt>
      <trkpt lat="59.158582" lon="18.118646">
        <ele>55</ele>
        <time>2019-10-13T16:40:06Z</time>
      </trkpt>
      <trkpt lat="59.158609" lon="18.118706">
        <ele>55</ele>
        <time>2019-10-13T16:40:07Z</time>
      </trkpt>
      <trkpt lat="59.158638" lon="18.118774">
        <ele>55</ele>
        <time>2019-10-13T16:40:08Z</time>
      </trkpt>
      <trkpt lat="59.158658" lon="18.11885">
        <ele>0</ele>
        <time>2019-10-13T16:40:08Z</time>
      </trkpt>
      <trkpt lat="59.158672" lon="18.118928">
        <ele>55</ele>
        <time>2019-10-13T16:40:09Z</time>
      </trkpt>
      <trkpt lat="59.158684" lon="18.119008">
        <ele>55</ele>
        <time>2019-10-13T16:40:11Z</time>
      </trkpt>
      <trkpt lat="59.158693" lon="18.119086">
        <ele>55</ele>
        <time>2019-10-13T16:40:12Z</time>
      </trkpt>
      <trkpt lat="59.158697" lon="18.119162">
        <ele>55</ele>
        <time>2019-10-13T16:40:13Z</time>
      </trkpt>
      <trkpt lat="59.158697" lon="18.119238">
        <ele>55</ele>
        <time>2019-10-13T16:40:14Z</time>
      </trkpt>
      <trkpt lat="59.158692" lon="18.119314">
        <ele>55</ele>
        <time>2019-10-13T16:40:15Z</time>
      </trkpt>
      <trkpt lat="59.158696" lon="18.11939">
        <ele>55</ele>
        <time>2019-10-13T16:40:16Z</time>
      </trkpt>
      <trkpt lat="59.158704" lon="18.119469">
        <ele>55</ele>
        <time>2019-10-13T16:40:17Z</time>
      </trkpt>
      <trkpt lat="59.158711" lon="18.119549">
        <ele>55</ele>
        <time>2019-10-13T16:40:18Z</time>
      </trkpt>
      <trkpt lat="59.158715" lon="18.119628">
        <ele>0</ele>
        <time>2019-10-13T16:40:18Z</time>
      </trkpt>
      <trkpt lat="59.15873" lon="18.119701">
        <ele>55</ele>
        <time>2019-10-13T16:40:19Z</time>
      </trkpt>
      <trkpt lat="59.158748" lon="18.119766">
        <ele>55</ele>
        <time>2019-10-13T16:40:21Z</time>
      </trkpt>
      <trkpt lat="59.158761" lon="18.119822">
        <ele>0</ele>
        <time>2019-10-13T16:40:21Z</time>
      </trkpt>
      <trkpt lat="59.158774" lon="18.119872">
        <ele>55</ele>
        <time>2019-10-13T16:40:22Z</time>
      </trkpt>
      <trkpt lat="59.158785" lon="18.119939">
        <ele>55</ele>
        <time>2019-10-13T16:40:24Z</time>
      </trkpt>
      <trkpt lat="59.158802" lon="18.120002">
        <ele>55</ele>
        <time>2019-10-13T16:40:25Z</time>
      </trkpt>
      <trkpt lat="59.158818" lon="18.120066">
        <ele>55</ele>
        <time>2019-10-13T16:40:26Z</time>
      </trkpt>
      <trkpt lat="59.158833" lon="18.120124">
        <ele>55</ele>
        <time>2019-10-13T16:40:27Z</time>
      </trkpt>
      <trkpt lat="59.158851" lon="18.12017">
        <ele>55</ele>
        <time>2019-10-13T16:40:28Z</time>
      </trkpt>
      <trkpt lat="59.158876" lon="18.120212">
        <ele>55</ele>
        <time>2019-10-13T16:40:29Z</time>
      </trkpt>
      <trkpt lat="59.158901" lon="18.120254">
        <ele>56</ele>
        <time>2019-10-13T16:40:30Z</time>
      </trkpt>
      <trkpt lat="59.158927" lon="18.120294">
        <ele>56</ele>
        <time>2019-10-13T16:40:31Z</time>
      </trkpt>
      <trkpt lat="59.158948" lon="18.120333">
        <ele>56</ele>
        <time>2019-10-13T16:40:32Z</time>
      </trkpt>
      <trkpt lat="59.158972" lon="18.120371">
        <ele>56</ele>
        <time>2019-10-13T16:40:33Z</time>
      </trkpt>
      <trkpt lat="59.158993" lon="18.120406">
        <ele>56</ele>
        <time>2019-10-13T16:40:34Z</time>
      </trkpt>
      <trkpt lat="59.159013" lon="18.120444">
        <ele>56</ele>
        <time>2019-10-13T16:40:35Z</time>
      </trkpt>
      <trkpt lat="59.159036" lon="18.120476">
        <ele>56</ele>
        <time>2019-10-13T16:40:36Z</time>
      </trkpt>
      <trkpt lat="59.159054" lon="18.120502">
        <ele>56</ele>
        <time>2019-10-13T16:40:37Z</time>
      </trkpt>
      <trkpt lat="59.159072" lon="18.120524">
        <ele>0</ele>
        <time>2019-10-13T16:40:37Z</time>
      </trkpt>
      <trkpt lat="59.159091" lon="18.120538">
        <ele>56</ele>
        <time>2019-10-13T16:40:38Z</time>
      </trkpt>
      <trkpt lat="59.15911" lon="18.120548">
        <ele>56</ele>
        <time>2019-10-13T16:40:39Z</time>
      </trkpt>
      <trkpt lat="59.159129" lon="18.120558">
        <ele>56</ele>
        <time>2019-10-13T16:40:41Z</time>
      </trkpt>
      <trkpt lat="59.159147" lon="18.120566">
        <ele>56</ele>
        <time>2019-10-13T16:40:42Z</time>
      </trkpt>
      <trkpt lat="59.159165" lon="18.120572">
        <ele>56</ele>
        <time>2019-10-13T16:40:43Z</time>
      </trkpt>
      <trkpt lat="59.159185" lon="18.120579">
        <ele>57</ele>
        <time>2019-10-13T16:40:44Z</time>
      </trkpt>
      <trkpt lat="59.159215" lon="18.120586">
        <ele>57</ele>
        <time>2019-10-13T16:40:46Z</time>
      </trkpt>
      <trkpt lat="59.159248" lon="18.120584">
        <ele>57</ele>
        <time>2019-10-13T16:40:48Z</time>
      </trkpt>
      <trkpt lat="59.159277" lon="18.120584">
        <ele>57</ele>
        <time>2019-10-13T16:40:50Z</time>
      </trkpt>
      <trkpt lat="59.159298" lon="18.120578">
        <ele>57</ele>
        <time>2019-10-13T16:40:52Z</time>
      </trkpt>
      <trkpt lat="59.159323" lon="18.120579">
        <ele>57</ele>
        <time>2019-10-13T16:40:55Z</time>
      </trkpt>
      <trkpt lat="59.159338" lon="18.120575">
        <ele>0</ele>
        <time>2019-10-13T16:40:59Z</time>
      </trkpt>
      <trkpt lat="59.159401" lon="18.12053">
        <ele>59</ele>
        <time>2019-10-13T16:42:04Z</time>
      </trkpt>
      <trkpt lat="59.159404" lon="18.12048">
        <ele>59</ele>
        <time>2019-10-13T16:42:07Z</time>
      </trkpt>
      <trkpt lat="59.159398" lon="18.120426">
        <ele>59</ele>
        <time>2019-10-13T16:42:09Z</time>
      </trkpt>
      <trkpt lat="59.15939" lon="18.120393">
        <ele>59</ele>
        <time>2019-10-13T16:42:10Z</time>
      </trkpt>
      <trkpt lat="59.159378" lon="18.120345">
        <ele>59</ele>
        <time>2019-10-13T16:42:12Z</time>
      </trkpt>
      <trkpt lat="59.159373" lon="18.120299">
        <ele>60</ele>
        <time>2019-10-13T16:42:14Z</time>
      </trkpt>
      <trkpt lat="59.159367" lon="18.120236">
        <ele>60</ele>
        <time>2019-10-13T16:42:16Z</time>
      </trkpt>
      <trkpt lat="59.159363" lon="18.120195">
        <ele>60</ele>
        <time>2019-10-13T16:42:17Z</time>
      </trkpt>
      <trkpt lat="59.159359" lon="18.120155">
        <ele>60</ele>
        <time>2019-10-13T16:42:18Z</time>
      </trkpt>
      <trkpt lat="59.159362" lon="18.120103">
        <ele>61</ele>
        <time>2019-10-13T16:42:20Z</time>
      </trkpt>
      <trkpt lat="59.159369" lon="18.120052">
        <ele>0</ele>
        <time>2019-10-13T16:42:22Z</time>
      </trkpt>
      <trkpt lat="59.159374" lon="18.119987">
        <ele>0</ele>
        <time>2019-10-13T16:42:24Z</time>
      </trkpt>
      <trkpt lat="59.159374" lon="18.119928">
        <ele>61</ele>
        <time>2019-10-13T16:42:27Z</time>
      </trkpt>
      <trkpt lat="59.159379" lon="18.119883">
        <ele>60</ele>
        <time>2019-10-13T16:42:29Z</time>
      </trkpt>
      <trkpt lat="59.159382" lon="18.119849">
        <ele>60</ele>
        <time>2019-10-13T16:42:31Z</time>
      </trkpt>
      <trkpt lat="59.159383" lon="18.119807">
        <ele>61</ele>
        <time>2019-10-13T16:42:34Z</time>
      </trkpt>
      <trkpt lat="59.159383" lon="18.119799">
        <ele>0</ele>
        <time>2019-10-13T16:42:37Z</time>
      </trkpt>
      <trkpt lat="59.159389" lon="18.119721">
        <ele>61</ele>
        <time>2019-10-13T16:43:36Z</time>
      </trkpt>
      <trkpt lat="59.159365" lon="18.119697">
        <ele>61</ele>
        <time>2019-10-13T16:43:39Z</time>
      </trkpt>
      <trkpt lat="59.159346" lon="18.119696">
        <ele>61</ele>
        <time>2019-10-13T16:43:40Z</time>
      </trkpt>
      <trkpt lat="59.159324" lon="18.119687">
        <ele>61</ele>
        <time>2019-10-13T16:43:41Z</time>
      </trkpt>
      <trkpt lat="59.159295" lon="18.119663">
        <ele>61</ele>
        <time>2019-10-13T16:43:42Z</time>
      </trkpt>
      <trkpt lat="59.159267" lon="18.119645">
        <ele>61</ele>
        <time>2019-10-13T16:43:43Z</time>
      </trkpt>
      <trkpt lat="59.159246" lon="18.119635">
        <ele>60</ele>
        <time>2019-10-13T16:43:44Z</time>
      </trkpt>
      <trkpt lat="59.159226" lon="18.119626">
        <ele>60</ele>
        <time>2019-10-13T16:43:45Z</time>
      </trkpt>
      <trkpt lat="59.159203" lon="18.119615">
        <ele>60</ele>
        <time>2019-10-13T16:43:46Z</time>
      </trkpt>
      <trkpt lat="59.159185" lon="18.119607">
        <ele>60</ele>
        <time>2019-10-13T16:43:47Z</time>
      </trkpt>
      <trkpt lat="59.159166" lon="18.119597">
        <ele>60</ele>
        <time>2019-10-13T16:43:49Z</time>
      </trkpt>
      <trkpt lat="59.159148" lon="18.119569">
        <ele>60</ele>
        <time>2019-10-13T16:43:51Z</time>
      </trkpt>
      <trkpt lat="59.159119" lon="18.119535">
        <ele>60</ele>
        <time>2019-10-13T16:43:53Z</time>
      </trkpt>
      <trkpt lat="59.159094" lon="18.119502">
        <ele>0</ele>
        <time>2019-10-13T16:43:54Z</time>
      </trkpt>
      <trkpt lat="59.15907" lon="18.119475">
        <ele>61</ele>
        <time>2019-10-13T16:43:57Z</time>
      </trkpt>
      <trkpt lat="59.159047" lon="18.119455">
        <ele>61</ele>
        <time>2019-10-13T16:43:59Z</time>
      </trkpt>
      <trkpt lat="59.159024" lon="18.119428">
        <ele>0</ele>
        <time>2019-10-13T16:44:00Z</time>
      </trkpt>
      <trkpt lat="59.159024" lon="18.119373">
        <ele>61</ele>
        <time>2019-10-13T16:44:03Z</time>
      </trkpt>
      <trkpt lat="59.159044" lon="18.119309">
        <ele>61</ele>
        <time>2019-10-13T16:44:05Z</time>
      </trkpt>
      <trkpt lat="59.159058" lon="18.119264">
        <ele>61</ele>
        <time>2019-10-13T16:44:06Z</time>
      </trkpt>
      <trkpt lat="59.159069" lon="18.119213">
        <ele>61</ele>
        <time>2019-10-13T16:44:07Z</time>
      </trkpt>
      <trkpt lat="59.15908" lon="18.119161">
        <ele>61</ele>
        <time>2019-10-13T16:44:08Z</time>
      </trkpt>
      <trkpt lat="59.159092" lon="18.119112">
        <ele>60</ele>
        <time>2019-10-13T16:44:09Z</time>
      </trkpt>
      <trkpt lat="59.159104" lon="18.119069">
        <ele>60</ele>
        <time>2019-10-13T16:44:10Z</time>
      </trkpt>
      <trkpt lat="59.159119" lon="18.119031">
        <ele>60</ele>
        <time>2019-10-13T16:44:11Z</time>
      </trkpt>
      <trkpt lat="59.159132" lon="18.118993">
        <ele>60</ele>
        <time>2019-10-13T16:44:12Z</time>
      </trkpt>
      <trkpt lat="59.159135" lon="18.118949">
        <ele>60</ele>
        <time>2019-10-13T16:44:13Z</time>
      </trkpt>
      <trkpt lat="59.159141" lon="18.118902">
        <ele>0</ele>
        <time>2019-10-13T16:44:13Z</time>
      </trkpt>
      <trkpt lat="59.159154" lon="18.118849">
        <ele>60</ele>
        <time>2019-10-13T16:44:14Z</time>
      </trkpt>
      <trkpt lat="59.159163" lon="18.118796">
        <ele>60</ele>
        <time>2019-10-13T16:44:16Z</time>
      </trkpt>
      <trkpt lat="59.159168" lon="18.118736">
        <ele>60</ele>
        <time>2019-10-13T16:44:17Z</time>
      </trkpt>
      <trkpt lat="59.159169" lon="18.118681">
        <ele>60</ele>
        <time>2019-10-13T16:44:18Z</time>
      </trkpt>
      <trkpt lat="59.159156" lon="18.118637">
        <ele>60</ele>
        <time>2019-10-13T16:44:19Z</time>
      </trkpt>
      <trkpt lat="59.159134" lon="18.118602">
        <ele>0</ele>
        <time>2019-10-13T16:44:19Z</time>
      </trkpt>
      <trkpt lat="59.159115" lon="18.118576">
        <ele>60</ele>
        <time>2019-10-13T16:44:20Z</time>
      </trkpt>
      <trkpt lat="59.159097" lon="18.118554">
        <ele>61</ele>
        <time>2019-10-13T16:44:22Z</time>
      </trkpt>
      <trkpt lat="59.159074" lon="18.118522">
        <ele>61</ele>
        <time>2019-10-13T16:44:24Z</time>
      </trkpt>
      <trkpt lat="59.159058" lon="18.118501">
        <ele>60</ele>
        <time>2019-10-13T16:44:26Z</time>
      </trkpt>
      <trkpt lat="59.159049" lon="18.118488">
        <ele>0</ele>
        <time>2019-10-13T16:44:29Z</time>
      </trkpt>
      <trkpt lat="59.15906" lon="18.118353">
        <ele>60</ele>
        <time>2019-10-13T16:44:40Z</time>
      </trkpt>
      <trkpt lat="59.15908" lon="18.11832">
        <ele>60</ele>
        <time>2019-10-13T16:44:42Z</time>
      </trkpt>
      <trkpt lat="59.159103" lon="18.118284">
        <ele>60</ele>
        <time>2019-10-13T16:44:43Z</time>
      </trkpt>
      <trkpt lat="59.15912" lon="18.118249">
        <ele>60</ele>
        <time>2019-10-13T16:44:44Z</time>
      </trkpt>
      <trkpt lat="59.159134" lon="18.118224">
        <ele>60</ele>
        <time>2019-10-13T16:44:45Z</time>
      </trkpt>
      <trkpt lat="59.159152" lon="18.118199">
        <ele>60</ele>
        <time>2019-10-13T16:44:46Z</time>
      </trkpt>
      <trkpt lat="59.159167" lon="18.118176">
        <ele>60</ele>
        <time>2019-10-13T16:44:47Z</time>
      </trkpt>
      <trkpt lat="59.159177" lon="18.118144">
        <ele>60</ele>
        <time>2019-10-13T16:44:48Z</time>
      </trkpt>
      <trkpt lat="59.159181" lon="18.118104">
        <ele>60</ele>
        <time>2019-10-13T16:44:49Z</time>
      </trkpt>
      <trkpt lat="59.159174" lon="18.118069">
        <ele>60</ele>
        <time>2019-10-13T16:44:50Z</time>
      </trkpt>
      <trkpt lat="59.159165" lon="18.118028">
        <ele>60</ele>
        <time>2019-10-13T16:44:51Z</time>
      </trkpt>
      <trkpt lat="59.159158" lon="18.117983">
        <ele>60</ele>
        <time>2019-10-13T16:44:52Z</time>
      </trkpt>
      <trkpt lat="59.159153" lon="18.117941">
        <ele>60</ele>
        <time>2019-10-13T16:44:53Z</time>
      </trkpt>
      <trkpt lat="59.159146" lon="18.117902">
        <ele>60</ele>
        <time>2019-10-13T16:44:54Z</time>
      </trkpt>
      <trkpt lat="59.159132" lon="18.117857">
        <ele>60</ele>
        <time>2019-10-13T16:44:56Z</time>
      </trkpt>
      <trkpt lat="59.159109" lon="18.117836">
        <ele>60</ele>
        <time>2019-10-13T16:44:58Z</time>
      </trkpt>
      <trkpt lat="59.159083" lon="18.117823">
        <ele>60</ele>
        <time>2019-10-13T16:44:59Z</time>
      </trkpt>
      <trkpt lat="59.159057" lon="18.117801">
        <ele>60</ele>
        <time>2019-10-13T16:45:02Z</time>
      </trkpt>
      <trkpt lat="59.159055" lon="18.117735">
        <ele>60</ele>
        <time>2019-10-13T16:45:04Z</time>
      </trkpt>
      <trkpt lat="59.159063" lon="18.117702">
        <ele>60</ele>
        <time>2019-10-13T16:45:05Z</time>
      </trkpt>
      <trkpt lat="59.159071" lon="18.117667">
        <ele>0</ele>
        <time>2019-10-13T16:45:05Z</time>
      </trkpt>
      <trkpt lat="59.15908" lon="18.117607">
        <ele>60</ele>
        <time>2019-10-13T16:45:08Z</time>
      </trkpt>
      <trkpt lat="59.159085" lon="18.117557">
        <ele>60</ele>
        <time>2019-10-13T16:45:10Z</time>
      </trkpt>
      <trkpt lat="59.159081" lon="18.117546">
        <ele>0</ele>
        <time>2019-10-13T16:45:13Z</time>
      </trkpt>
      <trkpt lat="59.159065" lon="18.117519">
        <ele>60</ele>
        <time>2019-10-13T16:45:26Z</time>
      </trkpt>
      <trkpt lat="59.159057" lon="18.11751">
        <ele>60</ele>
        <time>2019-10-13T16:45:28Z</time>
      </trkpt>
      <trkpt lat="59.159034" lon="18.117504">
        <ele>60</ele>
        <time>2019-10-13T16:45:30Z</time>
      </trkpt>
      <trkpt lat="59.159005" lon="18.117512">
        <ele>60</ele>
        <time>2019-10-13T16:45:32Z</time>
      </trkpt>
      <trkpt lat="59.158971" lon="18.117528">
        <ele>60</ele>
        <time>2019-10-13T16:45:34Z</time>
      </trkpt>
      <trkpt lat="59.158943" lon="18.117551">
        <ele>59</ele>
        <time>2019-10-13T16:45:36Z</time>
      </trkpt>
      <trkpt lat="59.158927" lon="18.117573">
        <ele>59</ele>
        <time>2019-10-13T16:45:37Z</time>
      </trkpt>
      <trkpt lat="59.158908" lon="18.117597">
        <ele>58</ele>
        <time>2019-10-13T16:45:38Z</time>
      </trkpt>
      <trkpt lat="59.158886" lon="18.117629">
        <ele>58</ele>
        <time>2019-10-13T16:45:39Z</time>
      </trkpt>
      <trkpt lat="59.158856" lon="18.117663">
        <ele>58</ele>
        <time>2019-10-13T16:45:40Z</time>
      </trkpt>
      <trkpt lat="59.158815" lon="18.117679">
        <ele>58</ele>
        <time>2019-10-13T16:45:41Z</time>
      </trkpt>
      <trkpt lat="59.158775" lon="18.117661">
        <ele>58</ele>
        <time>2019-10-13T16:45:42Z</time>
      </trkpt>
      <trkpt lat="59.15874" lon="18.117618">
        <ele>59</ele>
        <time>2019-10-13T16:45:43Z</time>
      </trkpt>
      <trkpt lat="59.158718" lon="18.117565">
        <ele>59</ele>
        <time>2019-10-13T16:45:44Z</time>
      </trkpt>
      <trkpt lat="59.158707" lon="18.117509">
        <ele>0</ele>
        <time>2019-10-13T16:45:44Z</time>
      </trkpt>
      <trkpt lat="59.1587" lon="18.117456">
        <ele>59</ele>
        <time>2019-10-13T16:45:45Z</time>
      </trkpt>
      <trkpt lat="59.158696" lon="18.117403">
        <ele>59</ele>
        <time>2019-10-13T16:45:47Z</time>
      </trkpt>
      <trkpt lat="59.15869" lon="18.117356">
        <ele>59</ele>
        <time>2019-10-13T16:45:48Z</time>
      </trkpt>
      <trkpt lat="59.158683" lon="18.117314">
        <ele>59</ele>
        <time>2019-10-13T16:45:49Z</time>
      </trkpt>
      <trkpt lat="59.158652" lon="18.117274">
        <ele>59</ele>
        <time>2019-10-13T16:45:51Z</time>
      </trkpt>
      <trkpt lat="59.158631" lon="18.117269">
        <ele>59</ele>
        <time>2019-10-13T16:45:52Z</time>
      </trkpt>
      <trkpt lat="59.15861" lon="18.117275">
        <ele>58</ele>
        <time>2019-10-13T16:45:53Z</time>
      </trkpt>
      <trkpt lat="59.15859" lon="18.117295">
        <ele>59</ele>
        <time>2019-10-13T16:45:54Z</time>
      </trkpt>
      <trkpt lat="59.158567" lon="18.117319">
        <ele>58</ele>
        <time>2019-10-13T16:45:55Z</time>
      </trkpt>
      <trkpt lat="59.15854" lon="18.117339">
        <ele>58</ele>
        <time>2019-10-13T16:45:56Z</time>
      </trkpt>
      <trkpt lat="59.158511" lon="18.117358">
        <ele>58</ele>
        <time>2019-10-13T16:45:57Z</time>
      </trkpt>
      <trkpt lat="59.158485" lon="18.117371">
        <ele>58</ele>
        <time>2019-10-13T16:45:58Z</time>
      </trkpt>
      <trkpt lat="59.158461" lon="18.117379">
        <ele>58</ele>
        <time>2019-10-13T16:45:59Z</time>
      </trkpt>
      <trkpt lat="59.158438" lon="18.117383">
        <ele>58</ele>
        <time>2019-10-13T16:46:00Z</time>
      </trkpt>
      <trkpt lat="59.158417" lon="18.117389">
        <ele>59</ele>
        <time>2019-10-13T16:46:01Z</time>
      </trkpt>
      <trkpt lat="59.158394" lon="18.1174">
        <ele>59</ele>
        <time>2019-10-13T16:46:02Z</time>
      </trkpt>
      <trkpt lat="59.158368" lon="18.117404">
        <ele>59</ele>
        <time>2019-10-13T16:46:03Z</time>
      </trkpt>
      <trkpt lat="59.158345" lon="18.11739">
        <ele>0</ele>
        <time>2019-10-13T16:46:03Z</time>
      </trkpt>
      <trkpt lat="59.15833" lon="18.11736">
        <ele>59</ele>
        <time>2019-10-13T16:46:04Z</time>
      </trkpt>
      <trkpt lat="59.158327" lon="18.117323">
        <ele>59</ele>
        <time>2019-10-13T16:46:06Z</time>
      </trkpt>
      <trkpt lat="59.158332" lon="18.117268">
        <ele>0</ele>
        <time>2019-10-13T16:46:07Z</time>
      </trkpt>
      <trkpt lat="59.158318" lon="18.117244">
        <ele>59</ele>
        <time>2019-10-13T16:46:10Z</time>
      </trkpt>
      <trkpt lat="59.158301" lon="18.117274">
        <ele>59</ele>
        <time>2019-10-13T16:46:12Z</time>
      </trkpt>
      <trkpt lat="59.158312" lon="18.117327">
        <ele>59</ele>
        <time>2019-10-13T16:46:14Z</time>
      </trkpt>
      <trkpt lat="59.158339" lon="18.117366">
        <ele>59</ele>
        <time>2019-10-13T16:46:16Z</time>
      </trkpt>
      <trkpt lat="59.158351" lon="18.117392">
        <ele>59</ele>
        <time>2019-10-13T16:46:17Z</time>
      </trkpt>
      <trkpt lat="59.158363" lon="18.11743">
        <ele>59</ele>
        <time>2019-10-13T16:46:18Z</time>
      </trkpt>
      <trkpt lat="59.158368" lon="18.117478">
        <ele>59</ele>
        <time>2019-10-13T16:46:19Z</time>
      </trkpt>
      <trkpt lat="59.158361" lon="18.117526">
        <ele>59</ele>
        <time>2019-10-13T16:46:20Z</time>
      </trkpt>
      <trkpt lat="59.15834" lon="18.117558">
        <ele>59</ele>
        <time>2019-10-13T16:46:21Z</time>
      </trkpt>
      <trkpt lat="59.158319" lon="18.117586">
        <ele>59</ele>
        <time>2019-10-13T16:46:22Z</time>
      </trkpt>
      <trkpt lat="59.158299" lon="18.11763">
        <ele>0</ele>
        <time>2019-10-13T16:46:22Z</time>
      </trkpt>
      <trkpt lat="59.158286" lon="18.117682">
        <ele>59</ele>
        <time>2019-10-13T16:46:23Z</time>
      </trkpt>
      <trkpt lat="59.15827" lon="18.117738">
        <ele>58</ele>
        <time>2019-10-13T16:46:25Z</time>
      </trkpt>
      <trkpt lat="59.15825" lon="18.117793">
        <ele>58</ele>
        <time>2019-10-13T16:46:26Z</time>
      </trkpt>
      <trkpt lat="59.158239" lon="18.117856">
        <ele>58</ele>
        <time>2019-10-13T16:46:27Z</time>
      </trkpt>
      <trkpt lat="59.158227" lon="18.117928">
        <ele>0</ele>
        <time>2019-10-13T16:46:27Z</time>
      </trkpt>
      <trkpt lat="59.15821" lon="18.117992">
        <ele>58</ele>
        <time>2019-10-13T16:46:28Z</time>
      </trkpt>
      <trkpt lat="59.158197" lon="18.11806">
        <ele>58</ele>
        <time>2019-10-13T16:46:30Z</time>
      </trkpt>
      <trkpt lat="59.158203" lon="18.11813">
        <ele>58</ele>
        <time>2019-10-13T16:46:31Z</time>
      </trkpt>
      <trkpt lat="59.158222" lon="18.118175">
        <ele>58</ele>
        <time>2019-10-13T16:46:32Z</time>
      </trkpt>
      <trkpt lat="59.158247" lon="18.118206">
        <ele>58</ele>
        <time>2019-10-13T16:46:33Z</time>
      </trkpt>
      <trkpt lat="59.158273" lon="18.118238">
        <ele>58</ele>
        <time>2019-10-13T16:46:34Z</time>
      </trkpt>
      <trkpt lat="59.158301" lon="18.118266">
        <ele>58</ele>
        <time>2019-10-13T16:46:35Z</time>
      </trkpt>
      <trkpt lat="59.158327" lon="18.118284">
        <ele>58</ele>
        <time>2019-10-13T16:46:36Z</time>
      </trkpt>
      <trkpt lat="59.158351" lon="18.118263">
        <ele>58</ele>
        <time>2019-10-13T16:46:38Z</time>
      </trkpt>
      <trkpt lat="59.158359" lon="18.11823">
        <ele>58</ele>
        <time>2019-10-13T16:46:39Z</time>
      </trkpt>
      <trkpt lat="59.158363" lon="18.118194">
        <ele>58</ele>
        <time>2019-10-13T16:46:40Z</time>
      </trkpt>
      <trkpt lat="59.158365" lon="18.118158">
        <ele>58</ele>
        <time>2019-10-13T16:46:41Z</time>
      </trkpt>
      <trkpt lat="59.158371" lon="18.118117">
        <ele>0</ele>
        <time>2019-10-13T16:46:41Z</time>
      </trkpt>
      <trkpt lat="59.158377" lon="18.118082">
        <ele>58</ele>
        <time>2019-10-13T16:46:42Z</time>
      </trkpt>
      <trkpt lat="59.158387" lon="18.118048">
        <ele>58</ele>
        <time>2019-10-13T16:46:44Z</time>
      </trkpt>
      <trkpt lat="59.158399" lon="18.118018">
        <ele>58</ele>
        <time>2019-10-13T16:46:45Z</time>
      </trkpt>
      <trkpt lat="59.158412" lon="18.11799">
        <ele>58</ele>
        <time>2019-10-13T16:46:46Z</time>
      </trkpt>
      <trkpt lat="59.15843" lon="18.117959">
        <ele>58</ele>
        <time>2019-10-13T16:46:47Z</time>
      </trkpt>
      <trkpt lat="59.158452" lon="18.11792">
        <ele>0</ele>
        <time>2019-10-13T16:46:47Z</time>
      </trkpt>
      <trkpt lat="59.158478" lon="18.11788">
        <ele>58</ele>
        <time>2019-10-13T16:46:48Z</time>
      </trkpt>
      <trkpt lat="59.158501" lon="18.117846">
        <ele>58</ele>
        <time>2019-10-13T16:46:50Z</time>
      </trkpt>
      <trkpt lat="59.158524" lon="18.117816">
        <ele>58</ele>
        <time>2019-10-13T16:46:51Z</time>
      </trkpt>
      <trkpt lat="59.158549" lon="18.11779">
        <ele>58</ele>
        <time>2019-10-13T16:46:52Z</time>
      </trkpt>
      <trkpt lat="59.158574" lon="18.117764">
        <ele>58</ele>
        <time>2019-10-13T16:46:53Z</time>
      </trkpt>
      <trkpt lat="59.158599" lon="18.117745">
        <ele>58</ele>
        <time>2019-10-13T16:46:54Z</time>
      </trkpt>
      <trkpt lat="59.158625" lon="18.11773">
        <ele>58</ele>
        <time>2019-10-13T16:46:55Z</time>
      </trkpt>
      <trkpt lat="59.158651" lon="18.11772">
        <ele>58</ele>
        <time>2019-10-13T16:46:56Z</time>
      </trkpt>
      <trkpt lat="59.158674" lon="18.117717">
        <ele>58</ele>
        <time>2019-10-13T16:46:57Z</time>
      </trkpt>
      <trkpt lat="59.158696" lon="18.117719">
        <ele>57</ele>
        <time>2019-10-13T16:46:58Z</time>
      </trkpt>
      <trkpt lat="59.158718" lon="18.117722">
        <ele>57</ele>
        <time>2019-10-13T16:46:59Z</time>
      </trkpt>
      <trkpt lat="59.158744" lon="18.117722">
        <ele>0</ele>
        <time>2019-10-13T16:47:00Z</time>
      </trkpt>
      <trkpt lat="59.158761" lon="18.117726">
        <ele>57</ele>
        <time>2019-10-13T16:47:03Z</time>
      </trkpt>
      <trkpt lat="59.158784" lon="18.117724">
        <ele>57</ele>
        <time>2019-10-13T16:47:06Z</time>
      </trkpt>
      <trkpt lat="59.158804" lon="18.117716">
        <ele>58</ele>
        <time>2019-10-13T16:47:10Z</time>
      </trkpt>
      <trkpt lat="59.158824" lon="18.117722">
        <ele>58</ele>
        <time>2019-10-13T16:47:13Z</time>
      </trkpt>
      <trkpt lat="59.158844" lon="18.11769">
        <ele>59</ele>
        <time>2019-10-13T16:47:17Z</time>
      </trkpt>
      <trkpt lat="59.158861" lon="18.117672">
        <ele>59</ele>
        <time>2019-10-13T16:47:19Z</time>
      </trkpt>
      <trkpt lat="59.158883" lon="18.117693">
        <ele>59</ele>
        <time>2019-10-13T16:47:20Z</time>
      </trkpt>
      <trkpt lat="59.158908" lon="18.117724">
        <ele>59</ele>
        <time>2019-10-13T16:47:23Z</time>
      </trkpt>
      <trkpt lat="59.158924" lon="18.117748">
        <ele>0</ele>
        <time>2019-10-13T16:47:23Z</time>
      </trkpt>
      <trkpt lat="59.158943" lon="18.117774">
        <ele>59</ele>
        <time>2019-10-13T16:47:24Z</time>
      </trkpt>
      <trkpt lat="59.158959" lon="18.117798">
        <ele>59</ele>
        <time>2019-10-13T16:47:26Z</time>
      </trkpt>
      <trkpt lat="59.158974" lon="18.117824">
        <ele>59</ele>
        <time>2019-10-13T16:47:27Z</time>
      </trkpt>
      <trkpt lat="59.159" lon="18.117859">
        <ele>59</ele>
        <time>2019-10-13T16:47:29Z</time>
      </trkpt>
      <trkpt lat="59.159006" lon="18.117869">
        <ele>0</ele>
        <time>2019-10-13T16:47:33Z</time>
      </trkpt>
      <trkpt lat="59.159037" lon="18.117848">
        <ele>59</ele>
        <time>2019-10-13T16:47:36Z</time>
      </trkpt>
      <trkpt lat="59.159047" lon="18.117835">
        <ele>59</ele>
        <time>2019-10-13T16:47:38Z</time>
      </trkpt>
      <trkpt lat="59.159055" lon="18.117786">
        <ele>59</ele>
        <time>2019-10-13T16:47:41Z</time>
      </trkpt>
      <trkpt lat="59.159042" lon="18.117798">
        <ele>0</ele>
        <time>2019-10-13T16:47:47Z</time>
      </trkpt>
      <trkpt lat="59.159043" lon="18.117674">
        <ele>59</ele>
        <time>2019-10-13T16:47:54Z</time>
      </trkpt>
      <trkpt lat="59.159043" lon="18.117626">
        <ele>58</ele>
        <time>2019-10-13T16:47:56Z</time>
      </trkpt>
      <trkpt lat="59.159034" lon="18.117584">
        <ele>58</ele>
        <time>2019-10-13T16:47:57Z</time>
      </trkpt>
      <trkpt lat="59.159016" lon="18.117552">
        <ele>58</ele>
        <time>2019-10-13T16:47:58Z</time>
      </trkpt>
      <trkpt lat="59.158992" lon="18.117546">
        <ele>58</ele>
        <time>2019-10-13T16:47:59Z</time>
      </trkpt>
      <trkpt lat="59.158967" lon="18.117555">
        <ele>58</ele>
        <time>2019-10-13T16:48:00Z</time>
      </trkpt>
      <trkpt lat="59.158944" lon="18.117568">
        <ele>58</ele>
        <time>2019-10-13T16:48:01Z</time>
      </trkpt>
      <trkpt lat="59.158921" lon="18.117588">
        <ele>58</ele>
        <time>2019-10-13T16:48:02Z</time>
      </trkpt>
      <trkpt lat="59.158902" lon="18.117613">
        <ele>58</ele>
        <time>2019-10-13T16:48:03Z</time>
      </trkpt>
      <trkpt lat="59.158884" lon="18.117636">
        <ele>59</ele>
        <time>2019-10-13T16:48:04Z</time>
      </trkpt>
      <trkpt lat="59.158865" lon="18.11765">
        <ele>59</ele>
        <time>2019-10-13T16:48:05Z</time>
      </trkpt>
      <trkpt lat="59.158842" lon="18.117655">
        <ele>60</ele>
        <time>2019-10-13T16:48:08Z</time>
      </trkpt>
      <trkpt lat="59.158852" lon="18.117659">
        <ele>0</ele>
        <time>2019-10-13T16:48:11Z</time>
      </trkpt>
      <trkpt lat="59.158926" lon="18.117758">
        <ele>60</ele>
        <time>2019-10-13T16:48:26Z</time>
      </trkpt>
      <trkpt lat="59.158943" lon="18.117782">
        <ele>60</ele>
        <time>2019-10-13T16:48:28Z</time>
      </trkpt>
      <trkpt lat="59.158956" lon="18.117815">
        <ele>60</ele>
        <time>2019-10-13T16:48:29Z</time>
      </trkpt>
      <trkpt lat="59.158969" lon="18.117855">
        <ele>60</ele>
        <time>2019-10-13T16:48:30Z</time>
      </trkpt>
      <trkpt lat="59.158983" lon="18.11789">
        <ele>60</ele>
        <time>2019-10-13T16:48:31Z</time>
      </trkpt>
      <trkpt lat="59.158994" lon="18.117904">
        <ele>0</ele>
        <time>2019-10-13T16:48:35Z</time>
      </trkpt>
      <trkpt lat="59.158988" lon="18.117973">
        <ele>60</ele>
        <time>2019-10-13T16:51:52Z</time>
      </trkpt>
      <trkpt lat="59.158966" lon="18.118007">
        <ele>60</ele>
        <time>2019-10-13T16:51:54Z</time>
      </trkpt>
      <trkpt lat="59.158938" lon="18.11805">
        <ele>0</ele>
        <time>2019-10-13T16:51:54Z</time>
      </trkpt>
      <trkpt lat="59.158903" lon="18.118087">
        <ele>60</ele>
        <time>2019-10-13T16:51:55Z</time>
      </trkpt>
      <trkpt lat="59.158863" lon="18.118097">
        <ele>60</ele>
        <time>2019-10-13T16:51:57Z</time>
      </trkpt>
      <trkpt lat="59.15883" lon="18.118106">
        <ele>60</ele>
        <time>2019-10-13T16:51:58Z</time>
      </trkpt>
      <trkpt lat="59.158814" lon="18.118151">
        <ele>60</ele>
        <time>2019-10-13T16:51:59Z</time>
      </trkpt>
      <trkpt lat="59.158816" lon="18.118214">
        <ele>60</ele>
        <time>2019-10-13T16:52:00Z</time>
      </trkpt>
      <trkpt lat="59.158837" lon="18.118271">
        <ele>59</ele>
        <time>2019-10-13T16:52:01Z</time>
      </trkpt>
      <trkpt lat="59.158862" lon="18.11833">
        <ele>59</ele>
        <time>2019-10-13T16:52:02Z</time>
      </trkpt>
      <trkpt lat="59.158882" lon="18.118394">
        <ele>59</ele>
        <time>2019-10-13T16:52:03Z</time>
      </trkpt>
      <trkpt lat="59.15888" lon="18.118461">
        <ele>59</ele>
        <time>2019-10-13T16:52:04Z</time>
      </trkpt>
      <trkpt lat="59.158862" lon="18.118527">
        <ele>59</ele>
        <time>2019-10-13T16:52:05Z</time>
      </trkpt>
      <trkpt lat="59.158829" lon="18.118587">
        <ele>59</ele>
        <time>2019-10-13T16:52:06Z</time>
      </trkpt>
      <trkpt lat="59.158793" lon="18.118628">
        <ele>59</ele>
        <time>2019-10-13T16:52:07Z</time>
      </trkpt>
      <trkpt lat="59.158759" lon="18.118679">
        <ele>0</ele>
        <time>2019-10-13T16:52:07Z</time>
      </trkpt>
      <trkpt lat="59.158738" lon="18.118755">
        <ele>59</ele>
        <time>2019-10-13T16:52:08Z</time>
      </trkpt>
      <trkpt lat="59.158732" lon="18.118847">
        <ele>59</ele>
        <time>2019-10-13T16:52:10Z</time>
      </trkpt>
      <trkpt lat="59.158734" lon="18.118939">
        <ele>0</ele>
        <time>2019-10-13T16:52:10Z</time>
      </trkpt>
      <trkpt lat="59.158738" lon="18.119037">
        <ele>59</ele>
        <time>2019-10-13T16:52:11Z</time>
      </trkpt>
      <trkpt lat="59.158739" lon="18.119138">
        <ele>59</ele>
        <time>2019-10-13T16:52:13Z</time>
      </trkpt>
      <trkpt lat="59.158738" lon="18.119232">
        <ele>59</ele>
        <time>2019-10-13T16:52:14Z</time>
      </trkpt>
      <trkpt lat="59.158736" lon="18.119323">
        <ele>58</ele>
        <time>2019-10-13T16:52:15Z</time>
      </trkpt>
      <trkpt lat="59.158733" lon="18.119419">
        <ele>58</ele>
        <time>2019-10-13T16:52:16Z</time>
      </trkpt>
      <trkpt lat="59.158739" lon="18.11951">
        <ele>58</ele>
        <time>2019-10-13T16:52:17Z</time>
      </trkpt>
      <trkpt lat="59.158745" lon="18.119596">
        <ele>58</ele>
        <time>2019-10-13T16:52:18Z</time>
      </trkpt>
      <trkpt lat="59.158748" lon="18.119687">
        <ele>0</ele>
        <time>2019-10-13T16:52:18Z</time>
      </trkpt>
      <trkpt lat="59.158752" lon="18.119774">
        <ele>58</ele>
        <time>2019-10-13T16:52:19Z</time>
      </trkpt>
      <trkpt lat="59.158752" lon="18.119857">
        <ele>58</ele>
        <time>2019-10-13T16:52:21Z</time>
      </trkpt>
      <trkpt lat="59.158753" lon="18.11994">
        <ele>58</ele>
        <time>2019-10-13T16:52:22Z</time>
      </trkpt>
      <trkpt lat="59.158752" lon="18.120026">
        <ele>58</ele>
        <time>2019-10-13T16:52:23Z</time>
      </trkpt>
      <trkpt lat="59.158752" lon="18.120118">
        <ele>58</ele>
        <time>2019-10-13T16:52:24Z</time>
      </trkpt>
      <trkpt lat="59.158754" lon="18.120204">
        <ele>58</ele>
        <time>2019-10-13T16:52:25Z</time>
      </trkpt>
      <trkpt lat="59.158752" lon="18.120279">
        <ele>58</ele>
        <time>2019-10-13T16:52:26Z</time>
      </trkpt>
      <trkpt lat="59.158742" lon="18.120328">
        <ele>58</ele>
        <time>2019-10-13T16:52:27Z</time>
      </trkpt>
      <trkpt lat="59.158725" lon="18.120358">
        <ele>58</ele>
        <time>2019-10-13T16:52:28Z</time>
      </trkpt>
      <trkpt lat="59.158703" lon="18.120376">
        <ele>58</ele>
        <time>2019-10-13T16:52:29Z</time>
      </trkpt>
      <trkpt lat="59.158679" lon="18.120382">
        <ele>0</ele>
        <time>2019-10-13T16:52:29Z</time>
      </trkpt>
      <trkpt lat="59.158657" lon="18.120388">
        <ele>58</ele>
        <time>2019-10-13T16:52:30Z</time>
      </trkpt>
      <trkpt lat="59.158636" lon="18.120399">
        <ele>58</ele>
        <time>2019-10-13T16:52:32Z</time>
      </trkpt>
      <trkpt lat="59.158616" lon="18.120408">
        <ele>58</ele>
        <time>2019-10-13T16:52:33Z</time>
      </trkpt>
      <trkpt lat="59.158598" lon="18.120425">
        <ele>58</ele>
        <time>2019-10-13T16:52:34Z</time>
      </trkpt>
      <trkpt lat="59.158565" lon="18.120455">
        <ele>58</ele>
        <time>2019-10-13T16:52:36Z</time>
      </trkpt>
      <trkpt lat="59.158552" lon="18.120498">
        <ele>0</ele>
        <time>2019-10-13T16:52:37Z</time>
      </trkpt>
      <trkpt lat="59.15855" lon="18.120539">
        <ele>58</ele>
        <time>2019-10-13T16:52:40Z</time>
      </trkpt>
      <trkpt lat="59.158539" lon="18.120592">
        <ele>58</ele>
        <time>2019-10-13T16:52:42Z</time>
      </trkpt>
      <trkpt lat="59.158523" lon="18.120627">
        <ele>58</ele>
        <time>2019-10-13T16:52:44Z</time>
      </trkpt>
      <trkpt lat="59.158503" lon="18.120645">
        <ele>58</ele>
        <time>2019-10-13T16:52:46Z</time>
      </trkpt>
      <trkpt lat="59.158484" lon="18.120673">
        <ele>58</ele>
        <time>2019-10-13T16:52:48Z</time>
      </trkpt>
      <trkpt lat="59.158463" lon="18.120692">
        <ele>59</ele>
        <time>2019-10-13T16:52:49Z</time>
      </trkpt>
      <trkpt lat="59.158439" lon="18.120723">
        <ele>58</ele>
        <time>2019-10-13T16:52:52Z</time>
      </trkpt>
      <trkpt lat="59.158411" lon="18.120762">
        <ele>58</ele>
        <time>2019-10-13T16:52:54Z</time>
      </trkpt>
      <trkpt lat="59.158396" lon="18.120796">
        <ele>58</ele>
        <time>2019-10-13T16:52:55Z</time>
      </trkpt>
      <trkpt lat="59.158381" lon="18.120838">
        <ele>58</ele>
        <time>2019-10-13T16:52:56Z</time>
      </trkpt>
      <trkpt lat="59.15837" lon="18.120883">
        <ele>58</ele>
        <time>2019-10-13T16:52:57Z</time>
      </trkpt>
      <trkpt lat="59.158364" lon="18.120931">
        <ele>58</ele>
        <time>2019-10-13T16:52:58Z</time>
      </trkpt>
      <trkpt lat="59.158355" lon="18.120981">
        <ele>58</ele>
        <time>2019-10-13T16:52:59Z</time>
      </trkpt>
      <trkpt lat="59.158345" lon="18.121023">
        <ele>58</ele>
        <time>2019-10-13T16:53:00Z</time>
      </trkpt>
      <trkpt lat="59.158352" lon="18.121084">
        <ele>58</ele>
        <time>2019-10-13T16:53:02Z</time>
      </trkpt>
      <trkpt lat="59.158359" lon="18.12112">
        <ele>58</ele>
        <time>2019-10-13T16:53:03Z</time>
      </trkpt>
      <trkpt lat="59.15837" lon="18.121158">
        <ele>58</ele>
        <time>2019-10-13T16:53:04Z</time>
      </trkpt>
      <trkpt lat="59.158378" lon="18.121197">
        <ele>58</ele>
        <time>2019-10-13T16:53:05Z</time>
      </trkpt>
      <trkpt lat="59.158376" lon="18.121242">
        <ele>58</ele>
        <time>2019-10-13T16:53:07Z</time>
      </trkpt>
      <trkpt lat="59.158375" lon="18.121244">
        <ele>0</ele>
        <time>2019-10-13T16:53:09Z</time>
      </trkpt>
      <trkpt lat="59.158333" lon="18.121339">
        <ele>59</ele>
        <time>2019-10-13T16:54:30Z</time>
      </trkpt>
      <trkpt lat="59.158309" lon="18.121368">
        <ele>0</ele>
        <time>2019-10-13T16:54:31Z</time>
      </trkpt>
      <trkpt lat="59.158284" lon="18.121394">
        <ele>59</ele>
        <time>2019-10-13T16:54:32Z</time>
      </trkpt>
      <trkpt lat="59.158261" lon="18.121411">
        <ele>58</ele>
        <time>2019-10-13T16:54:34Z</time>
      </trkpt>
      <trkpt lat="59.15824" lon="18.121423">
        <ele>58</ele>
        <time>2019-10-13T16:54:35Z</time>
      </trkpt>
      <trkpt lat="59.158222" lon="18.121436">
        <ele>58</ele>
        <time>2019-10-13T16:54:36Z</time>
      </trkpt>
      <trkpt lat="59.158202" lon="18.121451">
        <ele>58</ele>
        <time>2019-10-13T16:54:37Z</time>
      </trkpt>
      <trkpt lat="59.158173" lon="18.121459">
        <ele>58</ele>
        <time>2019-10-13T16:54:38Z</time>
      </trkpt>
      <trkpt lat="59.158141" lon="18.12146">
        <ele>58</ele>
        <time>2019-10-13T16:54:39Z</time>
      </trkpt>
      <trkpt lat="59.158107" lon="18.121466">
        <ele>58</ele>
        <time>2019-10-13T16:54:40Z</time>
      </trkpt>
      <trkpt lat="59.158071" lon="18.121473">
        <ele>58</ele>
        <time>2019-10-13T16:54:41Z</time>
      </trkpt>
      <trkpt lat="59.158033" lon="18.121484">
        <ele>58</ele>
        <time>2019-10-13T16:54:42Z</time>
      </trkpt>
      <trkpt lat="59.157995" lon="18.121506">
        <ele>58</ele>
        <time>2019-10-13T16:54:43Z</time>
      </trkpt>
      <trkpt lat="59.157961" lon="18.121536">
        <ele>58</ele>
        <time>2019-10-13T16:54:44Z</time>
      </trkpt>
      <trkpt lat="59.157928" lon="18.12157">
        <ele>58</ele>
        <time>2019-10-13T16:54:45Z</time>
      </trkpt>
      <trkpt lat="59.157895" lon="18.121623">
        <ele>58</ele>
        <time>2019-10-13T16:54:46Z</time>
      </trkpt>
      <trkpt lat="59.157879" lon="18.121677">
        <ele>0</ele>
        <time>2019-10-13T16:54:46Z</time>
      </trkpt>
      <trkpt lat="59.157876" lon="18.121739">
        <ele>58</ele>
        <time>2019-10-13T16:54:47Z</time>
      </trkpt>
      <trkpt lat="59.157878" lon="18.121813">
        <ele>0</ele>
        <time>2019-10-13T16:54:48Z</time>
      </trkpt>
      <trkpt lat="59.157878" lon="18.121871">
        <ele>57</ele>
        <time>2019-10-13T16:54:49Z</time>
      </trkpt>
      <trkpt lat="59.157884" lon="18.121919">
        <ele>57</ele>
        <time>2019-10-13T16:54:51Z</time>
      </trkpt>
      <trkpt lat="59.157889" lon="18.121959">
        <ele>57</ele>
        <time>2019-10-13T16:54:52Z</time>
      </trkpt>
      <trkpt lat="59.157891" lon="18.121997">
        <ele>57</ele>
        <time>2019-10-13T16:54:53Z</time>
      </trkpt>
      <trkpt lat="59.157888" lon="18.122036">
        <ele>57</ele>
        <time>2019-10-13T16:54:54Z</time>
      </trkpt>
      <trkpt lat="59.15788" lon="18.122097">
        <ele>56</ele>
        <time>2019-10-13T16:54:56Z</time>
      </trkpt>
      <trkpt lat="59.157864" lon="18.122136">
        <ele>56</ele>
        <time>2019-10-13T16:54:58Z</time>
      </trkpt>
      <trkpt lat="59.157857" lon="18.122174">
        <ele>56</ele>
        <time>2019-10-13T16:54:59Z</time>
      </trkpt>
      <trkpt lat="59.157853" lon="18.122215">
        <ele>55</ele>
        <time>2019-10-13T16:55:00Z</time>
      </trkpt>
      <trkpt lat="59.15785" lon="18.122266">
        <ele>55</ele>
        <time>2019-10-13T16:55:01Z</time>
      </trkpt>
      <trkpt lat="59.157851" lon="18.122322">
        <ele>55</ele>
        <time>2019-10-13T16:55:02Z</time>
      </trkpt>
      <trkpt lat="59.157856" lon="18.122373">
        <ele>55</ele>
        <time>2019-10-13T16:55:03Z</time>
      </trkpt>
      <trkpt lat="59.157868" lon="18.122413">
        <ele>55</ele>
        <time>2019-10-13T16:55:04Z</time>
      </trkpt>
      <trkpt lat="59.157882" lon="18.122448">
        <ele>55</ele>
        <time>2019-10-13T16:55:05Z</time>
      </trkpt>
      <trkpt lat="59.157894" lon="18.12248">
        <ele>55</ele>
        <time>2019-10-13T16:55:06Z</time>
      </trkpt>
      <trkpt lat="59.157908" lon="18.122504">
        <ele>55</ele>
        <time>2019-10-13T16:55:07Z</time>
      </trkpt>
      <trkpt lat="59.157922" lon="18.122535">
        <ele>0</ele>
        <time>2019-10-13T16:55:07Z</time>
      </trkpt>
      <trkpt lat="59.15795" lon="18.122572">
        <ele>55</ele>
        <time>2019-10-13T16:55:10Z</time>
      </trkpt>
      <trkpt lat="59.157966" lon="18.122592">
        <ele>0</ele>
        <time>2019-10-13T16:55:10Z</time>
      </trkpt>
      <trkpt lat="59.157985" lon="18.122618">
        <ele>55</ele>
        <time>2019-10-13T16:55:11Z</time>
      </trkpt>
      <trkpt lat="59.158009" lon="18.122649">
        <ele>55</ele>
        <time>2019-10-13T16:55:13Z</time>
      </trkpt>
      <trkpt lat="59.158031" lon="18.122689">
        <ele>55</ele>
        <time>2019-10-13T16:55:14Z</time>
      </trkpt>
      <trkpt lat="59.158052" lon="18.122734">
        <ele>55</ele>
        <time>2019-10-13T16:55:15Z</time>
      </trkpt>
      <trkpt lat="59.15807" lon="18.122795">
        <ele>55</ele>
        <time>2019-10-13T16:55:16Z</time>
      </trkpt>
      <trkpt lat="59.15808" lon="18.12286">
        <ele>55</ele>
        <time>2019-10-13T16:55:17Z</time>
      </trkpt>
      <trkpt lat="59.158082" lon="18.122919">
        <ele>55</ele>
        <time>2019-10-13T16:55:18Z</time>
      </trkpt>
      <trkpt lat="59.158075" lon="18.122964">
        <ele>54</ele>
        <time>2019-10-13T16:55:19Z</time>
      </trkpt>
      <trkpt lat="59.15806" lon="18.122996">
        <ele>54</ele>
        <time>2019-10-13T16:55:20Z</time>
      </trkpt>
      <trkpt lat="59.158045" lon="18.123015">
        <ele>54</ele>
        <time>2019-10-13T16:55:22Z</time>
      </trkpt>
      <trkpt lat="59.158041" lon="18.123017">
        <ele>0</ele>
        <time>2019-10-13T16:55:25Z</time>
      </trkpt>
      <trkpt lat="59.157992" lon="18.123067">
        <ele>53</ele>
        <time>2019-10-13T16:56:14Z</time>
      </trkpt>
      <trkpt lat="59.157979" lon="18.123106">
        <ele>53</ele>
        <time>2019-10-13T16:56:16Z</time>
      </trkpt>
      <trkpt lat="59.157963" lon="18.12314">
        <ele>52</ele>
        <time>2019-10-13T16:56:17Z</time>
      </trkpt>
      <trkpt lat="59.157945" lon="18.123184">
        <ele>52</ele>
        <time>2019-10-13T16:56:18Z</time>
      </trkpt>
      <trkpt lat="59.157926" lon="18.123233">
        <ele>52</ele>
        <time>2019-10-13T16:56:19Z</time>
      </trkpt>
      <trkpt lat="59.157901" lon="18.123287">
        <ele>52</ele>
        <time>2019-10-13T16:56:20Z</time>
      </trkpt>
      <trkpt lat="59.157875" lon="18.123352">
        <ele>52</ele>
        <time>2019-10-13T16:56:21Z</time>
      </trkpt>
      <trkpt lat="59.157847" lon="18.123416">
        <ele>0</ele>
        <time>2019-10-13T16:56:21Z</time>
      </trkpt>
      <trkpt lat="59.157823" lon="18.123471">
        <ele>52</ele>
        <time>2019-10-13T16:56:22Z</time>
      </trkpt>
      <trkpt lat="59.157804" lon="18.123513">
        <ele>52</ele>
        <time>2019-10-13T16:56:24Z</time>
      </trkpt>
      <trkpt lat="59.157788" lon="18.123546">
        <ele>52</ele>
        <time>2019-10-13T16:56:25Z</time>
      </trkpt>
      <trkpt lat="59.157773" lon="18.123575">
        <ele>52</ele>
        <time>2019-10-13T16:56:26Z</time>
      </trkpt>
      <trkpt lat="59.15776" lon="18.123604">
        <ele>53</ele>
        <time>2019-10-13T16:56:27Z</time>
      </trkpt>
      <trkpt lat="59.15775" lon="18.123635">
        <ele>52</ele>
        <time>2019-10-13T16:56:28Z</time>
      </trkpt>
      <trkpt lat="59.157743" lon="18.123669">
        <ele>52</ele>
        <time>2019-10-13T16:56:29Z</time>
      </trkpt>
      <trkpt lat="59.157739" lon="18.123705">
        <ele>52</ele>
        <time>2019-10-13T16:56:30Z</time>
      </trkpt>
      <trkpt lat="59.157756" lon="18.123759">
        <ele>52</ele>
        <time>2019-10-13T16:56:32Z</time>
      </trkpt>
      <trkpt lat="59.157789" lon="18.123763">
        <ele>52</ele>
        <time>2019-10-13T16:56:33Z</time>
      </trkpt>
      <trkpt lat="59.157824" lon="18.123774">
        <ele>52</ele>
        <time>2019-10-13T16:56:36Z</time>
      </trkpt>
      <trkpt lat="59.157846" lon="18.123768">
        <ele>52</ele>
        <time>2019-10-13T16:56:37Z</time>
      </trkpt>
      <trkpt lat="59.15787" lon="18.123762">
        <ele>52</ele>
        <time>2019-10-13T16:56:38Z</time>
      </trkpt>
      <trkpt lat="59.157891" lon="18.123755">
        <ele>52</ele>
        <time>2019-10-13T16:56:39Z</time>
      </trkpt>
      <trkpt lat="59.157911" lon="18.123748">
        <ele>52</ele>
        <time>2019-10-13T16:56:40Z</time>
      </trkpt>
      <trkpt lat="59.157951" lon="18.123741">
        <ele>52</ele>
        <time>2019-10-13T16:56:42Z</time>
      </trkpt>
      <trkpt lat="59.157983" lon="18.123754">
        <ele>52</ele>
        <time>2019-10-13T16:56:43Z</time>
      </trkpt>
      <trkpt lat="59.158016" lon="18.123771">
        <ele>0</ele>
        <time>2019-10-13T16:56:43Z</time>
      </trkpt>
      <trkpt lat="59.158049" lon="18.123805">
        <ele>52</ele>
        <time>2019-10-13T16:56:44Z</time>
      </trkpt>
      <trkpt lat="59.15809" lon="18.123852">
        <ele>51</ele>
        <time>2019-10-13T16:56:46Z</time>
      </trkpt>
      <trkpt lat="59.158135" lon="18.123893">
        <ele>51</ele>
        <time>2019-10-13T16:56:47Z</time>
      </trkpt>
      <trkpt lat="59.158183" lon="18.123931">
        <ele>51</ele>
        <time>2019-10-13T16:56:48Z</time>
      </trkpt>
      <trkpt lat="59.158237" lon="18.123949">
        <ele>51</ele>
        <time>2019-10-13T16:56:49Z</time>
      </trkpt>
      <trkpt lat="59.158295" lon="18.123955">
        <ele>50</ele>
        <time>2019-10-13T16:56:50Z</time>
      </trkpt>
      <trkpt lat="59.158346" lon="18.123958">
        <ele>50</ele>
        <time>2019-10-13T16:56:51Z</time>
      </trkpt>
      <trkpt lat="59.158393" lon="18.123961">
        <ele>0</ele>
        <time>2019-10-13T16:56:51Z</time>
      </trkpt>
      <trkpt lat="59.158444" lon="18.123971">
        <ele>50</ele>
        <time>2019-10-13T16:56:52Z</time>
      </trkpt>
      <trkpt lat="59.158494" lon="18.123985">
        <ele>0</ele>
        <time>2019-10-13T16:56:53Z</time>
      </trkpt>
      <trkpt lat="59.158546" lon="18.123991">
        <ele>49</ele>
        <time>2019-10-13T16:56:54Z</time>
      </trkpt>
      <trkpt lat="59.158602" lon="18.123994">
        <ele>49</ele>
        <time>2019-10-13T16:56:56Z</time>
      </trkpt>
      <trkpt lat="59.158654" lon="18.124001">
        <ele>0</ele>
        <time>2019-10-13T16:56:56Z</time>
      </trkpt>
      <trkpt lat="59.158715" lon="18.124017">
        <ele>49</ele>
        <time>2019-10-13T16:56:57Z</time>
      </trkpt>
      <trkpt lat="59.158789" lon="18.124046">
        <ele>48</ele>
        <time>2019-10-13T16:56:59Z</time>
      </trkpt>
      <trkpt lat="59.158861" lon="18.124081">
        <ele>47</ele>
        <time>2019-10-13T16:57:00Z</time>
      </trkpt>
      <trkpt lat="59.158925" lon="18.124117">
        <ele>47</ele>
        <time>2019-10-13T16:57:01Z</time>
      </trkpt>
      <trkpt lat="59.158987" lon="18.124152">
        <ele>0</ele>
        <time>2019-10-13T16:57:01Z</time>
      </trkpt>
      <trkpt lat="59.159047" lon="18.124184">
        <ele>47</ele>
        <time>2019-10-13T16:57:02Z</time>
      </trkpt>
      <trkpt lat="59.159106" lon="18.124201">
        <ele>46</ele>
        <time>2019-10-13T16:57:04Z</time>
      </trkpt>
      <trkpt lat="59.15916" lon="18.124207">
        <ele>46</ele>
        <time>2019-10-13T16:57:05Z</time>
      </trkpt>
      <trkpt lat="59.159211" lon="18.124207">
        <ele>46</ele>
        <time>2019-10-13T16:57:06Z</time>
      </trkpt>
      <trkpt lat="59.159259" lon="18.124195">
        <ele>46</ele>
        <time>2019-10-13T16:57:07Z</time>
      </trkpt>
      <trkpt lat="59.159305" lon="18.124173">
        <ele>46</ele>
        <time>2019-10-13T16:57:08Z</time>
      </trkpt>
      <trkpt lat="59.159346" lon="18.124143">
        <ele>45</ele>
        <time>2019-10-13T16:57:09Z</time>
      </trkpt>
      <trkpt lat="59.159385" lon="18.124105">
        <ele>45</ele>
        <time>2019-10-13T16:57:10Z</time>
      </trkpt>
      <trkpt lat="59.159423" lon="18.124056">
        <ele>0</ele>
        <time>2019-10-13T16:57:10Z</time>
      </trkpt>
      <trkpt lat="59.159459" lon="18.124012">
        <ele>45</ele>
        <time>2019-10-13T16:57:11Z</time>
      </trkpt>
      <trkpt lat="59.159495" lon="18.123967">
        <ele>45</ele>
        <time>2019-10-13T16:57:12Z</time>
      </trkpt>
      <trkpt lat="59.159532" lon="18.123922">
        <ele>45</ele>
        <time>2019-10-13T16:57:14Z</time>
      </trkpt>
      <trkpt lat="59.159569" lon="18.12388">
        <ele>45</ele>
        <time>2019-10-13T16:57:15Z</time>
      </trkpt>
      <trkpt lat="59.159605" lon="18.123845">
        <ele>45</ele>
        <time>2019-10-13T16:57:16Z</time>
      </trkpt>
      <trkpt lat="59.159641" lon="18.123819">
        <ele>45</ele>
        <time>2019-10-13T16:57:17Z</time>
      </trkpt>
      <trkpt lat="59.159679" lon="18.123812">
        <ele>44</ele>
        <time>2019-10-13T16:57:18Z</time>
      </trkpt>
      <trkpt lat="59.15971" lon="18.12382">
        <ele>45</ele>
        <time>2019-10-13T16:57:19Z</time>
      </trkpt>
      <trkpt lat="59.159735" lon="18.12384">
        <ele>45</ele>
        <time>2019-10-13T16:57:20Z</time>
      </trkpt>
      <trkpt lat="59.159753" lon="18.123862">
        <ele>45</ele>
        <time>2019-10-13T16:57:21Z</time>
      </trkpt>
      <trkpt lat="59.159773" lon="18.123898">
        <ele>45</ele>
        <time>2019-10-13T16:57:23Z</time>
      </trkpt>
      <trkpt lat="59.159799" lon="18.123934">
        <ele>45</ele>
        <time>2019-10-13T16:57:25Z</time>
      </trkpt>
      <trkpt lat="59.159826" lon="18.123961">
        <ele>45</ele>
        <time>2019-10-13T16:57:27Z</time>
      </trkpt>
      <trkpt lat="59.159841" lon="18.123982">
        <ele>45</ele>
        <time>2019-10-13T16:57:28Z</time>
      </trkpt>
      <trkpt lat="59.159856" lon="18.124006">
        <ele>45</ele>
        <time>2019-10-13T16:57:29Z</time>
      </trkpt>
      <trkpt lat="59.159872" lon="18.124033">
        <ele>0</ele>
        <time>2019-10-13T16:57:29Z</time>
      </trkpt>
      <trkpt lat="59.159894" lon="18.124062">
        <ele>45</ele>
        <time>2019-10-13T16:57:30Z</time>
      </trkpt>
      <trkpt lat="59.159915" lon="18.124092">
        <ele>45</ele>
        <time>2019-10-13T16:57:32Z</time>
      </trkpt>
      <trkpt lat="59.159933" lon="18.124117">
        <ele>0</ele>
        <time>2019-10-13T16:57:32Z</time>
      </trkpt>
      <trkpt lat="59.159947" lon="18.124144">
        <ele>45</ele>
        <time>2019-10-13T16:57:33Z</time>
      </trkpt>
      <trkpt lat="59.159964" lon="18.124183">
        <ele>45</ele>
        <time>2019-10-13T16:57:35Z</time>
      </trkpt>
      <trkpt lat="59.159991" lon="18.124228">
        <ele>45</ele>
        <time>2019-10-13T16:57:36Z</time>
      </trkpt>
      <trkpt lat="59.160019" lon="18.124276">
        <ele>45</ele>
        <time>2019-10-13T16:57:37Z</time>
      </trkpt>
      <trkpt lat="59.160059" lon="18.124318">
        <ele>44</ele>
        <time>2019-10-13T16:57:38Z</time>
      </trkpt>
      <trkpt lat="59.160097" lon="18.124363">
        <ele>44</ele>
        <time>2019-10-13T16:57:39Z</time>
      </trkpt>
      <trkpt lat="59.160132" lon="18.124405">
        <ele>44</ele>
        <time>2019-10-13T16:57:40Z</time>
      </trkpt>
      <trkpt lat="59.160178" lon="18.124437">
        <ele>44</ele>
        <time>2019-10-13T16:57:41Z</time>
      </trkpt>
      <trkpt lat="59.160219" lon="18.124444">
        <ele>44</ele>
        <time>2019-10-13T16:57:42Z</time>
      </trkpt>
      <trkpt lat="59.160256" lon="18.124423">
        <ele>43</ele>
        <time>2019-10-13T16:57:43Z</time>
      </trkpt>
      <trkpt lat="59.160295" lon="18.124397">
        <ele>43</ele>
        <time>2019-10-13T16:57:44Z</time>
      </trkpt>
      <trkpt lat="59.160334" lon="18.124365">
        <ele>0</ele>
        <time>2019-10-13T16:57:44Z</time>
      </trkpt>
      <trkpt lat="59.160365" lon="18.124324">
        <ele>43</ele>
        <time>2019-10-13T16:57:45Z</time>
      </trkpt>
      <trkpt lat="59.160398" lon="18.124277">
        <ele>43</ele>
        <time>2019-10-13T16:57:47Z</time>
      </trkpt>
      <trkpt lat="59.160425" lon="18.124233">
        <ele>43</ele>
        <time>2019-10-13T16:57:48Z</time>
      </trkpt>
      <trkpt lat="59.160453" lon="18.124205">
        <ele>0</ele>
        <time>2019-10-13T16:57:48Z</time>
      </trkpt>
      <trkpt lat="59.160483" lon="18.124184">
        <ele>43</ele>
        <time>2019-10-13T16:57:49Z</time>
      </trkpt>
      <trkpt lat="59.16051" lon="18.124173">
        <ele>43</ele>
        <time>2019-10-13T16:57:51Z</time>
      </trkpt>
      <trkpt lat="59.160538" lon="18.124158">
        <ele>43</ele>
        <time>2019-10-13T16:57:52Z</time>
      </trkpt>
      <trkpt lat="59.160565" lon="18.124132">
        <ele>43</ele>
        <time>2019-10-13T16:57:53Z</time>
      </trkpt>
      <trkpt lat="59.16059" lon="18.124085">
        <ele>43</ele>
        <time>2019-10-13T16:57:54Z</time>
      </trkpt>
      <trkpt lat="59.160617" lon="18.124028">
        <ele>43</ele>
        <time>2019-10-13T16:57:55Z</time>
      </trkpt>
      <trkpt lat="59.160649" lon="18.123961">
        <ele>43</ele>
        <time>2019-10-13T16:57:56Z</time>
      </trkpt>
      <trkpt lat="59.160684" lon="18.12389">
        <ele>43</ele>
        <time>2019-10-13T16:57:57Z</time>
      </trkpt>
      <trkpt lat="59.160732" lon="18.123826">
        <ele>0</ele>
        <time>2019-10-13T16:57:57Z</time>
      </trkpt>
      <trkpt lat="59.160784" lon="18.123773">
        <ele>43</ele>
        <time>2019-10-13T16:57:58Z</time>
      </trkpt>
      <trkpt lat="59.160829" lon="18.123741">
        <ele>43</ele>
        <time>2019-10-13T16:58:00Z</time>
      </trkpt>
      <trkpt lat="59.160873" lon="18.123736">
        <ele>43</ele>
        <time>2019-10-13T16:58:01Z</time>
      </trkpt>
      <trkpt lat="59.160917" lon="18.123748">
        <ele>43</ele>
        <time>2019-10-13T16:58:02Z</time>
      </trkpt>
      <trkpt lat="59.160959" lon="18.123772">
        <ele>43</ele>
        <time>2019-10-13T16:58:03Z</time>
      </trkpt>
      <trkpt lat="59.160992" lon="18.123812">
        <ele>43</ele>
        <time>2019-10-13T16:58:04Z</time>
      </trkpt>
      <trkpt lat="59.161019" lon="18.123872">
        <ele>43</ele>
        <time>2019-10-13T16:58:05Z</time>
      </trkpt>
      <trkpt lat="59.161046" lon="18.123948">
        <ele>43</ele>
        <time>2019-10-13T16:58:06Z</time>
      </trkpt>
      <trkpt lat="59.161072" lon="18.12402">
        <ele>43</ele>
        <time>2019-10-13T16:58:07Z</time>
      </trkpt>
      <trkpt lat="59.161093" lon="18.124089">
        <ele>0</ele>
        <time>2019-10-13T16:58:07Z</time>
      </trkpt>
      <trkpt lat="59.161109" lon="18.124156">
        <ele>43</ele>
        <time>2019-10-13T16:58:08Z</time>
      </trkpt>
      <trkpt lat="59.161128" lon="18.124211">
        <ele>0</ele>
        <time>2019-10-13T16:58:09Z</time>
      </trkpt>
      <trkpt lat="59.161145" lon="18.124249">
        <ele>43</ele>
        <time>2019-10-13T16:58:10Z</time>
      </trkpt>
      <trkpt lat="59.161159" lon="18.124289">
        <ele>43</ele>
        <time>2019-10-13T16:58:12Z</time>
      </trkpt>
      <trkpt lat="59.161173" lon="18.124334">
        <ele>43</ele>
        <time>2019-10-13T16:58:13Z</time>
      </trkpt>
      <trkpt lat="59.161184" lon="18.12438">
        <ele>43</ele>
        <time>2019-10-13T16:58:14Z</time>
      </trkpt>
      <trkpt lat="59.16119" lon="18.124428">
        <ele>43</ele>
        <time>2019-10-13T16:58:15Z</time>
      </trkpt>
      <trkpt lat="59.161188" lon="18.124482">
        <ele>43</ele>
        <time>2019-10-13T16:58:16Z</time>
      </trkpt>
      <trkpt lat="59.161178" lon="18.124526">
        <ele>43</ele>
        <time>2019-10-13T16:58:17Z</time>
      </trkpt>
      <trkpt lat="59.161159" lon="18.124578">
        <ele>43</ele>
        <time>2019-10-13T16:58:18Z</time>
      </trkpt>
      <trkpt lat="59.161136" lon="18.124629">
        <ele>43</ele>
        <time>2019-10-13T16:58:19Z</time>
      </trkpt>
      <trkpt lat="59.161115" lon="18.124672">
        <ele>43</ele>
        <time>2019-10-13T16:58:20Z</time>
      </trkpt>
      <trkpt lat="59.161092" lon="18.12472">
        <ele>43</ele>
        <time>2019-10-13T16:58:21Z</time>
      </trkpt>
      <trkpt lat="59.16107" lon="18.12477">
        <ele>43</ele>
        <time>2019-10-13T16:58:22Z</time>
      </trkpt>
      <trkpt lat="59.161048" lon="18.124823">
        <ele>43</ele>
        <time>2019-10-13T16:58:23Z</time>
      </trkpt>
      <trkpt lat="59.161031" lon="18.124877">
        <ele>44</ele>
        <time>2019-10-13T16:58:24Z</time>
      </trkpt>
      <trkpt lat="59.161022" lon="18.124937">
        <ele>44</ele>
        <time>2019-10-13T16:58:25Z</time>
      </trkpt>
      <trkpt lat="59.161015" lon="18.125002">
        <ele>0</ele>
        <time>2019-10-13T16:58:25Z</time>
      </trkpt>
      <trkpt lat="59.161006" lon="18.125062">
        <ele>44</ele>
        <time>2019-10-13T16:58:26Z</time>
      </trkpt>
      <trkpt lat="59.161001" lon="18.125122">
        <ele>44</ele>
        <time>2019-10-13T16:58:27Z</time>
      </trkpt>
      <trkpt lat="59.160999" lon="18.125178">
        <ele>44</ele>
        <time>2019-10-13T16:58:29Z</time>
      </trkpt>
      <trkpt lat="59.160999" lon="18.125234">
        <ele>44</ele>
        <time>2019-10-13T16:58:30Z</time>
      </trkpt>
      <trkpt lat="59.161" lon="18.125288">
        <ele>44</ele>
        <time>2019-10-13T16:58:31Z</time>
      </trkpt>
      <trkpt lat="59.161001" lon="18.125354">
        <ele>44</ele>
        <time>2019-10-13T16:58:32Z</time>
      </trkpt>
      <trkpt lat="59.160998" lon="18.12542">
        <ele>44</ele>
        <time>2019-10-13T16:58:33Z</time>
      </trkpt>
      <trkpt lat="59.160991" lon="18.125496">
        <ele>44</ele>
        <time>2019-10-13T16:58:34Z</time>
      </trkpt>
      <trkpt lat="59.160978" lon="18.125586">
        <ele>44</ele>
        <time>2019-10-13T16:58:35Z</time>
      </trkpt>
      <trkpt lat="59.160941" lon="18.125672">
        <ele>44</ele>
        <time>2019-10-13T16:58:36Z</time>
      </trkpt>
      <trkpt lat="59.1609" lon="18.12575">
        <ele>43</ele>
        <time>2019-10-13T16:58:37Z</time>
      </trkpt>
      <trkpt lat="59.160854" lon="18.12582">
        <ele>43</ele>
        <time>2019-10-13T16:58:38Z</time>
      </trkpt>
      <trkpt lat="59.160815" lon="18.125884">
        <ele>0</ele>
        <time>2019-10-13T16:58:38Z</time>
      </trkpt>
      <trkpt lat="59.160792" lon="18.125964">
        <ele>43</ele>
        <time>2019-10-13T16:58:39Z</time>
      </trkpt>
      <trkpt lat="59.160793" lon="18.126024">
        <ele>44</ele>
        <time>2019-10-13T16:58:41Z</time>
      </trkpt>
      <trkpt lat="59.1608" lon="18.126088">
        <ele>44</ele>
        <time>2019-10-13T16:58:42Z</time>
      </trkpt>
      <trkpt lat="59.160808" lon="18.126146">
        <ele>44</ele>
        <time>2019-10-13T16:58:43Z</time>
      </trkpt>
      <trkpt lat="59.160827" lon="18.126202">
        <ele>44</ele>
        <time>2019-10-13T16:58:44Z</time>
      </trkpt>
      <trkpt lat="59.160855" lon="18.126253">
        <ele>44</ele>
        <time>2019-10-13T16:58:45Z</time>
      </trkpt>
      <trkpt lat="59.160888" lon="18.126312">
        <ele>0</ele>
        <time>2019-10-13T16:58:45Z</time>
      </trkpt>
      <trkpt lat="59.160914" lon="18.126368">
        <ele>44</ele>
        <time>2019-10-13T16:58:46Z</time>
      </trkpt>
      <trkpt lat="59.160938" lon="18.126423">
        <ele>44</ele>
        <time>2019-10-13T16:58:48Z</time>
      </trkpt>
      <trkpt lat="59.160959" lon="18.126478">
        <ele>44</ele>
        <time>2019-10-13T16:58:49Z</time>
      </trkpt>
      <trkpt lat="59.160978" lon="18.126528">
        <ele>44</ele>
        <time>2019-10-13T16:58:50Z</time>
      </trkpt>
      <trkpt lat="59.160997" lon="18.126588">
        <ele>44</ele>
        <time>2019-10-13T16:58:51Z</time>
      </trkpt>
      <trkpt lat="59.161017" lon="18.126662">
        <ele>44</ele>
        <time>2019-10-13T16:58:52Z</time>
      </trkpt>
      <trkpt lat="59.16104" lon="18.12674">
        <ele>0</ele>
        <time>2019-10-13T16:58:52Z</time>
      </trkpt>
      <trkpt lat="59.161065" lon="18.126834">
        <ele>43</ele>
        <time>2019-10-13T16:58:53Z</time>
      </trkpt>
      <trkpt lat="59.161087" lon="18.126922">
        <ele>43</ele>
        <time>2019-10-13T16:58:55Z</time>
      </trkpt>
      <trkpt lat="59.161108" lon="18.127017">
        <ele>43</ele>
        <time>2019-10-13T16:58:56Z</time>
      </trkpt>
      <trkpt lat="59.16114" lon="18.127112">
        <ele>43</ele>
        <time>2019-10-13T16:58:57Z</time>
      </trkpt>
      <trkpt lat="59.161176" lon="18.127196">
        <ele>43</ele>
        <time>2019-10-13T16:58:58Z</time>
      </trkpt>
      <trkpt lat="59.161214" lon="18.127266">
        <ele>43</ele>
        <time>2019-10-13T16:58:59Z</time>
      </trkpt>
      <trkpt lat="59.161246" lon="18.127336">
        <ele>43</ele>
        <time>2019-10-13T16:59:00Z</time>
      </trkpt>
      <trkpt lat="59.161272" lon="18.127401">
        <ele>42</ele>
        <time>2019-10-13T16:59:01Z</time>
      </trkpt>
      <trkpt lat="59.161296" lon="18.127466">
        <ele>42</ele>
        <time>2019-10-13T16:59:02Z</time>
      </trkpt>
      <trkpt lat="59.161314" lon="18.127542">
        <ele>42</ele>
        <time>2019-10-13T16:59:02Z</time>
      </trkpt>
      <trkpt lat="59.161331" lon="18.127617">
        <ele>42</ele>
        <time>2019-10-13T16:59:03Z</time>
      </trkpt>
      <trkpt lat="59.161347" lon="18.127695">
        <ele>0</ele>
        <time>2019-10-13T16:59:04Z</time>
      </trkpt>
      <trkpt lat="59.161359" lon="18.12776">
        <ele>41</ele>
        <time>2019-10-13T16:59:05Z</time>
      </trkpt>
      <trkpt lat="59.161376" lon="18.127812">
        <ele>41</ele>
        <time>2019-10-13T16:59:07Z</time>
      </trkpt>
      <trkpt lat="59.161398" lon="18.127852">
        <ele>41</ele>
        <time>2019-10-13T16:59:08Z</time>
      </trkpt>
      <trkpt lat="59.161426" lon="18.127889">
        <ele>41</ele>
        <time>2019-10-13T16:59:09Z</time>
      </trkpt>
      <trkpt lat="59.161452" lon="18.127936">
        <ele>41</ele>
        <time>2019-10-13T16:59:10Z</time>
      </trkpt>
      <trkpt lat="59.161474" lon="18.127985">
        <ele>41</ele>
        <time>2019-10-13T16:59:11Z</time>
      </trkpt>
      <trkpt lat="59.161496" lon="18.128032">
        <ele>41</ele>
        <time>2019-10-13T16:59:12Z</time>
      </trkpt>
      <trkpt lat="59.161522" lon="18.128068">
        <ele>41</ele>
        <time>2019-10-13T16:59:13Z</time>
      </trkpt>
      <trkpt lat="59.161547" lon="18.128093">
        <ele>41</ele>
        <time>2019-10-13T16:59:14Z</time>
      </trkpt>
      <trkpt lat="59.161569" lon="18.128119">
        <ele>41</ele>
        <time>2019-10-13T16:59:15Z</time>
      </trkpt>
      <trkpt lat="59.16159" lon="18.12815">
        <ele>41</ele>
        <time>2019-10-13T16:59:16Z</time>
      </trkpt>
      <trkpt lat="59.161606" lon="18.128182">
        <ele>41</ele>
        <time>2019-10-13T16:59:17Z</time>
      </trkpt>
      <trkpt lat="59.161624" lon="18.12821">
        <ele>41</ele>
        <time>2019-10-13T16:59:18Z</time>
      </trkpt>
      <trkpt lat="59.161642" lon="18.128233">
        <ele>0</ele>
        <time>2019-10-13T16:59:18Z</time>
      </trkpt>
      <trkpt lat="59.161663" lon="18.128248">
        <ele>40</ele>
        <time>2019-10-13T16:59:19Z</time>
      </trkpt>
      <trkpt lat="59.161686" lon="18.12826">
        <ele>41</ele>
        <time>2019-10-13T16:59:21Z</time>
      </trkpt>
      <trkpt lat="59.161711" lon="18.128278">
        <ele>41</ele>
        <time>2019-10-13T16:59:22Z</time>
      </trkpt>
      <trkpt lat="59.161734" lon="18.128307">
        <ele>41</ele>
        <time>2019-10-13T16:59:23Z</time>
      </trkpt>
      <trkpt lat="59.161764" lon="18.128342">
        <ele>0</ele>
        <time>2019-10-13T16:59:23Z</time>
      </trkpt>
      <trkpt lat="59.16179" lon="18.128393">
        <ele>41</ele>
        <time>2019-10-13T16:59:24Z</time>
      </trkpt>
      <trkpt lat="59.161811" lon="18.128456">
        <ele>41</ele>
        <time>2019-10-13T16:59:26Z</time>
      </trkpt>
      <trkpt lat="59.161834" lon="18.128514">
        <ele>41</ele>
        <time>2019-10-13T16:59:27Z</time>
      </trkpt>
      <trkpt lat="59.161856" lon="18.128561">
        <ele>41</ele>
        <time>2019-10-13T16:59:28Z</time>
      </trkpt>
      <trkpt lat="59.161881" lon="18.128607">
        <ele>41</ele>
        <time>2019-10-13T16:59:29Z</time>
      </trkpt>
      <trkpt lat="59.161902" lon="18.128655">
        <ele>41</ele>
        <time>2019-10-13T16:59:30Z</time>
      </trkpt>
      <trkpt lat="59.161924" lon="18.128703">
        <ele>41</ele>
        <time>2019-10-13T16:59:31Z</time>
      </trkpt>
      <trkpt lat="59.161946" lon="18.128747">
        <ele>41</ele>
        <time>2019-10-13T16:59:32Z</time>
      </trkpt>
      <trkpt lat="59.161972" lon="18.128797">
        <ele>0</ele>
        <time>2019-10-13T16:59:32Z</time>
      </trkpt>
      <trkpt lat="59.161996" lon="18.128848">
        <ele>41</ele>
        <time>2019-10-13T16:59:33Z</time>
      </trkpt>
      <trkpt lat="59.162022" lon="18.1289">
        <ele>41</ele>
        <time>2019-10-13T16:59:35Z</time>
      </trkpt>
      <trkpt lat="59.162048" lon="18.128947">
        <ele>41</ele>
        <time>2019-10-13T16:59:36Z</time>
      </trkpt>
      <trkpt lat="59.162069" lon="18.128995">
        <ele>41</ele>
        <time>2019-10-13T16:59:37Z</time>
      </trkpt>
      <trkpt lat="59.16209" lon="18.129047">
        <ele>41</ele>
        <time>2019-10-13T16:59:38Z</time>
      </trkpt>
      <trkpt lat="59.162105" lon="18.129104">
        <ele>41</ele>
        <time>2019-10-13T16:59:39Z</time>
      </trkpt>
      <trkpt lat="59.162119" lon="18.129162">
        <ele>41</ele>
        <time>2019-10-13T16:59:40Z</time>
      </trkpt>
      <trkpt lat="59.16213" lon="18.129216">
        <ele>41</ele>
        <time>2019-10-13T16:59:41Z</time>
      </trkpt>
      <trkpt lat="59.162136" lon="18.129269">
        <ele>41</ele>
        <time>2019-10-13T16:59:42Z</time>
      </trkpt>
      <trkpt lat="59.16214" lon="18.129321">
        <ele>0</ele>
        <time>2019-10-13T16:59:42Z</time>
      </trkpt>
      <trkpt lat="59.162142" lon="18.129368">
        <ele>41</ele>
        <time>2019-10-13T16:59:43Z</time>
      </trkpt>
      <trkpt lat="59.162145" lon="18.129404">
        <ele>41</ele>
        <time>2019-10-13T16:59:45Z</time>
      </trkpt>
      <trkpt lat="59.162145" lon="18.129458">
        <ele>40</ele>
        <time>2019-10-13T16:59:47Z</time>
      </trkpt>
      <trkpt lat="59.162142" lon="18.129499">
        <ele>40</ele>
        <time>2019-10-13T16:59:49Z</time>
      </trkpt>
      <trkpt lat="59.162138" lon="18.129542">
        <ele>40</ele>
        <time>2019-10-13T16:59:51Z</time>
      </trkpt>
      <trkpt lat="59.162133" lon="18.129597">
        <ele>40</ele>
        <time>2019-10-13T16:59:53Z</time>
      </trkpt>
      <trkpt lat="59.162128" lon="18.129658">
        <ele>40</ele>
        <time>2019-10-13T16:59:55Z</time>
      </trkpt>
      <trkpt lat="59.162124" lon="18.129693">
        <ele>0</ele>
        <time>2019-10-13T16:59:55Z</time>
      </trkpt>
      <trkpt lat="59.162115" lon="18.129727">
        <ele>40</ele>
        <time>2019-10-13T16:59:56Z</time>
      </trkpt>
      <trkpt lat="59.162105" lon="18.129764">
        <ele>40</ele>
        <time>2019-10-13T16:59:58Z</time>
      </trkpt>
      <trkpt lat="59.162094" lon="18.12981">
        <ele>40</ele>
        <time>2019-10-13T16:59:59Z</time>
      </trkpt>
      <trkpt lat="59.162083" lon="18.129855">
        <ele>40</ele>
        <time>2019-10-13T17:00:00Z</time>
      </trkpt>
      <trkpt lat="59.162074" lon="18.129899">
        <ele>0</ele>
        <time>2019-10-13T17:00:00Z</time>
      </trkpt>
      <trkpt lat="59.162066" lon="18.129947">
        <ele>40</ele>
        <time>2019-10-13T17:00:01Z</time>
      </trkpt>
      <trkpt lat="59.162061" lon="18.129998">
        <ele>39</ele>
        <time>2019-10-13T17:00:02Z</time>
      </trkpt>
      <trkpt lat="59.162062" lon="18.130049">
        <ele>39</ele>
        <time>2019-10-13T17:00:04Z</time>
      </trkpt>
      <trkpt lat="59.162065" lon="18.130102">
        <ele>39</ele>
        <time>2019-10-13T17:00:05Z</time>
      </trkpt>
      <trkpt lat="59.16207" lon="18.13015">
        <ele>39</ele>
        <time>2019-10-13T17:00:06Z</time>
      </trkpt>
      <trkpt lat="59.162077" lon="18.130194">
        <ele>39</ele>
        <time>2019-10-13T17:00:07Z</time>
      </trkpt>
      <trkpt lat="59.162086" lon="18.130232">
        <ele>39</ele>
        <time>2019-10-13T17:00:08Z</time>
      </trkpt>
      <trkpt lat="59.1621" lon="18.130263">
        <ele>39</ele>
        <time>2019-10-13T17:00:09Z</time>
      </trkpt>
      <trkpt lat="59.162116" lon="18.13029">
        <ele>39</ele>
        <time>2019-10-13T17:00:10Z</time>
      </trkpt>
      <trkpt lat="59.162136" lon="18.130315">
        <ele>39</ele>
        <time>2019-10-13T17:00:11Z</time>
      </trkpt>
      <trkpt lat="59.162159" lon="18.130333">
        <ele>39</ele>
        <time>2019-10-13T17:00:12Z</time>
      </trkpt>
      <trkpt lat="59.162184" lon="18.130346">
        <ele>38</ele>
        <time>2019-10-13T17:00:13Z</time>
      </trkpt>
      <trkpt lat="59.162211" lon="18.130359">
        <ele>38</ele>
        <time>2019-10-13T17:00:14Z</time>
      </trkpt>
      <trkpt lat="59.162239" lon="18.130372">
        <ele>38</ele>
        <time>2019-10-13T17:00:15Z</time>
      </trkpt>
      <trkpt lat="59.162267" lon="18.130384">
        <ele>0</ele>
        <time>2019-10-13T17:00:15Z</time>
      </trkpt>
      <trkpt lat="59.162292" lon="18.130395">
        <ele>38</ele>
        <time>2019-10-13T17:00:16Z</time>
      </trkpt>
      <trkpt lat="59.162316" lon="18.130405">
        <ele>38</ele>
        <time>2019-10-13T17:00:18Z</time>
      </trkpt>
      <trkpt lat="59.162339" lon="18.130416">
        <ele>38</ele>
        <time>2019-10-13T17:00:19Z</time>
      </trkpt>
      <trkpt lat="59.162361" lon="18.130429">
        <ele>38</ele>
        <time>2019-10-13T17:00:20Z</time>
      </trkpt>
      <trkpt lat="59.162381" lon="18.130449">
        <ele>0</ele>
        <time>2019-10-13T17:00:20Z</time>
      </trkpt>
      <trkpt lat="59.162397" lon="18.130471">
        <ele>38</ele>
        <time>2019-10-13T17:00:21Z</time>
      </trkpt>
      <trkpt lat="59.162428" lon="18.130504">
        <ele>38</ele>
        <time>2019-10-13T17:00:24Z</time>
      </trkpt>
      <trkpt lat="59.162444" lon="18.130521">
        <ele>38</ele>
        <time>2019-10-13T17:00:25Z</time>
      </trkpt>
      <trkpt lat="59.162472" lon="18.130544">
        <ele>38</ele>
        <time>2019-10-13T17:00:27Z</time>
      </trkpt>
      <trkpt lat="59.162491" lon="18.130569">
        <ele>38</ele>
        <time>2019-10-13T17:00:29Z</time>
      </trkpt>
      <trkpt lat="59.162499" lon="18.130575">
        <ele>0</ele>
        <time>2019-10-13T17:00:33Z</time>
      </trkpt>
      <trkpt lat="59.162524" lon="18.130552">
        <ele>38</ele>
        <time>2019-10-13T17:01:16Z</time>
      </trkpt>
      <trkpt lat="59.162501" lon="18.130567">
        <ele>0</ele>
        <time>2019-10-13T17:01:23Z</time>
      </trkpt>
      <trkpt lat="59.162523" lon="18.130636">
        <ele>38</ele>
        <time>2019-10-13T17:04:54Z</time>
      </trkpt>
      <trkpt lat="59.162526" lon="18.130657">
        <ele>0</ele>
        <time>2019-10-13T17:05:01Z</time>
      </trkpt>
      <trkpt lat="59.162503" lon="18.130584">
        <ele>37</ele>
        <time>2019-10-13T17:12:32Z</time>
      </trkpt>
      <trkpt lat="59.162489" lon="18.130589">
        <ele>0</ele>
        <time>2019-10-13T17:12:37Z</time>
      </trkpt>
      <trkpt lat="59.162534" lon="18.130592">
        <ele>37</ele>
        <time>2019-10-13T17:16:44Z</time>
      </trkpt>
      <trkpt lat="59.162546" lon="18.130606">
        <ele>37</ele>
        <time>2019-10-13T17:16:46Z</time>
      </trkpt>
      <trkpt lat="59.162575" lon="18.130636">
        <ele>37</ele>
        <time>2019-10-13T17:16:48Z</time>
      </trkpt>
      <trkpt lat="59.162594" lon="18.130655">
        <ele>37</ele>
        <time>2019-10-13T17:16:49Z</time>
      </trkpt>
      <trkpt lat="59.162612" lon="18.13067">
        <ele>37</ele>
        <time>2019-10-13T17:16:50Z</time>
      </trkpt>
      <trkpt lat="59.16263" lon="18.130682">
        <ele>37</ele>
        <time>2019-10-13T17:16:51Z</time>
      </trkpt>
      <trkpt lat="59.162654" lon="18.1307">
        <ele>37</ele>
        <time>2019-10-13T17:16:52Z</time>
      </trkpt>
      <trkpt lat="59.16268" lon="18.130715">
        <ele>37</ele>
        <time>2019-10-13T17:16:53Z</time>
      </trkpt>
      <trkpt lat="59.162704" lon="18.130723">
        <ele>37</ele>
        <time>2019-10-13T17:16:54Z</time>
      </trkpt>
      <trkpt lat="59.162727" lon="18.130732">
        <ele>37</ele>
        <time>2019-10-13T17:16:55Z</time>
      </trkpt>
      <trkpt lat="59.162755" lon="18.130738">
        <ele>37</ele>
        <time>2019-10-13T17:16:56Z</time>
      </trkpt>
      <trkpt lat="59.162783" lon="18.130743">
        <ele>0</ele>
        <time>2019-10-13T17:16:56Z</time>
      </trkpt>
      <trkpt lat="59.162809" lon="18.130748">
        <ele>37</ele>
        <time>2019-10-13T17:16:57Z</time>
      </trkpt>
      <trkpt lat="59.162837" lon="18.130751">
        <ele>37</ele>
        <time>2019-10-13T17:16:59Z</time>
      </trkpt>
      <trkpt lat="59.162865" lon="18.130754">
        <ele>37</ele>
        <time>2019-10-13T17:17:00Z</time>
      </trkpt>
      <trkpt lat="59.162889" lon="18.130758">
        <ele>37</ele>
        <time>2019-10-13T17:17:01Z</time>
      </trkpt>
      <trkpt lat="59.162916" lon="18.130762">
        <ele>37</ele>
        <time>2019-10-13T17:17:02Z</time>
      </trkpt>
      <trkpt lat="59.162951" lon="18.130764">
        <ele>36</ele>
        <time>2019-10-13T17:17:02Z</time>
      </trkpt>
      <trkpt lat="59.162987" lon="18.130765">
        <ele>37</ele>
        <time>2019-10-13T17:17:03Z</time>
      </trkpt>
      <trkpt lat="59.16302" lon="18.130764">
        <ele>37</ele>
        <time>2019-10-13T17:17:05Z</time>
      </trkpt>
      <trkpt lat="59.163051" lon="18.13076">
        <ele>37</ele>
        <time>2019-10-13T17:17:06Z</time>
      </trkpt>
      <trkpt lat="59.16308" lon="18.130759">
        <ele>37</ele>
        <time>2019-10-13T17:17:07Z</time>
      </trkpt>
      <trkpt lat="59.163109" lon="18.130761">
        <ele>37</ele>
        <time>2019-10-13T17:17:08Z</time>
      </trkpt>
      <trkpt lat="59.163135" lon="18.130763">
        <ele>37</ele>
        <time>2019-10-13T17:17:09Z</time>
      </trkpt>
      <trkpt lat="59.16316" lon="18.130766">
        <ele>37</ele>
        <time>2019-10-13T17:17:10Z</time>
      </trkpt>
      <trkpt lat="59.163183" lon="18.130772">
        <ele>37</ele>
        <time>2019-10-13T17:17:11Z</time>
      </trkpt>
      <trkpt lat="59.163207" lon="18.130779">
        <ele>37</ele>
        <time>2019-10-13T17:17:12Z</time>
      </trkpt>
      <trkpt lat="59.163233" lon="18.130787">
        <ele>37</ele>
        <time>2019-10-13T17:17:13Z</time>
      </trkpt>
      <trkpt lat="59.163258" lon="18.130795">
        <ele>0</ele>
        <time>2019-10-13T17:17:13Z</time>
      </trkpt>
      <trkpt lat="59.163285" lon="18.130806">
        <ele>37</ele>
        <time>2019-10-13T17:17:14Z</time>
      </trkpt>
      <trkpt lat="59.163313" lon="18.13082">
        <ele>37</ele>
        <time>2019-10-13T17:17:16Z</time>
      </trkpt>
      <trkpt lat="59.16334" lon="18.13084">
        <ele>37</ele>
        <time>2019-10-13T17:17:17Z</time>
      </trkpt>
      <trkpt lat="59.163365" lon="18.130865">
        <ele>37</ele>
        <time>2019-10-13T17:17:18Z</time>
      </trkpt>
      <trkpt lat="59.163388" lon="18.130893">
        <ele>37</ele>
        <time>2019-10-13T17:17:19Z</time>
      </trkpt>
      <trkpt lat="59.163409" lon="18.130922">
        <ele>37</ele>
        <time>2019-10-13T17:17:20Z</time>
      </trkpt>
      <trkpt lat="59.16343" lon="18.13095">
        <ele>37</ele>
        <time>2019-10-13T17:17:21Z</time>
      </trkpt>
      <trkpt lat="59.163451" lon="18.130975">
        <ele>0</ele>
        <time>2019-10-13T17:17:21Z</time>
      </trkpt>
      <trkpt lat="59.163471" lon="18.130999">
        <ele>37</ele>
        <time>2019-10-13T17:17:22Z</time>
      </trkpt>
      <trkpt lat="59.163493" lon="18.131023">
        <ele>37</ele>
        <time>2019-10-13T17:17:24Z</time>
      </trkpt>
      <trkpt lat="59.163516" lon="18.131046">
        <ele>37</ele>
        <time>2019-10-13T17:17:25Z</time>
      </trkpt>
      <trkpt lat="59.163538" lon="18.131067">
        <ele>37</ele>
        <time>2019-10-13T17:17:26Z</time>
      </trkpt>
      <trkpt lat="59.16356" lon="18.131087">
        <ele>37</ele>
        <time>2019-10-13T17:17:27Z</time>
      </trkpt>
      <trkpt lat="59.163582" lon="18.131102">
        <ele>37</ele>
        <time>2019-10-13T17:17:28Z</time>
      </trkpt>
      <trkpt lat="59.163602" lon="18.131112">
        <ele>37</ele>
        <time>2019-10-13T17:17:29Z</time>
      </trkpt>
      <trkpt lat="59.163619" lon="18.131122">
        <ele>37</ele>
        <time>2019-10-13T17:17:30Z</time>
      </trkpt>
      <trkpt lat="59.16365" lon="18.131146">
        <ele>37</ele>
        <time>2019-10-13T17:17:32Z</time>
      </trkpt>
      <trkpt lat="59.163686" lon="18.131174">
        <ele>37</ele>
        <time>2019-10-13T17:17:34Z</time>
      </trkpt>
      <trkpt lat="59.163703" lon="18.131187">
        <ele>37</ele>
        <time>2019-10-13T17:17:35Z</time>
      </trkpt>
      <trkpt lat="59.163721" lon="18.131199">
        <ele>37</ele>
        <time>2019-10-13T17:17:36Z</time>
      </trkpt>
      <trkpt lat="59.163742" lon="18.131217">
        <ele>0</ele>
        <time>2019-10-13T17:17:36Z</time>
      </trkpt>
      <trkpt lat="59.163764" lon="18.131232">
        <ele>37</ele>
        <time>2019-10-13T17:17:37Z</time>
      </trkpt>
      <trkpt lat="59.163783" lon="18.131241">
        <ele>37</ele>
        <time>2019-10-13T17:17:39Z</time>
      </trkpt>
      <trkpt lat="59.163803" lon="18.131248">
        <ele>37</ele>
        <time>2019-10-13T17:17:40Z</time>
      </trkpt>
      <trkpt lat="59.163827" lon="18.131257">
        <ele>0</ele>
        <time>2019-10-13T17:17:40Z</time>
      </trkpt>
      <trkpt lat="59.163849" lon="18.13127">
        <ele>37</ele>
        <time>2019-10-13T17:17:41Z</time>
      </trkpt>
      <trkpt lat="59.163869" lon="18.131286">
        <ele>37</ele>
        <time>2019-10-13T17:17:43Z</time>
      </trkpt>
      <trkpt lat="59.16389" lon="18.131304">
        <ele>37</ele>
        <time>2019-10-13T17:17:44Z</time>
      </trkpt>
      <trkpt lat="59.163911" lon="18.131323">
        <ele>37</ele>
        <time>2019-10-13T17:17:45Z</time>
      </trkpt>
      <trkpt lat="59.163931" lon="18.131343">
        <ele>37</ele>
        <time>2019-10-13T17:17:46Z</time>
      </trkpt>
      <trkpt lat="59.16395" lon="18.131363">
        <ele>37</ele>
        <time>2019-10-13T17:17:47Z</time>
      </trkpt>
      <trkpt lat="59.163969" lon="18.13138">
        <ele>37</ele>
        <time>2019-10-13T17:17:48Z</time>
      </trkpt>
      <trkpt lat="59.163988" lon="18.131399">
        <ele>37</ele>
        <time>2019-10-13T17:17:49Z</time>
      </trkpt>
      <trkpt lat="59.164006" lon="18.131423">
        <ele>37</ele>
        <time>2019-10-13T17:17:50Z</time>
      </trkpt>
      <trkpt lat="59.164022" lon="18.131453">
        <ele>37</ele>
        <time>2019-10-13T17:17:51Z</time>
      </trkpt>
      <trkpt lat="59.164037" lon="18.131482">
        <ele>37</ele>
        <time>2019-10-13T17:17:52Z</time>
      </trkpt>
      <trkpt lat="59.164053" lon="18.13151">
        <ele>37</ele>
        <time>2019-10-13T17:17:53Z</time>
      </trkpt>
      <trkpt lat="59.164069" lon="18.131539">
        <ele>37</ele>
        <time>2019-10-13T17:17:54Z</time>
      </trkpt>
      <trkpt lat="59.164083" lon="18.131567">
        <ele>37</ele>
        <time>2019-10-13T17:17:55Z</time>
      </trkpt>
      <trkpt lat="59.164097" lon="18.131596">
        <ele>37</ele>
        <time>2019-10-13T17:17:56Z</time>
      </trkpt>
      <trkpt lat="59.164111" lon="18.131626">
        <ele>38</ele>
        <time>2019-10-13T17:17:57Z</time>
      </trkpt>
      <trkpt lat="59.164124" lon="18.131656">
        <ele>38</ele>
        <time>2019-10-13T17:17:58Z</time>
      </trkpt>
      <trkpt lat="59.16414" lon="18.131685">
        <ele>38</ele>
        <time>2019-10-13T17:17:59Z</time>
      </trkpt>
      <trkpt lat="59.164154" lon="18.131715">
        <ele>0</ele>
        <time>2019-10-13T17:17:59Z</time>
      </trkpt>
      <trkpt lat="59.164173" lon="18.131767">
        <ele>38</ele>
        <time>2019-10-13T17:18:02Z</time>
      </trkpt>
      <trkpt lat="59.164185" lon="18.131805">
        <ele>38</ele>
        <time>2019-10-13T17:18:04Z</time>
      </trkpt>
      <trkpt lat="59.164199" lon="18.131845">
        <ele>38</ele>
        <time>2019-10-13T17:18:06Z</time>
      </trkpt>
      <trkpt lat="59.164213" lon="18.131892">
        <ele>39</ele>
        <time>2019-10-13T17:18:08Z</time>
      </trkpt>
      <trkpt lat="59.164224" lon="18.13195">
        <ele>39</ele>
        <time>2019-10-13T17:18:10Z</time>
      </trkpt>
      <trkpt lat="59.164228" lon="18.132014">
        <ele>39</ele>
        <time>2019-10-13T17:18:12Z</time>
      </trkpt>
      <trkpt lat="59.164227" lon="18.13205">
        <ele>39</ele>
        <time>2019-10-13T17:18:13Z</time>
      </trkpt>
      <trkpt lat="59.164227" lon="18.132095">
        <ele>39</ele>
        <time>2019-10-13T17:18:14Z</time>
      </trkpt>
      <trkpt lat="59.164228" lon="18.132145">
        <ele>39</ele>
        <time>2019-10-13T17:18:15Z</time>
      </trkpt>
      <trkpt lat="59.164231" lon="18.132198">
        <ele>39</ele>
        <time>2019-10-13T17:18:16Z</time>
      </trkpt>
      <trkpt lat="59.164233" lon="18.132247">
        <ele>39</ele>
        <time>2019-10-13T17:18:17Z</time>
      </trkpt>
      <trkpt lat="59.164236" lon="18.132292">
        <ele>39</ele>
        <time>2019-10-13T17:18:18Z</time>
      </trkpt>
      <trkpt lat="59.16424" lon="18.132332">
        <ele>0</ele>
        <time>2019-10-13T17:18:18Z</time>
      </trkpt>
      <trkpt lat="59.164247" lon="18.132368">
        <ele>39</ele>
        <time>2019-10-13T17:18:19Z</time>
      </trkpt>
      <trkpt lat="59.16426" lon="18.132398">
        <ele>40</ele>
        <time>2019-10-13T17:18:21Z</time>
      </trkpt>
      <trkpt lat="59.164276" lon="18.132425">
        <ele>40</ele>
        <time>2019-10-13T17:18:22Z</time>
      </trkpt>
      <trkpt lat="59.164293" lon="18.132446">
        <ele>40</ele>
        <time>2019-10-13T17:18:23Z</time>
      </trkpt>
      <trkpt lat="59.164307" lon="18.132469">
        <ele>40</ele>
        <time>2019-10-13T17:18:24Z</time>
      </trkpt>
      <trkpt lat="59.164334" lon="18.132507">
        <ele>40</ele>
        <time>2019-10-13T17:18:26Z</time>
      </trkpt>
      <trkpt lat="59.16436" lon="18.132541">
        <ele>0</ele>
        <time>2019-10-13T17:18:27Z</time>
      </trkpt>
      <trkpt lat="59.164395" lon="18.132562">
        <ele>40</ele>
        <time>2019-10-13T17:18:30Z</time>
      </trkpt>
      <trkpt lat="59.164418" lon="18.13257">
        <ele>40</ele>
        <time>2019-10-13T17:18:31Z</time>
      </trkpt>
      <trkpt lat="59.164445" lon="18.13258">
        <ele>40</ele>
        <time>2019-10-13T17:18:32Z</time>
      </trkpt>
      <trkpt lat="59.164474" lon="18.132588">
        <ele>40</ele>
        <time>2019-10-13T17:18:33Z</time>
      </trkpt>
      <trkpt lat="59.164503" lon="18.132594">
        <ele>40</ele>
        <time>2019-10-13T17:18:34Z</time>
      </trkpt>
      <trkpt lat="59.164528" lon="18.132598">
        <ele>40</ele>
        <time>2019-10-13T17:18:35Z</time>
      </trkpt>
      <trkpt lat="59.164551" lon="18.132603">
        <ele>40</ele>
        <time>2019-10-13T17:18:36Z</time>
      </trkpt>
      <trkpt lat="59.16457" lon="18.132611">
        <ele>40</ele>
        <time>2019-10-13T17:18:37Z</time>
      </trkpt>
      <trkpt lat="59.164593" lon="18.132616">
        <ele>0</ele>
        <time>2019-10-13T17:18:37Z</time>
      </trkpt>
      <trkpt lat="59.164612" lon="18.132622">
        <ele>40</ele>
        <time>2019-10-13T17:18:38Z</time>
      </trkpt>
      <trkpt lat="59.164632" lon="18.132624">
        <ele>41</ele>
        <time>2019-10-13T17:18:40Z</time>
      </trkpt>
      <trkpt lat="59.164651" lon="18.132623">
        <ele>41</ele>
        <time>2019-10-13T17:18:41Z</time>
      </trkpt>
      <trkpt lat="59.164671" lon="18.132628">
        <ele>41</ele>
        <time>2019-10-13T17:18:42Z</time>
      </trkpt>
      <trkpt lat="59.164693" lon="18.132639">
        <ele>41</ele>
        <time>2019-10-13T17:18:43Z</time>
      </trkpt>
      <trkpt lat="59.164714" lon="18.132654">
        <ele>41</ele>
        <time>2019-10-13T17:18:44Z</time>
      </trkpt>
      <trkpt lat="59.164734" lon="18.132669">
        <ele>41</ele>
        <time>2019-10-13T17:18:45Z</time>
      </trkpt>
      <trkpt lat="59.164757" lon="18.132683">
        <ele>41</ele>
        <time>2019-10-13T17:18:46Z</time>
      </trkpt>
      <trkpt lat="59.164778" lon="18.132694">
        <ele>41</ele>
        <time>2019-10-13T17:18:47Z</time>
      </trkpt>
      <trkpt lat="59.1648" lon="18.132704">
        <ele>41</ele>
        <time>2019-10-13T17:18:48Z</time>
      </trkpt>
      <trkpt lat="59.164821" lon="18.132713">
        <ele>41</ele>
        <time>2019-10-13T17:18:49Z</time>
      </trkpt>
      <trkpt lat="59.16484" lon="18.132722">
        <ele>41</ele>
        <time>2019-10-13T17:18:50Z</time>
      </trkpt>
      <trkpt lat="59.164861" lon="18.132733">
        <ele>0</ele>
        <time>2019-10-13T17:18:50Z</time>
      </trkpt>
      <trkpt lat="59.164894" lon="18.13276">
        <ele>42</ele>
        <time>2019-10-13T17:18:53Z</time>
      </trkpt>
      <trkpt lat="59.164913" lon="18.132771">
        <ele>43</ele>
        <time>2019-10-13T17:18:54Z</time>
      </trkpt>
      <trkpt lat="59.164941" lon="18.132754">
        <ele>42</ele>
        <time>2019-10-13T17:18:56Z</time>
      </trkpt>
      <trkpt lat="59.164969" lon="18.132727">
        <ele>42</ele>
        <time>2019-10-13T17:18:57Z</time>
      </trkpt>
      <trkpt lat="59.165008" lon="18.132706">
        <ele>42</ele>
        <time>2019-10-13T17:19:00Z</time>
      </trkpt>
      <trkpt lat="59.165035" lon="18.132704">
        <ele>42</ele>
        <time>2019-10-13T17:19:01Z</time>
      </trkpt>
      <trkpt lat="59.165053" lon="18.132698">
        <ele>42</ele>
        <time>2019-10-13T17:19:02Z</time>
      </trkpt>
      <trkpt lat="59.165072" lon="18.132705">
        <ele>42</ele>
        <time>2019-10-13T17:19:03Z</time>
      </trkpt>
      <trkpt lat="59.165092" lon="18.132737">
        <ele>42</ele>
        <time>2019-10-13T17:19:05Z</time>
      </trkpt>
      <trkpt lat="59.165092" lon="18.132788">
        <ele>42</ele>
        <time>2019-10-13T17:19:08Z</time>
      </trkpt>
      <trkpt lat="59.16507" lon="18.132847">
        <ele>42</ele>
        <time>2019-10-13T17:19:10Z</time>
      </trkpt>
      <trkpt lat="59.165049" lon="18.132915">
        <ele>42</ele>
        <time>2019-10-13T17:19:12Z</time>
      </trkpt>
      <trkpt lat="59.165034" lon="18.132944">
        <ele>41</ele>
        <time>2019-10-13T17:19:13Z</time>
      </trkpt>
      <trkpt lat="59.165019" lon="18.132973">
        <ele>41</ele>
        <time>2019-10-13T17:19:14Z</time>
      </trkpt>
      <trkpt lat="59.165014" lon="18.132927">
        <ele>41</ele>
        <time>2019-10-13T17:19:18Z</time>
      </trkpt>
      <trkpt lat="59.165011" lon="18.13288">
        <ele>41</ele>
        <time>2019-10-13T17:19:20Z</time>
      </trkpt>
      <trkpt lat="59.164983" lon="18.132851">
        <ele>42</ele>
        <time>2019-10-13T17:19:22Z</time>
      </trkpt>
      <trkpt lat="59.164972" lon="18.132823">
        <ele>42</ele>
        <time>2019-10-13T17:19:24Z</time>
      </trkpt>
      <trkpt lat="59.164965" lon="18.132786">
        <ele>43</ele>
        <time>2019-10-13T17:19:27Z</time>
      </trkpt>
      <trkpt lat="59.164976" lon="18.132732">
        <ele>43</ele>
        <time>2019-10-13T17:19:33Z</time>
      </trkpt>
      <trkpt lat="59.164993" lon="18.132711">
        <ele>43</ele>
        <time>2019-10-13T17:19:34Z</time>
      </trkpt>
      <trkpt lat="59.165029" lon="18.132682">
        <ele>43</ele>
        <time>2019-10-13T17:19:35Z</time>
      </trkpt>
      <trkpt lat="59.165051" lon="18.132689">
        <ele>44</ele>
        <time>2019-10-13T17:19:37Z</time>
      </trkpt>
      <trkpt lat="59.165076" lon="18.13271">
        <ele>44</ele>
        <time>2019-10-13T17:19:38Z</time>
      </trkpt>
      <trkpt lat="59.165091" lon="18.132741">
        <ele>45</ele>
        <time>2019-10-13T17:19:39Z</time>
      </trkpt>
      <trkpt lat="59.165101" lon="18.132774">
        <ele>45</ele>
        <time>2019-10-13T17:19:40Z</time>
      </trkpt>
      <trkpt lat="59.16511" lon="18.132836">
        <ele>46</ele>
        <time>2019-10-13T17:19:42Z</time>
      </trkpt>
      <trkpt lat="59.165096" lon="18.132906">
        <ele>46</ele>
        <time>2019-10-13T17:19:44Z</time>
      </trkpt>
      <trkpt lat="59.165076" lon="18.132937">
        <ele>46</ele>
        <time>2019-10-13T17:19:45Z</time>
      </trkpt>
      <trkpt lat="59.165046" lon="18.132956">
        <ele>46</ele>
        <time>2019-10-13T17:19:46Z</time>
      </trkpt>
      <trkpt lat="59.16502" lon="18.132957">
        <ele>46</ele>
        <time>2019-10-13T17:19:47Z</time>
      </trkpt>
      <trkpt lat="59.164997" lon="18.132945">
        <ele>47</ele>
        <time>2019-10-13T17:19:48Z</time>
      </trkpt>
      <trkpt lat="59.164978" lon="18.132933">
        <ele>47</ele>
        <time>2019-10-13T17:19:49Z</time>
      </trkpt>
      <trkpt lat="59.164947" lon="18.132912">
        <ele>47</ele>
        <time>2019-10-13T17:19:51Z</time>
      </trkpt>
      <trkpt lat="59.164928" lon="18.132897">
        <ele>47</ele>
        <time>2019-10-13T17:19:53Z</time>
      </trkpt>
      <trkpt lat="59.164909" lon="18.132908">
        <ele>0</ele>
        <time>2019-10-13T17:19:57Z</time>
      </trkpt>
      <trkpt lat="59.164893" lon="18.132965">
        <ele>46</ele>
        <time>2019-10-13T17:20:00Z</time>
      </trkpt>
      <trkpt lat="59.164824" lon="18.133013">
        <ele>43</ele>
        <time>2019-10-13T17:20:05Z</time>
      </trkpt>
      <trkpt lat="59.164813" lon="18.13305">
        <ele>42</ele>
        <time>2019-10-13T17:20:07Z</time>
      </trkpt>
      <trkpt lat="59.164796" lon="18.133264">
        <ele>38</ele>
        <time>2019-10-13T17:20:11Z</time>
      </trkpt>
      <trkpt lat="59.164791" lon="18.133346">
        <ele>37</ele>
        <time>2019-10-13T17:20:13Z</time>
      </trkpt>
      <trkpt lat="59.164786" lon="18.133384">
        <ele>37</ele>
        <time>2019-10-13T17:20:14Z</time>
      </trkpt>
      <trkpt lat="59.164778" lon="18.133422">
        <ele>36</ele>
        <time>2019-10-13T17:20:15Z</time>
      </trkpt>
      <trkpt lat="59.16477" lon="18.133468">
        <ele>36</ele>
        <time>2019-10-13T17:20:16Z</time>
      </trkpt>
      <trkpt lat="59.164762" lon="18.133514">
        <ele>35</ele>
        <time>2019-10-13T17:20:17Z</time>
      </trkpt>
      <trkpt lat="59.164752" lon="18.133564">
        <ele>35</ele>
        <time>2019-10-13T17:20:18Z</time>
      </trkpt>
      <trkpt lat="59.164743" lon="18.133597">
        <ele>0</ele>
        <time>2019-10-13T17:20:18Z</time>
      </trkpt>
      <trkpt lat="59.164734" lon="18.13363">
        <ele>34</ele>
        <time>2019-10-13T17:20:19Z</time>
      </trkpt>
      <trkpt lat="59.16472" lon="18.133714">
        <ele>34</ele>
        <time>2019-10-13T17:20:22Z</time>
      </trkpt>
      <trkpt lat="59.16471" lon="18.133949">
        <ele>36</ele>
        <time>2019-10-13T17:20:26Z</time>
      </trkpt>
      <trkpt lat="59.164697" lon="18.133985">
        <ele>36</ele>
        <time>2019-10-13T17:20:27Z</time>
      </trkpt>
      <trkpt lat="59.164689" lon="18.134021">
        <ele>38</ele>
        <time>2019-10-13T17:20:30Z</time>
      </trkpt>
      <trkpt lat="59.164683" lon="18.134071">
        <ele>40</ele>
        <time>2019-10-13T17:20:32Z</time>
      </trkpt>
      <trkpt lat="59.164679" lon="18.134119">
        <ele>42</ele>
        <time>2019-10-13T17:20:34Z</time>
      </trkpt>
      <trkpt lat="59.164693" lon="18.134155">
        <ele>44</ele>
        <time>2019-10-13T17:20:36Z</time>
      </trkpt>
      <trkpt lat="59.1647" lon="18.134209">
        <ele>0</ele>
        <time>2019-10-13T17:20:37Z</time>
      </trkpt>
      <trkpt lat="59.164696" lon="18.134255">
        <ele>45</ele>
        <time>2019-10-13T17:20:38Z</time>
      </trkpt>
      <trkpt lat="59.164687" lon="18.134303">
        <ele>46</ele>
        <time>2019-10-13T17:20:40Z</time>
      </trkpt>
      <trkpt lat="59.164673" lon="18.134339">
        <ele>46</ele>
        <time>2019-10-13T17:20:41Z</time>
      </trkpt>
      <trkpt lat="59.164661" lon="18.134371">
        <ele>46</ele>
        <time>2019-10-13T17:20:42Z</time>
      </trkpt>
      <trkpt lat="59.164646" lon="18.134418">
        <ele>47</ele>
        <time>2019-10-13T17:20:44Z</time>
      </trkpt>
      <trkpt lat="59.164636" lon="18.134446">
        <ele>48</ele>
        <time>2019-10-13T17:20:46Z</time>
      </trkpt>
      <trkpt lat="59.164615" lon="18.134472">
        <ele>49</ele>
        <time>2019-10-13T17:20:49Z</time>
      </trkpt>
      <trkpt lat="59.164612" lon="18.13446">
        <ele>0</ele>
        <time>2019-10-13T17:20:57Z</time>
      </trkpt>
      <trkpt lat="59.164582" lon="18.134548">
        <ele>53</ele>
        <time>2019-10-13T17:21:06Z</time>
      </trkpt>
      <trkpt lat="59.164577" lon="18.134599">
        <ele>54</ele>
        <time>2019-10-13T17:21:09Z</time>
      </trkpt>
      <trkpt lat="59.164573" lon="18.134648">
        <ele>54</ele>
        <time>2019-10-13T17:21:11Z</time>
      </trkpt>
      <trkpt lat="59.16457" lon="18.134709">
        <ele>54</ele>
        <time>2019-10-13T17:21:13Z</time>
      </trkpt>
      <trkpt lat="59.16457" lon="18.134745">
        <ele>55</ele>
        <time>2019-10-13T17:21:14Z</time>
      </trkpt>
      <trkpt lat="59.16456" lon="18.134805">
        <ele>55</ele>
        <time>2019-10-13T17:21:16Z</time>
      </trkpt>
      <trkpt lat="59.164538" lon="18.13484">
        <ele>54</ele>
        <time>2019-10-13T17:21:17Z</time>
      </trkpt>
      <trkpt lat="59.164507" lon="18.13484">
        <ele>54</ele>
        <time>2019-10-13T17:21:20Z</time>
      </trkpt>
      <trkpt lat="59.164486" lon="18.134839">
        <ele>54</ele>
        <time>2019-10-13T17:21:21Z</time>
      </trkpt>
      <trkpt lat="59.164462" lon="18.13484">
        <ele>54</ele>
        <time>2019-10-13T17:21:22Z</time>
      </trkpt>
      <trkpt lat="59.164438" lon="18.134844">
        <ele>53</ele>
        <time>2019-10-13T17:21:23Z</time>
      </trkpt>
      <trkpt lat="59.164418" lon="18.134845">
        <ele>53</ele>
        <time>2019-10-13T17:21:24Z</time>
      </trkpt>
      <trkpt lat="59.164398" lon="18.134845">
        <ele>0</ele>
        <time>2019-10-13T17:21:24Z</time>
      </trkpt>
      <trkpt lat="59.16438" lon="18.134846">
        <ele>53</ele>
        <time>2019-10-13T17:21:25Z</time>
      </trkpt>
      <trkpt lat="59.16436" lon="18.134846">
        <ele>53</ele>
        <time>2019-10-13T17:21:27Z</time>
      </trkpt>
      <trkpt lat="59.164337" lon="18.134846">
        <ele>53</ele>
        <time>2019-10-13T17:21:28Z</time>
      </trkpt>
      <trkpt lat="59.164312" lon="18.134844">
        <ele>53</ele>
        <time>2019-10-13T17:21:29Z</time>
      </trkpt>
      <trkpt lat="59.164286" lon="18.13484">
        <ele>53</ele>
        <time>2019-10-13T17:21:30Z</time>
      </trkpt>
      <trkpt lat="59.164259" lon="18.134835">
        <ele>53</ele>
        <time>2019-10-13T17:21:31Z</time>
      </trkpt>
      <trkpt lat="59.164233" lon="18.134829">
        <ele>52</ele>
        <time>2019-10-13T17:21:32Z</time>
      </trkpt>
      <trkpt lat="59.164208" lon="18.134822">
        <ele>52</ele>
        <time>2019-10-13T17:21:33Z</time>
      </trkpt>
      <trkpt lat="59.164183" lon="18.134807">
        <ele>52</ele>
        <time>2019-10-13T17:21:34Z</time>
      </trkpt>
      <trkpt lat="59.16416" lon="18.134775">
        <ele>52</ele>
        <time>2019-10-13T17:21:35Z</time>
      </trkpt>
      <trkpt lat="59.164143" lon="18.134726">
        <ele>52</ele>
        <time>2019-10-13T17:21:36Z</time>
      </trkpt>
      <trkpt lat="59.164135" lon="18.134671">
        <ele>0</ele>
        <time>2019-10-13T17:21:36Z</time>
      </trkpt>
      <trkpt lat="59.164136" lon="18.134618">
        <ele>52</ele>
        <time>2019-10-13T17:21:37Z</time>
      </trkpt>
      <trkpt lat="59.164139" lon="18.134562">
        <ele>52</ele>
        <time>2019-10-13T17:21:39Z</time>
      </trkpt>
      <trkpt lat="59.164136" lon="18.1345">
        <ele>52</ele>
        <time>2019-10-13T17:21:40Z</time>
      </trkpt>
      <trkpt lat="59.164127" lon="18.134431">
        <ele>52</ele>
        <time>2019-10-13T17:21:41Z</time>
      </trkpt>
      <trkpt lat="59.164113" lon="18.134358">
        <ele>52</ele>
        <time>2019-10-13T17:21:42Z</time>
      </trkpt>
      <trkpt lat="59.164102" lon="18.134284">
        <ele>52</ele>
        <time>2019-10-13T17:21:43Z</time>
      </trkpt>
      <trkpt lat="59.164091" lon="18.134213">
        <ele>0</ele>
        <time>2019-10-13T17:21:43Z</time>
      </trkpt>
      <trkpt lat="59.164079" lon="18.134152">
        <ele>52</ele>
        <time>2019-10-13T17:21:44Z</time>
      </trkpt>
      <trkpt lat="59.164064" lon="18.134093">
        <ele>52</ele>
        <time>2019-10-13T17:21:46Z</time>
      </trkpt>
      <trkpt lat="59.164049" lon="18.134027">
        <ele>52</ele>
        <time>2019-10-13T17:21:47Z</time>
      </trkpt>
      <trkpt lat="59.164035" lon="18.133954">
        <ele>52</ele>
        <time>2019-10-13T17:21:48Z</time>
      </trkpt>
      <trkpt lat="59.164018" lon="18.133876">
        <ele>52</ele>
        <time>2019-10-13T17:21:49Z</time>
      </trkpt>
      <trkpt lat="59.164003" lon="18.133791">
        <ele>51</ele>
        <time>2019-10-13T17:21:50Z</time>
      </trkpt>
      <trkpt lat="59.163998" lon="18.133697">
        <ele>0</ele>
        <time>2019-10-13T17:21:50Z</time>
      </trkpt>
      <trkpt lat="59.164014" lon="18.133603">
        <ele>51</ele>
        <time>2019-10-13T17:21:51Z</time>
      </trkpt>
      <trkpt lat="59.16405" lon="18.13352">
        <ele>51</ele>
        <time>2019-10-13T17:21:53Z</time>
      </trkpt>
      <trkpt lat="59.164098" lon="18.133455">
        <ele>50</ele>
        <time>2019-10-13T17:21:54Z</time>
      </trkpt>
      <trkpt lat="59.164156" lon="18.133409">
        <ele>50</ele>
        <time>2019-10-13T17:21:55Z</time>
      </trkpt>
      <trkpt lat="59.16422" lon="18.133372">
        <ele>50</ele>
        <time>2019-10-13T17:21:56Z</time>
      </trkpt>
      <trkpt lat="59.16429" lon="18.133343">
        <ele>49</ele>
        <time>2019-10-13T17:21:57Z</time>
      </trkpt>
      <trkpt lat="59.164362" lon="18.133332">
        <ele>0</ele>
        <time>2019-10-13T17:21:57Z</time>
      </trkpt>
      <trkpt lat="59.164437" lon="18.133341">
        <ele>49</ele>
        <time>2019-10-13T17:21:58Z</time>
      </trkpt>
      <trkpt lat="59.164513" lon="18.133364">
        <ele>48</ele>
        <time>2019-10-13T17:22:00Z</time>
      </trkpt>
      <trkpt lat="59.164589" lon="18.133394">
        <ele>47</ele>
        <time>2019-10-13T17:22:01Z</time>
      </trkpt>
      <trkpt lat="59.164663" lon="18.13343">
        <ele>47</ele>
        <time>2019-10-13T17:22:02Z</time>
      </trkpt>
      <trkpt lat="59.164735" lon="18.133468">
        <ele>47</ele>
        <time>2019-10-13T17:22:02Z</time>
      </trkpt>
      <trkpt lat="59.164806" lon="18.133501">
        <ele>47</ele>
        <time>2019-10-13T17:22:03Z</time>
      </trkpt>
      <trkpt lat="59.164875" lon="18.133532">
        <ele>47</ele>
        <time>2019-10-13T17:22:04Z</time>
      </trkpt>
      <trkpt lat="59.164941" lon="18.133566">
        <ele>47</ele>
        <time>2019-10-13T17:22:06Z</time>
      </trkpt>
      <trkpt lat="59.165003" lon="18.133602">
        <ele>47</ele>
        <time>2019-10-13T17:22:07Z</time>
      </trkpt>
      <trkpt lat="59.165063" lon="18.133638">
        <ele>47</ele>
        <time>2019-10-13T17:22:08Z</time>
      </trkpt>
      <trkpt lat="59.16512" lon="18.13367">
        <ele>47</ele>
        <time>2019-10-13T17:22:09Z</time>
      </trkpt>
      <trkpt lat="59.165176" lon="18.133702">
        <ele>47</ele>
        <time>2019-10-13T17:22:10Z</time>
      </trkpt>
      <trkpt lat="59.165233" lon="18.133734">
        <ele>46</ele>
        <time>2019-10-13T17:22:11Z</time>
      </trkpt>
      <trkpt lat="59.165286" lon="18.133767">
        <ele>46</ele>
        <time>2019-10-13T17:22:12Z</time>
      </trkpt>
      <trkpt lat="59.165336" lon="18.133795">
        <ele>0</ele>
        <time>2019-10-13T17:22:12Z</time>
      </trkpt>
      <trkpt lat="59.165383" lon="18.133824">
        <ele>46</ele>
        <time>2019-10-13T17:22:13Z</time>
      </trkpt>
      <trkpt lat="59.165427" lon="18.13385">
        <ele>46</ele>
        <time>2019-10-13T17:22:15Z</time>
      </trkpt>
      <trkpt lat="59.165469" lon="18.133878">
        <ele>46</ele>
        <time>2019-10-13T17:22:16Z</time>
      </trkpt>
      <trkpt lat="59.165509" lon="18.133904">
        <ele>46</ele>
        <time>2019-10-13T17:22:17Z</time>
      </trkpt>
      <trkpt lat="59.165548" lon="18.133932">
        <ele>46</ele>
        <time>2019-10-13T17:22:18Z</time>
      </trkpt>
      <trkpt lat="59.165588" lon="18.13396">
        <ele>46</ele>
        <time>2019-10-13T17:22:19Z</time>
      </trkpt>
      <trkpt lat="59.165628" lon="18.133985">
        <ele>46</ele>
        <time>2019-10-13T17:22:20Z</time>
      </trkpt>
      <trkpt lat="59.165671" lon="18.134014">
        <ele>45</ele>
        <time>2019-10-13T17:22:21Z</time>
      </trkpt>
      <trkpt lat="59.165717" lon="18.134044">
        <ele>0</ele>
        <time>2019-10-13T17:22:21Z</time>
      </trkpt>
      <trkpt lat="59.165765" lon="18.134075">
        <ele>45</ele>
        <time>2019-10-13T17:22:22Z</time>
      </trkpt>
      <trkpt lat="59.165813" lon="18.134106">
        <ele>0</ele>
        <time>2019-10-13T17:22:23Z</time>
      </trkpt>
      <trkpt lat="59.16586" lon="18.134134">
        <ele>45</ele>
        <time>2019-10-13T17:22:24Z</time>
      </trkpt>
      <trkpt lat="59.165906" lon="18.13416">
        <ele>45</ele>
        <time>2019-10-13T17:22:26Z</time>
      </trkpt>
      <trkpt lat="59.16595" lon="18.134188">
        <ele>45</ele>
        <time>2019-10-13T17:22:27Z</time>
      </trkpt>
      <trkpt lat="59.165993" lon="18.134212">
        <ele>45</ele>
        <time>2019-10-13T17:22:28Z</time>
      </trkpt>
      <trkpt lat="59.166035" lon="18.13424">
        <ele>45</ele>
        <time>2019-10-13T17:22:29Z</time>
      </trkpt>
      <trkpt lat="59.166078" lon="18.13427">
        <ele>45</ele>
        <time>2019-10-13T17:22:30Z</time>
      </trkpt>
      <trkpt lat="59.166119" lon="18.134298">
        <ele>45</ele>
        <time>2019-10-13T17:22:31Z</time>
      </trkpt>
      <trkpt lat="59.166158" lon="18.134322">
        <ele>45</ele>
        <time>2019-10-13T17:22:32Z</time>
      </trkpt>
      <trkpt lat="59.166195" lon="18.134344">
        <ele>45</ele>
        <time>2019-10-13T17:22:33Z</time>
      </trkpt>
      <trkpt lat="59.166228" lon="18.134364">
        <ele>45</ele>
        <time>2019-10-13T17:22:34Z</time>
      </trkpt>
      <trkpt lat="59.166259" lon="18.134382">
        <ele>44</ele>
        <time>2019-10-13T17:22:35Z</time>
      </trkpt>
      <trkpt lat="59.166289" lon="18.134398">
        <ele>44</ele>
        <time>2019-10-13T17:22:36Z</time>
      </trkpt>
      <trkpt lat="59.166316" lon="18.134412">
        <ele>0</ele>
        <time>2019-10-13T17:22:36Z</time>
      </trkpt>
      <trkpt lat="59.166341" lon="18.134422">
        <ele>44</ele>
        <time>2019-10-13T17:22:37Z</time>
      </trkpt>
      <trkpt lat="59.166369" lon="18.134434">
        <ele>44</ele>
        <time>2019-10-13T17:22:39Z</time>
      </trkpt>
      <trkpt lat="59.166397" lon="18.134446">
        <ele>44</ele>
        <time>2019-10-13T17:22:40Z</time>
      </trkpt>
      <trkpt lat="59.166426" lon="18.134456">
        <ele>0</ele>
        <time>2019-10-13T17:22:40Z</time>
      </trkpt>
      <trkpt lat="59.166455" lon="18.134465">
        <ele>44</ele>
        <time>2019-10-13T17:22:41Z</time>
      </trkpt>
      <trkpt lat="59.166487" lon="18.134476">
        <ele>44</ele>
        <time>2019-10-13T17:22:43Z</time>
      </trkpt>
      <trkpt lat="59.16652" lon="18.134491">
        <ele>44</ele>
        <time>2019-10-13T17:22:44Z</time>
      </trkpt>
      <trkpt lat="59.166553" lon="18.134512">
        <ele>44</ele>
        <time>2019-10-13T17:22:45Z</time>
      </trkpt>
      <trkpt lat="59.166586" lon="18.134536">
        <ele>43</ele>
        <time>2019-10-13T17:22:46Z</time>
      </trkpt>
      <trkpt lat="59.166619" lon="18.13456">
        <ele>43</ele>
        <time>2019-10-13T17:22:47Z</time>
      </trkpt>
      <trkpt lat="59.166653" lon="18.134583">
        <ele>43</ele>
        <time>2019-10-13T17:22:48Z</time>
      </trkpt>
      <trkpt lat="59.166687" lon="18.134606">
        <ele>43</ele>
        <time>2019-10-13T17:22:49Z</time>
      </trkpt>
      <trkpt lat="59.166721" lon="18.134626">
        <ele>43</ele>
        <time>2019-10-13T17:22:50Z</time>
      </trkpt>
      <trkpt lat="59.166754" lon="18.13465">
        <ele>43</ele>
        <time>2019-10-13T17:22:51Z</time>
      </trkpt>
      <trkpt lat="59.166788" lon="18.134668">
        <ele>43</ele>
        <time>2019-10-13T17:22:52Z</time>
      </trkpt>
      <trkpt lat="59.166821" lon="18.134686">
        <ele>0</ele>
        <time>2019-10-13T17:22:52Z</time>
      </trkpt>
      <trkpt lat="59.166854" lon="18.134702">
        <ele>43</ele>
        <time>2019-10-13T17:22:53Z</time>
      </trkpt>
      <trkpt lat="59.166886" lon="18.134718">
        <ele>43</ele>
        <time>2019-10-13T17:22:55Z</time>
      </trkpt>
      <trkpt lat="59.16692" lon="18.134734">
        <ele>43</ele>
        <time>2019-10-13T17:22:56Z</time>
      </trkpt>
      <trkpt lat="59.166954" lon="18.134752">
        <ele>43</ele>
        <time>2019-10-13T17:22:57Z</time>
      </trkpt>
      <trkpt lat="59.166987" lon="18.134768">
        <ele>43</ele>
        <time>2019-10-13T17:22:58Z</time>
      </trkpt>
      <trkpt lat="59.167018" lon="18.134792">
        <ele>43</ele>
        <time>2019-10-13T17:22:59Z</time>
      </trkpt>
      <trkpt lat="59.167048" lon="18.134811">
        <ele>0</ele>
        <time>2019-10-13T17:22:59Z</time>
      </trkpt>
      <trkpt lat="59.167078" lon="18.134834">
        <ele>43</ele>
        <time>2019-10-13T17:23:00Z</time>
      </trkpt>
      <trkpt lat="59.167109" lon="18.134858">
        <ele>43</ele>
        <time>2019-10-13T17:23:02Z</time>
      </trkpt>
      <trkpt lat="59.167138" lon="18.134882">
        <ele>43</ele>
        <time>2019-10-13T17:23:03Z</time>
      </trkpt>
      <trkpt lat="59.167167" lon="18.134907">
        <ele>43</ele>
        <time>2019-10-13T17:23:04Z</time>
      </trkpt>
      <trkpt lat="59.167195" lon="18.134934">
        <ele>43</ele>
        <time>2019-10-13T17:23:05Z</time>
      </trkpt>
      <trkpt lat="59.167221" lon="18.134962">
        <ele>43</ele>
        <time>2019-10-13T17:23:06Z</time>
      </trkpt>
      <trkpt lat="59.167247" lon="18.134989">
        <ele>0</ele>
        <time>2019-10-13T17:23:06Z</time>
      </trkpt>
      <trkpt lat="59.167272" lon="18.135014">
        <ele>43</ele>
        <time>2019-10-13T17:23:07Z</time>
      </trkpt>
      <trkpt lat="59.167298" lon="18.135035">
        <ele>43</ele>
        <time>2019-10-13T17:23:09Z</time>
      </trkpt>
      <trkpt lat="59.167323" lon="18.135053">
        <ele>43</ele>
        <time>2019-10-13T17:23:10Z</time>
      </trkpt>
      <trkpt lat="59.167349" lon="18.135071">
        <ele>43</ele>
        <time>2019-10-13T17:23:11Z</time>
      </trkpt>
      <trkpt lat="59.167373" lon="18.135088">
        <ele>43</ele>
        <time>2019-10-13T17:23:12Z</time>
      </trkpt>
      <trkpt lat="59.167396" lon="18.135104">
        <ele>43</ele>
        <time>2019-10-13T17:23:13Z</time>
      </trkpt>
      <trkpt lat="59.16742" lon="18.135119">
        <ele>43</ele>
        <time>2019-10-13T17:23:14Z</time>
      </trkpt>
      <trkpt lat="59.167441" lon="18.135134">
        <ele>43</ele>
        <time>2019-10-13T17:23:15Z</time>
      </trkpt>
      <trkpt lat="59.167462" lon="18.135148">
        <ele>43</ele>
        <time>2019-10-13T17:23:16Z</time>
      </trkpt>
      <trkpt lat="59.167485" lon="18.135161">
        <ele>43</ele>
        <time>2019-10-13T17:23:17Z</time>
      </trkpt>
      <trkpt lat="59.167507" lon="18.135176">
        <ele>43</ele>
        <time>2019-10-13T17:23:18Z</time>
      </trkpt>
      <trkpt lat="59.167531" lon="18.135189">
        <ele>0</ele>
        <time>2019-10-13T17:23:18Z</time>
      </trkpt>
      <trkpt lat="59.167554" lon="18.135203">
        <ele>43</ele>
        <time>2019-10-13T17:23:19Z</time>
      </trkpt>
      <trkpt lat="59.167579" lon="18.135218">
        <ele>43</ele>
        <time>2019-10-13T17:23:21Z</time>
      </trkpt>
      <trkpt lat="59.167603" lon="18.135232">
        <ele>43</ele>
        <time>2019-10-13T17:23:22Z</time>
      </trkpt>
      <trkpt lat="59.167628" lon="18.135244">
        <ele>44</ele>
        <time>2019-10-13T17:23:23Z</time>
      </trkpt>
      <trkpt lat="59.167653" lon="18.135258">
        <ele>44</ele>
        <time>2019-10-13T17:23:24Z</time>
      </trkpt>
      <trkpt lat="59.167676" lon="18.13527">
        <ele>44</ele>
        <time>2019-10-13T17:23:25Z</time>
      </trkpt>
      <trkpt lat="59.167699" lon="18.135284">
        <ele>44</ele>
        <time>2019-10-13T17:23:26Z</time>
      </trkpt>
      <trkpt lat="59.167721" lon="18.135297">
        <ele>44</ele>
        <time>2019-10-13T17:23:27Z</time>
      </trkpt>
      <trkpt lat="59.16774" lon="18.135308">
        <ele>0</ele>
        <time>2019-10-13T17:23:27Z</time>
      </trkpt>
      <trkpt lat="59.167758" lon="18.135322">
        <ele>44</ele>
        <time>2019-10-13T17:23:28Z</time>
      </trkpt>
      <trkpt lat="59.167776" lon="18.13534">
        <ele>44</ele>
        <time>2019-10-13T17:23:30Z</time>
      </trkpt>
      <trkpt lat="59.167794" lon="18.135355">
        <ele>44</ele>
        <time>2019-10-13T17:23:31Z</time>
      </trkpt>
      <trkpt lat="59.167812" lon="18.135367">
        <ele>44</ele>
        <time>2019-10-13T17:23:32Z</time>
      </trkpt>
      <trkpt lat="59.167831" lon="18.135381">
        <ele>44</ele>
        <time>2019-10-13T17:23:33Z</time>
      </trkpt>
      <trkpt lat="59.167861" lon="18.135408">
        <ele>44</ele>
        <time>2019-10-13T17:23:35Z</time>
      </trkpt>
      <trkpt lat="59.167896" lon="18.135436">
        <ele>43</ele>
        <time>2019-10-13T17:23:37Z</time>
      </trkpt>
      <trkpt lat="59.167916" lon="18.135451">
        <ele>0</ele>
        <time>2019-10-13T17:23:37Z</time>
      </trkpt>
      <trkpt lat="59.167934" lon="18.135466">
        <ele>43</ele>
        <time>2019-10-13T17:23:38Z</time>
      </trkpt>
      <trkpt lat="59.167952" lon="18.135482">
        <ele>43</ele>
        <time>2019-10-13T17:23:40Z</time>
      </trkpt>
      <trkpt lat="59.167971" lon="18.135497">
        <ele>43</ele>
        <time>2019-10-13T17:23:41Z</time>
      </trkpt>
      <trkpt lat="59.167989" lon="18.135511">
        <ele>43</ele>
        <time>2019-10-13T17:23:42Z</time>
      </trkpt>
      <trkpt lat="59.168008" lon="18.135524">
        <ele>43</ele>
        <time>2019-10-13T17:23:43Z</time>
      </trkpt>
      <trkpt lat="59.168025" lon="18.135536">
        <ele>43</ele>
        <time>2019-10-13T17:23:44Z</time>
      </trkpt>
      <trkpt lat="59.168059" lon="18.135556">
        <ele>42</ele>
        <time>2019-10-13T17:23:46Z</time>
      </trkpt>
      <trkpt lat="59.168095" lon="18.135572">
        <ele>42</ele>
        <time>2019-10-13T17:23:48Z</time>
      </trkpt>
      <trkpt lat="59.168114" lon="18.135579">
        <ele>42</ele>
        <time>2019-10-13T17:23:49Z</time>
      </trkpt>
      <trkpt lat="59.168134" lon="18.135586">
        <ele>42</ele>
        <time>2019-10-13T17:23:50Z</time>
      </trkpt>
      <trkpt lat="59.168153" lon="18.135598">
        <ele>42</ele>
        <time>2019-10-13T17:23:51Z</time>
      </trkpt>
      <trkpt lat="59.168175" lon="18.135611">
        <ele>42</ele>
        <time>2019-10-13T17:23:52Z</time>
      </trkpt>
      <trkpt lat="59.168196" lon="18.135625">
        <ele>42</ele>
        <time>2019-10-13T17:23:53Z</time>
      </trkpt>
      <trkpt lat="59.168218" lon="18.135637">
        <ele>0</ele>
        <time>2019-10-13T17:23:53Z</time>
      </trkpt>
      <trkpt lat="59.168239" lon="18.135649">
        <ele>42</ele>
        <time>2019-10-13T17:23:54Z</time>
      </trkpt>
      <trkpt lat="59.16826" lon="18.135661">
        <ele>42</ele>
        <time>2019-10-13T17:23:56Z</time>
      </trkpt>
      <trkpt lat="59.168282" lon="18.135674">
        <ele>0</ele>
        <time>2019-10-13T17:23:56Z</time>
      </trkpt>
      <trkpt lat="59.168303" lon="18.135689">
        <ele>42</ele>
        <time>2019-10-13T17:23:57Z</time>
      </trkpt>
      <trkpt lat="59.168324" lon="18.135704">
        <ele>42</ele>
        <time>2019-10-13T17:23:59Z</time>
      </trkpt>
      <trkpt lat="59.168346" lon="18.135716">
        <ele>42</ele>
        <time>2019-10-13T17:24:00Z</time>
      </trkpt>
      <trkpt lat="59.168369" lon="18.135729">
        <ele>42</ele>
        <time>2019-10-13T17:24:01Z</time>
      </trkpt>
      <trkpt lat="59.168392" lon="18.13574">
        <ele>42</ele>
        <time>2019-10-13T17:24:02Z</time>
      </trkpt>
      <trkpt lat="59.168415" lon="18.135751">
        <ele>42</ele>
        <time>2019-10-13T17:24:03Z</time>
      </trkpt>
      <trkpt lat="59.168438" lon="18.135764">
        <ele>42</ele>
        <time>2019-10-13T17:24:04Z</time>
      </trkpt>
      <trkpt lat="59.168461" lon="18.135778">
        <ele>42</ele>
        <time>2019-10-13T17:24:05Z</time>
      </trkpt>
      <trkpt lat="59.168484" lon="18.135793">
        <ele>42</ele>
        <time>2019-10-13T17:24:06Z</time>
      </trkpt>
      <trkpt lat="59.168507" lon="18.135808">
        <ele>42</ele>
        <time>2019-10-13T17:24:07Z</time>
      </trkpt>
      <trkpt lat="59.168529" lon="18.135822">
        <ele>42</ele>
        <time>2019-10-13T17:24:08Z</time>
      </trkpt>
      <trkpt lat="59.168551" lon="18.135835">
        <ele>42</ele>
        <time>2019-10-13T17:24:09Z</time>
      </trkpt>
      <trkpt lat="59.168571" lon="18.135848">
        <ele>42</ele>
        <time>2019-10-13T17:24:10Z</time>
      </trkpt>
      <trkpt lat="59.168592" lon="18.135858">
        <ele>42</ele>
        <time>2019-10-13T17:24:11Z</time>
      </trkpt>
      <trkpt lat="59.168613" lon="18.13587">
        <ele>42</ele>
        <time>2019-10-13T17:24:12Z</time>
      </trkpt>
      <trkpt lat="59.168633" lon="18.135882">
        <ele>42</ele>
        <time>2019-10-13T17:24:13Z</time>
      </trkpt>
      <trkpt lat="59.168652" lon="18.135896">
        <ele>42</ele>
        <time>2019-10-13T17:24:14Z</time>
      </trkpt>
      <trkpt lat="59.16867" lon="18.13591">
        <ele>42</ele>
        <time>2019-10-13T17:24:15Z</time>
      </trkpt>
      <trkpt lat="59.168688" lon="18.135924">
        <ele>0</ele>
        <time>2019-10-13T17:24:15Z</time>
      </trkpt>
      <trkpt lat="59.168706" lon="18.135936">
        <ele>42</ele>
        <time>2019-10-13T17:24:16Z</time>
      </trkpt>
      <trkpt lat="59.168724" lon="18.135948">
        <ele>42</ele>
        <time>2019-10-13T17:24:17Z</time>
      </trkpt>
      <trkpt lat="59.168741" lon="18.13596">
        <ele>42</ele>
        <time>2019-10-13T17:24:19Z</time>
      </trkpt>
      <trkpt lat="59.168774" lon="18.135976">
        <ele>42</ele>
        <time>2019-10-13T17:24:21Z</time>
      </trkpt>
      <trkpt lat="59.16881" lon="18.135992">
        <ele>42</ele>
        <time>2019-10-13T17:24:23Z</time>
      </trkpt>
      <trkpt lat="59.168829" lon="18.136001">
        <ele>42</ele>
        <time>2019-10-13T17:24:24Z</time>
      </trkpt>
      <trkpt lat="59.168847" lon="18.136007">
        <ele>42</ele>
        <time>2019-10-13T17:24:25Z</time>
      </trkpt>
      <trkpt lat="59.168866" lon="18.136012">
        <ele>42</ele>
        <time>2019-10-13T17:24:26Z</time>
      </trkpt>
      <trkpt lat="59.168883" lon="18.136018">
        <ele>42</ele>
        <time>2019-10-13T17:24:27Z</time>
      </trkpt>
      <trkpt lat="59.168918" lon="18.136034">
        <ele>42</ele>
        <time>2019-10-13T17:24:29Z</time>
      </trkpt>
      <trkpt lat="59.168953" lon="18.136048">
        <ele>42</ele>
        <time>2019-10-13T17:24:31Z</time>
      </trkpt>
      <trkpt lat="59.168971" lon="18.136055">
        <ele>42</ele>
        <time>2019-10-13T17:24:32Z</time>
      </trkpt>
      <trkpt lat="59.168991" lon="18.136066">
        <ele>42</ele>
        <time>2019-10-13T17:24:33Z</time>
      </trkpt>
      <trkpt lat="59.169009" lon="18.136076">
        <ele>43</ele>
        <time>2019-10-13T17:24:34Z</time>
      </trkpt>
      <trkpt lat="59.169027" lon="18.136086">
        <ele>0</ele>
        <time>2019-10-13T17:24:34Z</time>
      </trkpt>
      <trkpt lat="59.169044" lon="18.136096">
        <ele>43</ele>
        <time>2019-10-13T17:24:35Z</time>
      </trkpt>
      <trkpt lat="59.169062" lon="18.136102">
        <ele>43</ele>
        <time>2019-10-13T17:24:37Z</time>
      </trkpt>
      <trkpt lat="59.169082" lon="18.136108">
        <ele>43</ele>
        <time>2019-10-13T17:24:38Z</time>
      </trkpt>
      <trkpt lat="59.169102" lon="18.136114">
        <ele>43</ele>
        <time>2019-10-13T17:24:39Z</time>
      </trkpt>
      <trkpt lat="59.169122" lon="18.136118">
        <ele>43</ele>
        <time>2019-10-13T17:24:40Z</time>
      </trkpt>
      <trkpt lat="59.169141" lon="18.136124">
        <ele>43</ele>
        <time>2019-10-13T17:24:41Z</time>
      </trkpt>
      <trkpt lat="59.169175" lon="18.136138">
        <ele>0</ele>
        <time>2019-10-13T17:24:42Z</time>
      </trkpt>
      <trkpt lat="59.169208" lon="18.136152">
        <ele>43</ele>
        <time>2019-10-13T17:24:45Z</time>
      </trkpt>
      <trkpt lat="59.16924" lon="18.136166">
        <ele>43</ele>
        <time>2019-10-13T17:24:47Z</time>
      </trkpt>
      <trkpt lat="59.169272" lon="18.13618">
        <ele>43</ele>
        <time>2019-10-13T17:24:49Z</time>
      </trkpt>
      <trkpt lat="59.169305" lon="18.136196">
        <ele>43</ele>
        <time>2019-10-13T17:24:51Z</time>
      </trkpt>
      <trkpt lat="59.169337" lon="18.13621">
        <ele>43</ele>
        <time>2019-10-13T17:24:53Z</time>
      </trkpt>
      <trkpt lat="59.169373" lon="18.136218">
        <ele>43</ele>
        <time>2019-10-13T17:24:54Z</time>
      </trkpt>
      <trkpt lat="59.169392" lon="18.136226">
        <ele>44</ele>
        <time>2019-10-13T17:24:56Z</time>
      </trkpt>
      <trkpt lat="59.169411" lon="18.136235">
        <ele>44</ele>
        <time>2019-10-13T17:24:57Z</time>
      </trkpt>
      <trkpt lat="59.169428" lon="18.136249">
        <ele>44</ele>
        <time>2019-10-13T17:24:58Z</time>
      </trkpt>
      <trkpt lat="59.169457" lon="18.136266">
        <ele>44</ele>
        <time>2019-10-13T17:25:00Z</time>
      </trkpt>
      <trkpt lat="59.169487" lon="18.136266">
        <ele>44</ele>
        <time>2019-10-13T17:25:02Z</time>
      </trkpt>
      <trkpt lat="59.16952" lon="18.136279">
        <ele>44</ele>
        <time>2019-10-13T17:25:04Z</time>
      </trkpt>
      <trkpt lat="59.169551" lon="18.136297">
        <ele>44</ele>
        <time>2019-10-13T17:25:06Z</time>
      </trkpt>
      <trkpt lat="59.169585" lon="18.136316">
        <ele>44</ele>
        <time>2019-10-13T17:25:08Z</time>
      </trkpt>
      <trkpt lat="59.169602" lon="18.136327">
        <ele>44</ele>
        <time>2019-10-13T17:25:09Z</time>
      </trkpt>
      <trkpt lat="59.16962" lon="18.136336">
        <ele>44</ele>
        <time>2019-10-13T17:25:10Z</time>
      </trkpt>
      <trkpt lat="59.169638" lon="18.136345">
        <ele>44</ele>
        <time>2019-10-13T17:25:11Z</time>
      </trkpt>
      <trkpt lat="59.169655" lon="18.136356">
        <ele>44</ele>
        <time>2019-10-13T17:25:12Z</time>
      </trkpt>
      <trkpt lat="59.169673" lon="18.136365">
        <ele>0</ele>
        <time>2019-10-13T17:25:12Z</time>
      </trkpt>
      <trkpt lat="59.169706" lon="18.136387">
        <ele>44</ele>
        <time>2019-10-13T17:25:15Z</time>
      </trkpt>
      <trkpt lat="59.169724" lon="18.136395">
        <ele>44</ele>
        <time>2019-10-13T17:25:16Z</time>
      </trkpt>
      <trkpt lat="59.169757" lon="18.136408">
        <ele>44</ele>
        <time>2019-10-13T17:25:18Z</time>
      </trkpt>
      <trkpt lat="59.16979" lon="18.136413">
        <ele>44</ele>
        <time>2019-10-13T17:25:20Z</time>
      </trkpt>
      <trkpt lat="59.169824" lon="18.136426">
        <ele>45</ele>
        <time>2019-10-13T17:25:22Z</time>
      </trkpt>
      <trkpt lat="59.169854" lon="18.136443">
        <ele>45</ele>
        <time>2019-10-13T17:25:24Z</time>
      </trkpt>
      <trkpt lat="59.169889" lon="18.13646">
        <ele>44</ele>
        <time>2019-10-13T17:25:26Z</time>
      </trkpt>
      <trkpt lat="59.169907" lon="18.136469">
        <ele>44</ele>
        <time>2019-10-13T17:25:27Z</time>
      </trkpt>
      <trkpt lat="59.169926" lon="18.136476">
        <ele>44</ele>
        <time>2019-10-13T17:25:28Z</time>
      </trkpt>
      <trkpt lat="59.169945" lon="18.136485">
        <ele>44</ele>
        <time>2019-10-13T17:25:29Z</time>
      </trkpt>
      <trkpt lat="59.169977" lon="18.136501">
        <ele>44</ele>
        <time>2019-10-13T17:25:31Z</time>
      </trkpt>
      <trkpt lat="59.17001" lon="18.136518">
        <ele>44</ele>
        <time>2019-10-13T17:25:32Z</time>
      </trkpt>
      <trkpt lat="59.170028" lon="18.136529">
        <ele>44</ele>
        <time>2019-10-13T17:25:34Z</time>
      </trkpt>
      <trkpt lat="59.170047" lon="18.136539">
        <ele>44</ele>
        <time>2019-10-13T17:25:35Z</time>
      </trkpt>
      <trkpt lat="59.170065" lon="18.136548">
        <ele>44</ele>
        <time>2019-10-13T17:25:36Z</time>
      </trkpt>
      <trkpt lat="59.170083" lon="18.13656">
        <ele>44</ele>
        <time>2019-10-13T17:25:37Z</time>
      </trkpt>
      <trkpt lat="59.170101" lon="18.136572">
        <ele>44</ele>
        <time>2019-10-13T17:25:38Z</time>
      </trkpt>
      <trkpt lat="59.170137" lon="18.136592">
        <ele>0</ele>
        <time>2019-10-13T17:25:39Z</time>
      </trkpt>
      <trkpt lat="59.170157" lon="18.1366">
        <ele>44</ele>
        <time>2019-10-13T17:25:40Z</time>
      </trkpt>
      <trkpt lat="59.170178" lon="18.13661">
        <ele>44</ele>
        <time>2019-10-13T17:25:42Z</time>
      </trkpt>
      <trkpt lat="59.170196" lon="18.136617">
        <ele>44</ele>
        <time>2019-10-13T17:25:43Z</time>
      </trkpt>
      <trkpt lat="59.17023" lon="18.136633">
        <ele>44</ele>
        <time>2019-10-13T17:25:45Z</time>
      </trkpt>
      <trkpt lat="59.170263" lon="18.13665">
        <ele>44</ele>
        <time>2019-10-13T17:25:47Z</time>
      </trkpt>
      <trkpt lat="59.170295" lon="18.136664">
        <ele>44</ele>
        <time>2019-10-13T17:25:49Z</time>
      </trkpt>
      <trkpt lat="59.170329" lon="18.136683">
        <ele>0</ele>
        <time>2019-10-13T17:25:50Z</time>
      </trkpt>
      <trkpt lat="59.170347" lon="18.136692">
        <ele>44</ele>
        <time>2019-10-13T17:25:51Z</time>
      </trkpt>
      <trkpt lat="59.170366" lon="18.136701">
        <ele>44</ele>
        <time>2019-10-13T17:25:53Z</time>
      </trkpt>
      <trkpt lat="59.170388" lon="18.136712">
        <ele>44</ele>
        <time>2019-10-13T17:25:54Z</time>
      </trkpt>
      <trkpt lat="59.170412" lon="18.136722">
        <ele>44</ele>
        <time>2019-10-13T17:25:55Z</time>
      </trkpt>
      <trkpt lat="59.170436" lon="18.136735">
        <ele>44</ele>
        <time>2019-10-13T17:25:56Z</time>
      </trkpt>
      <trkpt lat="59.170461" lon="18.136747">
        <ele>44</ele>
        <time>2019-10-13T17:25:57Z</time>
      </trkpt>
      <trkpt lat="59.170484" lon="18.13676">
        <ele>44</ele>
        <time>2019-10-13T17:25:58Z</time>
      </trkpt>
      <trkpt lat="59.170501" lon="18.136772">
        <ele>44</ele>
        <time>2019-10-13T17:25:59Z</time>
      </trkpt>
      <trkpt lat="59.170536" lon="18.136789">
        <ele>44</ele>
        <time>2019-10-13T17:26:01Z</time>
      </trkpt>
      <trkpt lat="59.170556" lon="18.1368">
        <ele>44</ele>
        <time>2019-10-13T17:26:02Z</time>
      </trkpt>
      <trkpt lat="59.170577" lon="18.136812">
        <ele>44</ele>
        <time>2019-10-13T17:26:03Z</time>
      </trkpt>
      <trkpt lat="59.170598" lon="18.136822">
        <ele>44</ele>
        <time>2019-10-13T17:26:04Z</time>
      </trkpt>
      <trkpt lat="59.170618" lon="18.136832">
        <ele>0</ele>
        <time>2019-10-13T17:26:04Z</time>
      </trkpt>
      <trkpt lat="59.170638" lon="18.136847">
        <ele>43</ele>
        <time>2019-10-13T17:26:05Z</time>
      </trkpt>
      <trkpt lat="59.170656" lon="18.136861">
        <ele>44</ele>
        <time>2019-10-13T17:26:07Z</time>
      </trkpt>
      <trkpt lat="59.170674" lon="18.136871">
        <ele>44</ele>
        <time>2019-10-13T17:26:08Z</time>
      </trkpt>
      <trkpt lat="59.170693" lon="18.136881">
        <ele>43</ele>
        <time>2019-10-13T17:26:09Z</time>
      </trkpt>
      <trkpt lat="59.170711" lon="18.136894">
        <ele>0</ele>
        <time>2019-10-13T17:26:09Z</time>
      </trkpt>
      <trkpt lat="59.17073" lon="18.136906">
        <ele>44</ele>
        <time>2019-10-13T17:26:10Z</time>
      </trkpt>
      <trkpt lat="59.17075" lon="18.136916">
        <ele>43</ele>
        <time>2019-10-13T17:26:12Z</time>
      </trkpt>
      <trkpt lat="59.17077" lon="18.136926">
        <ele>43</ele>
        <time>2019-10-13T17:26:13Z</time>
      </trkpt>
      <trkpt lat="59.17079" lon="18.136938">
        <ele>43</ele>
        <time>2019-10-13T17:26:14Z</time>
      </trkpt>
      <trkpt lat="59.170811" lon="18.136949">
        <ele>43</ele>
        <time>2019-10-13T17:26:15Z</time>
      </trkpt>
      <trkpt lat="59.170831" lon="18.136962">
        <ele>43</ele>
        <time>2019-10-13T17:26:16Z</time>
      </trkpt>
      <trkpt lat="59.17085" lon="18.136971">
        <ele>43</ele>
        <time>2019-10-13T17:26:17Z</time>
      </trkpt>
      <trkpt lat="59.170869" lon="18.136981">
        <ele>43</ele>
        <time>2019-10-13T17:26:18Z</time>
      </trkpt>
      <trkpt lat="59.170887" lon="18.136993">
        <ele>43</ele>
        <time>2019-10-13T17:26:19Z</time>
      </trkpt>
      <trkpt lat="59.170905" lon="18.137008">
        <ele>43</ele>
        <time>2019-10-13T17:26:20Z</time>
      </trkpt>
      <trkpt lat="59.170922" lon="18.137023">
        <ele>43</ele>
        <time>2019-10-13T17:26:21Z</time>
      </trkpt>
      <trkpt lat="59.17094" lon="18.137037">
        <ele>43</ele>
        <time>2019-10-13T17:26:22Z</time>
      </trkpt>
      <trkpt lat="59.170975" lon="18.137057">
        <ele>43</ele>
        <time>2019-10-13T17:26:24Z</time>
      </trkpt>
      <trkpt lat="59.170994" lon="18.137067">
        <ele>43</ele>
        <time>2019-10-13T17:26:25Z</time>
      </trkpt>
      <trkpt lat="59.171011" lon="18.137078">
        <ele>43</ele>
        <time>2019-10-13T17:26:26Z</time>
      </trkpt>
      <trkpt lat="59.17103" lon="18.137087">
        <ele>43</ele>
        <time>2019-10-13T17:26:27Z</time>
      </trkpt>
      <trkpt lat="59.171049" lon="18.137097">
        <ele>43</ele>
        <time>2019-10-13T17:26:28Z</time>
      </trkpt>
      <trkpt lat="59.171068" lon="18.137101">
        <ele>0</ele>
        <time>2019-10-13T17:26:28Z</time>
      </trkpt>
      <trkpt lat="59.171087" lon="18.137109">
        <ele>43</ele>
        <time>2019-10-13T17:26:29Z</time>
      </trkpt>
      <trkpt lat="59.171105" lon="18.137123">
        <ele>43</ele>
        <time>2019-10-13T17:26:31Z</time>
      </trkpt>
      <trkpt lat="59.171135" lon="18.137142">
        <ele>43</ele>
        <time>2019-10-13T17:26:32Z</time>
      </trkpt>
      <trkpt lat="59.171168" lon="18.13716">
        <ele>43</ele>
        <time>2019-10-13T17:26:35Z</time>
      </trkpt>
      <trkpt lat="59.1712" lon="18.137184">
        <ele>43</ele>
        <time>2019-10-13T17:26:37Z</time>
      </trkpt>
      <trkpt lat="59.17123" lon="18.137208">
        <ele>43</ele>
        <time>2019-10-13T17:26:39Z</time>
      </trkpt>
      <trkpt lat="59.171263" lon="18.137233">
        <ele>43</ele>
        <time>2019-10-13T17:26:41Z</time>
      </trkpt>
      <trkpt lat="59.171294" lon="18.137254">
        <ele>44</ele>
        <time>2019-10-13T17:26:43Z</time>
      </trkpt>
      <trkpt lat="59.171325" lon="18.137272">
        <ele>44</ele>
        <time>2019-10-13T17:26:45Z</time>
      </trkpt>
      <trkpt lat="59.171356" lon="18.137289">
        <ele>44</ele>
        <time>2019-10-13T17:26:47Z</time>
      </trkpt>
      <trkpt lat="59.171388" lon="18.137311">
        <ele>44</ele>
        <time>2019-10-13T17:26:48Z</time>
      </trkpt>
      <trkpt lat="59.171422" lon="18.13733">
        <ele>44</ele>
        <time>2019-10-13T17:26:51Z</time>
      </trkpt>
      <trkpt lat="59.171455" lon="18.13735">
        <ele>44</ele>
        <time>2019-10-13T17:26:53Z</time>
      </trkpt>
      <trkpt lat="59.171473" lon="18.137361">
        <ele>43</ele>
        <time>2019-10-13T17:26:54Z</time>
      </trkpt>
      <trkpt lat="59.171491" lon="18.137372">
        <ele>43</ele>
        <time>2019-10-13T17:26:55Z</time>
      </trkpt>
      <trkpt lat="59.17151" lon="18.137384">
        <ele>44</ele>
        <time>2019-10-13T17:26:56Z</time>
      </trkpt>
      <trkpt lat="59.171528" lon="18.137396">
        <ele>0</ele>
        <time>2019-10-13T17:26:56Z</time>
      </trkpt>
      <trkpt lat="59.171559" lon="18.137416">
        <ele>44</ele>
        <time>2019-10-13T17:26:59Z</time>
      </trkpt>
      <trkpt lat="59.171588" lon="18.13744">
        <ele>43</ele>
        <time>2019-10-13T17:27:01Z</time>
      </trkpt>
      <trkpt lat="59.171615" lon="18.137459">
        <ele>43</ele>
        <time>2019-10-13T17:27:02Z</time>
      </trkpt>
      <trkpt lat="59.171644" lon="18.137478">
        <ele>43</ele>
        <time>2019-10-13T17:27:05Z</time>
      </trkpt>
      <trkpt lat="59.171674" lon="18.137498">
        <ele>0</ele>
        <time>2019-10-13T17:27:06Z</time>
      </trkpt>
      <trkpt lat="59.171707" lon="18.137517">
        <ele>43</ele>
        <time>2019-10-13T17:27:09Z</time>
      </trkpt>
      <trkpt lat="59.171737" lon="18.137537">
        <ele>44</ele>
        <time>2019-10-13T17:27:11Z</time>
      </trkpt>
      <trkpt lat="59.171768" lon="18.137556">
        <ele>43</ele>
        <time>2019-10-13T17:27:13Z</time>
      </trkpt>
      <trkpt lat="59.1718" lon="18.137573">
        <ele>44</ele>
        <time>2019-10-13T17:27:15Z</time>
      </trkpt>
      <trkpt lat="59.17183" lon="18.13759">
        <ele>44</ele>
        <time>2019-10-13T17:27:17Z</time>
      </trkpt>
      <trkpt lat="59.171858" lon="18.137602">
        <ele>44</ele>
        <time>2019-10-13T17:27:19Z</time>
      </trkpt>
      <trkpt lat="59.171892" lon="18.137621">
        <ele>43</ele>
        <time>2019-10-13T17:27:21Z</time>
      </trkpt>
      <trkpt lat="59.17191" lon="18.137632">
        <ele>43</ele>
        <time>2019-10-13T17:27:22Z</time>
      </trkpt>
      <trkpt lat="59.171927" lon="18.137641">
        <ele>43</ele>
        <time>2019-10-13T17:27:23Z</time>
      </trkpt>
      <trkpt lat="59.171946" lon="18.13765">
        <ele>44</ele>
        <time>2019-10-13T17:27:24Z</time>
      </trkpt>
      <trkpt lat="59.171964" lon="18.137658">
        <ele>44</ele>
        <time>2019-10-13T17:27:25Z</time>
      </trkpt>
      <trkpt lat="59.171983" lon="18.137665">
        <ele>0</ele>
        <time>2019-10-13T17:27:25Z</time>
      </trkpt>
      <trkpt lat="59.172001" lon="18.13767">
        <ele>44</ele>
        <time>2019-10-13T17:27:26Z</time>
      </trkpt>
      <trkpt lat="59.172019" lon="18.137675">
        <ele>44</ele>
        <time>2019-10-13T17:27:28Z</time>
      </trkpt>
      <trkpt lat="59.172037" lon="18.137685">
        <ele>44</ele>
        <time>2019-10-13T17:27:29Z</time>
      </trkpt>
      <trkpt lat="59.172055" lon="18.137696">
        <ele>0</ele>
        <time>2019-10-13T17:27:29Z</time>
      </trkpt>
      <trkpt lat="59.172073" lon="18.137702">
        <ele>44</ele>
        <time>2019-10-13T17:27:30Z</time>
      </trkpt>
      <trkpt lat="59.172091" lon="18.137706">
        <ele>44</ele>
        <time>2019-10-13T17:27:32Z</time>
      </trkpt>
      <trkpt lat="59.17211" lon="18.13771">
        <ele>44</ele>
        <time>2019-10-13T17:27:33Z</time>
      </trkpt>
      <trkpt lat="59.172129" lon="18.137715">
        <ele>44</ele>
        <time>2019-10-13T17:27:34Z</time>
      </trkpt>
      <trkpt lat="59.172149" lon="18.137722">
        <ele>44</ele>
        <time>2019-10-13T17:27:35Z</time>
      </trkpt>
      <trkpt lat="59.172169" lon="18.137728">
        <ele>44</ele>
        <time>2019-10-13T17:27:36Z</time>
      </trkpt>
      <trkpt lat="59.172189" lon="18.137735">
        <ele>44</ele>
        <time>2019-10-13T17:27:37Z</time>
      </trkpt>
      <trkpt lat="59.172208" lon="18.137744">
        <ele>0</ele>
        <time>2019-10-13T17:27:37Z</time>
      </trkpt>
      <trkpt lat="59.172243" lon="18.137758">
        <ele>44</ele>
        <time>2019-10-13T17:27:40Z</time>
      </trkpt>
      <trkpt lat="59.172261" lon="18.137766">
        <ele>44</ele>
        <time>2019-10-13T17:27:41Z</time>
      </trkpt>
      <trkpt lat="59.17228" lon="18.137775">
        <ele>44</ele>
        <time>2019-10-13T17:27:42Z</time>
      </trkpt>
      <trkpt lat="59.1723" lon="18.137783">
        <ele>44</ele>
        <time>2019-10-13T17:27:43Z</time>
      </trkpt>
      <trkpt lat="59.172319" lon="18.137792">
        <ele>44</ele>
        <time>2019-10-13T17:27:44Z</time>
      </trkpt>
      <trkpt lat="59.172337" lon="18.137799">
        <ele>0</ele>
        <time>2019-10-13T17:27:44Z</time>
      </trkpt>
      <trkpt lat="59.172356" lon="18.137805">
        <ele>44</ele>
        <time>2019-10-13T17:27:45Z</time>
      </trkpt>
      <trkpt lat="59.172377" lon="18.137813">
        <ele>44</ele>
        <time>2019-10-13T17:27:47Z</time>
      </trkpt>
      <trkpt lat="59.172395" lon="18.137824">
        <ele>44</ele>
        <time>2019-10-13T17:27:48Z</time>
      </trkpt>
      <trkpt lat="59.172426" lon="18.137842">
        <ele>44</ele>
        <time>2019-10-13T17:27:50Z</time>
      </trkpt>
      <trkpt lat="59.172444" lon="18.137853">
        <ele>44</ele>
        <time>2019-10-13T17:27:51Z</time>
      </trkpt>
      <trkpt lat="59.172464" lon="18.137863">
        <ele>44</ele>
        <time>2019-10-13T17:27:52Z</time>
      </trkpt>
      <trkpt lat="59.172484" lon="18.137873">
        <ele>44</ele>
        <time>2019-10-13T17:27:53Z</time>
      </trkpt>
      <trkpt lat="59.172502" lon="18.137881">
        <ele>44</ele>
        <time>2019-10-13T17:27:54Z</time>
      </trkpt>
      <trkpt lat="59.172537" lon="18.137899">
        <ele>44</ele>
        <time>2019-10-13T17:27:56Z</time>
      </trkpt>
      <trkpt lat="59.172556" lon="18.137908">
        <ele>0</ele>
        <time>2019-10-13T17:27:56Z</time>
      </trkpt>
      <trkpt lat="59.172577" lon="18.137916">
        <ele>44</ele>
        <time>2019-10-13T17:27:57Z</time>
      </trkpt>
      <trkpt lat="59.172596" lon="18.13792">
        <ele>44</ele>
        <time>2019-10-13T17:27:59Z</time>
      </trkpt>
      <trkpt lat="59.172634" lon="18.137939">
        <ele>44</ele>
        <time>2019-10-13T17:28:01Z</time>
      </trkpt>
      <trkpt lat="59.172652" lon="18.137951">
        <ele>44</ele>
        <time>2019-10-13T17:28:02Z</time>
      </trkpt>
      <trkpt lat="59.172682" lon="18.137964">
        <ele>44</ele>
        <time>2019-10-13T17:28:03Z</time>
      </trkpt>
      <trkpt lat="59.172702" lon="18.13798">
        <ele>45</ele>
        <time>2019-10-13T17:28:07Z</time>
      </trkpt>
      <trkpt lat="59.172721" lon="18.138002">
        <ele>45</ele>
        <time>2019-10-13T17:28:10Z</time>
      </trkpt>
      <trkpt lat="59.17274" lon="18.138018">
        <ele>46</ele>
        <time>2019-10-13T17:28:12Z</time>
      </trkpt>
      <trkpt lat="59.172763" lon="18.138026">
        <ele>46</ele>
        <time>2019-10-13T17:28:14Z</time>
      </trkpt>
      <trkpt lat="59.172786" lon="18.13803">
        <ele>47</ele>
        <time>2019-10-13T17:28:16Z</time>
      </trkpt>
      <trkpt lat="59.172805" lon="18.138036">
        <ele>47</ele>
        <time>2019-10-13T17:28:18Z</time>
      </trkpt>
      <trkpt lat="59.172823" lon="18.138042">
        <ele>48</ele>
        <time>2019-10-13T17:28:20Z</time>
      </trkpt>
      <trkpt lat="59.172845" lon="18.138056">
        <ele>0</ele>
        <time>2019-10-13T17:28:22Z</time>
      </trkpt>
      <trkpt lat="59.172866" lon="18.138064">
        <ele>49</ele>
        <time>2019-10-13T17:28:27Z</time>
      </trkpt>
      <trkpt lat="59.172887" lon="18.138086">
        <ele>49</ele>
        <time>2019-10-13T17:28:31Z</time>
      </trkpt>
      <trkpt lat="59.172901" lon="18.138112">
        <ele>49</ele>
        <time>2019-10-13T17:28:34Z</time>
      </trkpt>
      <trkpt lat="59.17292" lon="18.13812">
        <ele>49</ele>
        <time>2019-10-13T17:28:37Z</time>
      </trkpt>
      <trkpt lat="59.17294" lon="18.138132">
        <ele>49</ele>
        <time>2019-10-13T17:28:40Z</time>
      </trkpt>
      <trkpt lat="59.172961" lon="18.138142">
        <ele>0</ele>
        <time>2019-10-13T17:28:41Z</time>
      </trkpt>
      <trkpt lat="59.17298" lon="18.138152">
        <ele>49</ele>
        <time>2019-10-13T17:28:44Z</time>
      </trkpt>
      <trkpt lat="59.173005" lon="18.138167">
        <ele>49</ele>
        <time>2019-10-13T17:28:47Z</time>
      </trkpt>
      <trkpt lat="59.173019" lon="18.13819">
        <ele>49</ele>
        <time>2019-10-13T17:28:50Z</time>
      </trkpt>
      <trkpt lat="59.173037" lon="18.138226">
        <ele>49</ele>
        <time>2019-10-13T17:28:53Z</time>
      </trkpt>
      <trkpt lat="59.173057" lon="18.138246">
        <ele>49</ele>
        <time>2019-10-13T17:28:55Z</time>
      </trkpt>
      <trkpt lat="59.17308" lon="18.138252">
        <ele>49</ele>
        <time>2019-10-13T17:28:59Z</time>
      </trkpt>
      <trkpt lat="59.173097" lon="18.13827">
        <ele>49</ele>
        <time>2019-10-13T17:29:01Z</time>
      </trkpt>
      <trkpt lat="59.173117" lon="18.138287">
        <ele>48</ele>
        <time>2019-10-13T17:29:05Z</time>
      </trkpt>
      <trkpt lat="59.173141" lon="18.138305">
        <ele>48</ele>
        <time>2019-10-13T17:29:08Z</time>
      </trkpt>
      <trkpt lat="59.173165" lon="18.138316">
        <ele>48</ele>
        <time>2019-10-13T17:29:11Z</time>
      </trkpt>
      <trkpt lat="59.173184" lon="18.138333">
        <ele>47</ele>
        <time>2019-10-13T17:29:14Z</time>
      </trkpt>
      <trkpt lat="59.173203" lon="18.138348">
        <ele>47</ele>
        <time>2019-10-13T17:29:17Z</time>
      </trkpt>
      <trkpt lat="59.173226" lon="18.138364">
        <ele>0</ele>
        <time>2019-10-13T17:29:19Z</time>
      </trkpt>
      <trkpt lat="59.17325" lon="18.138373">
        <ele>48</ele>
        <time>2019-10-13T17:29:23Z</time>
      </trkpt>
      <trkpt lat="59.173273" lon="18.138387">
        <ele>48</ele>
        <time>2019-10-13T17:29:26Z</time>
      </trkpt>
      <trkpt lat="59.173295" lon="18.138403">
        <ele>48</ele>
        <time>2019-10-13T17:29:29Z</time>
      </trkpt>
      <trkpt lat="59.17332" lon="18.138416">
        <ele>48</ele>
        <time>2019-10-13T17:29:32Z</time>
      </trkpt>
      <trkpt lat="59.173341" lon="18.138421">
        <ele>48</ele>
        <time>2019-10-13T17:29:35Z</time>
      </trkpt>
      <trkpt lat="59.173363" lon="18.138429">
        <ele>48</ele>
        <time>2019-10-13T17:29:38Z</time>
      </trkpt>
      <trkpt lat="59.173382" lon="18.13844">
        <ele>48</ele>
        <time>2019-10-13T17:29:41Z</time>
      </trkpt>
      <trkpt lat="59.173399" lon="18.138453">
        <ele>49</ele>
        <time>2019-10-13T17:29:44Z</time>
      </trkpt>
      <trkpt lat="59.173419" lon="18.138471">
        <ele>49</ele>
        <time>2019-10-13T17:29:47Z</time>
      </trkpt>
      <trkpt lat="59.173436" lon="18.138487">
        <ele>49</ele>
        <time>2019-10-13T17:29:49Z</time>
      </trkpt>
      <trkpt lat="59.173458" lon="18.138501">
        <ele>49</ele>
        <time>2019-10-13T17:29:51Z</time>
      </trkpt>
      <trkpt lat="59.173481" lon="18.138525">
        <ele>49</ele>
        <time>2019-10-13T17:29:53Z</time>
      </trkpt>
      <trkpt lat="59.173499" lon="18.138539">
        <ele>49</ele>
        <time>2019-10-13T17:29:55Z</time>
      </trkpt>
      <trkpt lat="59.173519" lon="18.138554">
        <ele>49</ele>
        <time>2019-10-13T17:29:56Z</time>
      </trkpt>
      <trkpt lat="59.173541" lon="18.138573">
        <ele>49</ele>
        <time>2019-10-13T17:29:58Z</time>
      </trkpt>
      <trkpt lat="59.173572" lon="18.138599">
        <ele>49</ele>
        <time>2019-10-13T17:30:01Z</time>
      </trkpt>
      <trkpt lat="59.173589" lon="18.138615">
        <ele>49</ele>
        <time>2019-10-13T17:30:02Z</time>
      </trkpt>
      <trkpt lat="59.173605" lon="18.138633">
        <ele>48</ele>
        <time>2019-10-13T17:30:03Z</time>
      </trkpt>
      <trkpt lat="59.173621" lon="18.13865">
        <ele>49</ele>
        <time>2019-10-13T17:30:04Z</time>
      </trkpt>
      <trkpt lat="59.173638" lon="18.138664">
        <ele>49</ele>
        <time>2019-10-13T17:30:05Z</time>
      </trkpt>
      <trkpt lat="59.173655" lon="18.13868">
        <ele>49</ele>
        <time>2019-10-13T17:30:06Z</time>
      </trkpt>
      <trkpt lat="59.173669" lon="18.138702">
        <ele>49</ele>
        <time>2019-10-13T17:30:07Z</time>
      </trkpt>
      <trkpt lat="59.17368" lon="18.138734">
        <ele>49</ele>
        <time>2019-10-13T17:30:08Z</time>
      </trkpt>
      <trkpt lat="59.173689" lon="18.138778">
        <ele>49</ele>
        <time>2019-10-13T17:30:09Z</time>
      </trkpt>
      <trkpt lat="59.173693" lon="18.138824">
        <ele>49</ele>
        <time>2019-10-13T17:30:10Z</time>
      </trkpt>
      <trkpt lat="59.173691" lon="18.13887">
        <ele>50</ele>
        <time>2019-10-13T17:30:11Z</time>
      </trkpt>
      <trkpt lat="59.173688" lon="18.138916">
        <ele>50</ele>
        <time>2019-10-13T17:30:12Z</time>
      </trkpt>
      <trkpt lat="59.17369" lon="18.13896">
        <ele>50</ele>
        <time>2019-10-13T17:30:13Z</time>
      </trkpt>
      <trkpt lat="59.173689" lon="18.138998">
        <ele>50</ele>
        <time>2019-10-13T17:30:14Z</time>
      </trkpt>
      <trkpt lat="59.173678" lon="18.13905">
        <ele>50</ele>
        <time>2019-10-13T17:30:16Z</time>
      </trkpt>
      <trkpt lat="59.173651" lon="18.139092">
        <ele>50</ele>
        <time>2019-10-13T17:30:17Z</time>
      </trkpt>
      <trkpt lat="59.173619" lon="18.139126">
        <ele>50</ele>
        <time>2019-10-13T17:30:20Z</time>
      </trkpt>
      <trkpt lat="59.173602" lon="18.139144">
        <ele>50</ele>
        <time>2019-10-13T17:30:21Z</time>
      </trkpt>
      <trkpt lat="59.173585" lon="18.139166">
        <ele>0</ele>
        <time>2019-10-13T17:30:21Z</time>
      </trkpt>
      <trkpt lat="59.173566" lon="18.139195">
        <ele>50</ele>
        <time>2019-10-13T17:30:22Z</time>
      </trkpt>
      <trkpt lat="59.173547" lon="18.139224">
        <ele>50</ele>
        <time>2019-10-13T17:30:24Z</time>
      </trkpt>
      <trkpt lat="59.173529" lon="18.13925">
        <ele>50</ele>
        <time>2019-10-13T17:30:25Z</time>
      </trkpt>
      <trkpt lat="59.173519" lon="18.139283">
        <ele>50</ele>
        <time>2019-10-13T17:30:26Z</time>
      </trkpt>
      <trkpt lat="59.173513" lon="18.139338">
        <ele>50</ele>
        <time>2019-10-13T17:30:27Z</time>
      </trkpt>
      <trkpt lat="59.173502" lon="18.139422">
        <ele>50</ele>
        <time>2019-10-13T17:30:28Z</time>
      </trkpt>
      <trkpt lat="59.173494" lon="18.139502">
        <ele>51</ele>
        <time>2019-10-13T17:30:29Z</time>
      </trkpt>
      <trkpt lat="59.17348" lon="18.139577">
        <ele>51</ele>
        <time>2019-10-13T17:30:30Z</time>
      </trkpt>
      <trkpt lat="59.173466" lon="18.13963">
        <ele>51</ele>
        <time>2019-10-13T17:30:31Z</time>
      </trkpt>
      <trkpt lat="59.173459" lon="18.139666">
        <ele>51</ele>
        <time>2019-10-13T17:30:32Z</time>
      </trkpt>
      <trkpt lat="59.173458" lon="18.139722">
        <ele>51</ele>
        <time>2019-10-13T17:30:34Z</time>
      </trkpt>
      <trkpt lat="59.173482" lon="18.139748">
        <ele>0</ele>
        <time>2019-10-13T17:30:35Z</time>
      </trkpt>
      <trkpt lat="59.173503" lon="18.139753">
        <ele>51</ele>
        <time>2019-10-13T17:30:36Z</time>
      </trkpt>
      <trkpt lat="59.173554" lon="18.139766">
        <ele>51</ele>
        <time>2019-10-13T17:30:39Z</time>
      </trkpt>
      <trkpt lat="59.17358" lon="18.139772">
        <ele>51</ele>
        <time>2019-10-13T17:30:40Z</time>
      </trkpt>
      <trkpt lat="59.173607" lon="18.139777">
        <ele>0</ele>
        <time>2019-10-13T17:30:40Z</time>
      </trkpt>
      <trkpt lat="59.173635" lon="18.139786">
        <ele>51</ele>
        <time>2019-10-13T17:30:41Z</time>
      </trkpt>
      <trkpt lat="59.173664" lon="18.139794">
        <ele>50</ele>
        <time>2019-10-13T17:30:43Z</time>
      </trkpt>
      <trkpt lat="59.173694" lon="18.139796">
        <ele>50</ele>
        <time>2019-10-13T17:30:44Z</time>
      </trkpt>
      <trkpt lat="59.173725" lon="18.139798">
        <ele>50</ele>
        <time>2019-10-13T17:30:45Z</time>
      </trkpt>
      <trkpt lat="59.173755" lon="18.1398">
        <ele>50</ele>
        <time>2019-10-13T17:30:46Z</time>
      </trkpt>
      <trkpt lat="59.173786" lon="18.139806">
        <ele>50</ele>
        <time>2019-10-13T17:30:47Z</time>
      </trkpt>
      <trkpt lat="59.173815" lon="18.139815">
        <ele>49</ele>
        <time>2019-10-13T17:30:48Z</time>
      </trkpt>
      <trkpt lat="59.173846" lon="18.139825">
        <ele>49</ele>
        <time>2019-10-13T17:30:49Z</time>
      </trkpt>
      <trkpt lat="59.17388" lon="18.139836">
        <ele>49</ele>
        <time>2019-10-13T17:30:50Z</time>
      </trkpt>
      <trkpt lat="59.173916" lon="18.139846">
        <ele>49</ele>
        <time>2019-10-13T17:30:51Z</time>
      </trkpt>
      <trkpt lat="59.173951" lon="18.139858">
        <ele>49</ele>
        <time>2019-10-13T17:30:52Z</time>
      </trkpt>
      <trkpt lat="59.173988" lon="18.139872">
        <ele>49</ele>
        <time>2019-10-13T17:30:53Z</time>
      </trkpt>
      <trkpt lat="59.174025" lon="18.13989">
        <ele>49</ele>
        <time>2019-10-13T17:30:54Z</time>
      </trkpt>
      <trkpt lat="59.174063" lon="18.13991">
        <ele>0</ele>
        <time>2019-10-13T17:30:54Z</time>
      </trkpt>
      <trkpt lat="59.174102" lon="18.139928">
        <ele>49</ele>
        <time>2019-10-13T17:30:55Z</time>
      </trkpt>
      <trkpt lat="59.174143" lon="18.139946">
        <ele>49</ele>
        <time>2019-10-13T17:30:57Z</time>
      </trkpt>
      <trkpt lat="59.174182" lon="18.139966">
        <ele>49</ele>
        <time>2019-10-13T17:30:58Z</time>
      </trkpt>
      <trkpt lat="59.174221" lon="18.139986">
        <ele>49</ele>
        <time>2019-10-13T17:30:59Z</time>
      </trkpt>
      <trkpt lat="59.17426" lon="18.140008">
        <ele>48</ele>
        <time>2019-10-13T17:31:00Z</time>
      </trkpt>
      <trkpt lat="59.174298" lon="18.140028">
        <ele>48</ele>
        <time>2019-10-13T17:31:01Z</time>
      </trkpt>
      <trkpt lat="59.174333" lon="18.140044">
        <ele>48</ele>
        <time>2019-10-13T17:31:02Z</time>
      </trkpt>
      <trkpt lat="59.174366" lon="18.140064">
        <ele>48</ele>
        <time>2019-10-13T17:31:03Z</time>
      </trkpt>
      <trkpt lat="59.174398" lon="18.140084">
        <ele>48</ele>
        <time>2019-10-13T17:31:04Z</time>
      </trkpt>
      <trkpt lat="59.174431" lon="18.140102">
        <ele>48</ele>
        <time>2019-10-13T17:31:05Z</time>
      </trkpt>
      <trkpt lat="59.174463" lon="18.140114">
        <ele>48</ele>
        <time>2019-10-13T17:31:06Z</time>
      </trkpt>
      <trkpt lat="59.174494" lon="18.140123">
        <ele>48</ele>
        <time>2019-10-13T17:31:07Z</time>
      </trkpt>
      <trkpt lat="59.174525" lon="18.140128">
        <ele>48</ele>
        <time>2019-10-13T17:31:08Z</time>
      </trkpt>
      <trkpt lat="59.174555" lon="18.140136">
        <ele>48</ele>
        <time>2019-10-13T17:31:09Z</time>
      </trkpt>
      <trkpt lat="59.174583" lon="18.140154">
        <ele>48</ele>
        <time>2019-10-13T17:31:10Z</time>
      </trkpt>
      <trkpt lat="59.174612" lon="18.140174">
        <ele>0</ele>
        <time>2019-10-13T17:31:10Z</time>
      </trkpt>
      <trkpt lat="59.174641" lon="18.140198">
        <ele>47</ele>
        <time>2019-10-13T17:31:11Z</time>
      </trkpt>
      <trkpt lat="59.17467" lon="18.14022">
        <ele>47</ele>
        <time>2019-10-13T17:31:13Z</time>
      </trkpt>
      <trkpt lat="59.174696" lon="18.140242">
        <ele>0</ele>
        <time>2019-10-13T17:31:13Z</time>
      </trkpt>
      <trkpt lat="59.174716" lon="18.140261">
        <ele>47</ele>
        <time>2019-10-13T17:31:14Z</time>
      </trkpt>
      <trkpt lat="59.174745" lon="18.140294">
        <ele>46</ele>
        <time>2019-10-13T17:31:17Z</time>
      </trkpt>
      <trkpt lat="59.174771" lon="18.140318">
        <ele>46</ele>
        <time>2019-10-13T17:31:19Z</time>
      </trkpt>
      <trkpt lat="59.174801" lon="18.14034">
        <ele>46</ele>
        <time>2019-10-13T17:31:21Z</time>
      </trkpt>
      <trkpt lat="59.174818" lon="18.140358">
        <ele>46</ele>
        <time>2019-10-13T17:31:22Z</time>
      </trkpt>
      <trkpt lat="59.174837" lon="18.140376">
        <ele>46</ele>
        <time>2019-10-13T17:31:23Z</time>
      </trkpt>
      <trkpt lat="59.17486" lon="18.140394">
        <ele>46</ele>
        <time>2019-10-13T17:31:24Z</time>
      </trkpt>
      <trkpt lat="59.174883" lon="18.140412">
        <ele>46</ele>
        <time>2019-10-13T17:31:25Z</time>
      </trkpt>
      <trkpt lat="59.174906" lon="18.140434">
        <ele>46</ele>
        <time>2019-10-13T17:31:26Z</time>
      </trkpt>
      <trkpt lat="59.174929" lon="18.140458">
        <ele>46</ele>
        <time>2019-10-13T17:31:27Z</time>
      </trkpt>
      <trkpt lat="59.174952" lon="18.14048">
        <ele>0</ele>
        <time>2019-10-13T17:31:27Z</time>
      </trkpt>
      <trkpt lat="59.174977" lon="18.140506">
        <ele>46</ele>
        <time>2019-10-13T17:31:28Z</time>
      </trkpt>
      <trkpt lat="59.175002" lon="18.14053">
        <ele>46</ele>
        <time>2019-10-13T17:31:30Z</time>
      </trkpt>
      <trkpt lat="59.175028" lon="18.140558">
        <ele>46</ele>
        <time>2019-10-13T17:31:31Z</time>
      </trkpt>
      <trkpt lat="59.175054" lon="18.140586">
        <ele>0</ele>
        <time>2019-10-13T17:31:31Z</time>
      </trkpt>
      <trkpt lat="59.175082" lon="18.140612">
        <ele>46</ele>
        <time>2019-10-13T17:31:32Z</time>
      </trkpt>
      <trkpt lat="59.175109" lon="18.14064">
        <ele>45</ele>
        <time>2019-10-13T17:31:33Z</time>
      </trkpt>
      <trkpt lat="59.175135" lon="18.140668">
        <ele>45</ele>
        <time>2019-10-13T17:31:35Z</time>
      </trkpt>
      <trkpt lat="59.17516" lon="18.1407">
        <ele>45</ele>
        <time>2019-10-13T17:31:36Z</time>
      </trkpt>
      <trkpt lat="59.175187" lon="18.140728">
        <ele>45</ele>
        <time>2019-10-13T17:31:37Z</time>
      </trkpt>
      <trkpt lat="59.175213" lon="18.140758">
        <ele>45</ele>
        <time>2019-10-13T17:31:38Z</time>
      </trkpt>
      <trkpt lat="59.175241" lon="18.140788">
        <ele>45</ele>
        <time>2019-10-13T17:31:39Z</time>
      </trkpt>
      <trkpt lat="59.175268" lon="18.14082">
        <ele>45</ele>
        <time>2019-10-13T17:31:40Z</time>
      </trkpt>
      <trkpt lat="59.175293" lon="18.14085">
        <ele>45</ele>
        <time>2019-10-13T17:31:41Z</time>
      </trkpt>
      <trkpt lat="59.175315" lon="18.140873">
        <ele>45</ele>
        <time>2019-10-13T17:31:42Z</time>
      </trkpt>
      <trkpt lat="59.175335" lon="18.140902">
        <ele>45</ele>
        <time>2019-10-13T17:31:43Z</time>
      </trkpt>
      <trkpt lat="59.175354" lon="18.140938">
        <ele>45</ele>
        <time>2019-10-13T17:31:44Z</time>
      </trkpt>
      <trkpt lat="59.175375" lon="18.140976">
        <ele>45</ele>
        <time>2019-10-13T17:31:45Z</time>
      </trkpt>
      <trkpt lat="59.175399" lon="18.141012">
        <ele>45</ele>
        <time>2019-10-13T17:31:46Z</time>
      </trkpt>
      <trkpt lat="59.175424" lon="18.141046">
        <ele>45</ele>
        <time>2019-10-13T17:31:47Z</time>
      </trkpt>
      <trkpt lat="59.175449" lon="18.141082">
        <ele>0</ele>
        <time>2019-10-13T17:31:47Z</time>
      </trkpt>
      <trkpt lat="59.175476" lon="18.141118">
        <ele>45</ele>
        <time>2019-10-13T17:31:48Z</time>
      </trkpt>
      <trkpt lat="59.175501" lon="18.14115">
        <ele>45</ele>
        <time>2019-10-13T17:31:49Z</time>
      </trkpt>
      <trkpt lat="59.175523" lon="18.141174">
        <ele>44</ele>
        <time>2019-10-13T17:31:51Z</time>
      </trkpt>
      <trkpt lat="59.175542" lon="18.14119">
        <ele>0</ele>
        <time>2019-10-13T17:31:51Z</time>
      </trkpt>
      <trkpt lat="59.175569" lon="18.141204">
        <ele>44</ele>
        <time>2019-10-13T17:31:54Z</time>
      </trkpt>
      <trkpt lat="59.175596" lon="18.14121">
        <ele>44</ele>
        <time>2019-10-13T17:31:56Z</time>
      </trkpt>
      <trkpt lat="59.175608" lon="18.141246">
        <ele>44</ele>
        <time>2019-10-13T17:31:58Z</time>
      </trkpt>
      <trkpt lat="59.175606" lon="18.141256">
        <ele>44</ele>
        <time>2019-10-13T17:32:02Z</time>
      </trkpt>
      <trkpt lat="59.175584" lon="18.141332">
        <ele>44</ele>
        <time>2019-10-13T17:32:13Z</time>
      </trkpt>
      <trkpt lat="59.175574" lon="18.141362">
        <ele>44</ele>
        <time>2019-10-13T17:32:15Z</time>
      </trkpt>
      <trkpt lat="59.175562" lon="18.141394">
        <ele>44</ele>
        <time>2019-10-13T17:32:16Z</time>
      </trkpt>
      <trkpt lat="59.17555" lon="18.141426">
        <ele>43</ele>
        <time>2019-10-13T17:32:17Z</time>
      </trkpt>
      <trkpt lat="59.175538" lon="18.141458">
        <ele>43</ele>
        <time>2019-10-13T17:32:18Z</time>
      </trkpt>
      <trkpt lat="59.175526" lon="18.14149">
        <ele>43</ele>
        <time>2019-10-13T17:32:19Z</time>
      </trkpt>
      <trkpt lat="59.175512" lon="18.14152">
        <ele>43</ele>
        <time>2019-10-13T17:32:20Z</time>
      </trkpt>
      <trkpt lat="59.175502" lon="18.141551">
        <ele>43</ele>
        <time>2019-10-13T17:32:21Z</time>
      </trkpt>
      <trkpt lat="59.175497" lon="18.141591">
        <ele>43</ele>
        <time>2019-10-13T17:32:22Z</time>
      </trkpt>
      <trkpt lat="59.175498" lon="18.141634">
        <ele>43</ele>
        <time>2019-10-13T17:32:23Z</time>
      </trkpt>
      <trkpt lat="59.175504" lon="18.141676">
        <ele>43</ele>
        <time>2019-10-13T17:32:24Z</time>
      </trkpt>
      <trkpt lat="59.175512" lon="18.141723">
        <ele>43</ele>
        <time>2019-10-13T17:32:25Z</time>
      </trkpt>
      <trkpt lat="59.175518" lon="18.14177">
        <ele>43</ele>
        <time>2019-10-13T17:32:26Z</time>
      </trkpt>
      <trkpt lat="59.175524" lon="18.141823">
        <ele>43</ele>
        <time>2019-10-13T17:32:27Z</time>
      </trkpt>
      <trkpt lat="59.175526" lon="18.14188">
        <ele>43</ele>
        <time>2019-10-13T17:32:28Z</time>
      </trkpt>
      <trkpt lat="59.175526" lon="18.141934">
        <ele>43</ele>
        <time>2019-10-13T17:32:29Z</time>
      </trkpt>
      <trkpt lat="59.175524" lon="18.141988">
        <ele>0</ele>
        <time>2019-10-13T17:32:29Z</time>
      </trkpt>
      <trkpt lat="59.17552" lon="18.142042">
        <ele>43</ele>
        <time>2019-10-13T17:32:30Z</time>
      </trkpt>
      <trkpt lat="59.175515" lon="18.142096">
        <ele>0</ele>
        <time>2019-10-13T17:32:31Z</time>
      </trkpt>
      <trkpt lat="59.175506" lon="18.142148">
        <ele>43</ele>
        <time>2019-10-13T17:32:32Z</time>
      </trkpt>
      <trkpt lat="59.175496" lon="18.142198">
        <ele>43</ele>
        <time>2019-10-13T17:32:34Z</time>
      </trkpt>
      <trkpt lat="59.175485" lon="18.142244">
        <ele>43</ele>
        <time>2019-10-13T17:32:35Z</time>
      </trkpt>
      <trkpt lat="59.175474" lon="18.142288">
        <ele>43</ele>
        <time>2019-10-13T17:32:36Z</time>
      </trkpt>
      <trkpt lat="59.175462" lon="18.14233">
        <ele>43</ele>
        <time>2019-10-13T17:32:37Z</time>
      </trkpt>
      <trkpt lat="59.175447" lon="18.142371">
        <ele>43</ele>
        <time>2019-10-13T17:32:38Z</time>
      </trkpt>
      <trkpt lat="59.17543" lon="18.142408">
        <ele>43</ele>
        <time>2019-10-13T17:32:39Z</time>
      </trkpt>
      <trkpt lat="59.175414" lon="18.142445">
        <ele>43</ele>
        <time>2019-10-13T17:32:40Z</time>
      </trkpt>
      <trkpt lat="59.175397" lon="18.142482">
        <ele>43</ele>
        <time>2019-10-13T17:32:41Z</time>
      </trkpt>
      <trkpt lat="59.17538" lon="18.142518">
        <ele>43</ele>
        <time>2019-10-13T17:32:42Z</time>
      </trkpt>
      <trkpt lat="59.175363" lon="18.142554">
        <ele>43</ele>
        <time>2019-10-13T17:32:43Z</time>
      </trkpt>
      <trkpt lat="59.175347" lon="18.14259">
        <ele>43</ele>
        <time>2019-10-13T17:32:44Z</time>
      </trkpt>
      <trkpt lat="59.17533" lon="18.142628">
        <ele>43</ele>
        <time>2019-10-13T17:32:45Z</time>
      </trkpt>
      <trkpt lat="59.175312" lon="18.142666">
        <ele>43</ele>
        <time>2019-10-13T17:32:46Z</time>
      </trkpt>
      <trkpt lat="59.175293" lon="18.142706">
        <ele>43</ele>
        <time>2019-10-13T17:32:47Z</time>
      </trkpt>
      <trkpt lat="59.175273" lon="18.142743">
        <ele>43</ele>
        <time>2019-10-13T17:32:48Z</time>
      </trkpt>
      <trkpt lat="59.175253" lon="18.14278">
        <ele>0</ele>
        <time>2019-10-13T17:32:48Z</time>
      </trkpt>
      <trkpt lat="59.175234" lon="18.142814">
        <ele>43</ele>
        <time>2019-10-13T17:32:49Z</time>
      </trkpt>
      <trkpt lat="59.175216" lon="18.142846">
        <ele>0</ele>
        <time>2019-10-13T17:32:50Z</time>
      </trkpt>
      <trkpt lat="59.175197" lon="18.142882">
        <ele>43</ele>
        <time>2019-10-13T17:32:51Z</time>
      </trkpt>
      <trkpt lat="59.175178" lon="18.142922">
        <ele>43</ele>
        <time>2019-10-13T17:32:53Z</time>
      </trkpt>
      <trkpt lat="59.175156" lon="18.142962">
        <ele>43</ele>
        <time>2019-10-13T17:32:54Z</time>
      </trkpt>
      <trkpt lat="59.175133" lon="18.143004">
        <ele>43</ele>
        <time>2019-10-13T17:32:55Z</time>
      </trkpt>
      <trkpt lat="59.175112" lon="18.14305">
        <ele>43</ele>
        <time>2019-10-13T17:32:56Z</time>
      </trkpt>
      <trkpt lat="59.175092" lon="18.143093">
        <ele>43</ele>
        <time>2019-10-13T17:32:57Z</time>
      </trkpt>
      <trkpt lat="59.17507" lon="18.143132">
        <ele>43</ele>
        <time>2019-10-13T17:32:58Z</time>
      </trkpt>
      <trkpt lat="59.17505" lon="18.143168">
        <ele>43</ele>
        <time>2019-10-13T17:32:59Z</time>
      </trkpt>
      <trkpt lat="59.17503" lon="18.143201">
        <ele>43</ele>
        <time>2019-10-13T17:33:00Z</time>
      </trkpt>
      <trkpt lat="59.175012" lon="18.143234">
        <ele>43</ele>
        <time>2019-10-13T17:33:01Z</time>
      </trkpt>
      <trkpt lat="59.174992" lon="18.143267">
        <ele>43</ele>
        <time>2019-10-13T17:33:02Z</time>
      </trkpt>
      <trkpt lat="59.174973" lon="18.143295">
        <ele>43</ele>
        <time>2019-10-13T17:33:03Z</time>
      </trkpt>
      <trkpt lat="59.174954" lon="18.143314">
        <ele>43</ele>
        <time>2019-10-13T17:33:04Z</time>
      </trkpt>
      <trkpt lat="59.174937" lon="18.14333">
        <ele>43</ele>
        <time>2019-10-13T17:33:05Z</time>
      </trkpt>
      <trkpt lat="59.174919" lon="18.143347">
        <ele>43</ele>
        <time>2019-10-13T17:33:06Z</time>
      </trkpt>
      <trkpt lat="59.174902" lon="18.143368">
        <ele>43</ele>
        <time>2019-10-13T17:33:07Z</time>
      </trkpt>
      <trkpt lat="59.174886" lon="18.143394">
        <ele>43</ele>
        <time>2019-10-13T17:33:08Z</time>
      </trkpt>
      <trkpt lat="59.174869" lon="18.143416">
        <ele>0</ele>
        <time>2019-10-13T17:33:08Z</time>
      </trkpt>
      <trkpt lat="59.17485" lon="18.143429">
        <ele>43</ele>
        <time>2019-10-13T17:33:09Z</time>
      </trkpt>
      <trkpt lat="59.17483" lon="18.143435">
        <ele>43</ele>
        <time>2019-10-13T17:33:10Z</time>
      </trkpt>
      <trkpt lat="59.17481" lon="18.143433">
        <ele>43</ele>
        <time>2019-10-13T17:33:12Z</time>
      </trkpt>
      <trkpt lat="59.174789" lon="18.143424">
        <ele>43</ele>
        <time>2019-10-13T17:33:13Z</time>
      </trkpt>
      <trkpt lat="59.174771" lon="18.143409">
        <ele>43</ele>
        <time>2019-10-13T17:33:14Z</time>
      </trkpt>
      <trkpt lat="59.174755" lon="18.14339">
        <ele>43</ele>
        <time>2019-10-13T17:33:15Z</time>
      </trkpt>
      <trkpt lat="59.174737" lon="18.14337">
        <ele>43</ele>
        <time>2019-10-13T17:33:16Z</time>
      </trkpt>
      <trkpt lat="59.174719" lon="18.14335">
        <ele>43</ele>
        <time>2019-10-13T17:33:17Z</time>
      </trkpt>
      <trkpt lat="59.174703" lon="18.14333">
        <ele>43</ele>
        <time>2019-10-13T17:33:18Z</time>
      </trkpt>
      <trkpt lat="59.174687" lon="18.143313">
        <ele>43</ele>
        <time>2019-10-13T17:33:19Z</time>
      </trkpt>
      <trkpt lat="59.174669" lon="18.143298">
        <ele>43</ele>
        <time>2019-10-13T17:33:20Z</time>
      </trkpt>
      <trkpt lat="59.17465" lon="18.143284">
        <ele>43</ele>
        <time>2019-10-13T17:33:21Z</time>
      </trkpt>
      <trkpt lat="59.174631" lon="18.143271">
        <ele>43</ele>
        <time>2019-10-13T17:33:22Z</time>
      </trkpt>
      <trkpt lat="59.174612" lon="18.143257">
        <ele>43</ele>
        <time>2019-10-13T17:33:23Z</time>
      </trkpt>
      <trkpt lat="59.174593" lon="18.143246">
        <ele>43</ele>
        <time>2019-10-13T17:33:24Z</time>
      </trkpt>
      <trkpt lat="59.174574" lon="18.143237">
        <ele>43</ele>
        <time>2019-10-13T17:33:25Z</time>
      </trkpt>
      <trkpt lat="59.174554" lon="18.143227">
        <ele>43</ele>
        <time>2019-10-13T17:33:26Z</time>
      </trkpt>
      <trkpt lat="59.174534" lon="18.143219">
        <ele>43</ele>
        <time>2019-10-13T17:33:27Z</time>
      </trkpt>
      <trkpt lat="59.174514" lon="18.143213">
        <ele>43</ele>
        <time>2019-10-13T17:33:28Z</time>
      </trkpt>
      <trkpt lat="59.174493" lon="18.143207">
        <ele>0</ele>
        <time>2019-10-13T17:33:28Z</time>
      </trkpt>
      <trkpt lat="59.174472" lon="18.143198">
        <ele>43</ele>
        <time>2019-10-13T17:33:29Z</time>
      </trkpt>
      <trkpt lat="59.174451" lon="18.143189">
        <ele>43</ele>
        <time>2019-10-13T17:33:31Z</time>
      </trkpt>
      <trkpt lat="59.17443" lon="18.143181">
        <ele>43</ele>
        <time>2019-10-13T17:33:32Z</time>
      </trkpt>
      <trkpt lat="59.174407" lon="18.143173">
        <ele>0</ele>
        <time>2019-10-13T17:33:32Z</time>
      </trkpt>
      <trkpt lat="59.174384" lon="18.143163">
        <ele>43</ele>
        <time>2019-10-13T17:33:33Z</time>
      </trkpt>
      <trkpt lat="59.17436" lon="18.143151">
        <ele>44</ele>
        <time>2019-10-13T17:33:35Z</time>
      </trkpt>
      <trkpt lat="59.174338" lon="18.143142">
        <ele>44</ele>
        <time>2019-10-13T17:33:36Z</time>
      </trkpt>
      <trkpt lat="59.174316" lon="18.143135">
        <ele>44</ele>
        <time>2019-10-13T17:33:37Z</time>
      </trkpt>
      <trkpt lat="59.174293" lon="18.143127">
        <ele>44</ele>
        <time>2019-10-13T17:33:38Z</time>
      </trkpt>
      <trkpt lat="59.174271" lon="18.143119">
        <ele>44</ele>
        <time>2019-10-13T17:33:39Z</time>
      </trkpt>
      <trkpt lat="59.17425" lon="18.143114">
        <ele>44</ele>
        <time>2019-10-13T17:33:40Z</time>
      </trkpt>
      <trkpt lat="59.174228" lon="18.143105">
        <ele>44</ele>
        <time>2019-10-13T17:33:41Z</time>
      </trkpt>
      <trkpt lat="59.174205" lon="18.143097">
        <ele>44</ele>
        <time>2019-10-13T17:33:42Z</time>
      </trkpt>
      <trkpt lat="59.174183" lon="18.143089">
        <ele>44</ele>
        <time>2019-10-13T17:33:43Z</time>
      </trkpt>
      <trkpt lat="59.174162" lon="18.143082">
        <ele>44</ele>
        <time>2019-10-13T17:33:44Z</time>
      </trkpt>
      <trkpt lat="59.174141" lon="18.143075">
        <ele>44</ele>
        <time>2019-10-13T17:33:45Z</time>
      </trkpt>
      <trkpt lat="59.174119" lon="18.143068">
        <ele>44</ele>
        <time>2019-10-13T17:33:46Z</time>
      </trkpt>
      <trkpt lat="59.174096" lon="18.143062">
        <ele>44</ele>
        <time>2019-10-13T17:33:47Z</time>
      </trkpt>
      <trkpt lat="59.174076" lon="18.143054">
        <ele>0</ele>
        <time>2019-10-13T17:33:47Z</time>
      </trkpt>
      <trkpt lat="59.174055" lon="18.143047">
        <ele>45</ele>
        <time>2019-10-13T17:33:48Z</time>
      </trkpt>
      <trkpt lat="59.174037" lon="18.143041">
        <ele>45</ele>
        <time>2019-10-13T17:33:50Z</time>
      </trkpt>
      <trkpt lat="59.174002" lon="18.143028">
        <ele>45</ele>
        <time>2019-10-13T17:33:52Z</time>
      </trkpt>
      <trkpt lat="59.17397" lon="18.143013">
        <ele>45</ele>
        <time>2019-10-13T17:33:54Z</time>
      </trkpt>
      <trkpt lat="59.173944" lon="18.143005">
        <ele>45</ele>
        <time>2019-10-13T17:33:56Z</time>
      </trkpt>
      <trkpt lat="59.173924" lon="18.143011">
        <ele>45</ele>
        <time>2019-10-13T17:33:58Z</time>
      </trkpt>
      <trkpt lat="59.173914" lon="18.143047">
        <ele>45</ele>
        <time>2019-10-13T17:34:00Z</time>
      </trkpt>
      <trkpt lat="59.173905" lon="18.143097">
        <ele>45</ele>
        <time>2019-10-13T17:34:01Z</time>
      </trkpt>
      <trkpt lat="59.173897" lon="18.143157">
        <ele>45</ele>
        <time>2019-10-13T17:34:04Z</time>
      </trkpt>
      <trkpt lat="59.173893" lon="18.143193">
        <ele>45</ele>
        <time>2019-10-13T17:34:05Z</time>
      </trkpt>
      <trkpt lat="59.17389" lon="18.143229">
        <ele>45</ele>
        <time>2019-10-13T17:34:06Z</time>
      </trkpt>
      <trkpt lat="59.173884" lon="18.143294">
        <ele>46</ele>
        <time>2019-10-13T17:34:07Z</time>
      </trkpt>
      <trkpt lat="59.173878" lon="18.143329">
        <ele>46</ele>
        <time>2019-10-13T17:34:09Z</time>
      </trkpt>
      <trkpt lat="59.173865" lon="18.1434">
        <ele>46</ele>
        <time>2019-10-13T17:34:11Z</time>
      </trkpt>
      <trkpt lat="59.173856" lon="18.143438">
        <ele>46</ele>
        <time>2019-10-13T17:34:12Z</time>
      </trkpt>
      <trkpt lat="59.173844" lon="18.14347">
        <ele>46</ele>
        <time>2019-10-13T17:34:13Z</time>
      </trkpt>
      <trkpt lat="59.17383" lon="18.143498">
        <ele>46</ele>
        <time>2019-10-13T17:34:14Z</time>
      </trkpt>
      <trkpt lat="59.173811" lon="18.14352">
        <ele>46</ele>
        <time>2019-10-13T17:34:15Z</time>
      </trkpt>
      <trkpt lat="59.173793" lon="18.143534">
        <ele>47</ele>
        <time>2019-10-13T17:34:16Z</time>
      </trkpt>
      <trkpt lat="59.173772" lon="18.143542">
        <ele>47</ele>
        <time>2019-10-13T17:34:17Z</time>
      </trkpt>
      <trkpt lat="59.17375" lon="18.143549">
        <ele>47</ele>
        <time>2019-10-13T17:34:18Z</time>
      </trkpt>
      <trkpt lat="59.173723" lon="18.14357">
        <ele>47</ele>
        <time>2019-10-13T17:34:19Z</time>
      </trkpt>
      <trkpt lat="59.173689" lon="18.143599">
        <ele>47</ele>
        <time>2019-10-13T17:34:20Z</time>
      </trkpt>
      <trkpt lat="59.173663" lon="18.143605">
        <ele>47</ele>
        <time>2019-10-13T17:34:21Z</time>
      </trkpt>
      <trkpt lat="59.17364" lon="18.143601">
        <ele>47</ele>
        <time>2019-10-13T17:34:22Z</time>
      </trkpt>
      <trkpt lat="59.173621" lon="18.143594">
        <ele>47</ele>
        <time>2019-10-13T17:34:23Z</time>
      </trkpt>
      <trkpt lat="59.173601" lon="18.143593">
        <ele>0</ele>
        <time>2019-10-13T17:34:23Z</time>
      </trkpt>
      <trkpt lat="59.173581" lon="18.143591">
        <ele>47</ele>
        <time>2019-10-13T17:34:24Z</time>
      </trkpt>
      <trkpt lat="59.173558" lon="18.143587">
        <ele>0</ele>
        <time>2019-10-13T17:34:25Z</time>
      </trkpt>
      <trkpt lat="59.17353" lon="18.143589">
        <ele>48</ele>
        <time>2019-10-13T17:34:26Z</time>
      </trkpt>
      <trkpt lat="59.173482" lon="18.143587">
        <ele>48</ele>
        <time>2019-10-13T17:34:29Z</time>
      </trkpt>
      <trkpt lat="59.17345" lon="18.143576">
        <ele>48</ele>
        <time>2019-10-13T17:34:31Z</time>
      </trkpt>
      <trkpt lat="59.173427" lon="18.143552">
        <ele>48</ele>
        <time>2019-10-13T17:34:33Z</time>
      </trkpt>
      <trkpt lat="59.173397" lon="18.143522">
        <ele>49</ele>
        <time>2019-10-13T17:34:35Z</time>
      </trkpt>
      <trkpt lat="59.173375" lon="18.143511">
        <ele>50</ele>
        <time>2019-10-13T17:34:36Z</time>
      </trkpt>
      <trkpt lat="59.173343" lon="18.143515">
        <ele>50</ele>
        <time>2019-10-13T17:34:37Z</time>
      </trkpt>
      <trkpt lat="59.17332" lon="18.14348">
        <ele>50</ele>
        <time>2019-10-13T17:34:39Z</time>
      </trkpt>
      <trkpt lat="59.173303" lon="18.143489">
        <ele>0</ele>
        <time>2019-10-13T17:34:44Z</time>
      </trkpt>
      <trkpt lat="59.17329" lon="18.143508">
        <ele>51</ele>
        <time>2019-10-13T17:34:47Z</time>
      </trkpt>
      <trkpt lat="59.173293" lon="18.14352">
        <ele>49</ele>
        <time>2019-10-13T17:34:51Z</time>
      </trkpt>
      <trkpt lat="59.173308" lon="18.143533">
        <ele>0</ele>
        <time>2019-10-13T17:34:54Z</time>
      </trkpt>
      <trkpt lat="59.173369" lon="18.143525">
        <ele>48</ele>
        <time>2019-10-13T17:35:05Z</time>
      </trkpt>
      <trkpt lat="59.173398" lon="18.143516">
        <ele>48</ele>
        <time>2019-10-13T17:35:09Z</time>
      </trkpt>
      <trkpt lat="59.173417" lon="18.143527">
        <ele>48</ele>
        <time>2019-10-13T17:35:11Z</time>
      </trkpt>
      <trkpt lat="59.173435" lon="18.143554">
        <ele>49</ele>
        <time>2019-10-13T17:35:16Z</time>
      </trkpt>
      <trkpt lat="59.17345" lon="18.143582">
        <ele>49</ele>
        <time>2019-10-13T17:35:18Z</time>
      </trkpt>
      <trkpt lat="59.173464" lon="18.143402">
        <ele>50</ele>
        <time>2019-10-13T17:35:37Z</time>
      </trkpt>
      <trkpt lat="59.173447" lon="18.14334">
        <ele>52</ele>
        <time>2019-10-13T17:36:12Z</time>
      </trkpt>
    </trkseg>
  </trk>
</gpx>